<
# Wetter Temperatur Luftdruck Luftfeuchtigkeit Sichtweite Windgeschwindigkeit Windrichtung Zeit
1 Clear 31 1008 18 10000 1.62 186 08:27 02.10.2022
2 Clear 33 1007 15 10000 2.17 178 05:18 02.10.2022
3 Clear 37 1005 16 10000 2.67 156 00:57 02.10.2022
4 Clear 37 1005 16 10000 2.67 156 00:37 02.10.2022
5 Clear 36 1007 16 10000 1.55 152 23:24 01.10.2022
6 Clear 35 1008 16 10000 1.12 142 21:38 01.10.2022
7 Clear 33 1009 17 10000 0.53 69 18:54 01.10.2022
8 Clear 30 1009 19 10000 0.61 355 17:28 01.10.2022
9 Clear 28 1007 22 10000 0.36 292 14:50 01.10.2022
10 Clear 28 1007 20 10000 0.09 198 13:44 01.10.2022
11 Clear 29 1007 19 10000 0.49 136 12:34 01.10.2022
12 Clear 30 1007 18 10000 0.91 160 11:22 01.10.2022
13 Clear 30 1007 18 10000 0.91 160 10:51 01.10.2022
14 Clear 31 1006 17 10000 0.95 175 10:29 01.10.2022
15 Clear 31 1006 17 10000 1.07 186 09:21 01.10.2022
16 Clear 32 1006 16 10000 1.33 190 08:26 01.10.2022
17 Clear 35 1005 12 10000 1.75 164 03:42 01.10.2022
18 Clear 37 1005 10 10000 1.75 167 03:18 01.10.2022
19 Clear 37 1006 11 10000 2.19 166 23:21 30.09.2022
20 Clear 37 1008 13 10000 2.24 166 22:18 30.09.2022
21 Clear 35 1009 16 10000 1.75 162 20:57 30.09.2022
22 Clear 34 1010 16 10000 1.01 153 20:20 30.09.2022
23 Clear 33 1010 17 10000 0.89 161 18:32 30.09.2022
24 Clear 31 1011 19 10000 0.51 163 16:54 30.09.2022
25 Clear 28 1010 21 10000 1.65 163 14:49 30.09.2022
26 Clear 30 1009 19 10000 1.41 180 12:51 30.09.2022
27 Clear 31 1009 18 10000 2.09 181 11:56 30.09.2022
28 Clear 33 1009 16 10000 2.81 179 09:25 30.09.2022
29 Clear 33 1009 15 10000 3.04 179 07:58 30.09.2022
30 Clear 37 1008 12 10000 3.91 177 03:35 30.09.2022
31 Clouds 40 1008 10 10000 4.26 192 02:21 30.09.2022
32 Clouds 39 1011 11 10000 5.47 183 21:53 29.09.2022
33 Clouds 39 1012 13 10000 4.63 174 21:24 29.09.2022
34 Clouds 37 1013 15 10000 3.51 169 19:58 29.09.2022
35 Clouds 36 1013 17 10000 3.46 174 18:30 29.09.2022
36 Clouds 36 1013 17 10000 3.46 174 18:30 29.09.2022
37 Clouds 31 1013 27 10000 1.95 166 16:29 29.09.2022
38 Clouds 31 1013 27 10000 1.95 166 15:37 29.09.2022
39 Clear 31 1013 27 10000 1.82 172 14:59 29.09.2022
40 Clear 32 1012 24 10000 2.58 178 12:54 29.09.2022
41 Clear 34 1012 20 10000 2.58 171 08:51 29.09.2022
42 Clear 36 1012 18 10000 3.34 165 05:35 29.09.2022
43 Clouds 40 1010 14 10000 4.22 176 02:37 29.09.2022
44 Clouds 41 1011 14 10000 4.6 164 23:29 28.09.2022
45 Clear 40 1012 17 10000 5.69 159 22:23 28.09.2022
46 Clear 40 1013 19 10000 4.87 159 21:28 28.09.2022
47 Clear 39 1014 22 10000 3.27 157 19:58 28.09.2022
48 Clear 34 1014 26 10000 1.55 173 17:19 28.09.2022
49 Clear 32 1013 30 10000 1.65 158 14:45 28.09.2022
50 Clear 33 1012 27 10000 1.98 173 12:31 28.09.2022
51 Clear 34 1012 24 10000 2.69 173 10:24 28.09.2022
52 Clouds 35 1012 21 10000 2.25 173 08:25 28.09.2022
53 Clouds 36 1012 19 10000 2.51 169 06:42 28.09.2022
54 Clear 40 1009 13 10000 3.89 153 01:50 28.09.2022
55 Clear 40 1009 13 10000 3.52 161 01:27 28.09.2022
56 Clear 40 1011 12 10000 2.36 155 22:50 27.09.2022
57 Clear 39 1013 11 10000 1.22 140 21:24 27.09.2022
58 Clear 39 1013 11 10000 1.22 140 20:37 27.09.2022
59 Clouds 38 1013 11 10000 0.54 152 19:47 27.09.2022
60 Clouds 36 1013 10 10000 0.98 157 18:25 27.09.2022
61 Clouds 36 1013 10 10000 0.98 157 17:42 27.09.2022
62 Clear 30 1012 14 10000 0.99 153 15:27 27.09.2022
63 Clouds 30 1012 13 10000 0.46 147 14:41 27.09.2022
64 Clouds 31 1011 12 10000 0.9 168 12:40 27.09.2022
65 Clouds 31 1011 12 10000 0.9 168 12:40 27.09.2022
66 Clouds 32 1011 11 10000 0.49 210 10:53 27.09.2022
67 Clouds 33 1011 10 10000 1.1 158 08:46 27.09.2022
68 Clear 35 1012 10 10000 1.14 194 06:27 27.09.2022
69 Clear 40 1011 7 10000 0.42 50 01:45 27.09.2022
70 Clear 40 1011 7 10000 0.54 47 01:27 27.09.2022
71 Clear 40 1012 8 10000 0.87 29 23:25 26.09.2022
72 Clear 39 1013 8 10000 1.3 20 22:24 26.09.2022
73 Clear 38 1014 9 10000 1.67 19 20:29 26.09.2022
74 Clear 38 1014 9 10000 1.67 19 19:30 26.09.2022
75 Clear 37 1014 9 10000 1.77 21 18:31 26.09.2022
76 Clear 30 1014 14 10000 1.16 13 15:55 26.09.2022
77 Clear 31 1013 13 10000 1.27 8 13:30 26.09.2022
78 Clear 33 1013 12 10000 1.16 347 11:29 26.09.2022
79 Clear 33 1013 12 10000 1.16 347 10:38 26.09.2022
80 Clear 33 1013 12 10000 1.29 350 10:19 26.09.2022
81 Clear 33 1013 12 10000 1.29 350 09:53 26.09.2022
82 Clear 34 1013 12 10000 1.23 358 09:23 26.09.2022
83 Clear 34 1014 12 10000 1.45 24 07:30 26.09.2022
84 Clear 39 1012 10 10000 1.72 40 02:48 26.09.2022
85 Clear 40 1013 10 10000 2.4 33 23:46 25.09.2022
86 Clear 39 1015 11 10000 2.24 32 21:54 25.09.2022
87 Clear 39 1015 11 10000 2.24 32 21:34 25.09.2022
88 Clear 38 1015 11 10000 2.42 28 20:45 25.09.2022
89 Clear 38 1016 14 10000 2.37 21 19:43 25.09.2022
90 Clear 37 1016 17 10000 2.19 17 18:40 25.09.2022
91 Clear 36 1016 19 10000 1.81 16 18:20 25.09.2022
92 Clear 34 1016 22 10000 1.28 6 16:35 25.09.2022
93 Clear 31 1015 27 10000 1.26 352 15:44 25.09.2022
94 Clear 32 1014 25 10000 1.39 347 14:22 25.09.2022
95 Clear 32 1014 25 10000 1.17 342 12:51 25.09.2022
96 Clear 33 1014 25 10000 0.47 299 10:29 25.09.2022
97 Clear 33 1014 22 10000 0.22 251 08:24 25.09.2022
98 Clear 35 1014 21 10000 0.37 257 05:38 25.09.2022
99 Clear 39 1013 15 10000 0.71 124 01:32 25.09.2022
100 Clear 39 1014 12 10000 0.72 100 22:35 24.09.2022
101 Clear 37 1016 10 10000 1.19 31 20:55 24.09.2022
102 Clear 36 1016 11 10000 2.18 5 19:22 24.09.2022
103 Clear 33 1016 13 10000 1.32 351 17:19 24.09.2022
104 Clear 29 1015 16 10000 1.08 342 16:24 24.09.2022
105 Clear 29 1015 16 10000 1.2 341 15:20 24.09.2022
106 Clear 30 1014 15 10000 1 344 13:25 24.09.2022
107 Clear 30 1014 15 10000 1 344 12:49 24.09.2022
108 Clear 30 1014 14 10000 0.67 344 10:38 24.09.2022
109 Clear 31 1013 13 10000 0.91 341 09:40 24.09.2022
110 Clear 31 1013 13 10000 0.94 348 08:43 24.09.2022
111 Clear 31 1013 13 10000 0.94 348 08:43 24.09.2022
112 Clear 31 1013 12 10000 0.66 5 07:24 24.09.2022
113 Clear 32 1013 11 10000 0.92 330 04:40 24.09.2022
114 Clouds 36 1011 8 10000 0.69 145 02:19 24.09.2022
115 Clear 35 1013 10 10000 0.69 58 22:28 23.09.2022
116 Clear 34 1014 11 10000 1.17 24 21:28 23.09.2022
117 Clear 34 1014 11 10000 1.17 24 20:56 23.09.2022
118 Clear 34 1015 10 10000 1.77 9 20:20 23.09.2022
119 Clear 31 1015 12 10000 1.66 8 18:27 23.09.2022
120 Clear 27 1013 17 10000 1.28 346 13:45 23.09.2022
121 Clear 27 1013 17 10000 0.51 352 10:45 23.09.2022
122 Clear 28 1013 16 10000 0.05 205 09:29 23.09.2022
123 Clear 30 1012 15 10000 0.68 299 04:59 23.09.2022
124 Clear 34 1011 12 10000 0.64 98 00:31 23.09.2022
125 Clear 33 1012 13 10000 0.74 83 23:21 22.09.2022
126 Clear 32 1013 15 10000 0.74 59 22:26 22.09.2022
127 Clear 31 1014 17 10000 0.8 38 20:46 22.09.2022
128 Clear 29 1015 22 10000 1.06 32 19:27 22.09.2022
129 Clear 27 1015 23 10000 0.27 46 16:57 22.09.2022
130 Clear 26 1011 25 10000 0.72 214 12:20 22.09.2022
131 Clear 27 1011 24 10000 1.26 198 10:32 22.09.2022
132 Clear 28 1010 22 10000 2.41 186 08:52 22.09.2022
133 Clear 29 1009 18 10000 3.26 179 06:45 22.09.2022
134 Clear 33 1007 12 10000 5.48 189 02:52 22.09.2022
135 Clear 33 1008 11 10000 6.63 179 23:25 21.09.2022
136 Clear 33 1009 12 10000 6.38 177 21:50 21.09.2022
137 Clear 31 1010 16 10000 4.37 170 20:18 21.09.2022
138 Clear 28 1011 28 10000 3.68 176 17:49 21.09.2022
139 Clear 27 1011 32 10000 3.39 183 16:51 21.09.2022
140 Clear 25 1010 38 10000 2.93 195 14:37 21.09.2022
141 Clear 26 1009 35 10000 3.28 197 12:54 21.09.2022
142 Clear 27 1009 34 10000 3.41 183 11:29 21.09.2022
143 Clear 27 1009 34 10000 3.22 181 10:29 21.09.2022
144 Clear 28 1009 34 10000 3.16 183 09:21 21.09.2022
145 Clear 28 1009 37 10000 3.05 193 07:41 21.09.2022
146 Clear 34 1007 15 10000 4.77 198 02:48 21.09.2022
147 Clear 34 1007 14 10000 6.15 187 02:28 21.09.2022
148 Clear 34 1007 15 10000 5.63 196 00:44 21.09.2022
149 Clear 34 1008 15 10000 6.43 179 23:18 20.09.2022
150 Clear 33 1010 16 10000 5.52 166 20:52 20.09.2022
151 Clear 32 1010 20 10000 4.68 168 19:37 20.09.2022
152 Clear 27 1010 24 10000 2.89 173 16:41 20.09.2022
153 Clear 25 1009 27 10000 2.33 183 14:51 20.09.2022
154 Clear 26 1009 25 10000 2.57 192 13:48 20.09.2022
155 Clear 27 1008 27 10000 2.92 191 10:33 20.09.2022
156 Clear 30 1007 21 10000 2.45 198 08:28 20.09.2022
157 Clear 31 1007 18 10000 2.14 182 06:22 20.09.2022
158 Clear 32 1006 15 10000 3.03 193 04:28 20.09.2022
159 Clear 34 1006 13 10000 5.52 178 23:49 19.09.2022
160 Clear 33 1008 14 10000 5.48 165 22:28 19.09.2022
161 Clear 33 1008 15 10000 4.92 165 20:59 19.09.2022
162 Clear 33 1008 15 10000 4.92 165 20:39 19.09.2022
163 Clear 30 1009 20 10000 4.37 167 18:41 19.09.2022
164 Clear 25 1008 28 10000 3.08 175 15:56 19.09.2022
165 Clear 26 1007 27 10000 3.24 180 13:44 19.09.2022
166 Clear 27 1006 28 10000 3.51 182 11:33 19.09.2022
167 Clear 27 1006 29 10000 3.35 186 09:33 19.09.2022
168 Clear 28 1006 29 10000 3.48 188 08:20 19.09.2022
169 Clear 33 1003 18 10000 5.99 192 02:46 19.09.2022
170 Clear 33 1004 17 10000 6.52 186 23:26 18.09.2022
171 Clear 33 1005 18 10000 6.55 185 21:53 18.09.2022
172 Clear 32 1005 18 10000 6.94 182 20:34 18.09.2022
173 Clear 30 1005 18 10000 6.63 180 19:26 18.09.2022
174 Clear 29 1004 20 10000 6.68 180 17:49 18.09.2022
175 Clear 28 1004 26 10000 6.33 179 16:43 18.09.2022
176 Clear 26 1003 34 10000 5.56 176 14:39 18.09.2022
177 Clear 27 1002 36 10000 5.8 175 12:58 18.09.2022
178 Clear 28 1002 34 10000 5.58 176 11:53 18.09.2022
179 Clear 31 1001 25 10000 5.44 182 06:57 18.09.2022
180 Clear 36 1000 12 10000 6.37 187 01:37 18.09.2022
181 Clear 36 1000 12 10000 6.03 195 01:18 18.09.2022
182 Clear 35 1003 13 10000 6.14 181 22:55 17.09.2022
183 Clear 34 1004 15 10000 5.7 168 20:51 17.09.2022
184 Clear 32 1005 17 10000 5.02 168 19:36 17.09.2022
185 Clear 30 1006 23 10000 3.97 168 17:36 17.09.2022
186 Clear 28 1005 27 10000 1.86 163 14:22 17.09.2022
187 Clear 28 1005 25 10000 1.91 167 12:44 17.09.2022
188 Clear 30 1006 22 10000 1.97 175 10:48 17.09.2022
189 Clear 32 1007 18 10000 1.83 179 06:35 17.09.2022
190 Clear 33 1007 16 10000 2.33 153 04:35 17.09.2022
191 Clear 35 1008 14 10000 2.45 151 23:39 16.09.2022
192 Clear 34 1010 16 10000 1.72 146 21:57 16.09.2022
193 Clear 33 1011 17 10000 1.6 145 20:44 16.09.2022
194 Clouds 31 1012 20 10000 1.64 155 18:43 16.09.2022
195 Clouds 27 1011 27 10000 0.71 219 16:22 16.09.2022
196 Clouds 27 1011 27 10000 0.59 216 14:51 16.09.2022
197 Clouds 28 1010 25 10000 0.91 166 12:52 16.09.2022
198 Clear 30 1010 23 10000 1.61 155 09:55 16.09.2022
199 Clear 32 1009 18 10000 2.01 170 07:23 16.09.2022
200 Clear 32 1009 18 10000 2.01 170 06:48 16.09.2022
201 Clear 32 1009 17 10000 2.27 176 05:55 16.09.2022
202 Clear 35 1007 13 10000 4.31 187 01:45 16.09.2022
203 Clear 34 1010 17 10000 4.84 165 21:34 15.09.2022
204 Clear 33 1011 18 10000 4.03 164 20:37 15.09.2022
205 Clear 31 1012 22 10000 2.65 170 19:24 15.09.2022
206 Clear 29 1012 26 10000 2.37 171 17:40 15.09.2022
207 Clear 28 1011 30 10000 2.02 170 17:22 15.09.2022
208 Clear 27 1011 34 10000 1.66 160 15:38 15.09.2022
209 Clear 28 1010 32 10000 2.26 166 12:50 15.09.2022
210 Clear 28 1009 31 10000 2.28 169 11:48 15.09.2022
211 Clear 29 1009 30 10000 2.11 170 09:44 15.09.2022
212 Clear 31 1008 24 10000 2.97 178 06:45 15.09.2022
213 Clear 35 1006 14 10000 5.77 198 03:29 15.09.2022
214 Clear 35 1007 16 10000 6.2 185 22:57 14.09.2022
215 Clear 34 1008 18 10000 5.5 168 20:31 14.09.2022
216 Clear 33 1009 22 10000 4.48 165 19:32 14.09.2022
217 Clear 31 1009 31 10000 3.56 157 17:37 14.09.2022
218 Clear 30 1009 35 10000 2.93 155 16:36 14.09.2022
219 Clear 29 1008 43 10000 2.31 153 14:51 14.09.2022
220 Clear 29 1007 46 10000 0.29 141 12:38 14.09.2022
221 Clear 30 1007 45 10000 2.13 358 09:52 14.09.2022
222 Clouds 31 1006 40 10000 1.78 15 08:28 14.09.2022
223 Clouds 34 1005 29 10000 1.92 186 06:50 14.09.2022
224 Clouds 35 1004 27 10000 2.19 196 06:28 14.09.2022
225 Clouds 37 1003 24 10000 3.55 180 02:43 14.09.2022
226 Clouds 37 1003 24 10000 3.53 181 01:34 14.09.2022
227 Clouds 37 1004 25 10000 3.22 168 00:52 14.09.2022
228 Clouds 36 1004 26 10000 3.4 159 23:55 13.09.2022
229 Clouds 36 1004 26 10000 3.4 159 23:36 13.09.2022
230 Clouds 36 1005 28 10000 3.99 158 23:18 13.09.2022
231 Clear 35 1007 30 10000 4.22 157 22:28 13.09.2022
232 Clear 35 1007 30 10000 4.22 157 21:35 13.09.2022
233 Clear 32 1009 41 10000 1.5 168 18:56 13.09.2022
234 Clear 30 1009 50 10000 1.04 193 16:39 13.09.2022
235 Clear 29 1009 53 10000 0.63 218 15:19 13.09.2022
236 Clouds 30 1008 48 10000 0.64 207 13:37 13.09.2022
237 Clouds 32 1009 40 10000 0.25 240 10:20 13.09.2022
238 Clouds 33 1008 36 10000 3.06 190 07:56 13.09.2022
239 Clouds 36 1008 28 10000 1.2 220 02:22 13.09.2022
240 Clouds 35 1011 33 10000 1.16 147 23:22 12.09.2022
241 Clouds 35 1011 33 10000 1.16 147 22:40 12.09.2022
242 Clouds 33 1013 37 10000 0.75 87 21:21 12.09.2022
243 Clouds 35 1013 35 10000 2.29 147 20:22 12.09.2022
244 Clouds 32 1013 41 10000 1.67 150 18:24 12.09.2022
245 Clouds 31 1013 47 10000 1.24 184 15:50 12.09.2022
246 Clouds 31 1013 51 10000 3.53 107 12:31 12.09.2022
247 Clear 34 1012 35 10000 1.52 190 10:31 12.09.2022
248 Clouds 36 1012 28 10000 2.39 181 07:40 12.09.2022
249 Clouds 37 1012 24 10000 2.02 172 04:36 12.09.2022
250 Clouds 39 1011 21 10000 4.09 175 02:24 12.09.2022
251 Clouds 38 1014 24 10000 2.36 172 22:46 11.09.2022
252 Clouds 38 1014 24 10000 2.36 172 22:46 11.09.2022
253 Clouds 37 1014 27 10000 1.73 163 21:30 11.09.2022
254 Clouds 36 1015 31 10000 1.21 147 20:44 11.09.2022
255 Clear 35 1016 36 10000 1.27 139 19:39 11.09.2022
256 Clear 34 1016 40 10000 1.19 130 19:19 11.09.2022
257 Clear 32 1015 46 10000 0.69 162 17:29 11.09.2022
258 Clear 31 1015 50 10000 0.59 175 15:51 11.09.2022
259 Clear 31 1014 51 10000 0.29 93 13:52 11.09.2022
260 Clear 32 1013 48 10000 0.45 168 11:35 11.09.2022
261 Clouds 34 1012 43 10000 0.4 226 08:25 11.09.2022
262 Clouds 34 1012 42 10000 0.17 222 05:55 11.09.2022
263 Clouds 37 1009 34 10000 1.18 34 00:34 11.09.2022
264 Clouds 36 1011 38 10000 0.82 356 22:23 10.09.2022
265 Clouds 36 1012 38 10000 2.19 122 20:35 10.09.2022
266 Clouds 36 1012 38 10000 2.19 122 20:35 10.09.2022
267 Clouds 33 1012 48 10000 3.04 161 19:45 10.09.2022
268 Clouds 32 1012 53 10000 4.38 147 19:27 10.09.2022
269 Clouds 32 1011 53 10000 4.74 157 17:53 10.09.2022
270 Clouds 32 1009 55 10000 3.62 174 15:44 10.09.2022
271 Clouds 32 1008 53 10000 3.42 161 14:34 10.09.2022
272 Clouds 33 1007 50 10000 3.15 170 12:52 10.09.2022
273 Clouds 33 1006 47 10000 3.5 176 10:35 10.09.2022
274 Clouds 34 1006 44 10000 3.74 180 08:42 10.09.2022
275 Clouds 34 1005 43 10000 4.17 186 08:23 10.09.2022
276 Clouds 36 1004 36 10000 4.68 171 05:25 10.09.2022
277 Clouds 40 1002 27 10000 8.19 164 23:52 09.09.2022
278 Clouds 41 1002 25 10000 8.17 161 23:19 09.09.2022
279 Clear 41 1003 24 10000 6.57 159 21:21 09.09.2022
280 Clouds 40 1003 24 10000 5.06 155 20:28 09.09.2022
281 Clouds 40 1003 24 10000 5.07 156 19:23 09.09.2022
282 Clouds 39 1003 24 10000 2.89 156 18:18 09.09.2022
283 Clouds 36 1002 26 10000 2.68 160 16:18 09.09.2022
284 Clouds 36 1001 25 10000 1.72 152 13:47 09.09.2022
285 Clouds 37 1001 24 10000 1.1 170 11:51 09.09.2022
286 Clouds 40 1002 20 10000 2.22 191 08:19 09.09.2022
287 Clear 43 1002 16 10000 1.93 152 03:48 09.09.2022
288 Clear 44 1003 14 10000 1.23 123 00:40 09.09.2022
289 Clouds 43 1007 16 10000 1.68 130 21:52 08.09.2022
290 Clear 42 1008 18 10000 2.28 161 20:50 08.09.2022
291 Clear 41 1010 19 10000 2.45 158 20:29 08.09.2022
292 Clear 41 1010 19 10000 2.45 158 19:39 08.09.2022
293 Clouds 39 1010 22 10000 0.73 135 17:40 08.09.2022
294 Clouds 36 1011 27 10000 1.11 178 16:19 08.09.2022
295 Clouds 36 1011 28 10000 1.86 176 13:56 08.09.2022
296 Clouds 35 1011 30 10000 0.9 107 12:50 08.09.2022
297 Clear 37 1011 26 10000 1.19 190 11:36 08.09.2022
298 Clear 38 1011 23 10000 2.46 178 09:58 08.09.2022
299 Clear 40 1011 24 10000 3.69 177 07:45 08.09.2022
300 Clear 41 1011 22 10000 4.2 177 05:30 08.09.2022
301 Clear 45 1009 16 10000 5.51 160 02:36 08.09.2022
302 Clear 45 1009 16 10000 5.51 160 02:36 08.09.2022
303 Clear 46 1009 14 10000 5.81 160 02:18 08.09.2022
304 Clear 46 1010 13 10000 3.65 151 00:22 08.09.2022
305 Clear 45 1012 14 10000 2.59 144 22:19 07.09.2022
306 Clear 45 1012 14 10000 2.59 144 21:39 07.09.2022
307 Clear 44 1013 15 10000 2.53 155 20:31 07.09.2022
308 Clouds 43 1014 16 10000 2.54 159 19:26 07.09.2022
309 Clouds 40 1013 19 10000 2.62 156 17:22 07.09.2022
310 Clouds 39 1011 17 10000 2.16 170 12:41 07.09.2022
311 Clouds 40 1010 15 10000 3.16 170 10:45 07.09.2022
312 Clear 41 1010 14 10000 3.42 169 08:36 07.09.2022
313 Clear 42 1009 13 10000 2.9 171 06:51 07.09.2022
314 Clear 48 1007 8 10000 0.79 173 01:50 07.09.2022
315 Clear 47 1009 9 10000 0.59 33 22:35 06.09.2022
316 Clear 46 1009 10 10000 0.95 47 21:38 06.09.2022
317 Clear 44 1010 12 10000 0.78 84 19:57 06.09.2022
318 Clear 43 1011 12 10000 0.63 41 18:45 06.09.2022
319 Clear 42 1010 14 10000 0.45 21 17:56 06.09.2022
320 Clear 40 1010 15 10000 0.33 55 17:20 06.09.2022
321 Clear 40 1010 15 10000 0.33 55 16:37 06.09.2022
322 Clear 36 1009 20 10000 0.28 14 14:55 06.09.2022
323 Clear 37 1008 18 10000 0.32 193 13:44 06.09.2022
324 Clear 37 1008 18 10000 0.32 193 13:44 06.09.2022
325 Clear 37 1008 18 10000 1.04 287 13:21 06.09.2022
326 Clear 39 1008 17 10000 1.38 280 11:29 06.09.2022
327 Clear 39 1008 17 10000 1.38 280 10:33 06.09.2022
328 Clear 41 1008 14 10000 1.77 211 08:29 06.09.2022
329 Clear 41 1008 14 10000 1.77 211 07:37 06.09.2022
330 Clear 46 1005 10 10000 4.14 163 02:34 06.09.2022
331 Clear 46 1007 14 10000 2.12 161 23:21 05.09.2022
332 Clear 45 1008 17 10000 1.31 149 21:50 05.09.2022
333 Clear 45 1009 18 10000 1.87 151 20:32 05.09.2022
334 Clear 42 1009 21 10000 2.1 158 19:18 05.09.2022
335 Clear 42 1009 21 10000 2.1 158 18:44 05.09.2022
336 Clear 41 1009 23 10000 2.05 154 18:21 05.09.2022
337 Clouds 38 1009 27 10000 1.29 153 16:27 05.09.2022
338 Clouds 38 1009 27 10000 1.29 153 15:46 05.09.2022
339 Clouds 38 1007 27 10000 1.44 161 13:25 05.09.2022
340 Clouds 39 1007 25 10000 1.52 185 12:26 05.09.2022
341 Clear 40 1007 21 10000 1.83 170 09:19 05.09.2022
342 Clear 42 1007 20 10000 1.34 198 06:40 05.09.2022
343 Clear 46 1007 14 10000 0.44 4 01:56 05.09.2022
344 Clear 45 1010 17 10000 0.89 103 22:59 04.09.2022
345 Clear 44 1010 18 10000 1.11 110 22:27 04.09.2022
346 Clear 43 1011 19 10000 1.4 132 20:44 04.09.2022
347 Clear 42 1012 22 10000 1.94 153 19:29 04.09.2022
348 Clear 41 1013 23 10000 2.05 168 17:50 04.09.2022
349 Clear 39 1013 26 10000 2.14 172 16:42 04.09.2022
350 Clear 37 1012 30 10000 2.41 174 14:29 04.09.2022
351 Clear 38 1011 29 10000 2.62 175 13:28 04.09.2022
352 Clear 38 1011 29 10000 2.62 175 13:28 04.09.2022
353 Clear 38 1011 28 10000 2.84 175 11:54 04.09.2022
354 Clear 39 1011 25 10000 3.62 174 10:28 04.09.2022
355 Clouds 41 1011 21 10000 4.87 170 07:29 04.09.2022
356 Clouds 42 1009 18 10000 1.8 113 05:19 04.09.2022
357 Clear 46 1008 13 10000 2.67 164 00:47 04.09.2022
358 Clear 45 1010 17 10000 1.79 147 22:22 03.09.2022
359 Clear 44 1011 19 10000 1.95 152 21:23 03.09.2022
360 Clear 43 1011 21 10000 2.31 154 19:39 03.09.2022
361 Clear 40 1011 26 10000 1.79 153 17:26 03.09.2022
362 Clear 40 1011 26 10000 1.79 153 16:31 03.09.2022
363 Clear 37 1009 31 10000 1.33 135 14:45 03.09.2022
364 Clear 37 1009 29 10000 1.09 154 14:22 03.09.2022
365 Clear 39 1009 26 10000 2.77 177 12:24 03.09.2022
366 Clear 39 1009 24 10000 4.09 181 10:49 03.09.2022
367 Clouds 41 1008 18 10000 2.9 174 08:29 03.09.2022
368 Clouds 41 1008 18 10000 2.9 174 08:29 03.09.2022
369 Clouds 42 1007 16 10000 3.21 178 06:58 03.09.2022
370 Clouds 44 1006 13 10000 3.98 163 04:34 03.09.2022
371 Clouds 47 1006 9 10000 0.95 143 00:29 03.09.2022
372 Clouds 47 1006 9 10000 0.95 132 23:20 02.09.2022
373 Clear 45 1007 10 10000 0.99 122 20:59 02.09.2022
374 Clear 45 1008 10 10000 1.1 128 20:39 02.09.2022
375 Clear 44 1008 11 10000 1.12 127 19:30 02.09.2022
376 Clear 43 1008 12 10000 0.98 137 18:43 02.09.2022
377 Clear 42 1008 12 10000 0.89 156 18:24 02.09.2022
378 Clear 41 1008 12 10000 0.7 167 16:49 02.09.2022
379 Clear 37 1006 15 10000 0.3 200 15:21 02.09.2022
380 Clear 38 1006 13 10000 0.65 238 12:43 02.09.2022
381 Clear 40 1006 12 10000 1.02 226 10:22 02.09.2022
382 Clear 40 1006 12 10000 1.02 226 09:41 02.09.2022
383 Clear 41 1005 12 10000 0.55 253 07:36 02.09.2022
384 Clear 41 1005 12 10000 0.58 257 06:40 02.09.2022
385 Clouds 45 1004 10 10000 0.55 28 03:52 02.09.2022
386 Clear 47 1006 9 10000 1.08 46 22:45 01.09.2022
387 Clear 46 1007 9 10000 1.29 29 21:44 01.09.2022
388 Clear 45 1008 9 10000 1.33 13 21:25 01.09.2022
389 Clear 45 1008 9 10000 1.33 13 20:46 01.09.2022
390 Clear 43 1009 10 10000 0.85 351 19:20 01.09.2022
391 Clear 42 1009 11 10000 0.4 2 17:47 01.09.2022
392 Clear 38 1009 15 10000 1.28 289 16:29 01.09.2022
393 Clear 37 1008 16 10000 1.1 283 14:33 01.09.2022
394 Clear 38 1008 15 10000 1.3 279 12:59 01.09.2022
395 Clear 39 1008 14 10000 1.15 258 11:55 01.09.2022
396 Clear 39 1008 14 10000 1.15 258 11:36 01.09.2022
397 Clear 39 1008 14 10000 1.81 260 10:45 01.09.2022
398 Clear 40 1008 13 10000 0.77 267 08:53 01.09.2022
399 Clear 42 1008 12 10000 0.88 186 06:26 01.09.2022
400 Clear 46 1007 9 10000 1.23 165 01:45 01.09.2022
401 Clear 46 1008 9 10000 1.58 156 00:19 01.09.2022
402 Clear 45 1010 9 10000 0.93 148 22:21 31.08.2022
403 Clear 44 1011 10 10000 0.58 156 20:22 31.08.2022
404 Clear 41 1012 11 10000 0.88 179 18:19 31.08.2022
405 Clear 40 1012 12 10000 0.58 189 16:32 31.08.2022
406 Clear 36 1011 15 10000 0.43 5 14:58 31.08.2022
407 Clear 38 1011 13 10000 1.12 268 12:25 31.08.2022
408 Clear 38 1011 13 10000 1.12 268 11:38 31.08.2022
409 Clear 40 1011 14 10000 1.18 208 09:25 31.08.2022
410 Clear 41 1011 14 10000 2.21 200 06:35 31.08.2022
411 Clear 45 1010 11 10000 4.36 164 01:25 31.08.2022
412 Clear 44 1012 14 10000 2.05 153 21:49 30.08.2022
413 Clear 43 1013 16 10000 1.36 150 20:59 30.08.2022
414 Clear 40 1013 19 10000 0.68 133 18:53 30.08.2022
415 Clear 36 1012 27 10000 0.86 174 15:43 30.08.2022
416 Clear 35 1011 29 10000 0.88 160 13:30 30.08.2022
417 Clear 37 1010 26 10000 1.83 172 11:22 30.08.2022
418 Clear 37 1010 26 10000 1.83 172 10:57 30.08.2022
419 Clear 38 1010 23 10000 2.68 176 08:49 30.08.2022
420 Clear 41 1008 18 10000 3.77 165 03:55 30.08.2022
421 Clear 43 1008 16 10000 4.31 156 00:26 30.08.2022
422 Clear 42 1009 17 10000 5.21 159 22:34 29.08.2022
423 Clear 42 1009 19 10000 5.1 161 21:34 29.08.2022
424 Clear 41 1010 21 10000 4.64 160 20:34 29.08.2022
425 Clear 39 1011 25 10000 4.09 161 18:55 29.08.2022
426 Clear 36 1010 27 10000 3.74 167 17:26 29.08.2022
427 Clear 36 1010 27 10000 3.74 167 16:56 29.08.2022
428 Clear 34 1009 34 10000 2.88 166 15:18 29.08.2022
429 Clear 35 1008 35 10000 2.53 162 13:40 29.08.2022
430 Clear 36 1007 35 10000 2.45 165 11:44 29.08.2022
431 Clear 36 1007 34 10000 2.89 163 10:42 29.08.2022
432 Clear 37 1006 29 10000 2.96 164 08:53 29.08.2022
433 Clear 39 1005 24 10000 3.66 163 06:29 29.08.2022
434 Clear 42 1003 15 10000 4.34 180 01:58 29.08.2022
435 Clear 42 1005 15 10000 5.37 171 22:55 28.08.2022
436 Clear 41 1006 15 10000 5.28 167 21:47 28.08.2022
437 Clear 40 1006 16 10000 4.37 165 21:25 28.08.2022
438 Clear 39 1007 17 10000 3.77 164 20:18 28.08.2022
439 Clear 37 1007 20 10000 3.19 162 18:22 28.08.2022
440 Clear 37 1007 20 10000 3.19 162 17:51 28.08.2022
441 Clear 35 1007 22 10000 2.49 164 16:44 28.08.2022
442 Clear 33 1006 27 10000 1.66 169 15:00 28.08.2022
443 Clear 34 1005 25 10000 3 176 13:19 28.08.2022
444 Clear 35 1004 23 10000 3.29 180 11:25 28.08.2022
445 Clear 36 1004 22 10000 3.9 179 10:20 28.08.2022
446 Clear 36 1004 22 10000 4.31 180 08:49 28.08.2022
447 Clear 37 1004 21 10000 4.78 182 07:53 28.08.2022
448 Clear 38 1003 21 10000 4.89 177 07:23 28.08.2022
449 Clear 43 1002 9 10000 3.61 205 00:36 28.08.2022
450 Clear 43 1004 10 10000 2.97 176 23:20 27.08.2022
451 Clear 42 1005 11 10000 3.59 168 22:27 27.08.2022
452 Clear 41 1006 12 10000 3.56 166 20:35 27.08.2022
453 Clear 39 1007 14 10000 3.53 171 19:26 27.08.2022
454 Clear 35 1007 18 10000 2.59 170 16:29 27.08.2022
455 Clear 35 1007 18 10000 2.59 170 15:31 27.08.2022
456 Clear 36 1006 17 10000 2.18 177 13:22 27.08.2022
457 Clear 36 1006 17 10000 1.81 185 11:59 27.08.2022
458 Clear 37 1006 17 10000 1.73 190 10:30 27.08.2022
459 Clear 37 1006 17 10000 1.99 178 09:33 27.08.2022
460 Clouds 39 1006 21 10000 1.84 170 06:54 27.08.2022
461 Clouds 42 1007 20 10000 0.58 149 01:21 27.08.2022
462 Clear 42 1008 21 10000 1.03 124 23:48 26.08.2022
463 Clear 40 1010 24 10000 1.04 117 21:49 26.08.2022
464 Clear 38 1012 28 10000 0.53 106 20:20 26.08.2022
465 Clear 36 1012 32 10000 0.5 59 17:59 26.08.2022
466 Clear 35 1012 35 10000 0.68 44 16:36 26.08.2022
467 Clear 33 1012 41 10000 0.5 340 15:24 26.08.2022
468 Clouds 34 1012 39 10000 0.57 325 13:18 26.08.2022
469 Clouds 34 1012 39 10000 0.21 205 11:48 26.08.2022
470 Clouds 34 1012 42 10000 0.9 19 11:22 26.08.2022
471 Clouds 34 1013 42 10000 4.11 30 09:45 26.08.2022
472 Clouds 41 1008 15 10000 2.43 168 04:56 26.08.2022
473 Clear 43 1008 14 10000 2.93 159 00:44 26.08.2022
474 Clear 42 1010 16 10000 2.81 160 22:45 25.08.2022
475 Clear 41 1012 22 10000 2.37 161 20:57 25.08.2022
476 Clear 39 1013 27 10000 2.07 161 19:36 25.08.2022
477 Clear 38 1013 31 10000 1.78 165 18:36 25.08.2022
478 Clear 37 1013 34 10000 1.8 159 17:32 25.08.2022
479 Clear 36 1013 35 10000 1.36 138 16:45 25.08.2022
480 Clear 35 1012 37 10000 0.91 122 15:37 25.08.2022
481 Clear 35 1010 33 10000 1.23 155 14:30 25.08.2022
482 Clear 36 1009 30 10000 2.1 154 11:34 25.08.2022
483 Clear 37 1009 29 10000 1.96 151 10:45 25.08.2022
484 Clouds 37 1009 29 10000 2.18 165 07:55 25.08.2022
485 Clouds 41 1006 19 10000 2.55 143 04:40 25.08.2022
486 Clouds 45 1005 12 10000 5.51 177 23:56 24.08.2022
487 Clouds 44 1006 12 10000 5.42 163 23:25 24.08.2022
488 Clouds 44 1007 12 10000 4.99 160 22:18 24.08.2022
489 Clouds 44 1007 12 10000 4.99 160 21:32 24.08.2022
490 Clouds 42 1008 15 10000 3.85 165 20:23 24.08.2022
491 Clear 39 1008 20 10000 3.05 159 17:38 24.08.2022
492 Clear 36 1007 26 10000 1.52 129 16:23 24.08.2022
493 Clear 36 1007 26 10000 1.52 129 15:48 24.08.2022
494 Clear 37 1005 24 10000 2.06 140 12:53 24.08.2022
495 Clear 39 1005 19 10000 2.89 163 11:22 24.08.2022
496 Clear 40 1005 15 10000 2.71 170 09:19 24.08.2022
497 Clear 41 1005 14 10000 3.75 176 07:43 24.08.2022
498 Clear 46 1003 9 10000 4.23 168 01:43 24.08.2022
499 Clear 45 1005 10 10000 2.73 162 22:53 23.08.2022
500 Clear 44 1006 11 10000 2.23 160 22:29 23.08.2022
501 Clear 43 1006 11 10000 1.95 158 21:27 23.08.2022
502 Clear 43 1007 12 10000 1.68 157 19:54 23.08.2022
503 Clear 42 1008 13 10000 1.52 161 18:30 23.08.2022
504 Clear 40 1008 13 10000 1.27 166 17:47 23.08.2022
505 Clear 39 1008 14 10000 1.22 175 16:35 23.08.2022
506 Clear 36 1007 18 10000 0.72 151 15:20 23.08.2022
507 Clear 38 1006 16 10000 1.16 168 13:26 23.08.2022
508 Clear 39 1007 15 10000 1.05 187 11:24 23.08.2022
509 Clear 39 1007 15 10000 1.05 187 10:35 23.08.2022
510 Clear 40 1007 14 10000 1.02 185 09:52 23.08.2022
511 Clear 40 1007 14 10000 2.08 189 08:51 23.08.2022
512 Clear 41 1007 13 10000 2.54 193 08:20 23.08.2022
513 Clear 41 1007 13 10000 2.54 193 07:34 23.08.2022
514 Clear 42 1007 13 10000 2.95 169 06:27 23.08.2022
515 Clear 44 1007 10 10000 2.82 159 03:24 23.08.2022
516 Clear 44 1008 11 10000 1.47 140 00:28 23.08.2022
517 Clear 44 1008 11 10000 1.47 140 23:33 22.08.2022
518 Clear 43 1009 11 10000 1.13 132 22:44 22.08.2022
519 Clear 42 1011 13 10000 0.86 126 21:25 22.08.2022
520 Clear 41 1012 14 10000 0.96 126 19:47 22.08.2022
521 Clear 40 1012 14 10000 1.19 151 18:45 22.08.2022
522 Clear 37 1012 18 10000 1.56 153 17:18 22.08.2022
523 Clear 36 1011 22 10000 1.21 120 15:39 22.08.2022
524 Clear 36 1011 21 10000 1.37 128 15:39 22.08.2022
525 Clear 36 1010 20 10000 2.25 157 13:47 22.08.2022
526 Clear 38 1009 16 10000 2.17 186 10:38 22.08.2022
527 Clear 40 1009 15 10000 2.02 179 07:59 22.08.2022
528 Clear 44 1007 11 10000 3.08 159 04:22 22.08.2022
529 Clear 44 1008 12 10000 2.97 159 00:41 22.08.2022
530 Clear 44 1009 12 10000 3.16 156 00:22 22.08.2022
531 Clear 43 1011 14 10000 3.03 152 22:22 21.08.2022
532 Clear 42 1011 15 10000 2.74 155 21:25 21.08.2022
533 Clear 41 1011 17 10000 2.47 154 20:47 21.08.2022
534 Clear 39 1012 19 10000 2.58 154 19:25 21.08.2022
535 Clear 37 1011 24 10000 2.56 152 17:24 21.08.2022
536 Clear 35 1011 28 10000 1.51 136 15:53 21.08.2022
537 Clear 35 1010 30 10000 1.49 140 15:21 21.08.2022
538 Clouds 35 1010 30 10000 2.17 142 13:52 21.08.2022
539 Clouds 36 1009 30 10000 1.87 150 13:28 21.08.2022
540 Clouds 36 1008 29 10000 2.41 156 11:39 21.08.2022
541 Clouds 38 1007 21 10000 3.87 169 09:31 21.08.2022
542 Clouds 39 1007 17 10000 3.33 170 08:56 21.08.2022
543 Clear 39 1007 19 10000 3.43 164 08:38 21.08.2022
544 Clear 40 1006 16 10000 3.34 191 07:26 21.08.2022
545 Clear 44 1004 10 10000 4.02 184 03:40 21.08.2022
546 Clear 45 1005 11 10000 5.24 176 00:24 21.08.2022
547 Clear 45 1005 11 10000 4.57 163 22:40 20.08.2022
548 Clear 44 1006 13 10000 3.71 159 21:37 20.08.2022
549 Clear 43 1007 14 10000 3.13 157 20:40 20.08.2022
550 Clear 42 1007 14 10000 3.42 155 19:40 20.08.2022
551 Clear 41 1007 16 10000 2.86 154 18:30 20.08.2022
552 Clear 40 1007 17 10000 2.9 165 17:50 20.08.2022
553 Clear 39 1007 20 10000 2.55 148 16:52 20.08.2022
554 Clear 37 1006 24 10000 1.24 137 15:33 20.08.2022
555 Clear 37 1005 24 10000 1.38 149 13:26 20.08.2022
556 Clear 38 1004 22 10000 1.27 153 11:50 20.08.2022
557 Clouds 39 1004 20 10000 1.76 170 09:37 20.08.2022
558 Clouds 40 1004 18 10000 2.17 167 08:34 20.08.2022
559 Clear 41 1004 18 10000 1.75 188 05:55 20.08.2022
560 Clear 43 1004 17 10000 0.74 51 00:59 20.08.2022
561 Clear 43 1004 17 10000 0.74 51 00:35 20.08.2022
562 Clear 42 1006 18 10000 1.34 47 23:19 19.08.2022
563 Clear 42 1006 18 10000 1.34 47 22:33 19.08.2022
564 Clouds 40 1008 23 10000 1.31 53 20:20 19.08.2022
565 Clouds 38 1009 27 10000 1.62 46 17:35 19.08.2022
566 Clouds 35 1008 33 10000 1.57 19 15:19 19.08.2022
567 Clouds 37 1008 31 10000 0.84 38 13:21 19.08.2022
568 Rain 37 1008 28 10000 2.99 341 10:53 19.08.2022
569 Rain 38 1008 28 10000 1.47 354 10:24 19.08.2022
570 Clouds 38 1008 26 10000 2.11 360 06:37 19.08.2022
571 Clouds 41 1008 25 10000 0.44 104 00:57 19.08.2022
572 Clouds 40 1009 27 10000 0.73 266 00:28 19.08.2022
573 Clouds 40 1009 27 10000 0.73 266 23:38 18.08.2022
574 Clouds 40 1010 28 10000 0.73 299 22:50 18.08.2022
575 Clouds 40 1011 29 10000 0.95 6 21:57 18.08.2022
576 Clouds 40 1011 29 10000 0.95 6 21:34 18.08.2022
577 Clouds 39 1011 31 10000 2.39 13 19:56 18.08.2022
578 Clouds 38 1012 34 10000 3.19 8 19:28 18.08.2022
579 Clouds 37 1012 36 10000 3.45 8 17:50 18.08.2022
580 Clouds 36 1012 39 10000 3.43 8 16:59 18.08.2022
581 Clouds 35 1011 41 10000 3.7 353 14:52 18.08.2022
582 Clouds 35 1010 40 10000 4.41 354 14:19 18.08.2022
583 Clouds 36 1010 37 10000 4.15 350 13:29 18.08.2022
584 Clouds 36 1010 37 10000 3.21 340 11:42 18.08.2022
585 Clouds 38 1009 30 10000 3.38 360 09:43 18.08.2022
586 Clouds 39 1008 29 10000 0.54 10 08:42 18.08.2022
587 Clouds 40 1008 26 10000 0.42 139 07:19 18.08.2022
588 Clouds 40 1008 26 10000 1.07 216 04:37 18.08.2022
589 Clouds 42 1008 23 10000 2.22 164 23:35 17.08.2022
590 Clear 42 1009 22 10000 1.43 149 21:46 17.08.2022
591 Clear 41 1010 25 10000 1.36 136 20:20 17.08.2022
592 Clouds 40 1010 26 10000 1.47 145 19:29 17.08.2022
593 Clouds 39 1010 27 10000 1.09 143 17:37 17.08.2022
594 Clouds 38 1010 29 10000 0.72 140 16:39 17.08.2022
595 Clouds 37 1010 31 10000 0.52 101 15:30 17.08.2022
596 Clouds 38 1008 27 10000 0.42 142 13:31 17.08.2022
597 Clouds 39 1008 25 10000 0.19 276 11:39 17.08.2022
598 Clouds 39 1007 24 10000 1.53 215 09:59 17.08.2022
599 Clouds 40 1007 22 10000 0.63 119 08:24 17.08.2022
600 Clouds 42 1005 17 10000 2.02 194 03:52 17.08.2022
601 Clouds 43 1006 18 10000 1.33 208 00:38 17.08.2022
602 Clouds 42 1008 20 10000 0.97 116 22:42 16.08.2022
603 Clouds 40 1009 24 10000 1.03 120 20:59 16.08.2022
604 Clouds 39 1009 26 10000 1.2 127 19:54 16.08.2022
605 Clouds 38 1009 28 10000 1.32 142 19:19 16.08.2022
606 Clouds 37 1009 31 10000 1.44 154 17:54 16.08.2022
607 Clouds 37 1009 31 10000 1.44 154 17:54 16.08.2022
608 Clouds 35 1009 36 10000 1.6 146 16:18 16.08.2022
609 Clouds 35 1009 36 10000 1.6 146 15:39 16.08.2022
610 Clouds 35 1008 38 10000 0.98 101 14:43 16.08.2022
611 Clouds 35 1008 36 10000 0.86 15 14:25 16.08.2022
612 Clouds 36 1007 33 10000 2.27 216 11:39 16.08.2022
613 Clouds 37 1008 32 10000 2.54 147 09:58 16.08.2022
614 Clear 38 1008 29 10000 2.89 109 08:48 16.08.2022
615 Clear 38 1008 30 10000 2.62 154 08:19 16.08.2022
616 Clouds 40 1006 24 10000 3.16 122 05:28 16.08.2022
617 Clear 42 1008 13 10000 1.27 163 23:18 15.08.2022
618 Clear 41 1009 14 10000 1.27 163 22:18 15.08.2022
619 Clear 41 1009 14 10000 1.27 163 21:41 15.08.2022
620 Clear 40 1009 14 10000 1.46 164 20:31 15.08.2022
621 Clear 38 1010 17 10000 1.51 162 18:57 15.08.2022
622 Clear 37 1010 21 10000 1.63 168 17:59 15.08.2022
623 Clear 35 1009 29 10000 1.23 147 16:24 15.08.2022
624 Clear 33 1010 44 10000 0.79 84 14:49 15.08.2022
625 Clear 34 1009 41 10000 0.99 71 13:23 15.08.2022
626 Clear 35 1009 37 10000 1.77 84 10:37 15.08.2022
627 Clear 37 1009 27 10000 2.47 129 08:55 15.08.2022
628 Clear 39 1008 17 10000 2.02 147 06:51 15.08.2022
629 Clear 42 1007 9 10000 2.43 169 03:56 15.08.2022
630 Clear 42 1009 10 10000 3.56 155 23:38 14.08.2022
631 Clear 41 1011 11 10000 2.85 159 21:49 14.08.2022
632 Clear 40 1012 13 10000 2.3 162 21:25 14.08.2022
633 Clouds 39 1012 19 10000 2.07 164 19:46 14.08.2022
634 Clouds 38 1012 23 10000 2.07 159 18:41 14.08.2022
635 Clouds 37 1012 25 10000 1.89 153 17:44 14.08.2022
636 Clouds 36 1012 29 10000 1.87 167 16:31 14.08.2022
637 Clouds 34 1012 38 10000 1.77 163 15:45 14.08.2022
638 Clouds 33 1011 40 10000 1.37 151 14:19 14.08.2022
639 Clouds 33 1011 40 10000 1.37 151 13:49 14.08.2022
640 Clouds 34 1011 38 10000 1.4 130 13:18 14.08.2022
641 Clouds 34 1011 36 10000 1.26 118 11:50 14.08.2022
642 Clouds 35 1011 32 10000 2.75 161 10:27 14.08.2022
643 Clouds 36 1011 31 10000 2.32 160 08:45 14.08.2022
644 Clouds 36 1011 30 10000 2.47 172 06:21 14.08.2022
645 Clouds 38 1011 26 10000 4.02 137 02:46 14.08.2022
646 Clouds 41 1011 22 10000 4.87 154 23:49 13.08.2022
647 Clouds 40 1012 24 10000 4.38 156 22:52 13.08.2022
648 Clouds 39 1013 27 10000 4.11 134 20:58 13.08.2022
649 Clouds 38 1014 29 10000 3.56 143 20:28 13.08.2022
650 Clouds 38 1014 23 10000 3.42 147 19:24 13.08.2022
651 Clouds 37 1013 28 10000 3.08 152 17:36 13.08.2022
652 Clouds 34 1012 43 10000 1.87 145 15:23 13.08.2022
653 Clouds 35 1012 42 10000 1.71 138 14:26 13.08.2022
654 Clouds 34 1013 43 10000 1.97 154 13:38 13.08.2022
655 Clouds 35 1012 42 10000 1.93 156 11:52 13.08.2022
656 Clouds 35 1012 40 10000 2.59 157 10:21 13.08.2022
657 Clouds 36 1012 39 10000 3.78 146 08:23 13.08.2022
658 Clouds 36 1012 39 10000 3.78 146 08:23 13.08.2022
659 Clouds 36 1012 39 10000 3.78 146 08:23 13.08.2022
660 Clouds 41 1008 21 10000 3.45 129 05:22 13.08.2022
661 Clear 43 1009 16 10000 4.98 178 23:52 12.08.2022
662 Clear 43 1011 16 10000 5.19 171 21:42 12.08.2022
663 Clear 42 1011 16 10000 4.91 167 20:51 12.08.2022
664 Clouds 41 1012 17 10000 4.4 163 19:39 12.08.2022
665 Clouds 40 1012 17 10000 3.86 165 18:46 12.08.2022
666 Clouds 38 1012 22 10000 2.71 156 17:21 12.08.2022
667 Clear 36 1012 27 10000 1.79 159 15:49 12.08.2022
668 Clear 35 1011 26 10000 2.04 168 14:41 12.08.2022
669 Clear 36 1010 24 10000 2.2 171 12:55 12.08.2022
670 Clear 37 1010 25 10000 2.32 175 10:44 12.08.2022
671 Clear 39 1010 20 10000 2.16 178 07:50 12.08.2022
672 Clear 40 1010 18 10000 2.41 190 06:39 12.08.2022
673 Clear 43 1009 15 10000 3.38 209 03:20 12.08.2022
674 Clear 43 1011 18 10000 4.72 179 00:27 12.08.2022
675 Clear 43 1011 18 10000 4.72 179 23:35 11.08.2022
676 Clear 42 1012 19 10000 4.88 170 22:27 11.08.2022
677 Clear 42 1012 19 10000 4.88 170 21:43 11.08.2022
678 Clear 41 1013 20 10000 4.6 164 20:59 11.08.2022
679 Clouds 40 1013 20 10000 3.92 162 20:20 11.08.2022
680 Clouds 40 1013 20 10000 3.78 162 19:32 11.08.2022
681 Clouds 39 1014 21 10000 3.05 162 18:36 11.08.2022
682 Clouds 37 1014 23 10000 1.97 160 16:38 11.08.2022
683 Clear 35 1013 27 10000 1.32 170 15:25 11.08.2022
684 Clouds 35 1013 26 10000 1.42 169 13:37 11.08.2022
685 Clouds 36 1013 26 10000 1.64 165 11:26 11.08.2022
686 Clear 38 1013 25 10000 2.44 186 07:49 11.08.2022
687 Clear 40 1011 19 10000 4 195 03:57 11.08.2022
688 Clear 41 1011 19 10000 4.32 192 01:33 11.08.2022
689 Clear 41 1013 23 10000 5.11 170 22:38 10.08.2022
690 Clear 40 1013 24 10000 5.05 165 21:44 10.08.2022
691 Clear 39 1014 24 10000 4.11 161 20:55 10.08.2022
692 Clouds 38 1014 25 10000 3.03 159 19:44 10.08.2022
693 Clouds 37 1015 28 10000 2.58 162 18:45 10.08.2022
694 Clouds 34 1014 38 10000 1.64 149 17:19 10.08.2022
695 Clouds 33 1013 52 10000 2.1 139 13:36 10.08.2022
696 Clouds 33 1013 52 10000 2.1 139 13:36 10.08.2022
697 Clouds 33 1013 51 10000 2.33 146 12:48 10.08.2022
698 Clouds 34 1012 49 10000 4.36 153 09:56 10.08.2022
699 Clouds 34 1012 46 10000 4.71 147 08:35 10.08.2022
700 Clouds 36 1010 39 10000 4.52 140 07:21 10.08.2022
701 Clouds 40 1009 28 10000 3.31 172 04:49 10.08.2022
702 Clouds 41 1008 23 10000 5.26 186 00:49 10.08.2022
703 Clouds 41 1010 23 10000 5.03 170 23:25 09.08.2022
704 Clouds 40 1011 23 10000 3.96 161 21:37 09.08.2022
705 Clouds 40 1011 25 10000 3.27 160 20:42 09.08.2022
706 Clouds 38 1012 28 10000 3.02 155 18:56 09.08.2022
707 Clouds 37 1012 31 10000 2.98 159 17:31 09.08.2022
708 Clouds 36 1012 36 10000 2.72 169 16:43 09.08.2022
709 Clouds 35 1011 40 10000 2.05 154 15:59 09.08.2022
710 Clouds 35 1011 41 10000 1.95 146 14:43 09.08.2022
711 Clouds 35 1011 44 10000 0.88 104 10:53 09.08.2022
712 Clouds 35 1011 41 10000 0.67 22 08:52 09.08.2022
713 Clouds 35 1011 41 10000 1.22 23 07:54 09.08.2022
714 Clouds 33 1013 49 7068 3.55 128 04:49 09.08.2022
715 Clouds 42 1009 22 10000 4.6 151 23:58 08.08.2022
716 Clouds 42 1010 22 10000 5.17 153 23:24 08.08.2022
717 Clouds 42 1010 22 10000 5.17 153 22:38 08.08.2022
718 Clouds 42 1011 23 10000 5.1 155 21:44 08.08.2022
719 Clouds 41 1011 24 10000 4.49 164 20:34 08.08.2022
720 Clouds 41 1011 21 10000 4.34 161 19:34 08.08.2022
721 Clouds 39 1012 22 10000 3.51 159 17:56 08.08.2022
722 Clouds 37 1011 30 10000 2.15 160 15:48 08.08.2022
723 Clouds 36 1011 31 10000 2.27 165 15:28 08.08.2022
724 Clouds 38 1010 26 10000 1.98 159 12:30 08.08.2022
725 Clouds 39 1010 24 10000 1.47 169 10:28 08.08.2022
726 Clouds 40 1010 22 10000 1.95 179 07:51 08.08.2022
727 Clouds 42 1009 18 10000 2.41 168 03:45 08.08.2022
728 Clear 42 1011 20 10000 0.97 154 23:28 07.08.2022
729 Clear 41 1012 21 10000 0.7 114 21:41 07.08.2022
730 Clear 41 1012 20 10000 0.65 67 21:19 07.08.2022
731 Clear 40 1012 22 10000 1.07 64 20:23 07.08.2022
732 Clear 40 1012 22 10000 1.07 64 19:52 07.08.2022
733 Clear 39 1012 24 10000 1.64 21 19:22 07.08.2022
734 Clear 38 1012 25 10000 1.17 21 17:31 07.08.2022
735 Clear 37 1012 26 10000 1.07 19 16:52 07.08.2022
736 Clear 36 1012 30 10000 1.01 348 15:39 07.08.2022
737 Clear 35 1011 32 10000 0.96 341 13:58 07.08.2022
738 Clear 35 1011 33 10000 0.51 345 12:41 07.08.2022
739 Clear 36 1011 33 10000 0.56 332 10:51 07.08.2022
740 Clear 36 1011 33 10000 0.29 17 10:21 07.08.2022
741 Clear 39 1009 24 10000 0.39 80 04:38 07.08.2022
742 Clear 40 1009 21 10000 0.59 114 02:25 07.08.2022
743 Clear 38 1012 26 10000 0.41 59 22:40 06.08.2022
744 Clear 37 1012 30 10000 0.71 33 22:18 06.08.2022
745 Clear 36 1013 35 10000 1.71 16 19:48 06.08.2022
746 Clouds 34 1013 39 10000 2.08 10 18:50 06.08.2022
747 Clouds 33 1013 44 10000 2.13 1 17:48 06.08.2022
748 Clouds 32 1014 49 10000 1.57 351 16:30 06.08.2022
749 Clear 31 1012 58 10000 1.43 358 13:52 06.08.2022
750 Clear 31 1012 57 10000 1.58 351 12:46 06.08.2022
751 Clear 32 1012 55 10000 1.26 351 11:21 06.08.2022
752 Clear 32 1012 54 10000 0.34 24 09:49 06.08.2022
753 Clouds 32 1012 54 10000 1.52 347 07:35 06.08.2022
754 Clouds 35 1011 45 10000 1.91 8 01:59 06.08.2022
755 Clouds 33 1012 52 10000 1.07 9 22:40 05.08.2022
756 Clouds 32 1013 57 10000 0.69 333 21:36 05.08.2022
757 Rain 29 1014 70 10000 0.67 342 19:22 05.08.2022
758 Clouds 29 1014 70 10000 0.67 342 18:44 05.08.2022
759 Clouds 29 1014 70 10000 0.67 342 18:44 05.08.2022
760 Clouds 28 1014 74 10000 0.68 69 16:55 05.08.2022
761 Clouds 28 1014 74 10000 0.68 69 16:37 05.08.2022
762 Clouds 29 1013 73 10000 1.62 155 15:21 05.08.2022
763 Clouds 30 1012 68 10000 0.82 164 13:43 05.08.2022
764 Clouds 28 1013 77 9746 1.59 182 13:22 05.08.2022
765 Rain 29 1012 71 10000 1.85 187 12:24 05.08.2022
766 Clouds 30 1012 66 10000 2.59 175 10:30 05.08.2022
767 Clouds 33 1011 51 10000 6.32 94 07:58 05.08.2022
768 Clouds 36 1009 34 10000 1.78 116 05:30 05.08.2022
769 Clouds 43 1007 22 10000 3.67 160 23:51 04.08.2022
770 Clouds 42 1009 23 10000 4.19 156 22:25 04.08.2022
771 Clouds 41 1009 25 10000 3.56 156 21:25 04.08.2022
772 Clouds 41 1009 25 10000 3.56 156 20:42 04.08.2022
773 Clouds 40 1010 26 10000 1.08 140 19:23 04.08.2022
774 Clouds 40 1010 26 10000 1.08 140 18:35 04.08.2022
775 Clouds 39 1010 27 10000 0.71 151 17:31 04.08.2022
776 Clouds 37 1008 30 10000 0.24 241 13:57 04.08.2022
777 Clouds 37 1008 30 10000 0.27 187 12:43 04.08.2022
778 Clouds 38 1008 27 10000 1.33 185 10:50 04.08.2022
779 Clouds 41 1008 23 10000 3.02 166 07:52 04.08.2022
780 Clouds 42 1006 20 10000 3.47 163 04:43 04.08.2022
781 Clouds 44 1006 20 10000 2.14 144 02:27 04.08.2022
782 Clouds 43 1007 21 10000 0.98 205 23:44 03.08.2022
783 Clouds 42 1008 22 10000 0.49 163 22:30 03.08.2022
784 Clouds 41 1010 24 10000 0.99 42 20:50 03.08.2022
785 Clouds 40 1011 27 10000 1.23 23 19:35 03.08.2022
786 Clouds 39 1011 30 10000 1.76 6 18:36 03.08.2022
787 Clear 35 1011 38 10000 1.18 2 16:24 03.08.2022
788 Clear 34 1011 42 10000 0.98 346 14:51 03.08.2022
789 Clear 36 1010 38 10000 1.38 357 12:32 03.08.2022
790 Clear 37 1011 34 10000 4.14 356 08:54 03.08.2022
791 Clear 41 1008 25 10000 0.6 240 04:47 03.08.2022
792 Clear 41 1008 24 10000 0.68 238 03:37 03.08.2022
793 Clouds 41 1009 26 10000 1.06 242 01:36 03.08.2022
794 Clouds 40 1011 29 10000 0.49 128 23:27 02.08.2022
795 Clouds 40 1012 30 10000 0.72 107 21:55 02.08.2022
796 Clouds 40 1012 30 10000 0.72 107 21:33 02.08.2022
797 Clouds 38 1013 31 10000 0.94 131 19:38 02.08.2022
798 Clouds 35 1013 40 10000 0.39 144 16:42 02.08.2022
799 Clouds 35 1012 40 10000 0.89 219 13:21 02.08.2022
800 Clouds 35 1012 38 10000 1.7 221 10:34 02.08.2022
801 Clouds 37 1011 35 10000 2.61 208 08:27 02.08.2022
802 Clouds 37 1011 35 10000 2.61 208 07:50 02.08.2022
803 Clouds 40 1009 29 10000 2.46 217 04:56 02.08.2022
804 Clouds 40 1010 29 10000 1.97 135 01:58 02.08.2022
805 Clouds 39 1012 32 10000 2.45 150 23:21 01.08.2022
806 Clouds 38 1014 34 10000 1.86 147 21:37 01.08.2022
807 Clouds 35 1015 43 10000 0.91 132 19:45 01.08.2022
808 Clouds 34 1015 49 10000 0.54 98 18:53 01.08.2022
809 Clouds 31 1016 60 10000 0.5 69 16:55 01.08.2022
810 Clouds 31 1016 60 10000 0.5 69 16:55 01.08.2022
811 Clouds 31 1016 60 10000 0.5 69 16:55 01.08.2022
812 Clouds 31 1016 60 10000 0.5 69 16:33 01.08.2022
813 Clouds 30 1016 63 10000 0.4 53 15:34 01.08.2022
814 Clouds 30 1015 64 10000 0.55 80 14:44 01.08.2022
815 Clouds 31 1015 62 10000 1.48 6 13:29 01.08.2022
816 Clouds 31 1015 62 10000 2.54 9 10:48 01.08.2022
817 Clouds 31 1015 59 10000 5.59 1 08:53 01.08.2022
818 Clouds 34 1014 48 10000 5.6 351 07:23 01.08.2022
819 Clouds 37 1011 36 10000 2.19 356 04:32 01.08.2022
820 Rain 41 1010 28 10000 3.66 174 01:23 01.08.2022
821 Clouds 40 1012 30 10000 3.42 168 22:44 31.07.2022
822 Clouds 39 1013 31 10000 3.18 159 22:25 31.07.2022
823 Clouds 38 1014 36 10000 2.27 149 20:39 31.07.2022
824 Clouds 36 1014 40 10000 3.41 147 18:40 31.07.2022
825 Clouds 35 1014 44 10000 3.1 181 16:55 31.07.2022
826 Clouds 34 1012 45 10000 2.38 156 14:43 31.07.2022
827 Clouds 35 1012 40 10000 2.94 157 12:59 31.07.2022
828 Clouds 36 1011 39 10000 2.83 170 11:39 31.07.2022
829 Clouds 37 1011 35 10000 3.69 163 08:47 31.07.2022
830 Clouds 39 1010 28 10000 3.74 161 05:38 31.07.2022
831 Clouds 42 1008 23 10000 3.85 147 02:29 31.07.2022
832 Clouds 41 1010 29 10000 2.77 149 22:49 30.07.2022
833 Clouds 40 1011 32 10000 2.57 141 21:52 30.07.2022
834 Clouds 40 1011 32 10000 2.57 141 21:33 30.07.2022
835 Clouds 39 1012 36 10000 2.3 139 20:38 30.07.2022
836 Clouds 39 1012 36 10000 2.3 139 20:38 30.07.2022
837 Clouds 38 1012 38 10000 1.69 132 19:50 30.07.2022
838 Clouds 36 1013 45 10000 1.22 117 18:20 30.07.2022
839 Clouds 34 1013 49 10000 1.35 119 16:40 30.07.2022
840 Clouds 34 1012 51 10000 1.7 133 15:33 30.07.2022
841 Clouds 34 1011 52 10000 2.09 133 14:23 30.07.2022
842 Clouds 34 1010 44 10000 0.94 115 12:32 30.07.2022
843 Clouds 35 1010 42 10000 0.66 169 11:55 30.07.2022
844 Clouds 36 1010 40 10000 2.19 138 10:20 30.07.2022
845 Clouds 36 1010 40 10000 2.19 138 09:32 30.07.2022
846 Clouds 38 1010 33 10000 3.35 130 07:44 30.07.2022
847 Clear 43 1006 23 10000 6.02 153 02:34 30.07.2022
848 Clear 44 1006 20 10000 5.13 157 01:20 30.07.2022
849 Clear 42 1009 23 10000 2.27 150 21:39 29.07.2022
850 Clear 40 1010 25 10000 1.9 148 20:57 29.07.2022
851 Clear 40 1010 25 10000 1.83 147 19:48 29.07.2022
852 Clear 37 1011 30 10000 2.2 158 17:40 29.07.2022
853 Clear 34 1009 34 10000 2.06 160 14:53 29.07.2022
854 Clouds 35 1009 38 10000 1.42 128 12:58 29.07.2022
855 Clouds 36 1009 35 10000 1.37 109 09:49 29.07.2022
856 Clouds 38 1009 31 10000 1.46 90 08:48 29.07.2022
857 Clouds 40 1007 22 10000 0.82 54 07:39 29.07.2022
858 Clear 44 1005 15 10000 5.2 161 01:46 29.07.2022
859 Clear 42 1008 17 10000 2.4 152 21:57 28.07.2022
860 Clear 41 1009 18 10000 2.08 151 20:55 28.07.2022
861 Clear 40 1010 22 10000 1.49 146 20:22 28.07.2022
862 Clear 40 1010 22 10000 1.49 146 19:42 28.07.2022
863 Clear 38 1010 26 10000 1.83 146 18:27 28.07.2022
864 Clear 38 1010 26 10000 1.83 146 17:43 28.07.2022
865 Clear 37 1010 31 10000 1.76 153 16:42 28.07.2022
866 Clear 34 1010 41 10000 1.94 165 15:24 28.07.2022
867 Clouds 34 1009 41 10000 1.43 33 12:51 28.07.2022
868 Clouds 35 1009 38 10000 2.84 2 10:36 28.07.2022
869 Clouds 38 1008 30 10000 2.15 67 06:25 28.07.2022
870 Clouds 38 1008 31 10000 1.89 353 05:27 28.07.2022
871 Clouds 44 1007 18 10000 2.77 160 00:45 28.07.2022
872 Clouds 43 1008 19 10000 2.06 158 22:40 27.07.2022
873 Clouds 41 1010 23 10000 1.75 146 21:27 27.07.2022
874 Clouds 40 1011 24 10000 1.53 150 19:37 27.07.2022
875 Clouds 38 1011 31 10000 1.29 148 17:49 27.07.2022
876 Clouds 35 1011 38 10000 0.31 316 15:52 27.07.2022
877 Clouds 34 1010 43 10000 0.62 340 14:57 27.07.2022
878 Clouds 34 1010 43 10000 0.62 340 14:34 27.07.2022
879 Clouds 35 1010 38 10000 1.28 183 12:49 27.07.2022
880 Clouds 36 1010 36 10000 3.14 168 07:53 27.07.2022
881 Clouds 37 1009 37 10000 1.91 159 06:21 27.07.2022
882 Clouds 37 1009 40 10000 3.68 279 01:59 27.07.2022
883 Clouds 38 1011 36 10000 3.55 133 22:29 26.07.2022
884 Clouds 37 1011 39 10000 3.11 127 21:20 26.07.2022
885 Clouds 37 1011 39 10000 3.11 127 20:31 26.07.2022
886 Clouds 36 1012 43 10000 1.85 118 18:44 26.07.2022
887 Clouds 35 1012 44 10000 1.69 139 17:59 26.07.2022
888 Clouds 34 1012 46 10000 1.61 133 16:31 26.07.2022
889 Clouds 33 1011 49 10000 1.01 123 15:30 26.07.2022
890 Clouds 33 1010 47 10000 1.2 135 13:38 26.07.2022
891 Clouds 34 1010 44 10000 1.52 147 11:38 26.07.2022
892 Clouds 35 1010 42 10000 1.17 117 09:32 26.07.2022
893 Clouds 37 1008 32 10000 2.05 75 06:26 26.07.2022
894 Clouds 41 1008 22 10000 5.28 155 00:57 26.07.2022
895 Clouds 41 1009 20 10000 4.52 146 23:33 25.07.2022
896 Clouds 40 1010 18 10000 1.38 114 22:27 25.07.2022
897 Clouds 40 1010 18 10000 1.38 114 21:43 25.07.2022
898 Clouds 40 1011 19 10000 0.68 76 20:42 25.07.2022
899 Clouds 39 1011 17 10000 2.05 149 19:50 25.07.2022
900 Clouds 37 1011 24 10000 2.36 141 18:21 25.07.2022
901 Clouds 37 1011 24 10000 2.36 141 17:31 25.07.2022
902 Clouds 34 1010 34 10000 2.17 155 15:30 25.07.2022
903 Clouds 35 1008 39 10000 2.36 157 12:29 25.07.2022
904 Clouds 36 1008 38 10000 2.63 164 10:32 25.07.2022
905 Clouds 38 1006 24 10000 3.94 166 06:51 25.07.2022
906 Clear 45 1006 8 10000 7.71 170 23:56 24.07.2022
907 Clear 44 1007 8 10000 6.96 166 23:19 24.07.2022
908 Clear 44 1007 8 10000 6.96 166 22:35 24.07.2022
909 Clear 42 1008 10 10000 3.7 158 21:28 24.07.2022
910 Clear 42 1008 10 10000 3.7 158 20:53 24.07.2022
911 Clear 41 1009 11 10000 3.02 158 20:27 24.07.2022
912 Clear 40 1009 14 10000 2.18 156 18:57 24.07.2022
913 Clear 37 1009 21 10000 2.23 164 16:51 24.07.2022
914 Clear 35 1009 29 10000 1.73 159 15:53 24.07.2022
915 Clear 33 1008 34 10000 1.44 149 14:40 24.07.2022
916 Clear 34 1008 33 10000 1.51 148 13:25 24.07.2022
917 Clear 35 1007 32 10000 1.59 156 12:19 24.07.2022
918 Clear 36 1007 31 10000 1.82 145 11:26 24.07.2022
919 Clear 36 1007 27 10000 2.26 158 09:23 24.07.2022
920 Clouds 37 1006 21 10000 1.81 169 07:53 24.07.2022
921 Clouds 38 1006 20 10000 2.1 166 06:34 24.07.2022
922 Clouds 43 1004 12 10000 5.77 171 02:33 24.07.2022
923 Clouds 43 1007 7 10000 7.67 162 22:31 23.07.2022
924 Clouds 42 1007 8 10000 3.91 163 20:41 23.07.2022
925 Clouds 41 1008 9 10000 2.27 163 18:55 23.07.2022
926 Clouds 40 1008 9 10000 1.97 171 17:48 23.07.2022
927 Clear 39 1008 10 10000 1.21 159 17:24 23.07.2022
928 Clear 37 1007 11 10000 0.66 181 15:55 23.07.2022
929 Clear 35 1007 13 10000 0.49 145 15:21 23.07.2022
930 Clear 35 1007 13 10000 0.49 145 14:47 23.07.2022
931 Clouds 35 1007 11 10000 0.92 146 13:54 23.07.2022
932 Clear 37 1006 10 10000 0.5 227 11:47 23.07.2022
933 Clear 38 1006 10 10000 0.91 201 10:36 23.07.2022
934 Clear 39 1005 8 10000 3.2 185 09:28 23.07.2022
935 Clouds 41 1004 8 10000 3.1 178 06:46 23.07.2022
936 Clouds 46 1002 8 10000 5.24 184 03:37 23.07.2022
937 Clouds 47 1004 9 10000 6.63 169 00:27 23.07.2022
938 Clouds 44 1007 10 10000 3.63 164 21:28 22.07.2022
939 Clouds 44 1007 10 10000 3.63 164 20:31 22.07.2022
940 Clear 41 1007 10 10000 2.49 164 18:42 22.07.2022
941 Clouds 40 1008 11 10000 1.92 168 17:39 22.07.2022
942 Clouds 38 1007 13 10000 1 180 15:46 22.07.2022
943 Clear 36 1007 15 10000 1.61 154 12:47 22.07.2022
944 Clear 39 1007 13 10000 1.9 186 10:22 22.07.2022
945 Clear 39 1007 13 10000 2.44 183 09:21 22.07.2022
946 Clouds 40 1007 13 10000 2.95 179 07:57 22.07.2022
947 Clouds 45 1005 10 10000 5.07 184 04:23 22.07.2022
948 Clouds 47 1007 9 10000 3.75 161 23:43 21.07.2022
949 Clouds 45 1009 10 10000 2.21 153 21:51 21.07.2022
950 Clear 43 1010 12 10000 1.14 143 19:45 21.07.2022
951 Clouds 42 1011 12 10000 1.19 153 18:43 21.07.2022
952 Clear 39 1011 14 10000 0.82 175 17:22 21.07.2022
953 Clear 39 1011 14 10000 0.82 175 16:31 21.07.2022
954 Clear 35 1010 18 10000 0.76 175 14:46 21.07.2022
955 Clouds 36 1010 17 10000 1.03 150 13:58 21.07.2022
956 Clouds 37 1010 16 10000 1.04 156 11:58 21.07.2022
957 Clouds 39 1010 15 10000 2.14 181 10:21 21.07.2022
958 Clouds 39 1009 14 10000 2.54 180 08:53 21.07.2022
959 Clouds 40 1009 14 10000 2.58 174 08:18 21.07.2022
960 Clouds 41 1009 13 10000 3.22 179 06:45 21.07.2022
961 Clear 46 1008 12 10000 5.11 184 03:25 21.07.2022
962 Clouds 45 1011 13 10000 4.35 168 22:51 20.07.2022
963 Clouds 44 1012 14 10000 3.42 164 22:20 20.07.2022
964 Clouds 43 1012 15 10000 2.54 161 20:46 20.07.2022
965 Clouds 42 1013 16 10000 1.48 158 19:47 20.07.2022
966 Clouds 42 1013 16 10000 2.02 162 19:47 20.07.2022
967 Clouds 41 1013 18 10000 1.08 159 19:19 20.07.2022
968 Clouds 41 1013 18 10000 1.08 159 18:33 20.07.2022
969 Clear 40 1013 19 10000 0.82 146 17:42 20.07.2022
970 Clear 38 1013 21 10000 0.73 345 15:43 20.07.2022
971 Clear 35 1012 24 10000 0.28 36 14:54 20.07.2022
972 Clouds 35 1012 23 10000 0.76 344 13:44 20.07.2022
973 Clouds 36 1011 21 10000 1.39 329 11:31 20.07.2022
974 Clouds 40 1010 17 10000 2.14 187 07:39 20.07.2022
975 Clear 45 1007 12 10000 5.46 203 02:44 20.07.2022
976 Clear 45 1008 13 10000 5.09 175 00:44 20.07.2022
977 Clear 45 1010 15 10000 4.41 168 22:41 19.07.2022
978 Clear 43 1011 16 10000 3.05 166 22:21 19.07.2022
979 Clear 42 1012 17 10000 2.18 159 20:51 19.07.2022
980 Clear 41 1012 20 10000 1.47 149 20:18 19.07.2022
981 Clear 40 1012 19 10000 1.15 149 18:43 19.07.2022
982 Clear 39 1012 20 10000 0.92 135 17:56 19.07.2022
983 Clear 37 1012 26 10000 0.3 134 16:25 19.07.2022
984 Clear 35 1011 28 10000 0.5 352 14:20 19.07.2022
985 Clouds 36 1011 27 10000 0.31 326 11:35 19.07.2022
986 Clouds 37 1011 25 10000 0.99 177 10:31 19.07.2022
987 Clouds 38 1010 23 10000 2.53 170 08:48 19.07.2022
988 Clouds 39 1010 22 10000 2.52 172 08:22 19.07.2022
989 Clouds 39 1010 24 10000 3.72 175 07:18 19.07.2022
990 Clouds 42 1008 20 10000 5.51 184 05:26 19.07.2022
991 Clouds 42 1008 20 10000 5.51 184 04:46 19.07.2022
992 Clouds 45 1007 15 10000 5.86 159 00:34 19.07.2022
993 Clouds 44 1009 16 10000 5.57 158 23:22 18.07.2022
994 Clouds 44 1009 16 10000 5.57 158 22:56 18.07.2022
995 Clouds 43 1010 17 10000 5.97 155 21:58 18.07.2022
996 Clouds 43 1010 17 10000 6.14 151 20:50 18.07.2022
997 Clouds 41 1011 19 10000 4.68 157 19:25 18.07.2022
998 Clouds 40 1010 22 10000 4.03 166 17:22 18.07.2022
999 Clouds 38 1010 24 10000 3.16 171 15:46 18.07.2022
1000 Clear 36 1010 26 10000 3.58 158 14:30 18.07.2022
1001 Clouds 37 1008 23 10000 1.3 159 12:45 18.07.2022
1002 Clear 38 1007 21 10000 1.41 190 11:29 18.07.2022
1003 Clear 39 1007 19 10000 2.62 204 08:54 18.07.2022
1004 Clouds 41 1006 17 10000 3.3 195 07:28 18.07.2022
1005 Clouds 48 1003 10 10000 4.43 184 00:42 18.07.2022
1006 Clouds 47 1005 11 10000 4.98 166 22:37 17.07.2022
1007 Clouds 47 1006 11 10000 4.06 165 21:57 17.07.2022
1008 Clouds 46 1007 12 10000 3.81 164 21:21 17.07.2022
1009 Clouds 46 1007 12 10000 3.81 164 20:44 17.07.2022
1010 Clouds 45 1007 13 10000 2.46 156 19:32 17.07.2022
1011 Clouds 43 1007 14 10000 2.4 164 18:54 17.07.2022
1012 Clouds 42 1008 15 10000 2.28 168 17:38 17.07.2022
1013 Clouds 41 1008 16 10000 1.82 168 16:51 17.07.2022
1014 Clouds 39 1007 18 10000 1.22 172 16:26 17.07.2022
1015 Clouds 37 1007 20 10000 1.18 177 14:58 17.07.2022
1016 Clouds 38 1006 19 10000 1.22 168 13:32 17.07.2022
1017 Clouds 39 1006 18 10000 1.08 195 11:50 17.07.2022
1018 Clouds 40 1006 18 10000 1.63 190 09:30 17.07.2022
1019 Clear 43 1006 16 10000 2.26 167 05:54 17.07.2022
1020 Clear 46 1005 14 10000 3.97 166 02:33 17.07.2022
1021 Clear 45 1008 16 10000 2.48 152 23:21 16.07.2022
1022 Clear 44 1009 18 10000 1.73 146 21:47 16.07.2022
1023 Clear 42 1011 22 10000 0.5 69 20:25 16.07.2022
1024 Clear 41 1011 21 10000 0.73 35 18:41 16.07.2022
1025 Clear 39 1011 24 10000 1.41 7 17:19 16.07.2022
1026 Clear 36 1011 29 10000 1.44 350 15:23 16.07.2022
1027 Clear 37 1010 30 10000 1.07 26 11:54 16.07.2022
1028 Clear 38 1010 29 10000 1.14 147 09:37 16.07.2022
1029 Clear 39 1010 27 10000 2.29 165 08:48 16.07.2022
1030 Clouds 39 1010 27 10000 2.74 163 08:29 16.07.2022
1031 Clouds 42 1008 24 10000 6.6 157 04:28 16.07.2022
1032 Clouds 44 1008 19 10000 4.82 159 03:29 16.07.2022
1033 Clouds 44 1010 19 10000 5.04 161 23:51 15.07.2022
1034 Clouds 44 1011 21 10000 4.26 171 22:43 15.07.2022
1035 Clouds 42 1012 23 10000 3.42 162 21:31 15.07.2022
1036 Clouds 41 1013 25 10000 2.53 156 20:31 15.07.2022
1037 Clouds 39 1013 29 10000 0.78 130 18:44 15.07.2022
1038 Clouds 37 1014 32 10000 0.49 58 17:48 15.07.2022
1039 Clouds 35 1014 39 10000 0.21 339 15:41 15.07.2022
1040 Clouds 34 1012 44 10000 1.11 2 13:22 15.07.2022
1041 Clouds 34 1012 43 10000 1.25 354 11:48 15.07.2022
1042 Clouds 34 1012 42 10000 1.93 14 10:42 15.07.2022
1043 Clouds 39 1009 26 10000 2.27 163 07:47 15.07.2022
1044 Clouds 38 1008 36 10000 10.91 174 02:39 15.07.2022
1045 Clouds 43 1008 19 10000 6.61 158 00:38 15.07.2022
1046 Clouds 43 1009 19 10000 7.79 166 22:54 14.07.2022
1047 Clouds 43 1010 18 10000 9.29 163 21:57 14.07.2022
1048 Clouds 43 1010 18 10000 9.29 163 21:33 14.07.2022
1049 Clouds 44 1010 16 10000 8.03 168 20:57 14.07.2022
1050 Clouds 44 1010 16 10000 8.03 168 20:37 14.07.2022
1051 Clouds 44 1010 15 10000 6.81 171 20:18 14.07.2022
1052 Clouds 40 1010 17 10000 3.34 172 16:42 14.07.2022
1053 Clouds 38 1010 19 10000 2.72 166 16:18 14.07.2022
1054 Clouds 36 1010 22 10000 2.28 165 14:44 14.07.2022
1055 Clear 36 1009 22 10000 2.07 172 13:33 14.07.2022
1056 Clear 37 1009 22 10000 2.48 181 12:23 14.07.2022
1057 Clear 38 1008 21 10000 2.56 183 11:26 14.07.2022
1058 Clear 38 1008 21 10000 2.56 183 10:49 14.07.2022
1059 Clear 39 1008 17 10000 2.47 196 08:28 14.07.2022
1060 Clear 44 1005 11 10000 5.2 220 03:42 14.07.2022
1061 Clear 46 1006 10 10000 5.88 182 00:55 14.07.2022
1062 Clear 46 1007 10 10000 5.96 176 00:18 14.07.2022
1063 Clear 45 1008 9 10000 6.12 169 22:28 13.07.2022
1064 Clear 45 1008 9 10000 6.12 169 21:37 13.07.2022
1065 Clear 44 1009 9 10000 6.42 168 20:38 13.07.2022
1066 Clear 40 1010 10 10000 5.18 163 18:26 13.07.2022
1067 Clear 39 1010 10 10000 4.07 161 17:22 13.07.2022
1068 Clear 37 1010 11 10000 2.54 152 16:18 13.07.2022
1069 Clear 36 1008 12 10000 2.35 176 13:57 13.07.2022
1070 Clear 37 1008 12 10000 2.93 180 11:33 13.07.2022
1071 Clear 37 1007 12 10000 3 180 10:44 13.07.2022
1072 Clear 38 1007 12 10000 3 183 09:30 13.07.2022
1073 Clear 39 1006 12 10000 2.27 197 08:24 13.07.2022
1074 Clear 43 1004 11 10000 2.96 225 04:50 13.07.2022
1075 Clear 47 1004 9 10000 5.51 199 00:49 13.07.2022
1076 Clear 46 1006 8 10000 5.14 178 22:48 12.07.2022
1077 Clear 46 1006 8 10000 5.08 173 21:49 12.07.2022
1078 Clear 45 1007 8 10000 4.75 168 20:54 12.07.2022
1079 Clear 45 1007 8 10000 4.75 168 20:36 12.07.2022
1080 Clear 42 1008 10 10000 2.28 162 18:53 12.07.2022
1081 Clear 39 1009 10 10000 1.56 169 17:29 12.07.2022
1082 Clear 38 1008 11 10000 1.44 164 15:35 12.07.2022
1083 Clear 35 1007 12 10000 1.65 156 13:44 12.07.2022
1084 Clear 37 1007 11 10000 2.15 184 11:59 12.07.2022
1085 Clear 38 1007 10 10000 2.41 189 10:47 12.07.2022
1086 Clear 39 1007 8 10000 2.61 197 09:19 12.07.2022
1087 Clear 40 1007 8 10000 1.99 205 07:57 12.07.2022
1088 Clear 42 1005 12 10000 1.75 188 05:57 12.07.2022
1089 Clear 42 1005 12 10000 1.75 188 05:39 12.07.2022
1090 Clear 46 1005 9 10000 2.75 168 01:43 12.07.2022
1091 Clear 45 1007 8 10000 1.97 148 22:52 11.07.2022
1092 Clear 45 1009 7 10000 1.43 146 21:44 11.07.2022
1093 Clear 43 1009 7 10000 1.04 140 20:33 11.07.2022
1094 Clear 42 1010 7 10000 0.94 139 19:33 11.07.2022
1095 Clear 41 1010 8 10000 0.79 127 18:32 11.07.2022
1096 Clear 39 1011 8 10000 0.57 120 17:36 11.07.2022
1097 Clear 37 1011 9 10000 0.65 164 15:46 11.07.2022
1098 Clear 33 1010 11 10000 0.34 162 14:32 11.07.2022
1099 Clear 36 1010 9 10000 1.45 212 11:40 11.07.2022
1100 Clear 37 1010 8 10000 1.74 210 10:22 11.07.2022
1101 Clear 37 1010 8 10000 1.69 212 09:42 11.07.2022
1102 Clear 38 1010 7 10000 1.89 216 08:33 11.07.2022
1103 Clear 41 1009 5 10000 2.96 212 04:34 11.07.2022
1104 Clear 45 1010 9 10000 3.89 169 00:22 11.07.2022
1105 Clear 44 1011 9 10000 3.63 167 22:56 10.07.2022
1106 Clear 43 1012 8 10000 3.15 162 21:51 10.07.2022
1107 Clear 42 1013 9 10000 2.34 157 20:54 10.07.2022
1108 Clear 40 1014 10 10000 1.62 156 19:50 10.07.2022
1109 Clear 39 1014 11 10000 1.21 160 18:48 10.07.2022
1110 Clear 38 1015 12 10000 0.85 162 17:37 10.07.2022
1111 Clear 37 1015 12 10000 0.88 170 16:57 10.07.2022
1112 Clear 36 1014 12 10000 0.71 178 15:33 10.07.2022
1113 Clear 33 1014 14 10000 0.64 165 14:30 10.07.2022
1114 Clear 34 1013 13 10000 1.17 182 12:29 10.07.2022
1115 Clear 35 1013 12 10000 1.59 177 11:25 10.07.2022
1116 Clear 36 1013 10 10000 2.21 187 08:45 10.07.2022
1117 Clear 37 1013 11 10000 2.6 189 07:59 10.07.2022
1118 Clear 44 1010 4 10000 6.04 198 02:50 10.07.2022
1119 Clear 44 1011 4 10000 6.17 188 23:30 09.07.2022
1120 Clear 43 1013 5 10000 6.06 172 22:25 09.07.2022
1121 Clear 42 1013 6 10000 5.54 168 21:29 09.07.2022
1122 Clear 39 1015 11 10000 4.62 165 18:58 09.07.2022
1123 Clear 37 1015 14 10000 4.37 165 17:59 09.07.2022
1124 Clear 36 1015 16 10000 3.66 170 16:59 09.07.2022
1125 Clear 34 1015 18 10000 2.5 169 15:54 09.07.2022
1126 Clear 34 1015 18 10000 2.5 169 15:35 09.07.2022
1127 Clouds 32 1013 19 10000 2.14 183 13:54 09.07.2022
1128 Clouds 33 1013 19 10000 2.22 183 13:27 09.07.2022
1129 Clouds 33 1012 18 10000 2.38 181 11:34 09.07.2022
1130 Clouds 35 1012 15 10000 2.51 181 10:24 09.07.2022
1131 Clouds 36 1012 13 10000 2.45 191 08:27 09.07.2022
1132 Clouds 37 1011 12 10000 2.04 198 06:59 09.07.2022
1133 Clouds 39 1010 10 10000 3.14 202 04:35 09.07.2022
1134 Clouds 43 1010 9 10000 5.27 178 23:33 08.07.2022
1135 Clouds 42 1011 10 10000 5.1 162 22:00 08.07.2022
1136 Clouds 41 1012 10 10000 5.17 162 21:21 08.07.2022
1137 Clouds 41 1012 10 10000 5.17 162 20:35 08.07.2022
1138 Clouds 38 1013 13 10000 2.63 161 18:45 08.07.2022
1139 Clouds 37 1013 15 10000 2.1 165 17:45 08.07.2022
1140 Clouds 34 1013 17 10000 0.97 141 16:24 08.07.2022
1141 Clouds 32 1012 18 10000 1.36 151 14:50 08.07.2022
1142 Clear 32 1011 16 10000 2.27 163 12:31 08.07.2022
1143 Clear 33 1011 13 10000 2.22 169 10:47 08.07.2022
1144 Clear 34 1011 12 10000 2.43 164 09:58 08.07.2022
1145 Clear 36 1010 11 10000 2.27 205 06:59 08.07.2022
1146 Clear 37 1009 10 10000 2.78 206 05:33 08.07.2022
1147 Clear 42 1008 7 10000 5.7 197 00:40 08.07.2022
1148 Clear 42 1009 9 10000 5.69 186 22:50 07.07.2022
1149 Clear 41 1010 11 10000 5.71 173 21:48 07.07.2022
1150 Clear 38 1011 15 10000 5.11 165 19:34 07.07.2022
1151 Clear 35 1012 19 10000 3.81 166 17:43 07.07.2022
1152 Clear 32 1011 23 10000 2.02 167 16:21 07.07.2022
1153 Clear 31 1010 25 10000 2.15 160 13:40 07.07.2022
1154 Clear 31 1010 23 10000 2.33 166 12:43 07.07.2022
1155 Clear 32 1009 21 10000 2.33 167 12:23 07.07.2022
1156 Clear 32 1009 21 10000 2.33 167 11:33 07.07.2022
1157 Clear 33 1009 19 10000 2.3 173 10:45 07.07.2022
1158 Clear 33 1009 18 10000 2.36 176 10:27 07.07.2022
1159 Clear 34 1009 18 10000 2.68 178 09:22 07.07.2022
1160 Clear 36 1007 15 10000 3.53 202 05:57 07.07.2022
1161 Clear 41 1006 13 10000 6.34 187 00:18 07.07.2022
1162 Clear 41 1006 13 10000 6.34 187 23:36 06.07.2022
1163 Clear 40 1007 14 10000 6.3 183 23:18 06.07.2022
1164 Clear 40 1007 14 10000 6.3 183 22:51 06.07.2022
1165 Clear 40 1007 14 10000 6.3 183 22:33 06.07.2022
1166 Clear 38 1009 19 10000 5.76 165 20:19 06.07.2022
1167 Clear 36 1010 25 10000 4.59 166 19:18 06.07.2022
1168 Clear 33 1010 31 10000 3.86 165 17:21 06.07.2022
1169 Clear 31 1010 33 10000 3.07 158 15:50 06.07.2022
1170 Clear 31 1008 33 10000 3.11 172 12:44 06.07.2022
1171 Clear 32 1008 31 10000 3.44 172 11:52 06.07.2022
1172 Clear 32 1008 29 10000 3.4 172 10:49 06.07.2022
1173 Clear 33 1007 27 10000 3.01 179 09:21 06.07.2022
1174 Clear 34 1007 27 10000 3.1 181 07:44 06.07.2022
1175 Clear 35 1007 25 10000 3.9 186 06:44 06.07.2022
1176 Clear 40 1006 13 10000 6.31 179 23:42 05.07.2022
1177 Clear 40 1007 14 10000 6 173 22:42 05.07.2022
1178 Clear 37 1009 17 10000 5.15 161 20:48 05.07.2022
1179 Clear 36 1009 20 10000 4.06 163 20:21 05.07.2022
1180 Clear 35 1010 19 10000 4.46 162 19:37 05.07.2022
1181 Clear 32 1010 23 10000 2.61 164 17:50 05.07.2022
1182 Clear 31 1010 25 10000 2.06 167 17:19 05.07.2022
1183 Clear 30 1010 26 10000 1.35 161 16:18 05.07.2022
1184 Clear 29 1009 29 10000 0.98 156 14:54 05.07.2022
1185 Clear 29 1009 28 10000 1.59 155 13:34 05.07.2022
1186 Clear 30 1008 25 10000 2.81 167 12:22 05.07.2022
1187 Clear 31 1007 24 10000 3.27 170 10:45 05.07.2022
1188 Clear 32 1007 23 10000 4.02 172 09:57 05.07.2022
1189 Clear 33 1007 21 10000 4.21 173 08:21 05.07.2022
1190 Clear 34 1006 19 10000 4.32 174 06:51 05.07.2022
1191 Clear 37 1005 15 10000 5.37 184 04:37 05.07.2022
1192 Clear 39 1005 12 10000 6.59 181 01:33 05.07.2022
1193 Clear 39 1006 12 10000 5.58 172 23:37 04.07.2022
1194 Clear 38 1007 12 10000 5.46 165 22:56 04.07.2022
1195 Clear 37 1008 13 10000 5.01 160 22:18 04.07.2022
1196 Clear 35 1009 15 10000 4.62 160 20:56 04.07.2022
1197 Clear 35 1009 15 10000 4.62 160 20:36 04.07.2022
1198 Clear 34 1009 17 10000 3.66 161 19:56 04.07.2022
1199 Clear 34 1009 16 10000 3.24 161 19:37 04.07.2022
1200 Clear 32 1009 18 10000 2.82 162 18:51 04.07.2022
1201 Clear 30 1009 22 10000 2.78 160 16:54 04.07.2022
1202 Clear 29 1009 24 10000 1.97 146 15:35 04.07.2022
1203 Clear 27 1008 26 10000 1.83 153 13:47 04.07.2022
1204 Clear 27 1008 24 10000 2.17 153 12:55 04.07.2022
1205 Clear 29 1007 20 10000 2.22 163 10:57 04.07.2022
1206 Clear 30 1006 18 10000 2.42 179 10:27 04.07.2022
1207 Clear 30 1006 17 10000 3.05 182 09:21 04.07.2022
1208 Clear 33 1003 13 10000 5.88 186 06:28 04.07.2022
1209 Clear 39 1002 7 10000 8.4 192 02:59 04.07.2022
1210 Clear 40 1003 7 10000 6.86 193 23:52 03.07.2022
1211 Clear 40 1004 8 10000 6.12 177 22:36 03.07.2022
1212 Clear 37 1006 13 10000 5.23 162 20:46 03.07.2022
1213 Clear 36 1007 13 10000 4.55 162 19:59 03.07.2022
1214 Clear 34 1007 16 10000 3.69 161 19:25 03.07.2022
1215 Clear 34 1007 16 10000 3.69 161 18:30 03.07.2022
1216 Clear 33 1008 17 10000 3.36 163 17:41 03.07.2022
1217 Clear 28 1007 22 10000 1.8 166 15:28 03.07.2022
1218 Clear 28 1007 22 10000 1.8 166 14:54 03.07.2022
1219 Clear 28 1006 22 10000 1.87 177 13:50 03.07.2022
1220 Clear 30 1006 19 10000 2.16 184 12:49 03.07.2022
1221 Clear 31 1005 18 10000 2.82 190 12:19 03.07.2022
1222 Clear 32 1005 17 10000 3.33 190 10:54 03.07.2022
1223 Clear 32 1005 17 10000 3.33 190 10:36 03.07.2022
1224 Clear 34 1004 16 10000 4.55 186 08:21 03.07.2022
1225 Clear 34 1004 15 10000 4.37 183 07:34 03.07.2022
1226 Clear 42 1004 11 10000 9.21 192 00:41 03.07.2022
1227 Clear 42 1004 12 10000 8.25 191 23:38 02.07.2022
1228 Clear 41 1005 13 10000 7.44 183 22:31 02.07.2022
1229 Clear 39 1007 14 10000 5.96 166 20:36 02.07.2022
1230 Clear 38 1008 14 10000 5.26 162 19:50 02.07.2022
1231 Clear 36 1008 15 10000 4.51 162 18:48 02.07.2022
1232 Clear 35 1009 16 10000 3.96 163 17:40 02.07.2022
1233 Clear 34 1009 16 10000 3.53 163 16:32 02.07.2022
1234 Clear 32 1008 20 10000 2.39 165 13:51 02.07.2022
1235 Clear 33 1007 18 10000 2.97 179 11:51 02.07.2022
1236 Clear 34 1007 18 10000 3.16 181 10:52 02.07.2022
1237 Clear 35 1007 17 10000 3.49 185 10:28 02.07.2022
1238 Clear 35 1007 17 10000 3.78 184 08:39 02.07.2022
1239 Clear 36 1007 16 10000 4.16 182 08:19 02.07.2022
1240 Clear 38 1005 14 10000 5.52 190 05:59 02.07.2022
1241 Clear 43 1006 7 10000 4.36 184 00:47 02.07.2022
1242 Clear 43 1007 6 10000 3.92 169 23:31 01.07.2022
1243 Clear 42 1008 6 10000 4.14 162 22:36 01.07.2022
1244 Clear 41 1009 7 10000 3.98 161 21:40 01.07.2022
1245 Clear 39 1010 7 10000 3.59 160 20:59 01.07.2022
1246 Clear 39 1010 7 10000 3.59 160 20:37 01.07.2022
1247 Clear 38 1011 8 10000 3.16 159 19:41 01.07.2022
1248 Clear 35 1012 10 10000 2.28 164 17:45 01.07.2022
1249 Clear 31 1010 15 10000 1.71 156 15:26 01.07.2022
1250 Clear 31 1009 14 10000 1.34 143 13:54 01.07.2022
1251 Clear 31 1009 14 10000 1.34 143 13:54 01.07.2022
1252 Clear 32 1009 11 10000 1.16 183 11:49 01.07.2022
1253 Clear 34 1008 11 10000 2.71 185 10:20 01.07.2022
1254 Clear 35 1008 11 10000 3.55 190 08:50 01.07.2022
1255 Clear 42 1006 10 10000 9.14 219 03:18 01.07.2022
1256 Clear 43 1007 9 10000 6.12 206 00:25 01.07.2022
1257 Clear 43 1008 10 10000 4.98 191 22:56 30.06.2022
1258 Clear 43 1008 10 10000 4.98 191 22:33 30.06.2022
1259 Clear 42 1009 11 10000 4.68 174 21:59 30.06.2022
1260 Clear 42 1009 11 10000 4.68 174 21:41 30.06.2022
1261 Clear 39 1011 13 10000 4.03 169 20:29 30.06.2022
1262 Clear 39 1011 13 10000 4.08 166 19:54 30.06.2022
1263 Clear 38 1011 14 10000 3.42 165 19:24 30.06.2022
1264 Clear 38 1011 14 10000 3.42 165 18:42 30.06.2022
1265 Clear 36 1011 15 10000 3.03 165 17:43 30.06.2022
1266 Clear 35 1011 16 10000 2.61 167 16:48 30.06.2022
1267 Clear 34 1011 18 10000 1.8 178 15:39 30.06.2022
1268 Clouds 32 1010 19 10000 1.48 177 13:34 30.06.2022
1269 Clouds 33 1010 18 10000 1.42 187 12:35 30.06.2022
1270 Clouds 34 1010 16 10000 1.87 191 11:37 30.06.2022
1271 Clouds 35 1009 14 10000 3.74 200 09:55 30.06.2022
1272 Clouds 35 1009 14 10000 3.74 200 09:34 30.06.2022
1273 Clear 36 1009 14 10000 5.31 191 08:18 30.06.2022
1274 Clear 37 1008 14 10000 5.32 188 07:18 30.06.2022
1275 Clear 44 1006 11 10000 12.5 226 01:42 30.06.2022
1276 Clear 45 1007 9 10000 7.46 213 23:34 29.06.2022
1277 Clear 44 1008 9 10000 6.52 199 22:40 29.06.2022
1278 Clear 44 1009 10 10000 6.22 191 21:39 29.06.2022
1279 Clear 43 1010 12 10000 7.02 177 20:34 29.06.2022
1280 Clear 42 1011 12 10000 6.72 172 19:39 29.06.2022
1281 Clear 40 1011 13 10000 5.32 169 17:54 29.06.2022
1282 Clear 39 1012 14 10000 4.93 172 16:48 29.06.2022
1283 Clear 37 1011 15 10000 3.72 175 15:32 29.06.2022
1284 Clear 37 1010 17 10000 2.77 182 12:49 29.06.2022
1285 Clear 37 1010 17 10000 3.01 184 11:57 29.06.2022
1286 Clear 38 1010 17 10000 2.53 182 09:35 29.06.2022
1287 Clear 39 1010 16 10000 2.77 179 08:46 29.06.2022
1288 Clear 42 1009 14 10000 4.45 197 05:42 29.06.2022
1289 Clouds 45 1008 11 10000 7.15 190 02:21 29.06.2022
1290 Clouds 46 1008 11 10000 6.22 190 00:38 29.06.2022
1291 Clouds 46 1009 12 10000 5.82 186 23:55 28.06.2022
1292 Clouds 45 1010 12 10000 5.66 182 22:48 28.06.2022
1293 Clouds 45 1011 12 10000 5.11 171 21:55 28.06.2022
1294 Clouds 45 1011 12 10000 5.11 171 21:33 28.06.2022
1295 Clouds 44 1012 12 10000 4.61 165 20:55 28.06.2022
1296 Clear 43 1013 12 10000 3.73 163 19:50 28.06.2022
1297 Clear 42 1013 13 10000 2.69 163 19:24 28.06.2022
1298 Clear 42 1013 13 10000 2.69 163 18:37 28.06.2022
1299 Clear 39 1013 16 10000 2.13 163 16:35 28.06.2022
1300 Clear 38 1013 18 10000 1.44 158 15:54 28.06.2022
1301 Clear 36 1013 20 10000 1.66 164 14:48 28.06.2022
1302 Clear 36 1012 19 10000 1.7 172 14:18 28.06.2022
1303 Clear 36 1013 19 10000 1.6 169 13:45 28.06.2022
1304 Clear 37 1012 17 10000 1.81 181 11:58 28.06.2022
1305 Clear 39 1012 15 10000 2.54 191 09:50 28.06.2022
1306 Clear 39 1012 13 10000 2.61 195 08:54 28.06.2022
1307 Clear 40 1012 12 10000 2.79 192 08:26 28.06.2022
1308 Clear 41 1012 13 10000 2.77 179 07:20 28.06.2022
1309 Clear 44 1010 10 10000 3.48 167 02:42 28.06.2022
1310 Clear 44 1012 10 10000 2.32 164 23:49 27.06.2022
1311 Clear 43 1013 13 10000 2.34 166 23:25 27.06.2022
1312 Clear 42 1014 15 10000 2.15 166 21:53 27.06.2022
1313 Clear 41 1015 16 10000 1.99 164 21:21 27.06.2022
1314 Clear 40 1016 19 10000 1.9 159 19:54 27.06.2022
1315 Clear 38 1016 21 10000 1.82 151 18:50 27.06.2022
1316 Clear 37 1016 23 10000 1.87 143 17:33 27.06.2022
1317 Clear 35 1016 25 10000 1.58 132 15:44 27.06.2022
1318 Clear 34 1014 22 10000 2.12 155 14:18 27.06.2022
1319 Clear 35 1014 16 10000 2.8 154 12:58 27.06.2022
1320 Clear 36 1013 10 10000 2.34 141 11:40 27.06.2022
1321 Clear 38 1012 9 10000 0.88 220 09:45 27.06.2022
1322 Clear 38 1012 8 10000 1.66 195 08:43 27.06.2022
1323 Clear 39 1012 8 10000 2.2 187 07:39 27.06.2022
1324 Clear 41 1011 7 10000 2.89 170 05:50 27.06.2022
1325 Clear 44 1010 7 10000 3.5 168 01:24 27.06.2022
1326 Clear 43 1011 7 10000 2.83 164 22:59 26.06.2022
1327 Clear 42 1013 8 10000 1.83 160 21:38 26.06.2022
1328 Clear 41 1013 9 10000 1.48 160 20:33 26.06.2022
1329 Clear 39 1014 10 10000 1.05 131 18:34 26.06.2022
1330 Clear 38 1014 10 10000 0.62 113 17:47 26.06.2022
1331 Clear 36 1013 12 10000 0.81 134 15:37 26.06.2022
1332 Clear 34 1011 14 10000 0.74 269 14:23 26.06.2022
1333 Clear 34 1011 13 10000 0.83 297 13:26 26.06.2022
1334 Clear 35 1011 11 10000 0.9 225 11:49 26.06.2022
1335 Clear 35 1010 11 10000 1.36 205 10:42 26.06.2022
1336 Clear 36 1010 10 10000 1.59 201 10:22 26.06.2022
1337 Clear 37 1010 9 10000 1.6 210 08:36 26.06.2022
1338 Clear 38 1009 10 10000 2.31 177 06:31 26.06.2022
1339 Clear 43 1007 8 10000 3.34 156 00:38 26.06.2022
1340 Clear 43 1008 8 10000 3.29 156 00:19 26.06.2022
1341 Clear 43 1008 8 10000 3.29 156 23:31 25.06.2022
1342 Clear 43 1009 9 10000 2.61 157 22:48 25.06.2022
1343 Clear 42 1010 10 10000 2.01 153 22:25 25.06.2022
1344 Clear 41 1010 12 10000 1.55 148 21:21 25.06.2022
1345 Clear 41 1010 12 10000 1.55 148 20:48 25.06.2022
1346 Clear 39 1011 14 10000 1.31 147 20:25 25.06.2022
1347 Clear 37 1011 14 10000 1.03 139 18:26 25.06.2022
1348 Clear 36 1011 14 10000 0.85 158 17:27 25.06.2022
1349 Clear 35 1011 15 10000 0.66 165 16:29 25.06.2022
1350 Clear 32 1010 18 10000 0.64 145 14:43 25.06.2022
1351 Clear 33 1009 15 10000 1.26 137 12:51 25.06.2022
1352 Clear 33 1009 15 10000 1.26 137 12:32 25.06.2022
1353 Clear 36 1009 11 10000 1.86 184 09:35 25.06.2022
1354 Clear 36 1009 11 10000 1.88 186 08:55 25.06.2022
1355 Clear 37 1008 10 10000 1.99 176 08:25 25.06.2022
1356 Clear 38 1007 12 10000 2.25 188 06:36 25.06.2022
1357 Clear 41 1006 10 10000 2.04 151 01:31 25.06.2022
1358 Clear 40 1007 10 10000 1.9 150 23:58 24.06.2022
1359 Clear 39 1009 13 10000 0.99 137 22:29 24.06.2022
1360 Clear 38 1010 16 10000 0.66 109 21:28 24.06.2022
1361 Clear 37 1010 18 10000 0.62 91 20:24 24.06.2022
1362 Clear 37 1010 16 10000 0.82 119 19:39 24.06.2022
1363 Clear 36 1011 18 10000 0.69 108 19:18 24.06.2022
1364 Clear 36 1011 18 10000 0.69 108 18:46 24.06.2022
1365 Clear 35 1011 19 10000 0.63 101 18:28 24.06.2022
1366 Clear 34 1011 21 10000 0.36 85 16:48 24.06.2022
1367 Clear 31 1010 24 10000 0.73 340 14:58 24.06.2022
1368 Clear 31 1010 25 10000 1.16 346 14:24 24.06.2022
1369 Clear 31 1010 25 10000 1.16 346 13:46 24.06.2022
1370 Clear 32 1009 23 10000 0.18 28 11:42 24.06.2022
1371 Clear 33 1009 23 10000 0.41 203 10:42 24.06.2022
1372 Clear 33 1008 23 10000 0.41 240 09:42 24.06.2022
1373 Clear 34 1008 23 10000 0.55 248 08:54 24.06.2022
1374 Clear 34 1008 23 10000 0.81 255 08:32 24.06.2022
1375 Clear 36 1008 22 10000 1.09 216 06:45 24.06.2022
1376 Clouds 36 1007 21 10000 1.3 188 06:26 24.06.2022
1377 Clouds 37 1007 20 10000 0.67 185 04:50 24.06.2022
1378 Clear 39 1008 17 10000 5.33 180 23:43 23.06.2022
1379 Clear 38 1009 21 10000 3.25 166 22:43 23.06.2022
1380 Clear 37 1010 23 10000 2.26 160 21:40 23.06.2022
1381 Clear 35 1011 26 10000 1.62 154 20:42 23.06.2022
1382 Clear 33 1012 30 10000 0.92 134 19:57 23.06.2022
1383 Clear 32 1012 33 10000 0.4 79 18:43 23.06.2022
1384 Clear 31 1013 36 10000 0.61 6 17:35 23.06.2022
1385 Clear 30 1013 40 10000 0.75 30 16:32 23.06.2022
1386 Clear 27 1013 50 10000 0.42 297 15:26 23.06.2022
1387 Clear 27 1013 50 10000 0.42 297 14:45 23.06.2022
1388 Clear 27 1013 47 10000 0.74 17 11:54 23.06.2022
1389 Clear 28 1014 46 10000 1 5 10:56 23.06.2022
1390 Clear 28 1014 45 10000 1.06 359 09:20 23.06.2022
1391 Clouds 31 1014 40 10000 0.53 7 05:48 23.06.2022
1392 Clouds 34 1013 33 10000 6.95 351 01:22 23.06.2022
1393 Clouds 34 1014 33 10000 5.9 350 00:25 23.06.2022
1394 Clouds 33 1015 35 10000 4.96 339 23:22 22.06.2022
1395 Clouds 33 1015 32 10000 4.87 338 21:44 22.06.2022
1396 Clouds 34 1015 29 10000 4.35 330 20:52 22.06.2022
1397 Clouds 34 1015 27 10000 4.34 343 20:20 22.06.2022
1398 Clouds 33 1016 32 10000 5.27 354 19:44 22.06.2022
1399 Clouds 31 1016 35 10000 1.76 344 17:50 22.06.2022
1400 Clouds 32 1015 29 10000 1.78 199 16:50 22.06.2022
1401 Clouds 31 1014 26 10000 4.46 176 15:46 22.06.2022
1402 Clouds 32 1013 23 10000 2.96 157 15:22 22.06.2022
1403 Clouds 32 1012 18 10000 1.75 183 13:50 22.06.2022
1404 Clouds 33 1011 14 10000 1.19 168 13:25 22.06.2022
1405 Clouds 33 1011 14 10000 1.19 168 12:37 22.06.2022
1406 Clouds 32 1011 13 10000 1.31 148 11:47 22.06.2022
1407 Clear 32 1011 12 10000 1.37 146 10:53 22.06.2022
1408 Clear 33 1011 11 10000 0.92 163 09:44 22.06.2022
1409 Clear 34 1010 8 10000 0.83 209 07:56 22.06.2022
1410 Clear 40 1009 5 10000 0.62 135 03:25 22.06.2022
1411 Clear 40 1010 5 10000 1.06 182 01:21 22.06.2022
1412 Clear 40 1011 5 10000 0.49 204 23:39 21.06.2022
1413 Clear 39 1012 6 10000 1.08 20 21:31 21.06.2022
1414 Clouds 37 1013 7 10000 2.63 18 19:43 21.06.2022
1415 Clouds 34 1013 9 10000 3.12 10 17:57 21.06.2022
1416 Clouds 33 1013 10 10000 2.52 11 16:52 21.06.2022
1417 Clouds 29 1012 13 10000 1.43 341 12:40 21.06.2022
1418 Clouds 29 1012 13 10000 1.05 345 10:55 21.06.2022
1419 Clouds 29 1011 14 10000 0.67 0 09:40 21.06.2022
1420 Clear 30 1011 13 10000 0.6 344 08:22 21.06.2022
1421 Clear 30 1011 13 10000 0.6 344 08:22 21.06.2022
1422 Clear 31 1011 12 10000 0.95 302 05:37 21.06.2022
1423 Clear 36 1011 8 10000 0.57 100 00:37 21.06.2022
1424 Clear 34 1014 10 10000 1.55 27 22:25 20.06.2022
1425 Clear 34 1014 10 10000 1.55 27 21:50 20.06.2022
1426 Clear 33 1015 12 10000 2.59 14 20:32 20.06.2022
1427 Clear 33 1015 12 10000 2.59 14 20:32 20.06.2022
1428 Clear 32 1016 13 10000 3.51 8 19:38 20.06.2022
1429 Clear 30 1017 15 10000 3.81 11 18:44 20.06.2022
1430 Clear 29 1017 16 10000 4.4 6 17:52 20.06.2022
1431 Clear 28 1017 17 10000 4.78 358 17:29 20.06.2022
1432 Clear 26 1016 18 10000 4.01 354 15:55 20.06.2022
1433 Clear 25 1015 18 10000 2.83 356 12:44 20.06.2022
1434 Clear 26 1014 17 10000 2.51 356 10:41 20.06.2022
1435 Clear 26 1014 16 10000 3.21 358 09:41 20.06.2022
1436 Clear 28 1013 14 10000 3.95 4 08:44 20.06.2022
1437 Clear 29 1011 13 10000 1.03 203 05:55 20.06.2022
1438 Clear 33 1010 10 10000 1.07 108 02:29 20.06.2022
1439 Clear 32 1011 11 10000 1.02 112 00:26 20.06.2022
1440 Clear 31 1012 12 10000 0.87 101 22:59 19.06.2022
1441 Clear 30 1013 13 10000 1.08 103 21:58 19.06.2022
1442 Clear 30 1013 13 10000 1.08 103 21:40 19.06.2022
1443 Clear 29 1013 15 10000 0.89 97 20:39 19.06.2022
1444 Clear 28 1014 17 10000 0.79 66 19:48 19.06.2022
1445 Clear 26 1014 19 10000 0.7 54 18:57 19.06.2022
1446 Clear 26 1014 19 10000 0.7 54 18:30 19.06.2022
1447 Clear 24 1014 24 10000 0.41 92 17:22 19.06.2022
1448 Clear 24 1014 24 10000 0.41 92 16:35 19.06.2022
1449 Clear 23 1014 25 10000 0.65 201 15:43 19.06.2022
1450 Clear 21 1013 29 10000 0.42 182 15:24 19.06.2022
1451 Clear 21 1012 26 10000 0.13 18 14:20 19.06.2022
1452 Clear 21 1012 26 10000 0.13 18 13:37 19.06.2022
1453 Clear 22 1010 25 10000 0.94 208 11:40 19.06.2022
1454 Clear 22 1010 24 10000 0.56 190 10:47 19.06.2022
1455 Clear 23 1009 22 10000 2.59 208 08:54 19.06.2022
1456 Clear 24 1007 22 10000 2.91 204 08:22 19.06.2022
1457 Clear 26 1004 18 10000 7.26 189 05:59 19.06.2022
1458 Clear 32 1002 8 10000 9.38 201 02:59 19.06.2022
1459 Clear 34 1003 6 10000 7.1 193 00:26 19.06.2022
1460 Clear 34 1003 6 10000 7.1 193 23:36 18.06.2022
1461 Clear 33 1004 6 10000 6.85 190 22:55 18.06.2022
1462 Clear 33 1005 6 10000 6.51 176 21:52 18.06.2022
1463 Clear 31 1006 7 10000 5.52 169 20:50 18.06.2022
1464 Clear 30 1007 9 10000 4.66 164 19:50 18.06.2022
1465 Clear 28 1007 11 10000 3.99 167 18:54 18.06.2022
1466 Clear 28 1007 11 10000 3.99 167 18:30 18.06.2022
1467 Clear 25 1007 14 10000 3.52 172 17:28 18.06.2022
1468 Clear 24 1007 16 10000 3.27 173 15:39 18.06.2022
1469 Clear 22 1006 18 10000 3.03 179 14:50 18.06.2022
1470 Clear 22 1006 18 10000 2.74 185 13:54 18.06.2022
1471 Clear 23 1005 16 10000 3.65 196 12:25 18.06.2022
1472 Clear 24 1004 17 10000 4.38 198 10:59 18.06.2022
1473 Clouds 25 1004 17 10000 5.38 193 09:31 18.06.2022
1474 Clouds 26 1004 17 10000 5.72 191 08:40 18.06.2022
1475 Clouds 26 1003 18 10000 6.07 187 07:34 18.06.2022
1476 Clouds 31 1001 12 10000 8.25 193 05:20 18.06.2022
1477 Clouds 35 1000 9 10000 9.76 204 01:47 18.06.2022
1478 Clouds 36 1001 9 10000 11.44 209 01:21 18.06.2022
1479 Clouds 37 1001 10 10000 11.26 209 00:23 18.06.2022
1480 Clouds 37 1001 10 10000 11.26 209 00:23 18.06.2022
1481 Clouds 37 1001 10 10000 11.26 209 23:36 17.06.2022
1482 Clouds 37 1002 8 10000 8.9 200 22:29 17.06.2022
1483 Clear 36 1002 11 10000 7.84 190 20:29 17.06.2022
1484 Clear 35 1002 11 10000 7.95 180 19:24 17.06.2022
1485 Clear 35 1002 11 10000 7.95 180 19:24 17.06.2022
1486 Clear 34 1003 13 10000 7.46 174 17:56 17.06.2022
1487 Clear 33 1003 15 10000 6.8 172 16:44 17.06.2022
1488 Clear 31 1002 18 10000 5.85 176 16:25 17.06.2022
1489 Clear 31 1002 18 10000 5.85 176 15:40 17.06.2022
1490 Clear 30 1002 19 10000 5.33 178 14:23 17.06.2022
1491 Clear 30 1002 19 10000 5.33 178 13:58 17.06.2022
1492 Clear 30 1002 19 10000 5.33 178 13:38 17.06.2022
1493 Clear 32 1001 16 10000 5.02 177 12:28 17.06.2022
1494 Clear 32 1001 16 10000 5.02 177 11:55 17.06.2022
1495 Clear 32 1001 16 10000 5.02 177 11:33 17.06.2022
1496 Clear 34 1001 14 10000 5.42 181 09:36 17.06.2022
1497 Clear 35 1001 13 10000 5 180 08:26 17.06.2022
1498 Clear 36 1000 12 10000 4.85 183 06:45 17.06.2022
1499 Clear 42 999 7 10000 5.7 217 03:59 17.06.2022
1500 Clear 44 999 5 10000 9.27 202 01:56 17.06.2022
1501 Clear 45 1001 5 10000 7.25 201 23:47 16.06.2022
1502 Clear 44 1002 6 10000 6.34 197 22:42 16.06.2022
1503 Clear 42 1004 7 10000 7.1 180 21:23 16.06.2022
1504 Clear 42 1004 7 10000 7.1 180 20:55 16.06.2022
1505 Clear 42 1004 7 10000 7.1 180 20:35 16.06.2022
1506 Clear 41 1005 8 10000 6.25 167 19:41 16.06.2022
1507 Clear 38 1006 9 10000 3.97 168 18:24 16.06.2022
1508 Clear 38 1006 9 10000 3.97 168 17:43 16.06.2022
1509 Clear 37 1006 9 10000 2.96 171 16:35 16.06.2022
1510 Clear 32 1006 12 10000 2.17 170 15:22 16.06.2022
1511 Clear 32 1006 12 10000 2.17 170 14:37 16.06.2022
1512 Clear 32 1006 11 10000 2.17 167 13:22 16.06.2022
1513 Clear 32 1006 11 10000 2.17 167 12:36 16.06.2022
1514 Clear 33 1006 10 10000 1.94 167 11:51 16.06.2022
1515 Clear 33 1006 10 10000 1.94 167 11:51 16.06.2022
1516 Clear 33 1006 9 10000 1.7 171 10:55 16.06.2022
1517 Clear 34 1006 8 10000 1.74 178 09:53 16.06.2022
1518 Clear 34 1006 8 10000 1.84 181 09:21 16.06.2022
1519 Clear 34 1006 8 10000 1.84 181 08:30 16.06.2022
1520 Clear 36 1006 7 10000 1.95 171 07:26 16.06.2022
1521 Clear 38 1005 6 10000 3.1 163 04:50 16.06.2022
1522 Clear 41 1005 5 10000 2.52 160 02:20 16.06.2022
1523 Clear 41 1005 5 10000 2.52 160 01:35 16.06.2022
1524 Clear 41 1006 5 10000 1.81 151 00:56 16.06.2022
1525 Clear 40 1007 5 10000 1.17 148 23:43 15.06.2022
1526 Clear 40 1008 5 10000 0.79 137 22:38 15.06.2022
1527 Clear 38 1010 5 10000 1.31 26 21:22 15.06.2022
1528 Clear 38 1010 5 10000 1.31 26 20:44 15.06.2022
1529 Clear 36 1010 6 10000 2.41 15 20:25 15.06.2022
1530 Clear 35 1011 7 10000 3.28 10 19:29 15.06.2022
1531 Clear 34 1011 7 10000 3.5 6 17:56 15.06.2022
1532 Clear 33 1011 8 10000 3.16 5 17:25 15.06.2022
1533 Clear 31 1010 9 10000 2.18 359 15:38 15.06.2022
1534 Clear 28 1009 11 10000 1.97 351 14:23 15.06.2022
1535 Clear 28 1009 11 10000 1.92 344 12:54 15.06.2022
1536 Clear 29 1009 10 10000 1.85 341 11:58 15.06.2022
1537 Clear 30 1008 10 10000 1.34 351 10:24 15.06.2022
1538 Clear 30 1008 10 10000 1.34 351 09:45 15.06.2022
1539 Clear 30 1008 10 10000 0.83 349 08:50 15.06.2022
1540 Clear 31 1008 10 10000 0.69 322 06:36 15.06.2022
1541 Clear 33 1007 9 10000 0.3 341 04:46 15.06.2022
1542 Clear 36 1007 7 10000 0.86 135 01:55 15.06.2022
1543 Clear 36 1007 7 10000 0.68 98 00:51 15.06.2022
1544 Clear 36 1007 7 10000 0.68 98 00:51 15.06.2022
1545 Clear 35 1008 7 10000 0.67 70 23:40 14.06.2022
1546 Clear 34 1009 8 10000 0.98 43 23:21 14.06.2022
1547 Clear 33 1011 8 10000 1.67 25 22:23 14.06.2022
1548 Clear 33 1011 8 10000 1.67 25 21:40 14.06.2022
1549 Clear 32 1012 9 10000 2.68 10 20:56 14.06.2022
1550 Clear 32 1012 9 10000 2.68 10 20:32 14.06.2022
1551 Clear 29 1013 10 10000 4.76 4 19:22 14.06.2022
1552 Clear 28 1014 11 10000 5.22 1 18:25 14.06.2022
1553 Clear 27 1014 12 10000 5.48 357 16:48 14.06.2022
1554 Clear 26 1013 13 10000 4.92 355 15:50 14.06.2022
1555 Clear 24 1013 15 10000 4.09 353 15:28 14.06.2022
1556 Clear 24 1013 15 10000 4.09 353 14:40 14.06.2022
1557 Clear 24 1013 14 10000 3.46 355 13:46 14.06.2022
1558 Clear 25 1012 14 10000 3.8 355 12:48 14.06.2022
1559 Clear 25 1011 14 10000 4.29 355 11:46 14.06.2022
1560 Clear 26 1011 14 10000 4.13 359 10:49 14.06.2022
1561 Clear 27 1010 14 10000 4.22 0 10:25 14.06.2022
1562 Clear 27 1010 14 10000 4.22 0 10:25 14.06.2022
1563 Clear 28 1009 14 10000 4.02 2 08:52 14.06.2022
1564 Clear 29 1008 12 10000 4.6 9 07:58 14.06.2022
1565 Clear 35 1003 11 10000 6.53 12 06:19 14.06.2022
1566 Clear 38 1000 16 10000 2.38 172 03:36 14.06.2022
1567 Clear 39 1000 17 10000 1.27 125 01:36 14.06.2022
1568 Clear 38 1001 20 10000 1.44 137 23:51 13.06.2022
1569 Clear 36 1003 26 10000 1.49 150 22:27 13.06.2022
1570 Clear 36 1003 26 10000 1.49 150 21:59 13.06.2022
1571 Clear 35 1004 30 10000 1.56 149 21:24 13.06.2022
1572 Clear 33 1004 32 10000 1.45 146 19:42 13.06.2022
1573 Clear 32 1005 36 10000 1.75 153 18:45 13.06.2022
1574 Clear 31 1005 39 10000 1.43 159 17:52 13.06.2022
1575 Clear 30 1005 42 10000 1.7 161 17:18 13.06.2022
1576 Clear 29 1004 46 10000 1.86 191 16:22 13.06.2022
1577 Clear 27 1004 52 10000 1.8 208 14:48 13.06.2022
1578 Clear 27 1003 52 10000 1.9 200 14:18 13.06.2022
1579 Clear 28 1002 51 10000 2.8 195 13:23 13.06.2022
1580 Clear 29 1001 49 10000 3.66 201 11:50 13.06.2022
1581 Clear 30 1001 46 10000 4.35 202 10:36 13.06.2022
1582 Clear 30 1000 43 10000 4.87 201 09:42 13.06.2022
1583 Clear 31 1000 42 10000 5.48 202 08:30 13.06.2022
1584 Clouds 34 999 28 10000 6.17 208 06:35 13.06.2022
1585 Clouds 37 997 20 10000 8.5 196 04:35 13.06.2022
1586 Clouds 42 998 8 10000 14.28 221 01:44 13.06.2022
1587 Clear 43 998 6 10000 15.6 218 01:18 13.06.2022
1588 Clear 45 998 5 10000 14.32 216 23:41 12.06.2022
1589 Clear 44 999 5 10000 7.43 207 22:34 12.06.2022
1590 Clear 43 1001 6 10000 5.14 199 21:46 12.06.2022
1591 Clear 41 1002 8 10000 5.52 175 20:49 12.06.2022
1592 Clear 39 1004 10 10000 5.08 168 19:49 12.06.2022
1593 Clear 38 1004 14 10000 5.12 162 18:54 12.06.2022
1594 Clear 35 1006 18 10000 3.46 163 17:24 12.06.2022
1595 Clear 33 1006 20 10000 2.37 163 15:52 12.06.2022
1596 Clear 31 1005 23 10000 2.12 159 14:50 12.06.2022
1597 Clear 31 1005 24 10000 1.74 158 14:18 12.06.2022
1598 Clear 31 1005 24 10000 1.74 158 13:45 12.06.2022
1599 Clear 32 1005 21 10000 1.91 161 12:28 12.06.2022
1600 Clear 33 1005 20 10000 2.01 147 10:46 12.06.2022
1601 Clear 34 1005 18 10000 1.19 131 10:20 12.06.2022
1602 Clear 35 1005 16 10000 1.35 172 08:51 12.06.2022
1603 Clear 36 1005 15 10000 2.83 179 08:29 12.06.2022
1604 Clear 37 1004 14 10000 4.05 186 06:49 12.06.2022
1605 Clear 43 1003 7 10000 6.64 191 04:26 12.06.2022
1606 Clouds 46 1003 5 10000 9.96 212 02:27 12.06.2022
1607 Clouds 46 1002 6 10000 8.95 209 01:35 12.06.2022
1608 Clouds 46 1003 6 10000 6.76 212 00:57 12.06.2022
1609 Clouds 46 1004 7 10000 4.18 200 00:19 12.06.2022
1610 Clear 45 1005 8 10000 2.67 186 23:21 11.06.2022
1611 Clear 45 1005 8 10000 2.67 186 22:37 11.06.2022
1612 Clear 44 1006 9 10000 2.37 173 21:31 11.06.2022
1613 Clear 41 1008 12 10000 2.26 156 20:27 11.06.2022
1614 Clear 41 1009 12 10000 1.91 153 19:37 11.06.2022
1615 Clear 39 1009 13 10000 1.86 163 18:50 11.06.2022
1616 Clear 39 1009 13 10000 1.86 163 18:31 11.06.2022
1617 Clear 38 1010 15 10000 2.22 171 17:49 11.06.2022
1618 Clear 37 1010 16 10000 2.24 172 17:26 11.06.2022
1619 Clear 37 1010 16 10000 2.24 172 16:44 11.06.2022
1620 Clear 35 1009 17 10000 1.78 172 16:25 11.06.2022
1621 Clear 33 1009 20 10000 1.73 176 15:18 11.06.2022
1622 Clear 33 1009 19 10000 2.04 179 13:52 11.06.2022
1623 Clear 35 1008 16 10000 2.14 188 12:19 11.06.2022
1624 Clear 36 1008 15 10000 2.6 189 10:40 11.06.2022
1625 Clouds 37 1008 14 10000 3.18 186 09:42 11.06.2022
1626 Clouds 37 1008 13 10000 3.37 184 08:46 11.06.2022
1627 Clear 39 1007 13 10000 4.42 185 06:47 11.06.2022
1628 Clear 40 1007 12 10000 4.72 194 05:58 11.06.2022
1629 Clear 44 1005 9 10000 7.23 215 03:46 11.06.2022
1630 Clear 46 1005 9 10000 5.98 201 01:52 11.06.2022
1631 Clear 46 1005 8 10000 5.18 200 01:26 11.06.2022
1632 Clear 45 1007 9 10000 5.23 191 23:29 10.06.2022
1633 Clear 44 1008 10 10000 4.12 172 22:29 10.06.2022
1634 Clear 44 1008 10 10000 4.12 172 21:47 10.06.2022
1635 Clear 43 1009 11 10000 3.16 163 20:39 10.06.2022
1636 Clear 42 1009 12 10000 2.45 162 20:21 10.06.2022
1637 Clear 40 1010 13 10000 2.31 161 19:19 10.06.2022
1638 Clear 40 1010 13 10000 2.31 161 19:19 10.06.2022
1639 Clear 40 1010 13 10000 2.31 161 18:55 10.06.2022
1640 Clear 39 1010 14 10000 1.66 160 17:55 10.06.2022
1641 Clear 39 1010 14 10000 1.66 160 17:32 10.06.2022
1642 Clear 37 1010 15 10000 1.11 172 16:36 10.06.2022
1643 Clear 36 1010 16 10000 0.63 198 15:40 10.06.2022
1644 Clouds 33 1008 19 10000 1.39 171 14:29 10.06.2022
1645 Clouds 33 1008 19 10000 1.07 152 13:23 10.06.2022
1646 Clouds 34 1008 18 10000 1.2 164 11:59 10.06.2022
1647 Clouds 35 1008 17 10000 1.4 169 10:59 10.06.2022
1648 Clouds 36 1007 16 10000 1.49 176 10:24 10.06.2022
1649 Clouds 36 1007 15 10000 1.68 182 08:58 10.06.2022
1650 Clouds 37 1007 13 10000 1.62 183 07:51 10.06.2022
1651 Clouds 38 1006 12 10000 2.07 188 06:47 10.06.2022
1652 Clouds 38 1006 10 10000 2.41 192 06:28 10.06.2022
1653 Clouds 39 1005 9 10000 2.99 210 04:55 10.06.2022
1654 Clouds 43 1005 6 10000 4.91 201 02:31 10.06.2022
1655 Clouds 44 1005 6 10000 5.15 205 01:37 10.06.2022
1656 Clouds 44 1005 6 10000 4.69 184 23:58 09.06.2022
1657 Clouds 43 1006 7 10000 5.19 174 22:43 09.06.2022
1658 Clouds 43 1007 7 10000 4.67 167 21:43 09.06.2022
1659 Clouds 41 1007 8 10000 4.37 159 21:24 09.06.2022
1660 Clouds 41 1007 8 10000 4.37 159 20:38 09.06.2022
1661 Clouds 40 1008 9 10000 3.32 159 19:46 09.06.2022
1662 Clouds 38 1008 9 10000 2.74 164 18:37 09.06.2022
1663 Clouds 37 1009 10 10000 2.13 172 17:31 09.06.2022
1664 Clouds 34 1008 12 10000 1.4 171 16:28 09.06.2022
1665 Clear 31 1007 15 10000 1.27 164 15:22 09.06.2022
1666 Clear 31 1007 15 10000 1.27 164 14:30 09.06.2022
1667 Clouds 31 1007 14 10000 1.31 156 13:44 09.06.2022
1668 Clouds 31 1006 13 10000 1.61 153 13:19 09.06.2022
1669 Clouds 32 1005 12 10000 2.22 162 11:35 09.06.2022
1670 Clouds 34 1005 11 10000 2.24 179 09:55 09.06.2022
1671 Clouds 34 1005 11 10000 2.24 179 09:55 09.06.2022
1672 Clouds 34 1005 11 10000 2.24 179 09:37 09.06.2022
1673 Clear 35 1004 11 10000 2.49 178 08:38 09.06.2022
1674 Clouds 37 1003 10 10000 2.73 187 07:29 09.06.2022
1675 Clouds 39 1002 7 10000 4.45 193 04:30 09.06.2022
1676 Clear 44 1002 5 10000 5.21 197 00:35 09.06.2022
1677 Clear 44 1004 6 10000 6.1 177 23:23 08.06.2022
1678 Clear 44 1004 6 10000 6.1 177 22:44 08.06.2022
1679 Clear 43 1005 7 10000 5.39 171 22:24 08.06.2022
1680 Clear 43 1005 7 10000 5.39 171 21:40 08.06.2022
1681 Clear 40 1007 12 10000 3.34 164 20:25 08.06.2022
1682 Clear 40 1007 13 10000 3.45 165 19:46 08.06.2022
1683 Clear 38 1007 14 10000 2.86 164 18:48 08.06.2022
1684 Clear 37 1008 15 10000 2.05 167 17:46 08.06.2022
1685 Clear 34 1007 18 10000 1.16 193 16:18 08.06.2022
1686 Clear 32 1007 21 10000 1.35 173 14:46 08.06.2022
1687 Clouds 33 1006 18 10000 1.79 160 12:55 08.06.2022
1688 Clouds 33 1006 18 10000 1.79 160 12:55 08.06.2022
1689 Clouds 33 1006 17 10000 1.92 170 11:44 08.06.2022
1690 Clouds 34 1006 17 10000 1.95 178 11:19 08.06.2022
1691 Clouds 35 1006 17 10000 1.93 183 09:45 08.06.2022
1692 Clouds 36 1006 16 10000 2.17 185 09:18 08.06.2022
1693 Clear 37 1005 12 10000 2.24 190 07:22 08.06.2022
1694 Clear 39 1004 10 10000 2.88 151 04:51 08.06.2022
1695 Clouds 42 1004 8 10000 2.51 157 02:19 08.06.2022
1696 Clouds 42 1005 9 10000 1.54 148 23:41 07.06.2022
1697 Clouds 41 1005 9 10000 1.22 139 23:22 07.06.2022
1698 Clouds 41 1005 9 10000 1.22 139 22:38 07.06.2022
1699 Clear 40 1006 9 10000 1.03 118 21:45 07.06.2022
1700 Clear 39 1007 10 10000 0.95 93 21:24 07.06.2022
1701 Clear 39 1007 10 10000 0.95 93 20:43 07.06.2022
1702 Clear 38 1008 12 10000 0.83 92 19:59 07.06.2022
1703 Clear 36 1008 18 10000 1.01 123 18:42 07.06.2022
1704 Clear 34 1008 21 10000 0.83 121 17:51 07.06.2022
1705 Clear 33 1008 22 10000 0.75 142 16:54 07.06.2022
1706 Clear 33 1008 22 10000 0.75 142 16:32 07.06.2022
1707 Clear 32 1008 22 10000 0.35 54 15:40 07.06.2022
1708 Clear 30 1007 26 10000 0.64 349 15:21 07.06.2022
1709 Clear 30 1007 26 10000 0.64 349 14:45 07.06.2022
1710 Clear 30 1006 26 10000 0.81 317 13:46 07.06.2022
1711 Clear 31 1005 26 10000 1.01 151 13:26 07.06.2022
1712 Clear 32 1005 24 10000 1.09 152 11:56 07.06.2022
1713 Clear 32 1005 24 10000 1.09 152 11:56 07.06.2022
1714 Clear 33 1004 23 10000 1.36 173 10:57 07.06.2022
1715 Clear 34 1004 21 10000 1.74 183 09:46 07.06.2022
1716 Clear 34 1004 19 10000 2.04 179 08:31 07.06.2022
1717 Clouds 36 1003 17 10000 3.01 180 07:19 07.06.2022
1718 Clouds 37 1002 16 10000 0.6 123 05:19 07.06.2022
1719 Clouds 40 1002 14 10000 0.86 138 01:44 07.06.2022
1720 Clouds 40 1004 14 10000 0.86 137 00:20 07.06.2022
1721 Clouds 39 1004 15 10000 0.96 103 23:25 06.06.2022
1722 Clouds 39 1004 15 10000 0.96 103 22:37 06.06.2022
1723 Clouds 38 1006 16 10000 1.08 66 21:33 06.06.2022
1724 Clear 35 1007 23 10000 0.83 95 19:53 06.06.2022
1725 Clear 34 1008 27 10000 0.84 102 19:19 06.06.2022
1726 Clear 34 1008 27 10000 0.84 102 18:34 06.06.2022
1727 Clear 32 1008 29 10000 0.84 143 17:36 06.06.2022
1728 Clear 31 1008 30 10000 0.84 152 16:33 06.06.2022
1729 Clear 30 1007 31 10000 1.3 167 15:39 06.06.2022
1730 Clear 28 1007 34 10000 0.61 164 14:39 06.06.2022
1731 Clear 29 1005 33 10000 0.44 163 13:27 06.06.2022
1732 Clear 29 1005 33 10000 0.44 163 12:38 06.06.2022
1733 Clear 29 1005 32 10000 0.67 86 12:19 06.06.2022
1734 Clear 29 1005 32 10000 0.67 86 11:42 06.06.2022
1735 Clear 31 1004 28 10000 1.33 138 09:41 06.06.2022
1736 Clear 32 1003 24 10000 2.43 163 08:35 06.06.2022
1737 Clouds 33 1003 21 10000 3.12 164 07:40 06.06.2022
1738 Clouds 36 1001 18 10000 3.05 176 05:34 06.06.2022
1739 Clouds 39 1001 15 10000 2.74 145 03:47 06.06.2022
1740 Clouds 40 1001 14 10000 3.01 152 01:30 06.06.2022
1741 Clouds 40 1002 15 10000 3.59 155 00:43 06.06.2022
1742 Clouds 39 1003 16 10000 3.23 154 00:19 06.06.2022
1743 Clouds 38 1004 17 10000 2.92 155 22:57 05.06.2022
1744 Clouds 37 1005 19 10000 2.94 160 21:56 05.06.2022
1745 Clouds 35 1007 23 10000 2.55 158 20:23 05.06.2022
1746 Clouds 33 1007 25 10000 2.2 162 18:47 05.06.2022
1747 Clouds 32 1008 27 10000 2.1 169 17:58 05.06.2022
1748 Clouds 32 1008 27 10000 2.1 169 17:38 05.06.2022
1749 Clouds 30 1008 29 10000 2.2 167 17:19 05.06.2022
1750 Clouds 30 1008 29 10000 2.2 167 16:46 05.06.2022
1751 Clouds 28 1007 33 10000 1.41 172 14:59 05.06.2022
1752 Clouds 28 1006 33 10000 1.5 151 13:55 05.06.2022
1753 Clouds 29 1005 32 10000 1.45 152 11:58 05.06.2022
1754 Clouds 30 1005 30 10000 1.74 153 10:45 05.06.2022
1755 Clouds 30 1005 29 10000 1.67 159 10:24 05.06.2022
1756 Clouds 31 1005 28 10000 2.17 164 09:29 05.06.2022
1757 Clouds 32 1004 27 10000 2.26 170 08:23 05.06.2022
1758 Clouds 33 1003 22 10000 0.71 253 05:58 05.06.2022
1759 Clouds 35 1002 19 10000 1.2 349 05:19 05.06.2022
1760 Clouds 37 1002 17 10000 1.94 126 02:23 05.06.2022
1761 Clouds 37 1002 17 10000 3.26 150 01:23 05.06.2022
1762 Clouds 36 1004 19 10000 3.47 157 22:49 04.06.2022
1763 Clouds 34 1006 24 10000 3.49 161 21:25 04.06.2022
1764 Clouds 31 1007 28 10000 2.58 163 19:27 04.06.2022
1765 Clouds 29 1007 32 10000 1.73 167 16:48 04.06.2022
1766 Clouds 28 1006 35 10000 1.42 155 16:20 04.06.2022
1767 Clouds 28 1006 35 10000 1.42 155 15:39 04.06.2022
1768 Clouds 26 1005 38 10000 1.16 129 13:59 04.06.2022
1769 Clouds 27 1005 32 10000 1.5 135 11:41 04.06.2022
1770 Clouds 28 1004 29 10000 2.09 146 10:54 04.06.2022
1771 Clouds 29 1004 26 10000 2.77 161 09:59 04.06.2022
1772 Clouds 29 1004 26 10000 2.77 161 09:38 04.06.2022
1773 Clouds 30 1004 24 10000 3.39 169 08:39 04.06.2022
1774 Clouds 32 1002 19 10000 4.67 175 07:00 04.06.2022
1775 Clouds 37 1000 11 10000 6.7 189 04:29 04.06.2022
1776 Clouds 39 1002 9 10000 4.76 160 00:24 04.06.2022
1777 Clouds 38 1003 10 10000 4.87 162 23:19 03.06.2022
1778 Clouds 37 1004 11 10000 4.12 158 21:54 03.06.2022
1779 Clouds 36 1005 12 10000 3.01 157 20:42 03.06.2022
1780 Clouds 36 1005 12 10000 3.01 157 20:42 03.06.2022
1781 Clouds 35 1005 12 10000 2.89 158 19:58 03.06.2022
1782 Clouds 31 1006 15 10000 1.81 164 17:00 03.06.2022
1783 Clouds 31 1006 15 10000 1.81 164 16:30 03.06.2022
1784 Clouds 28 1005 18 10000 1.21 165 14:52 03.06.2022
1785 Clouds 29 1004 16 10000 1.46 196 12:28 03.06.2022
1786 Clouds 31 1003 13 10000 2.17 202 10:18 03.06.2022
1787 Clouds 31 1003 13 10000 2.17 202 09:30 03.06.2022
1788 Clouds 33 1003 12 10000 3.27 181 07:53 03.06.2022
1789 Clouds 34 1003 11 10000 3.04 178 07:20 03.06.2022
1790 Clouds 34 1003 11 10000 3.04 178 06:30 03.06.2022
1791 Clouds 36 1002 9 10000 5 197 04:40 03.06.2022
1792 Clouds 40 1003 7 10000 4.79 190 00:22 03.06.2022
1793 Clouds 39 1004 8 10000 4.41 178 22:35 02.06.2022
1794 Clouds 38 1005 8 10000 3.5 168 21:34 02.06.2022
1795 Clear 36 1007 9 10000 1.95 162 20:22 02.06.2022
1796 Clear 36 1007 9 10000 1.95 162 19:42 02.06.2022
1797 Clear 34 1008 10 10000 1.79 157 19:19 02.06.2022
1798 Clear 32 1008 11 10000 1.03 143 16:46 02.06.2022
1799 Clear 31 1008 12 10000 0.76 162 16:20 02.06.2022
1800 Clear 26 1008 14 10000 0.47 124 13:56 02.06.2022
1801 Clear 27 1007 14 10000 0.04 56 13:29 02.06.2022
1802 Clear 29 1007 12 10000 0.75 190 11:22 02.06.2022
1803 Clear 29 1008 11 10000 1.45 188 10:20 02.06.2022
1804 Clear 30 1008 11 10000 1.68 186 09:27 02.06.2022
1805 Clear 30 1008 11 10000 1.69 181 08:26 02.06.2022
1806 Clear 31 1008 10 10000 1.54 186 06:59 02.06.2022
1807 Clear 32 1007 10 10000 1.29 198 04:49 02.06.2022
1808 Clear 36 1007 7 10000 0.66 74 02:37 02.06.2022
1809 Clear 35 1009 8 10000 1.51 12 23:43 01.06.2022
1810 Clear 34 1010 8 10000 2.04 3 22:31 01.06.2022
1811 Clear 33 1011 9 10000 2.61 1 21:32 01.06.2022
1812 Clear 32 1013 10 10000 2.97 4 20:40 01.06.2022
1813 Clear 31 1013 12 10000 3.1 18 19:59 01.06.2022
1814 Clear 30 1014 13 10000 3.37 23 19:25 01.06.2022
1815 Clear 29 1014 15 10000 3.66 23 17:44 01.06.2022
1816 Clear 28 1014 17 10000 3.65 16 16:34 01.06.2022
1817 Clear 24 1013 20 10000 2.76 5 14:54 01.06.2022
1818 Clear 25 1013 18 10000 2.85 2 13:51 01.06.2022
1819 Clear 25 1012 13 10000 3.3 1 12:26 01.06.2022
1820 Clear 27 1011 11 10000 2.7 354 09:41 01.06.2022
1821 Clear 27 1011 11 10000 2.32 352 08:40 01.06.2022
1822 Clear 29 1010 10 10000 2.09 359 07:23 01.06.2022
1823 Clear 29 1009 10 10000 2.04 331 05:52 01.06.2022
1824 Clear 33 1008 9 10000 3.91 337 00:40 01.06.2022
1825 Clear 32 1009 12 10000 4.79 336 23:28 31.05.2022
1826 Clear 32 1009 12 10000 4.79 336 22:37 31.05.2022
1827 Clear 31 1009 13 10000 5.02 336 21:45 31.05.2022
1828 Clear 30 1010 15 10000 5.15 341 20:45 31.05.2022
1829 Clear 29 1010 17 10000 5.5 346 20:18 31.05.2022
1830 Clear 28 1011 17 10000 5.69 356 18:53 31.05.2022
1831 Clear 26 1011 18 10000 6.1 3 17:50 31.05.2022
1832 Clear 25 1011 19 10000 6.11 1 16:57 31.05.2022
1833 Clear 23 1010 18 10000 5.39 355 15:41 31.05.2022
1834 Clear 22 1008 21 10000 3.57 355 14:18 31.05.2022
1835 Clear 24 1006 17 10000 3.78 353 12:20 31.05.2022
1836 Clear 25 1006 15 10000 3.01 340 10:55 31.05.2022
1837 Clear 25 1005 14 10000 1.42 8 09:31 31.05.2022
1838 Clear 27 1004 12 10000 0.55 147 07:25 31.05.2022
1839 Clear 28 1003 12 10000 0.53 122 05:20 31.05.2022
1840 Clear 31 1003 10 10000 0.64 81 01:35 31.05.2022
1841 Clear 30 1005 11 10000 0.88 81 23:27 30.05.2022
1842 Clear 30 1005 11 10000 0.88 81 22:56 30.05.2022
1843 Clear 29 1006 12 10000 1.13 57 21:59 30.05.2022
1844 Clear 29 1006 12 10000 1.13 57 21:33 30.05.2022
1845 Clear 27 1008 14 10000 2.31 32 20:20 30.05.2022
1846 Clear 26 1009 14 10000 2.66 20 18:41 30.05.2022
1847 Clear 24 1009 15 10000 2.81 20 17:38 30.05.2022
1848 Clear 23 1009 16 10000 2.25 22 16:44 30.05.2022
1849 Clear 21 1008 18 10000 1.25 23 14:51 30.05.2022
1850 Clear 22 1007 17 10000 1.61 21 12:29 30.05.2022
1851 Clear 22 1007 16 10000 1.84 21 10:47 30.05.2022
1852 Clear 23 1007 15 10000 2.09 13 09:39 30.05.2022
1853 Clear 26 1005 12 10000 3.2 37 07:23 30.05.2022
1854 Clear 27 1004 11 10000 4.08 41 05:50 30.05.2022
1855 Clear 34 998 10 10000 1.5 79 02:24 30.05.2022
1856 Clear 33 1001 14 10000 1.15 98 23:23 29.05.2022
1857 Clear 33 1001 14 10000 1.15 98 22:39 29.05.2022
1858 Clear 31 1002 17 10000 1.15 108 21:19 29.05.2022
1859 Clear 29 1004 19 10000 0.85 82 19:38 29.05.2022
1860 Clear 28 1004 22 10000 1.6 44 19:18 29.05.2022
1861 Clear 27 1004 23 10000 2.05 41 17:41 29.05.2022
1862 Clear 25 1003 27 10000 0.83 17 15:49 29.05.2022
1863 Clear 23 1002 31 10000 0.83 329 15:28 29.05.2022
1864 Clear 23 1001 33 10000 0.58 69 14:23 29.05.2022
1865 Clear 25 1000 29 10000 1.1 139 11:55 29.05.2022
1866 Clear 26 1000 27 10000 2.3 166 10:44 29.05.2022
1867 Clear 27 999 26 10000 2.66 177 09:52 29.05.2022
1868 Clouds 30 998 23 10000 4.24 195 06:57 29.05.2022
1869 Clouds 33 997 20 10000 4.74 175 04:49 29.05.2022
1870 Clouds 36 996 17 10000 3.9 165 04:24 29.05.2022
1871 Clouds 36 998 15 10000 3.01 154 00:35 29.05.2022
1872 Clouds 36 1000 16 10000 2.54 151 23:42 28.05.2022
1873 Clouds 35 1001 17 10000 2.23 152 22:46 28.05.2022
1874 Clouds 34 1002 19 10000 2.59 161 21:42 28.05.2022
1875 Clouds 33 1003 21 10000 2.82 156 20:30 28.05.2022
1876 Clouds 30 1005 27 10000 2.18 163 19:18 28.05.2022
1877 Clouds 29 1006 30 10000 1.68 172 17:48 28.05.2022
1878 Clouds 28 1006 32 10000 2.11 167 16:57 28.05.2022
1879 Clouds 27 1005 35 10000 2.13 155 15:45 28.05.2022
1880 Clouds 25 1005 37 10000 2.25 153 15:19 28.05.2022
1881 Clouds 26 1004 35 10000 2.28 149 13:26 28.05.2022
1882 Clouds 26 1004 35 10000 2.28 149 12:41 28.05.2022
1883 Clouds 28 1003 32 10000 2.3 192 11:28 28.05.2022
1884 Clouds 28 1003 32 10000 2.3 192 10:32 28.05.2022
1885 Clouds 28 1004 31 10000 3.54 204 09:39 28.05.2022
1886 Clouds 30 1003 24 10000 5.04 198 07:53 28.05.2022
1887 Clouds 31 1004 21 10000 5.62 191 06:32 28.05.2022
1888 Clouds 35 1003 16 10000 7.67 187 04:39 28.05.2022
1889 Clouds 39 1003 10 10000 10.88 201 01:30 28.05.2022
1890 Clouds 40 1005 9 10000 7.4 196 23:53 27.05.2022
1891 Clouds 40 1006 9 10000 7.16 186 22:32 27.05.2022
1892 Clouds 38 1008 13 10000 4.89 163 21:22 27.05.2022
1893 Clouds 38 1008 13 10000 4.89 163 20:42 27.05.2022
1894 Clouds 36 1009 17 10000 3.69 162 20:18 27.05.2022
1895 Clouds 36 1009 17 10000 3.71 162 19:36 27.05.2022
1896 Clouds 34 1010 19 10000 2.92 165 19:18 27.05.2022
1897 Clouds 32 1010 22 10000 2.04 159 16:43 27.05.2022
1898 Clouds 30 1010 23 10000 1.27 165 15:55 27.05.2022
1899 Clouds 28 1009 25 10000 0.67 164 14:47 27.05.2022
1900 Clouds 28 1009 24 10000 0.55 147 13:40 27.05.2022
1901 Clouds 31 1008 19 10000 3.19 182 11:53 27.05.2022
1902 Clouds 31 1008 18 10000 3.97 180 11:27 27.05.2022
1903 Clouds 31 1008 18 10000 3.97 180 10:38 27.05.2022
1904 Clouds 32 1008 18 10000 4.21 185 09:58 27.05.2022
1905 Clouds 32 1008 17 10000 4.35 187 09:28 27.05.2022
1906 Clouds 33 1007 16 10000 4.44 188 07:30 27.05.2022
1907 Clear 39 1004 10 10000 7.02 205 03:38 27.05.2022
1908 Clouds 42 1004 9 10000 9.24 205 01:19 27.05.2022
1909 Clouds 42 1005 9 10000 6.89 200 23:23 26.05.2022
1910 Clear 41 1006 10 10000 6.65 178 21:53 26.05.2022
1911 Clear 41 1007 10 10000 7 170 21:27 26.05.2022
1912 Clouds 40 1008 10 10000 6.44 164 19:34 26.05.2022
1913 Clouds 38 1008 11 10000 5.02 164 18:45 26.05.2022
1914 Clouds 37 1008 12 10000 3.95 163 17:36 26.05.2022
1915 Clouds 34 1008 14 10000 2 163 16:18 26.05.2022
1916 Clouds 31 1007 16 10000 2.02 161 15:24 26.05.2022
1917 Clouds 31 1007 16 10000 2.07 162 14:19 26.05.2022
1918 Clouds 32 1006 15 10000 2.15 165 12:18 26.05.2022
1919 Clouds 33 1006 14 10000 2.17 174 11:20 26.05.2022
1920 Clouds 34 1006 13 10000 2.32 175 09:39 26.05.2022
1921 Clouds 34 1006 12 10000 2.35 176 08:48 26.05.2022
1922 Clouds 37 1005 9 10000 2.63 172 05:43 26.05.2022
1923 Clouds 41 1005 7 10000 3.68 170 02:51 26.05.2022
1924 Clear 40 1006 8 10000 1.18 136 23:57 25.05.2022
1925 Clear 40 1007 8 10000 0.83 113 22:53 25.05.2022
1926 Clear 39 1008 8 10000 0.92 71 21:42 25.05.2022
1927 Clear 38 1009 9 10000 1.18 47 20:49 25.05.2022
1928 Clear 37 1010 9 10000 1.69 32 19:45 25.05.2022
1929 Clear 36 1010 10 10000 2.14 27 18:48 25.05.2022
1930 Clear 34 1010 11 10000 2.51 12 17:26 25.05.2022
1931 Clear 34 1010 11 10000 2.51 12 16:34 25.05.2022
1932 Clear 32 1010 12 10000 1.95 360 15:36 25.05.2022
1933 Clear 29 1010 14 10000 2.2 357 14:50 25.05.2022
1934 Clear 29 1010 14 10000 2.2 357 14:32 25.05.2022
1935 Clear 30 1008 12 10000 1.99 358 13:27 25.05.2022
1936 Clear 30 1008 12 10000 1.59 350 11:50 25.05.2022
1937 Clear 31 1007 12 10000 1.6 343 10:42 25.05.2022
1938 Clear 31 1007 11 10000 1.15 335 09:46 25.05.2022
1939 Clouds 32 1007 11 10000 0.53 244 08:21 25.05.2022
1940 Clouds 33 1007 10 10000 1.32 207 06:37 25.05.2022
1941 Clouds 37 1006 7 10000 0.92 128 02:46 25.05.2022
1942 Clouds 37 1007 7 10000 0.99 71 23:52 24.05.2022
1943 Clouds 37 1008 7 10000 1.05 66 23:23 24.05.2022
1944 Clouds 36 1009 7 10000 0.86 64 22:18 24.05.2022
1945 Clouds 36 1009 7 10000 0.86 64 21:38 24.05.2022
1946 Clouds 35 1010 8 10000 0.78 55 21:19 24.05.2022
1947 Clouds 34 1010 9 10000 1.45 29 19:32 24.05.2022
1948 Clear 33 1011 10 10000 1.88 23 18:49 24.05.2022
1949 Clear 30 1011 11 10000 3.04 12 16:40 24.05.2022
1950 Clear 29 1011 12 10000 2.27 3 16:18 24.05.2022
1951 Clear 26 1010 14 10000 2.39 356 14:50 24.05.2022
1952 Clear 27 1010 14 10000 2.87 359 13:48 24.05.2022
1953 Clear 27 1010 13 10000 3.06 3 12:46 24.05.2022
1954 Clear 29 1008 11 10000 2.81 355 10:29 24.05.2022
1955 Clear 29 1008 11 10000 2.81 355 09:42 24.05.2022
1956 Clear 30 1008 11 10000 1.98 351 08:49 24.05.2022
1957 Clouds 31 1007 11 10000 1.29 343 06:56 24.05.2022
1958 Clouds 36 1005 8 10000 0.63 153 03:48 24.05.2022
1959 Clouds 37 1006 7 10000 1.03 11 01:49 24.05.2022
1960 Clouds 37 1006 7 10000 1.72 11 01:19 24.05.2022
1961 Clouds 36 1008 8 10000 1.87 3 22:51 23.05.2022
1962 Clouds 35 1009 9 10000 1.86 357 21:55 23.05.2022
1963 Clouds 34 1010 9 10000 2.68 8 21:26 23.05.2022
1964 Clear 33 1011 9 10000 3.71 11 20:26 23.05.2022
1965 Clear 33 1011 9 10000 3.71 11 19:31 23.05.2022
1966 Clear 32 1011 9 10000 3.73 14 18:57 23.05.2022
1967 Clear 31 1012 9 10000 3.91 11 18:29 23.05.2022
1968 Clear 30 1012 10 10000 3.4 7 17:20 23.05.2022
1969 Clear 26 1011 14 10000 1.76 359 14:52 23.05.2022
1970 Clouds 27 1010 15 10000 2.08 2 12:56 23.05.2022
1971 Clouds 27 1009 15 10000 1.84 351 11:31 23.05.2022
1972 Clouds 29 1009 15 10000 2.41 347 09:51 23.05.2022
1973 Clouds 29 1009 15 10000 2.41 347 09:30 23.05.2022
1974 Clouds 30 1009 14 10000 1.42 344 08:31 23.05.2022
1975 Clouds 31 1008 13 10000 1.09 142 06:46 23.05.2022
1976 Clouds 32 1007 13 10000 1.85 137 05:31 23.05.2022
1977 Clear 36 1007 10 10000 1.36 107 02:32 23.05.2022
1978 Clouds 36 1007 10 10000 1.19 107 01:37 23.05.2022
1979 Clouds 35 1008 10 10000 1.52 125 00:23 23.05.2022
1980 Clouds 35 1009 11 10000 1.84 138 22:40 22.05.2022
1981 Clouds 34 1010 11 10000 1.5 138 21:55 22.05.2022
1982 Clouds 34 1010 11 10000 1.5 138 21:32 22.05.2022
1983 Clouds 33 1011 11 10000 1.32 137 20:32 22.05.2022
1984 Clouds 31 1012 12 10000 0.85 121 19:56 22.05.2022
1985 Clouds 30 1013 13 10000 1.03 131 18:55 22.05.2022
1986 Clear 29 1013 15 10000 0.98 136 18:25 22.05.2022
1987 Clear 29 1013 15 10000 0.98 136 17:37 22.05.2022
1988 Clear 28 1013 15 10000 1.33 160 16:39 22.05.2022
1989 Clear 23 1013 17 10000 0.98 169 14:53 22.05.2022
1990 Clear 23 1012 14 10000 0.24 203 13:54 22.05.2022
1991 Clear 23 1011 14 10000 0.36 333 12:52 22.05.2022
1992 Clear 24 1011 13 10000 0.45 356 11:52 22.05.2022
1993 Clear 25 1011 13 10000 0.27 339 10:24 22.05.2022
1994 Clear 25 1011 12 10000 0.34 236 09:19 22.05.2022
1995 Clouds 26 1011 11 10000 0.4 217 07:22 22.05.2022
1996 Clouds 26 1011 11 10000 0.4 217 07:22 22.05.2022
1997 Clouds 27 1010 10 10000 0.44 269 06:27 22.05.2022
1998 Clear 31 1008 8 10000 0.47 57 02:50 22.05.2022
1999 Clear 31 1009 7 10000 0.81 128 00:44 22.05.2022
2000 Clear 31 1009 7 10000 0.83 134 23:56 21.05.2022
2001 Clear 30 1010 8 10000 0.75 95 23:21 21.05.2022
2002 Clear 30 1010 8 10000 0.75 95 23:21 21.05.2022
2003 Clear 29 1011 8 10000 1.06 52 21:55 21.05.2022
2004 Clear 28 1011 9 10000 1.35 27 21:26 21.05.2022
2005 Clear 26 1012 10 10000 1.98 15 20:27 21.05.2022
2006 Clear 27 1012 9 10000 2.01 9 19:43 21.05.2022
2007 Clear 25 1012 11 10000 2.83 16 18:31 21.05.2022
2008 Clear 23 1012 12 10000 3.27 17 16:57 21.05.2022
2009 Clear 19 1011 15 10000 2.81 354 14:38 21.05.2022
2010 Clear 20 1010 14 10000 2.94 358 13:54 21.05.2022
2011 Clear 20 1010 13 10000 2.57 6 13:19 21.05.2022
2012 Clear 20 1010 13 10000 2.57 6 12:38 21.05.2022
2013 Clear 22 1009 10 10000 2.83 11 11:20 21.05.2022
2014 Clear 23 1008 9 10000 2.15 7 09:57 21.05.2022
2015 Clear 23 1008 9 10000 2.15 348 08:59 21.05.2022
2016 Clear 23 1008 9 10000 2.15 348 08:37 21.05.2022
2017 Clear 26 1006 9 10000 1.85 32 05:52 21.05.2022
2018 Clouds 30 1004 9 10000 5.12 13 01:33 21.05.2022
2019 Clouds 29 1005 10 10000 6.18 8 23:32 20.05.2022
2020 Clouds 28 1006 11 10000 6.18 9 22:29 20.05.2022
2021 Clouds 28 1006 11 10000 6.18 9 21:56 20.05.2022
2022 Clouds 27 1006 12 10000 6.23 12 21:19 20.05.2022
2023 Clouds 27 1006 12 10000 6.23 12 20:45 20.05.2022
2024 Clouds 27 1006 12 10000 7.08 12 19:45 20.05.2022
2025 Clouds 26 1006 13 10000 7.42 12 18:53 20.05.2022
2026 Clouds 25 1006 12 10000 6.91 16 17:53 20.05.2022
2027 Clouds 24 1003 12 10000 5.1 15 16:23 20.05.2022
2028 Clouds 24 1003 12 10000 5.1 15 15:54 20.05.2022
2029 Clouds 24 1002 15 10000 3.91 18 14:44 20.05.2022
2030 Clouds 26 1000 18 10000 3.88 23 14:26 20.05.2022
2031 Clear 28 998 21 10000 1.99 36 11:52 20.05.2022
2032 Clear 29 998 21 10000 1.67 43 10:45 20.05.2022
2033 Clear 31 997 18 10000 0.63 70 09:27 20.05.2022
2034 Clouds 32 997 16 10000 1.35 197 08:24 20.05.2022
2035 Clouds 34 996 13 10000 2.23 201 06:42 20.05.2022
2036 Clouds 36 996 12 10000 3.37 192 05:39 20.05.2022
2037 Clouds 41 996 8 10000 3.79 165 02:41 20.05.2022
2038 Clouds 42 1000 7 10000 6.19 198 23:47 19.05.2022
2039 Clouds 42 1001 7 10000 6.4 191 22:36 19.05.2022
2040 Clouds 41 1002 8 10000 5.39 175 21:50 19.05.2022
2041 Clouds 40 1004 9 10000 4.75 171 21:24 19.05.2022
2042 Clouds 40 1004 9 10000 4.75 171 20:47 19.05.2022
2043 Clear 38 1005 11 10000 3.96 167 19:54 19.05.2022
2044 Clear 37 1006 12 10000 3.85 168 19:18 19.05.2022
2045 Clear 35 1008 13 10000 1.48 163 17:46 19.05.2022
2046 Clear 32 1008 14 10000 0.48 173 15:58 19.05.2022
2047 Clear 29 1008 17 10000 0.53 153 14:49 19.05.2022
2048 Clear 29 1008 17 10000 0.6 167 14:20 19.05.2022
2049 Clouds 31 1008 15 10000 1.25 186 11:55 19.05.2022
2050 Clouds 32 1008 14 10000 1.12 195 10:31 19.05.2022
2051 Clouds 34 1009 12 10000 2.49 191 08:46 19.05.2022
2052 Clouds 35 1009 11 10000 2.6 187 07:24 19.05.2022
2053 Clouds 39 1007 9 10000 1.99 169 04:23 19.05.2022
2054 Clear 40 1008 7 10000 0.7 104 01:28 19.05.2022
2055 Clear 40 1009 7 10000 0.76 119 23:43 18.05.2022
2056 Clear 39 1010 8 10000 0.79 108 22:44 18.05.2022
2057 Clear 38 1011 8 10000 0.76 65 21:45 18.05.2022
2058 Clear 37 1012 9 10000 1.03 33 21:23 18.05.2022
2059 Clear 36 1013 9 10000 1.43 24 20:22 18.05.2022
2060 Clear 34 1014 11 10000 1.66 17 19:18 18.05.2022
2061 Clear 33 1014 11 10000 1.57 14 18:18 18.05.2022
2062 Clear 33 1014 11 10000 1.57 14 17:40 18.05.2022
2063 Clear 32 1014 11 10000 1.21 15 17:22 18.05.2022
2064 Clear 30 1013 12 10000 0.51 25 15:58 18.05.2022
2065 Clear 30 1013 12 10000 0.51 25 15:37 18.05.2022
2066 Clear 27 1011 13 10000 0.26 184 14:25 18.05.2022
2067 Clear 28 1011 14 10000 0.56 294 12:58 18.05.2022
2068 Clear 28 1011 14 10000 0.56 294 12:39 18.05.2022
2069 Clear 29 1010 14 10000 1.2 274 11:33 18.05.2022
2070 Clear 29 1010 14 10000 0.64 303 10:49 18.05.2022
2071 Clear 32 1009 12 10000 0.91 134 08:27 18.05.2022
2072 Clear 32 1008 11 10000 0.77 159 07:28 18.05.2022
2073 Clear 34 1006 10 10000 3.07 169 04:33 18.05.2022
2074 Clear 38 1006 8 10000 1.5 145 00:52 18.05.2022
2075 Clear 37 1007 8 10000 1.1 137 00:18 18.05.2022
2076 Clear 35 1009 10 10000 1.07 127 21:24 17.05.2022
2077 Clear 35 1009 10 10000 1.07 127 20:57 17.05.2022
2078 Clear 33 1009 12 10000 1.32 138 19:49 17.05.2022
2079 Clear 32 1010 13 10000 1.29 145 19:26 17.05.2022
2080 Clear 31 1010 15 10000 1.59 154 17:49 17.05.2022
2081 Clouds 29 1010 17 10000 1.28 158 16:58 17.05.2022
2082 Clouds 28 1009 18 10000 0.5 181 16:29 17.05.2022
2083 Clear 26 1008 21 10000 0.08 177 15:24 17.05.2022
2084 Clear 26 1008 21 10000 0.08 177 14:30 17.05.2022
2085 Clear 26 1008 21 10000 0.08 177 14:30 17.05.2022
2086 Clear 26 1008 21 10000 0.08 177 14:30 17.05.2022
2087 Clear 26 1007 21 10000 0.09 120 13:32 17.05.2022
2088 Clear 29 1005 17 10000 2.61 167 11:21 17.05.2022
2089 Clear 31 1005 15 10000 3.47 179 09:23 17.05.2022
2090 Clear 33 1005 14 10000 3.33 187 07:59 17.05.2022
2091 Clear 34 1004 12 10000 2.99 182 06:45 17.05.2022
2092 Clear 39 1003 7 10000 3.2 162 02:55 17.05.2022
2093 Clear 40 1003 8 10000 2.86 153 00:32 17.05.2022
2094 Clouds 38 1005 10 10000 2.13 147 22:42 16.05.2022
2095 Clouds 37 1006 11 10000 1.85 140 21:37 16.05.2022
2096 Clouds 36 1007 12 10000 1.57 139 20:46 16.05.2022
2097 Clouds 34 1009 15 10000 1.27 149 19:22 16.05.2022
2098 Clouds 32 1009 16 10000 1.11 145 18:18 16.05.2022
2099 Clouds 29 1008 18 10000 0.1 199 15:49 16.05.2022
2100 Clear 26 1007 23 10000 0.26 123 13:49 16.05.2022
2101 Clear 27 1007 22 10000 0.92 165 13:20 16.05.2022
2102 Clear 29 1006 20 10000 0.76 163 11:20 16.05.2022
2103 Clear 30 1006 19 10000 1.91 185 09:30 16.05.2022
2104 Clouds 33 1006 11 10000 2.64 185 06:47 16.05.2022
2105 Clouds 38 1004 6 10000 4.13 205 03:58 16.05.2022
2106 Clouds 40 1006 5 10000 3.8 167 23:30 15.05.2022
2107 Clouds 40 1007 5 10000 3.63 158 22:30 15.05.2022
2108 Clouds 39 1008 4 10000 2.77 156 21:46 15.05.2022
2109 Clouds 38 1009 5 10000 2.35 162 20:54 15.05.2022
2110 Clouds 37 1010 5 10000 1.61 156 19:32 15.05.2022
2111 Clouds 34 1011 6 10000 0.65 140 17:51 15.05.2022
2112 Clouds 30 1011 8 10000 0.69 184 15:59 15.05.2022
2113 Clouds 27 1010 9 10000 0.39 139 13:58 15.05.2022
2114 Clouds 28 1010 9 10000 0.35 151 12:50 15.05.2022
2115 Clouds 29 1010 8 10000 0.56 190 11:39 15.05.2022
2116 Clear 30 1010 8 10000 1.12 186 10:27 15.05.2022
2117 Clear 31 1011 7 10000 1.19 180 08:45 15.05.2022
2118 Clear 32 1011 7 10000 1.41 190 06:58 15.05.2022
2119 Clear 33 1010 6 10000 1.89 182 05:47 15.05.2022
2120 Clear 38 1010 5 10000 1.07 122 00:49 15.05.2022
2121 Clear 38 1011 5 10000 0.94 115 23:39 14.05.2022
2122 Clear 37 1012 6 10000 0.86 102 22:59 14.05.2022
2123 Clear 35 1014 6 10000 0.67 73 21:29 14.05.2022
2124 Clear 35 1014 6 10000 0.67 73 20:53 14.05.2022
2125 Clear 34 1015 7 10000 0.74 56 19:39 14.05.2022
2126 Clear 33 1015 7 10000 0.69 57 19:19 14.05.2022
2127 Clear 33 1015 7 10000 0.69 57 18:44 14.05.2022
2128 Clear 30 1015 8 10000 0.31 126 16:46 14.05.2022
2129 Clear 28 1015 11 10000 0.2 343 15:33 14.05.2022
2130 Clear 24 1014 13 10000 0.79 350 14:34 14.05.2022
2131 Clear 25 1013 14 10000 0.64 341 12:34 14.05.2022
2132 Clear 25 1013 14 10000 0.42 342 11:35 14.05.2022
2133 Clear 27 1013 12 10000 0.63 187 10:21 14.05.2022
2134 Clear 27 1013 12 10000 0.63 187 09:54 14.05.2022
2135 Clear 27 1014 11 10000 1.11 179 08:49 14.05.2022
2136 Clear 28 1013 10 10000 0.86 169 06:47 14.05.2022
2137 Clear 34 1012 6 10000 1.96 148 02:46 14.05.2022
2138 Clear 34 1014 7 10000 1.43 145 23:45 13.05.2022
2139 Clear 33 1015 7 10000 1.27 135 23:18 13.05.2022
2140 Clear 33 1015 7 10000 1.27 135 22:43 13.05.2022
2141 Clear 32 1016 7 10000 0.76 97 22:18 13.05.2022
2142 Clear 30 1017 7 10000 0.76 58 20:49 13.05.2022
2143 Clear 29 1018 8 10000 1.31 23 20:27 13.05.2022
2144 Clear 29 1017 8 10000 1.3 22 19:34 13.05.2022
2145 Clear 26 1018 9 10000 1.37 9 17:53 13.05.2022
2146 Clear 25 1018 10 10000 0.58 19 17:29 13.05.2022
2147 Clear 23 1018 12 10000 0.61 345 16:23 13.05.2022
2148 Clear 23 1018 12 10000 0.61 345 15:39 13.05.2022
2149 Clear 19 1017 15 10000 0.8 350 13:54 13.05.2022
2150 Clear 19 1017 15 10000 0.9 356 12:32 13.05.2022
2151 Clear 20 1017 14 10000 0.26 356 11:23 13.05.2022
2152 Clear 20 1017 14 10000 0.39 343 09:35 13.05.2022
2153 Clear 21 1017 13 10000 0.33 65 08:50 13.05.2022
2154 Clouds 21 1017 13 10000 0.23 167 07:48 13.05.2022
2155 Clouds 22 1017 13 10000 0.51 195 06:35 13.05.2022
2156 Clouds 26 1016 9 10000 0.29 134 04:22 13.05.2022
2157 Clouds 26 1017 8 10000 0.46 117 00:39 13.05.2022
2158 Clouds 26 1019 8 10000 0.85 86 22:46 12.05.2022
2159 Clouds 25 1020 9 10000 0.7 40 21:59 12.05.2022
2160 Clouds 24 1021 10 10000 1.45 26 20:38 12.05.2022
2161 Clear 22 1023 11 10000 1.1 31 19:23 12.05.2022
2162 Clear 20 1024 12 10000 1.51 14 17:59 12.05.2022
2163 Clear 18 1023 14 10000 0.89 12 16:27 12.05.2022
2164 Clear 15 1023 18 10000 0.94 9 14:47 12.05.2022
2165 Clear 15 1022 16 10000 0.9 9 13:47 12.05.2022
2166 Clear 16 1021 15 10000 1.05 11 11:25 12.05.2022
2167 Clear 16 1021 15 10000 1.01 28 09:37 12.05.2022
2168 Clear 17 1020 15 10000 0.65 47 08:52 12.05.2022
2169 Clear 18 1019 13 10000 0.68 51 07:57 12.05.2022
2170 Clear 19 1018 12 10000 0.64 32 06:55 12.05.2022
2171 Clear 23 1015 8 10000 3.09 346 03:31 12.05.2022
2172 Clouds 23 1013 9 10000 1.35 346 00:41 12.05.2022
2173 Clouds 21 1014 18 10000 1 321 22:53 11.05.2022
2174 Clouds 20 1015 19 10000 1.87 333 21:59 11.05.2022
2175 Clouds 20 1015 19 10000 1.89 351 21:24 11.05.2022
2176 Clouds 19 1015 19 10000 0.97 10 19:42 11.05.2022
2177 Clear 16 1016 25 10000 0.94 359 17:27 11.05.2022
2178 Clear 15 1015 26 10000 0.96 5 16:19 11.05.2022
2179 Clear 13 1015 30 10000 0.88 349 14:45 11.05.2022
2180 Clear 13 1014 29 10000 0.81 359 14:24 11.05.2022
2181 Clear 14 1013 26 10000 0.53 8 12:39 11.05.2022
2182 Clear 15 1012 24 10000 0.56 356 11:47 11.05.2022
2183 Clear 17 1012 22 10000 1.69 207 09:29 11.05.2022
2184 Clear 19 1010 21 10000 5.14 195 06:27 11.05.2022
2185 Clouds 24 1009 11 10000 9.1 202 01:53 11.05.2022
2186 Clear 25 1011 11 10000 6.54 192 22:56 10.05.2022
2187 Clear 23 1012 11 10000 3.48 185 22:21 10.05.2022
2188 Clear 22 1013 12 10000 2.43 174 21:21 10.05.2022
2189 Clear 20 1014 14 10000 1.75 166 20:26 10.05.2022
2190 Clear 19 1014 16 10000 1.13 155 18:38 10.05.2022
2191 Clear 17 1015 18 10000 0.91 156 17:38 10.05.2022
2192 Clear 15 1015 22 10000 0.16 173 15:56 10.05.2022
2193 Clear 14 1012 25 10000 1.77 197 13:19 10.05.2022
2194 Clear 14 1011 25 10000 2 204 11:53 10.05.2022
2195 Clear 14 1011 25 10000 2 204 11:30 10.05.2022
2196 Clear 15 1010 24 10000 2.16 206 10:56 10.05.2022
2197 Clouds 16 1009 22 10000 3.57 211 09:28 10.05.2022
2198 Clear 17 1008 21 10000 4.36 205 07:58 10.05.2022
2199 Clear 18 1006 19 10000 6.46 199 05:54 10.05.2022
2200 Clear 26 1003 9 10000 7.21 192 01:53 10.05.2022
2201 Clear 25 1005 9 10000 4.21 166 23:43 09.05.2022
2202 Clear 24 1006 11 10000 3.15 161 22:35 09.05.2022
2203 Clear 23 1008 13 10000 2.01 161 21:38 09.05.2022
2204 Clear 21 1009 17 10000 0.71 91 19:56 09.05.2022
2205 Clear 18 1010 19 10000 1.01 71 18:25 09.05.2022
2206 Clear 17 1010 20 10000 0.99 61 17:25 09.05.2022
2207 Clear 16 1010 21 10000 0.82 40 16:18 09.05.2022
2208 Clear 16 1010 21 10000 0.82 40 15:47 09.05.2022
2209 Clear 14 1009 24 10000 0.89 92 14:36 09.05.2022
2210 Clouds 15 1009 23 10000 1.37 98 13:57 09.05.2022
2211 Clouds 16 1008 22 10000 1.72 84 13:21 09.05.2022
2212 Clouds 16 1007 21 10000 1.94 70 11:53 09.05.2022
2213 Clouds 17 1006 21 10000 0.22 21 10:48 09.05.2022
2214 Clouds 17 1005 22 10000 1.21 196 10:23 09.05.2022
2215 Clouds 19 1003 19 10000 3.03 178 07:57 09.05.2022
2216 Clouds 23 999 11 10000 4.98 193 04:52 09.05.2022
2217 Clear 31 994 6 10000 13.37 235 00:59 09.05.2022
2218 Clouds 32 996 10 10000 6.84 207 23:28 08.05.2022
2219 Clouds 32 996 10 10000 6.84 207 22:32 08.05.2022
2220 Clear 28 999 13 10000 4.59 173 21:20 08.05.2022
2221 Clear 27 1000 15 10000 4.48 175 20:23 08.05.2022
2222 Clear 27 1000 15 10000 4.23 172 19:33 08.05.2022
2223 Clear 26 1001 16 10000 4.25 172 18:38 08.05.2022
2224 Clear 25 1001 18 10000 4.06 167 17:39 08.05.2022
2225 Clear 23 1002 22 10000 2.2 162 16:22 08.05.2022
2226 Clear 21 1002 25 10000 1.77 162 15:22 08.05.2022
2227 Clouds 22 1002 25 10000 2.23 170 12:49 08.05.2022
2228 Clouds 22 1002 25 10000 1.7 177 11:50 08.05.2022
2229 Clouds 24 1002 23 10000 1.59 158 10:26 08.05.2022
2230 Clouds 24 1002 23 10000 1.59 158 09:53 08.05.2022
2231 Clouds 25 1002 19 10000 0.94 174 07:57 08.05.2022
2232 Clouds 28 1000 16 10000 4.21 181 06:18 08.05.2022
2233 Clouds 34 998 9 10000 5.87 173 03:22 08.05.2022
2234 Clouds 37 998 7 10000 6.41 185 01:19 08.05.2022
2235 Clouds 36 999 9 10000 2.62 176 23:57 07.05.2022
2236 Clouds 36 999 9 10000 2.62 176 23:34 07.05.2022
2237 Clouds 35 1001 12 10000 1.88 171 22:46 07.05.2022
2238 Clouds 34 1002 14 10000 1.99 164 21:56 07.05.2022
2239 Clouds 34 1002 14 10000 1.99 164 21:31 07.05.2022
2240 Clouds 32 1004 19 10000 2.79 174 20:25 07.05.2022
2241 Clouds 30 1005 22 10000 2.92 171 18:59 07.05.2022
2242 Clouds 28 1006 29 10000 2.93 174 16:51 07.05.2022
2243 Clear 24 1006 38 10000 1.46 190 15:18 07.05.2022
2244 Clouds 26 1004 33 10000 2.21 184 12:23 07.05.2022
2245 Clouds 28 1004 29 10000 2.99 189 10:18 07.05.2022
2246 Clouds 29 1004 27 10000 3.29 192 08:34 07.05.2022
2247 Clouds 30 1004 24 10000 3.76 189 07:30 07.05.2022
2248 Clouds 32 1004 21 10000 3.89 179 06:42 07.05.2022
2249 Clouds 38 1002 12 10000 3.71 176 04:21 07.05.2022
2250 Clear 38 1004 11 10000 3.75 158 00:49 07.05.2022
2251 Clear 37 1007 12 10000 3.04 153 22:41 06.05.2022
2252 Clear 36 1008 13 10000 2.97 153 22:21 06.05.2022
2253 Clear 36 1008 13 10000 2.97 153 21:32 06.05.2022
2254 Clouds 34 1010 14 10000 2.43 157 20:18 06.05.2022
2255 Clouds 32 1010 15 10000 2.36 161 19:27 06.05.2022
2256 Clouds 32 1010 15 10000 2.36 161 18:49 06.05.2022
2257 Clouds 30 1011 16 10000 1.86 162 17:38 06.05.2022
2258 Clouds 27 1010 18 10000 1.63 159 15:55 06.05.2022
2259 Clouds 27 1010 18 10000 1.63 159 15:32 06.05.2022
2260 Clouds 26 1009 19 10000 1.43 143 14:22 06.05.2022
2261 Clouds 27 1009 17 10000 1.5 135 12:52 06.05.2022
2262 Clouds 27 1009 17 10000 1.18 144 12:20 06.05.2022
2263 Clouds 27 1009 17 10000 1.18 144 11:31 06.05.2022
2264 Clouds 29 1008 15 10000 1.88 173 09:48 06.05.2022
2265 Clouds 29 1008 15 10000 1.88 173 09:48 06.05.2022
2266 Clouds 30 1008 14 10000 1.33 180 09:18 06.05.2022
2267 Clouds 30 1008 13 10000 2.52 178 07:56 06.05.2022
2268 Clouds 32 1007 12 10000 3 166 06:28 06.05.2022
2269 Clouds 36 1005 7 10000 3.73 169 04:29 06.05.2022
2270 Clouds 38 1005 6 10000 2.91 178 02:40 06.05.2022
2271 Clouds 36 1009 7 10000 3.75 181 23:25 05.05.2022
2272 Clouds 36 1010 8 10000 3.7 167 21:51 05.05.2022
2273 Clouds 35 1011 10 10000 4.49 163 20:48 05.05.2022
2274 Clouds 33 1011 12 10000 4.27 166 19:42 05.05.2022
2275 Clear 29 1012 13 10000 1.69 152 16:51 05.05.2022
2276 Clear 26 1012 15 10000 0.81 131 15:48 05.05.2022
2277 Clear 24 1012 18 10000 1.25 139 14:37 05.05.2022
2278 Clear 25 1011 16 10000 1.49 155 13:18 05.05.2022
2279 Clear 26 1011 15 10000 1.51 166 11:48 05.05.2022
2280 Clear 27 1011 14 10000 1.95 173 10:28 05.05.2022
2281 Clear 27 1011 14 10000 1.95 173 09:32 05.05.2022
2282 Clear 28 1011 13 10000 2.34 175 06:49 05.05.2022
2283 Clear 32 1010 10 10000 0.79 108 02:30 05.05.2022
2284 Clear 32 1010 10 10000 1.15 78 01:47 05.05.2022
2285 Clear 32 1011 10 10000 1.29 50 01:20 05.05.2022
2286 Clear 31 1013 11 10000 1.74 15 23:28 04.05.2022
2287 Clear 30 1014 13 10000 2.4 17 22:25 04.05.2022
2288 Clear 30 1014 13 10000 2.4 17 21:48 04.05.2022
2289 Clear 29 1015 15 10000 2.95 16 21:22 04.05.2022
2290 Clear 28 1015 17 10000 3.6 15 20:22 04.05.2022
2291 Clear 28 1015 17 10000 3.6 15 19:51 04.05.2022
2292 Clear 27 1016 20 10000 3.54 15 18:45 04.05.2022
2293 Clear 25 1016 22 10000 3.18 14 18:20 04.05.2022
2294 Clear 24 1016 24 10000 2.41 16 17:28 04.05.2022
2295 Clear 22 1016 26 10000 1.93 12 15:38 04.05.2022
2296 Clear 21 1015 28 10000 2.15 14 14:49 04.05.2022
2297 Clear 21 1015 27 10000 2.05 12 14:20 04.05.2022
2298 Clear 22 1014 22 10000 2.45 3 13:18 04.05.2022
2299 Clear 22 1014 21 10000 2.45 360 12:28 04.05.2022
2300 Clear 23 1014 19 10000 2.63 359 10:33 04.05.2022
2301 Clear 24 1013 14 10000 2.93 11 09:28 04.05.2022
2302 Clear 24 1013 14 10000 2.93 11 08:33 04.05.2022
2303 Clear 26 1010 11 10000 0.54 309 05:50 04.05.2022
2304 Clear 30 1008 8 10000 0.54 54 02:43 04.05.2022
2305 Clear 30 1010 8 10000 2.08 19 23:41 03.05.2022
2306 Clear 28 1011 10 10000 2.05 11 22:20 03.05.2022
2307 Clear 28 1011 10 10000 2.05 11 21:36 03.05.2022
2308 Clear 26 1012 11 10000 2.51 358 20:53 03.05.2022
2309 Clouds 25 1013 13 10000 3.63 357 19:45 03.05.2022
2310 Clouds 23 1014 15 10000 4.42 9 18:50 03.05.2022
2311 Clouds 23 1014 15 10000 4.42 9 18:50 03.05.2022
2312 Clouds 22 1013 17 10000 4.19 16 17:45 03.05.2022
2313 Clouds 21 1013 20 10000 4.48 11 16:37 03.05.2022
2314 Clouds 19 1013 25 10000 4 356 15:32 03.05.2022
2315 Clouds 21 1009 28 10000 5 8 12:47 03.05.2022
2316 Clouds 22 1007 26 10000 4.48 13 12:27 03.05.2022
2317 Clouds 24 1005 23 10000 2.99 31 10:57 03.05.2022
2318 Clouds 26 1003 20 10000 0.87 172 09:21 03.05.2022
2319 Clouds 29 1002 15 10000 2.98 187 06:46 03.05.2022
2320 Clouds 30 1001 14 10000 1.6 215 05:56 03.05.2022
2321 Clouds 34 1004 10 10000 4.49 187 00:19 03.05.2022
2322 Clouds 33 1006 11 10000 3.78 181 22:36 02.05.2022
2323 Clouds 31 1007 12 10000 2.34 171 21:52 02.05.2022
2324 Clouds 29 1009 13 10000 2.31 162 20:51 02.05.2022
2325 Clear 27 1011 15 10000 1.39 155 18:37 02.05.2022
2326 Clear 25 1011 17 10000 0.58 139 17:57 02.05.2022
2327 Clear 25 1011 17 10000 0.58 139 17:34 02.05.2022
2328 Clear 22 1011 19 10000 0.82 163 16:22 02.05.2022
2329 Clear 22 1011 19 10000 0.82 163 15:30 02.05.2022
2330 Clear 22 1011 19 10000 0.82 163 15:30 02.05.2022
2331 Clear 20 1011 21 10000 0.77 44 13:50 02.05.2022
2332 Clear 22 1011 18 10000 1.02 13 12:19 02.05.2022
2333 Clear 22 1011 17 10000 1.47 352 10:47 02.05.2022
2334 Clear 23 1011 15 10000 2.47 349 09:20 02.05.2022
2335 Clear 24 1010 14 10000 2.99 359 07:51 02.05.2022
2336 Clear 28 1007 11 10000 5.73 30 03:53 02.05.2022
2337 Clear 31 1004 16 10000 5.65 44 00:24 02.05.2022
2338 Clear 31 1004 16 10000 5.65 44 23:48 01.05.2022
2339 Clear 31 1005 17 10000 3.11 25 22:25 01.05.2022
2340 Clear 30 1005 18 10000 1.74 18 21:19 01.05.2022
2341 Clear 28 1005 20 10000 2.26 25 19:53 01.05.2022
2342 Clear 27 1005 21 10000 1.54 27 18:58 01.05.2022
2343 Clear 26 1005 22 10000 0.54 59 18:28 01.05.2022
2344 Clear 25 1004 22 10000 0.2 153 17:29 01.05.2022
2345 Clear 23 1004 23 10000 0.37 216 16:23 01.05.2022
2346 Clear 23 1004 23 10000 0.37 216 15:36 01.05.2022
2347 Clear 22 1002 26 10000 1.51 163 13:47 01.05.2022
2348 Clear 24 1002 22 10000 1.83 187 11:23 01.05.2022
2349 Clear 25 1002 19 10000 2.65 198 08:53 01.05.2022
2350 Clear 25 1002 19 10000 2.65 198 08:34 01.05.2022
2351 Clear 33 1001 6 10000 6.63 196 03:44 01.05.2022
2352 Clear 36 1004 5 10000 5.61 184 00:29 01.05.2022
2353 Clear 34 1007 7 10000 4.04 165 21:49 30.04.2022
2354 Clear 32 1009 7 10000 2.51 158 21:18 30.04.2022
2355 Clouds 31 1010 8 10000 1.9 153 19:42 30.04.2022
2356 Clouds 28 1011 9 10000 1.49 155 18:28 30.04.2022
2357 Clouds 27 1011 10 10000 1.45 156 16:50 30.04.2022
2358 Clouds 25 1011 12 10000 1.01 152 15:47 30.04.2022
2359 Clouds 22 1011 14 10000 0.57 150 14:53 30.04.2022
2360 Clear 22 1011 14 10000 0.1 40 13:20 30.04.2022
2361 Clear 22 1011 14 10000 0.29 346 11:34 30.04.2022
2362 Clear 23 1011 14 10000 0.55 344 10:45 30.04.2022
2363 Clear 24 1012 13 10000 0.64 358 09:48 30.04.2022
2364 Clear 26 1011 12 10000 1.34 215 06:48 30.04.2022
2365 Clear 30 1011 9 10000 0.22 121 02:55 30.04.2022
2366 Clear 30 1012 10 10000 0.87 26 23:37 29.04.2022
2367 Clear 29 1013 11 10000 0.94 20 22:34 29.04.2022
2368 Clear 28 1014 12 10000 1.28 13 21:54 29.04.2022
2369 Clouds 27 1015 14 10000 2.04 3 20:51 29.04.2022
2370 Clear 26 1016 15 10000 3.17 5 19:47 29.04.2022
2371 Clear 24 1016 16 10000 3.9 5 18:36 29.04.2022
2372 Clear 22 1016 20 10000 3.81 359 17:26 29.04.2022
2373 Clear 20 1016 22 10000 2.36 352 15:52 29.04.2022
2374 Clear 18 1015 23 10000 2.53 355 14:34 29.04.2022
2375 Clear 20 1014 21 10000 2.35 5 13:27 29.04.2022
2376 Clear 20 1013 20 10000 2.31 14 11:51 29.04.2022
2377 Clear 23 1010 16 10000 2.44 38 09:23 29.04.2022
2378 Clear 25 1008 14 10000 2.64 36 07:42 29.04.2022
2379 Clear 26 1006 13 10000 1.35 157 07:23 29.04.2022
2380 Clear 27 1005 11 10000 2.49 185 05:55 29.04.2022
2381 Clear 31 1002 8 10000 0.37 74 00:47 29.04.2022
2382 Clear 30 1003 8 10000 0.27 63 23:48 28.04.2022
2383 Clear 30 1004 9 10000 0.72 154 22:45 28.04.2022
2384 Clear 29 1004 10 10000 2.51 166 21:55 28.04.2022
2385 Clear 28 1006 12 10000 3.01 169 21:29 28.04.2022
2386 Clear 28 1006 12 10000 3.01 169 20:37 28.04.2022
2387 Clouds 26 1007 14 10000 2.65 169 19:46 28.04.2022
2388 Clouds 25 1007 17 10000 2.46 169 19:23 28.04.2022
2389 Clouds 25 1007 17 10000 2.46 169 18:38 28.04.2022
2390 Clouds 23 1007 20 10000 2.5 167 17:32 28.04.2022
2391 Clouds 22 1007 23 10000 2.12 168 16:49 28.04.2022
2392 Clouds 21 1007 27 10000 1.56 166 16:19 28.04.2022
2393 Clouds 21 1007 27 10000 1.56 166 15:41 28.04.2022
2394 Clouds 19 1006 30 10000 2.24 172 14:47 28.04.2022
2395 Clouds 21 1006 29 10000 2.81 169 13:20 28.04.2022
2396 Clouds 21 1005 27 10000 3.03 173 12:28 28.04.2022
2397 Clouds 22 1005 26 10000 2.95 181 10:51 28.04.2022
2398 Clouds 23 1005 24 10000 3.28 182 10:26 28.04.2022
2399 Clouds 23 1005 24 10000 3.28 182 09:41 28.04.2022
2400 Clouds 25 1005 18 10000 3.68 187 07:40 28.04.2022
2401 Clouds 27 1005 15 10000 4.13 175 06:38 28.04.2022
2402 Clouds 28 1004 13 10000 4.86 168 05:40 28.04.2022
2403 Clouds 29 1003 11 10000 5.54 169 04:42 28.04.2022
2404 Clouds 34 1003 11 10000 3.8 167 00:51 28.04.2022
2405 Clouds 33 1005 14 10000 4.3 163 23:18 27.04.2022
2406 Clouds 32 1006 16 10000 4.11 162 21:58 27.04.2022
2407 Clouds 32 1006 16 10000 4.11 162 21:32 27.04.2022
2408 Clear 31 1007 18 10000 3.72 160 20:44 27.04.2022
2409 Clear 29 1008 20 10000 3.21 161 19:41 27.04.2022
2410 Clear 28 1008 21 10000 2.92 157 19:22 27.04.2022
2411 Clear 28 1008 21 10000 2.92 157 19:22 27.04.2022
2412 Clear 28 1008 21 10000 2.92 157 18:38 27.04.2022
2413 Clear 27 1008 23 10000 2.72 163 17:41 27.04.2022
2414 Clear 24 1008 28 10000 1.66 155 15:56 27.04.2022
2415 Clouds 24 1006 28 10000 1.66 188 12:50 27.04.2022
2416 Clouds 25 1005 26 10000 2.71 195 11:23 27.04.2022
2417 Clouds 26 1005 24 10000 3.2 186 10:26 27.04.2022
2418 Clouds 27 1005 22 10000 3.78 181 07:53 27.04.2022
2419 Clouds 28 1005 20 10000 3.86 180 06:36 27.04.2022
2420 Clouds 33 1005 10 10000 6.86 182 02:26 27.04.2022
2421 Clouds 34 1005 10 10000 7.34 187 01:21 27.04.2022
2422 Clouds 34 1006 11 10000 6.68 183 00:27 27.04.2022
2423 Clouds 34 1007 11 10000 5.54 176 23:24 26.04.2022
2424 Clouds 34 1007 11 10000 5.54 176 22:44 26.04.2022
2425 Clouds 33 1007 12 10000 3.96 173 21:59 26.04.2022
2426 Clouds 32 1009 12 10000 2.89 166 21:18 26.04.2022
2427 Clouds 32 1009 12 10000 2.89 166 20:36 26.04.2022
2428 Clouds 31 1009 13 10000 2.51 167 19:44 26.04.2022
2429 Clouds 29 1010 12 10000 2.1 180 19:24 26.04.2022
2430 Clouds 29 1010 12 10000 2.1 180 18:31 26.04.2022
2431 Clouds 28 1010 12 10000 2.15 179 17:38 26.04.2022
2432 Clouds 23 1010 11 10000 1.11 157 14:59 26.04.2022
2433 Clouds 23 1010 11 10000 0.97 149 13:40 26.04.2022
2434 Clouds 24 1010 10 10000 1.43 154 12:47 26.04.2022
2435 Clouds 25 1011 9 10000 1.66 163 11:20 26.04.2022
2436 Clouds 25 1011 9 10000 1.66 163 10:30 26.04.2022
2437 Clouds 26 1012 9 10000 1.85 165 08:32 26.04.2022
2438 Clouds 28 1012 8 10000 3.54 161 04:53 26.04.2022
2439 Clouds 30 1012 7 10000 4.3 159 03:59 26.04.2022
2440 Clouds 31 1012 6 10000 2.62 160 00:46 26.04.2022
2441 Clouds 31 1014 6 10000 2.21 157 23:48 25.04.2022
2442 Clouds 29 1016 7 10000 1.03 114 21:51 25.04.2022
2443 Clouds 28 1017 8 10000 0.87 80 21:23 25.04.2022
2444 Clouds 27 1018 9 10000 0.92 81 19:47 25.04.2022
2445 Clouds 26 1018 9 10000 1.06 67 18:31 25.04.2022
2446 Clouds 25 1019 10 10000 0.99 66 17:39 25.04.2022
2447 Clouds 24 1018 11 10000 0.72 82 16:35 25.04.2022
2448 Clouds 18 1017 15 10000 0.71 89 15:21 25.04.2022
2449 Clear 19 1017 14 10000 0.72 134 14:23 25.04.2022
2450 Clear 20 1017 14 10000 0.9 143 12:40 25.04.2022
2451 Clear 21 1016 13 10000 0.58 91 10:42 25.04.2022
2452 Clear 22 1017 13 10000 0.37 182 09:39 25.04.2022
2453 Clear 23 1016 13 10000 0.86 197 07:38 25.04.2022
2454 Clear 24 1016 12 10000 0.59 163 05:54 25.04.2022
2455 Clouds 28 1015 9 10000 2.04 352 01:28 25.04.2022
2456 Clouds 27 1016 9 10000 2.26 351 23:54 24.04.2022
2457 Clear 27 1017 10 10000 2.88 352 23:24 24.04.2022
2458 Clear 27 1017 10 10000 2.88 352 22:39 24.04.2022
2459 Clear 26 1018 11 10000 3.34 355 21:55 24.04.2022
2460 Clear 25 1019 12 10000 4.05 355 21:21 24.04.2022
2461 Clear 25 1019 12 10000 4.05 355 20:44 24.04.2022
2462 Clear 24 1020 14 10000 4.28 7 19:57 24.04.2022
2463 Clear 23 1020 15 10000 4.23 13 18:38 24.04.2022
2464 Clear 22 1020 16 10000 4.01 13 17:42 24.04.2022
2465 Clear 21 1020 18 10000 3.35 8 17:21 24.04.2022
2466 Clear 21 1020 18 10000 3.35 8 16:51 24.04.2022
2467 Clear 19 1020 20 10000 2.48 358 16:25 24.04.2022
2468 Clear 19 1020 20 10000 2.48 358 15:39 24.04.2022
2469 Clear 18 1019 21 10000 2.47 358 14:33 24.04.2022
2470 Clear 18 1019 21 10000 2.47 358 14:33 24.04.2022
2471 Clear 19 1018 19 10000 2.71 359 13:26 24.04.2022
2472 Clear 19 1018 19 10000 2.71 359 12:55 24.04.2022
2473 Clear 20 1017 19 10000 3.24 3 11:49 24.04.2022
2474 Clear 21 1017 18 10000 3.49 356 10:37 24.04.2022
2475 Clear 21 1017 17 10000 2.82 5 09:43 24.04.2022
2476 Clear 23 1015 16 10000 1.55 330 07:55 24.04.2022
2477 Clear 23 1015 16 10000 1.13 296 05:45 24.04.2022
2478 Clear 26 1014 13 10000 2.25 354 02:30 24.04.2022
2479 Clear 26 1015 13 10000 2.71 359 00:45 24.04.2022
2480 Clear 25 1016 14 10000 2.86 357 23:46 23.04.2022
2481 Clear 25 1017 15 10000 3.07 349 23:25 23.04.2022
2482 Clear 24 1018 16 10000 3.62 347 21:58 23.04.2022
2483 Clear 24 1018 16 10000 3.62 347 21:36 23.04.2022
2484 Clear 23 1019 18 10000 3.93 349 20:59 23.04.2022
2485 Clouds 23 1019 18 10000 4.23 5 19:56 23.04.2022
2486 Clouds 22 1019 20 10000 4.59 8 19:20 23.04.2022
2487 Clouds 22 1019 20 10000 4.59 8 18:54 23.04.2022
2488 Clouds 22 1019 20 10000 4.59 8 18:31 23.04.2022
2489 Clouds 21 1019 21 10000 4.28 2 17:44 23.04.2022
2490 Clouds 20 1019 21 10000 3.21 359 16:45 23.04.2022
2491 Clouds 18 1019 25 10000 1.75 349 15:43 23.04.2022
2492 Clouds 18 1017 26 10000 1.12 344 13:24 23.04.2022
2493 Clouds 19 1016 28 10000 2.05 353 11:29 23.04.2022
2494 Clouds 19 1016 32 10000 1.83 355 09:39 23.04.2022
2495 Clouds 21 1014 26 10000 1.87 24 07:52 23.04.2022
2496 Clouds 22 1010 27 10000 1.92 185 03:57 23.04.2022
2497 Clouds 23 1009 25 10000 2.16 186 02:34 23.04.2022
2498 Clouds 22 1009 28 10000 1.58 134 23:34 22.04.2022
2499 Clouds 21 1009 35 10000 1.95 183 22:43 22.04.2022
2500 Clouds 20 1010 43 10000 1.9 221 21:56 22.04.2022
2501 Clouds 20 1010 43 10000 1.9 221 21:56 22.04.2022
2502 Clouds 20 1010 43 10000 1.9 221 21:38 22.04.2022
2503 Clouds 19 1011 47 10000 0.75 257 20:30 22.04.2022
2504 Clouds 17 1010 54 10000 1.74 28 19:24 22.04.2022
2505 Clouds 17 1010 54 10000 1.74 28 18:56 22.04.2022
2506 Clouds 15 1009 61 10000 3.33 9 18:24 22.04.2022
2507 Clouds 16 1008 55 10000 2.1 324 16:54 22.04.2022
2508 Clouds 15 1007 60 10000 2.51 190 15:58 22.04.2022
2509 Clouds 14 1007 65 10000 3.51 208 15:23 22.04.2022
2510 Clouds 14 1007 65 10000 3.51 208 14:38 22.04.2022
2511 Clouds 15 1006 65 10000 5.93 201 13:41 22.04.2022
2512 Clouds 15 1005 63 10000 6.38 185 12:36 22.04.2022
2513 Clouds 17 1005 51 10000 8.01 184 11:23 22.04.2022
2514 Clouds 17 1005 51 10000 8.01 184 10:56 22.04.2022
2515 Clouds 17 1005 51 10000 8.01 184 10:32 22.04.2022
2516 Clouds 18 1005 49 10000 7.76 189 09:54 22.04.2022
2517 Clouds 19 1005 47 10000 7.95 185 09:21 22.04.2022
2518 Clouds 19 1005 47 10000 7.95 185 08:42 22.04.2022
2519 Clouds 20 1005 45 10000 8.37 184 06:38 22.04.2022
2520 Clear 29 1003 16 10000 9.69 206 00:56 22.04.2022
2521 Clouds 30 1004 14 10000 9.74 202 23:33 21.04.2022
2522 Clouds 30 1005 15 10000 8.76 193 22:43 21.04.2022
2523 Clear 29 1006 16 10000 9 192 21:36 21.04.2022
2524 Clear 28 1007 17 10000 8.1 188 20:30 21.04.2022
2525 Clear 24 1008 22 10000 5.65 180 18:49 21.04.2022
2526 Clear 22 1009 28 10000 4.66 185 18:28 21.04.2022
2527 Clear 21 1009 35 10000 4.39 190 17:19 21.04.2022
2528 Clear 18 1007 47 10000 4.24 193 15:25 21.04.2022
2529 Clear 18 1007 47 10000 4.24 193 14:52 21.04.2022
2530 Clear 18 1007 47 10000 4.4 192 14:28 21.04.2022
2531 Clear 19 1006 45 10000 4.49 191 13:21 21.04.2022
2532 Clear 20 1006 43 10000 4.73 193 12:25 21.04.2022
2533 Clear 21 1006 37 10000 5.55 193 09:36 21.04.2022
2534 Clear 22 1005 32 10000 5.6 192 08:47 21.04.2022
2535 Clouds 24 1005 23 10000 5.04 187 06:44 21.04.2022
2536 Clouds 30 1003 13 10000 5.28 173 03:42 21.04.2022
2537 Clouds 32 1003 12 10000 4.63 183 03:22 21.04.2022
2538 Clouds 32 1003 12 10000 4.63 183 02:44 21.04.2022
2539 Clouds 32 1003 12 10000 4.63 183 02:44 21.04.2022
2540 Clear 31 1004 14 10000 3.97 171 00:35 21.04.2022
2541 Clear 30 1005 16 10000 4.72 164 23:37 20.04.2022
2542 Clear 29 1006 19 10000 4.29 164 23:18 20.04.2022
2543 Clear 29 1006 19 10000 4.29 164 22:36 20.04.2022
2544 Clear 28 1007 21 10000 3.45 163 21:47 20.04.2022
2545 Clear 27 1008 24 10000 3.07 165 20:45 20.04.2022
2546 Clear 26 1009 26 10000 2.9 163 20:21 20.04.2022
2547 Clouds 26 1009 29 10000 2.84 160 19:46 20.04.2022
2548 Clouds 24 1009 32 10000 2.4 161 18:48 20.04.2022
2549 Clouds 23 1009 36 10000 2.18 169 17:52 20.04.2022
2550 Clouds 22 1009 38 10000 2.05 171 16:39 20.04.2022
2551 Clouds 20 1008 41 10000 1.99 168 15:33 20.04.2022
2552 Clouds 20 1007 38 10000 1.72 171 12:46 20.04.2022
2553 Clouds 21 1007 36 10000 1.96 170 11:42 20.04.2022
2554 Clouds 21 1007 35 10000 1.47 167 10:51 20.04.2022
2555 Clouds 22 1007 33 10000 1.71 154 09:34 20.04.2022
2556 Clouds 23 1007 31 10000 0.93 138 08:51 20.04.2022
2557 Clouds 23 1006 30 10000 0.24 171 08:19 20.04.2022
2558 Clouds 25 1004 25 10000 1.04 153 06:26 20.04.2022
2559 Clouds 30 999 14 10000 6.39 166 02:58 20.04.2022
2560 Clear 33 999 9 10000 10.63 214 00:22 20.04.2022
2561 Clear 33 1000 7 10000 8.24 205 23:19 19.04.2022
2562 Clear 33 1001 8 10000 6.67 190 22:24 19.04.2022
2563 Clear 33 1001 8 10000 6.67 190 21:55 19.04.2022
2564 Clear 31 1003 10 10000 6.1 181 21:18 19.04.2022
2565 Clear 31 1003 10 10000 6.1 181 20:37 19.04.2022
2566 Clear 31 1003 10 10000 6.1 181 20:37 19.04.2022
2567 Clouds 29 1005 12 10000 5.35 183 19:43 19.04.2022
2568 Clouds 28 1005 15 10000 5.66 186 18:46 19.04.2022
2569 Clouds 25 1005 18 10000 5.62 192 17:27 19.04.2022
2570 Clouds 25 1005 18 10000 5.62 192 16:43 19.04.2022
2571 Clouds 23 1005 22 10000 5.28 199 16:21 19.04.2022
2572 Clouds 23 1005 21 10000 6.02 194 14:47 19.04.2022
2573 Clouds 24 1005 19 10000 5.78 194 13:34 19.04.2022
2574 Clouds 24 1006 18 10000 5.87 194 12:50 19.04.2022
2575 Clouds 25 1006 17 10000 5.97 193 11:55 19.04.2022
2576 Clouds 26 1007 13 10000 5.83 193 10:23 19.04.2022
2577 Clouds 27 1007 12 10000 5.61 197 08:54 19.04.2022
2578 Clouds 30 1005 10 10000 6.59 191 04:42 19.04.2022
2579 Clear 35 1005 8 10000 13.36 230 03:25 19.04.2022
2580 Clouds 36 1006 6 10000 3.53 180 00:54 19.04.2022
2581 Clouds 34 1009 6 10000 3 171 23:29 18.04.2022
2582 Clouds 32 1010 7 10000 2.7 164 21:30 18.04.2022
2583 Clouds 32 1010 7 10000 2.7 164 21:30 18.04.2022
2584 Clouds 31 1011 8 10000 2.31 166 20:54 18.04.2022
2585 Clouds 31 1011 8 10000 2.31 166 20:30 18.04.2022
2586 Clouds 29 1012 11 10000 2.3 167 19:42 18.04.2022
2587 Clouds 28 1013 13 10000 1.94 174 18:54 18.04.2022
2588 Clouds 27 1013 15 10000 1.76 172 17:57 18.04.2022
2589 Clouds 27 1013 15 10000 1.76 172 17:33 18.04.2022
2590 Clouds 25 1013 17 10000 1.25 175 16:50 18.04.2022
2591 Clouds 25 1013 17 10000 1.25 175 16:31 18.04.2022
2592 Clouds 21 1012 20 10000 1.21 174 14:45 18.04.2022
2593 Clouds 22 1012 20 10000 0.82 174 13:35 18.04.2022
2594 Clouds 24 1011 18 10000 0.79 189 12:29 18.04.2022
2595 Clouds 24 1011 18 10000 0.79 189 11:34 18.04.2022
2596 Clouds 24 1011 17 10000 1.41 167 10:31 18.04.2022
2597 Clouds 25 1012 16 10000 1.78 158 09:31 18.04.2022
2598 Clouds 26 1012 16 10000 1.38 144 07:42 18.04.2022
2599 Clouds 27 1013 14 10000 1.84 150 05:37 18.04.2022
2600 Clear 31 1014 14 10000 2.46 150 00:27 18.04.2022
2601 Clear 30 1015 16 10000 2.15 154 22:41 17.04.2022
2602 Clear 29 1016 18 10000 1.84 154 21:46 17.04.2022
2603 Clear 27 1017 21 10000 1.84 148 21:24 17.04.2022
2604 Clear 27 1017 21 10000 1.84 148 20:36 17.04.2022
2605 Clear 27 1017 21 10000 1.84 148 20:35 17.04.2022
2606 Clear 24 1019 28 10000 1.18 139 19:28 17.04.2022
2607 Clear 23 1019 31 10000 0.92 167 17:48 17.04.2022
2608 Clear 19 1018 37 10000 0.69 201 15:40 17.04.2022
2609 Clear 18 1017 41 10000 0.92 314 14:55 17.04.2022
2610 Clear 18 1016 39 10000 0.45 234 14:19 17.04.2022
2611 Clear 19 1016 39 10000 1.02 197 12:59 17.04.2022
2612 Clear 19 1015 37 10000 1 159 12:27 17.04.2022
2613 Clear 20 1015 35 10000 1.18 125 10:46 17.04.2022
2614 Clear 21 1015 32 10000 1.31 128 10:28 17.04.2022
2615 Clear 21 1015 32 10000 1.31 128 09:34 17.04.2022
2616 Clear 22 1015 30 10000 2.01 161 08:51 17.04.2022
2617 Clear 22 1014 25 10000 2.25 166 07:30 17.04.2022
2618 Clear 25 1010 21 10000 3.71 174 04:30 17.04.2022
2619 Clear 29 1006 15 10000 3.13 202 01:26 17.04.2022
2620 Clear 29 1006 16 10000 4.14 218 23:52 16.04.2022
2621 Clear 28 1007 16 10000 5.92 222 22:35 16.04.2022
2622 Clear 28 1007 17 10000 9.62 219 21:38 16.04.2022
2623 Clear 27 1008 20 10000 8.98 207 20:32 16.04.2022
2624 Clear 25 1009 29 10000 7.13 184 18:59 16.04.2022
2625 Clear 24 1009 32 10000 6.16 185 17:52 16.04.2022
2626 Clear 22 1008 36 10000 5.53 183 16:40 16.04.2022
2627 Clear 19 1008 42 10000 4.31 191 15:45 16.04.2022
2628 Clear 19 1008 42 10000 4.31 191 15:45 16.04.2022
2629 Clear 19 1008 43 10000 4.07 195 14:57 16.04.2022
2630 Clouds 19 1007 42 10000 3.63 201 13:58 16.04.2022
2631 Clouds 19 1007 42 10000 3.63 201 13:37 16.04.2022
2632 Clouds 20 1007 39 10000 4.14 196 12:26 16.04.2022
2633 Clouds 21 1007 37 10000 4.17 186 11:18 16.04.2022
2634 Clouds 22 1007 35 10000 3.81 183 09:56 16.04.2022
2635 Clouds 23 1006 31 10000 3.62 181 08:59 16.04.2022
2636 Clouds 24 1007 28 10000 3.57 176 07:57 16.04.2022
2637 Clouds 24 1007 24 10000 3.53 159 06:59 16.04.2022
2638 Clouds 27 1006 19 10000 1.92 134 03:36 16.04.2022
2639 Clouds 28 1006 20 10000 2.2 148 00:31 16.04.2022
2640 Clouds 27 1008 22 10000 2.3 156 23:23 15.04.2022
2641 Clouds 27 1008 22 10000 2.3 156 22:36 15.04.2022
2642 Clear 26 1009 24 10000 2.26 156 21:58 15.04.2022
2643 Clear 25 1010 26 10000 2.24 157 21:18 15.04.2022
2644 Clear 24 1011 28 10000 1.81 161 20:24 15.04.2022
2645 Clear 24 1011 27 10000 1.57 154 19:40 15.04.2022
2646 Clear 22 1011 29 10000 1.65 163 18:54 15.04.2022
2647 Clear 21 1011 32 10000 1.16 176 18:25 15.04.2022
2648 Clear 21 1011 32 10000 1.16 176 17:48 15.04.2022
2649 Clear 20 1010 34 10000 0.77 173 17:21 15.04.2022
2650 Clouds 18 1010 37 10000 0.66 167 16:23 15.04.2022
2651 Clear 16 1009 41 10000 1.38 167 15:24 15.04.2022
2652 Clouds 17 1008 39 10000 1.57 172 13:42 15.04.2022
2653 Clouds 18 1008 37 10000 1.73 163 12:43 15.04.2022
2654 Clouds 18 1007 35 10000 2.24 170 11:58 15.04.2022
2655 Clouds 18 1007 35 10000 2.24 170 11:35 15.04.2022
2656 Clouds 19 1007 32 10000 2.21 179 10:45 15.04.2022
2657 Clouds 19 1006 31 10000 2.34 193 09:50 15.04.2022
2658 Clear 20 1006 29 10000 2.61 197 09:21 15.04.2022
2659 Clouds 21 1005 28 10000 2.62 200 07:53 15.04.2022
2660 Clouds 21 1005 26 10000 3.14 196 06:46 15.04.2022
2661 Clouds 26 1002 16 10000 3.97 180 03:47 15.04.2022
2662 Clouds 26 1007 14 10000 4.07 160 23:32 14.04.2022
2663 Clouds 25 1009 13 10000 3.67 158 22:50 14.04.2022
2664 Clouds 25 1009 13 10000 3.67 158 22:32 14.04.2022
2665 Clouds 24 1010 13 10000 3.2 154 21:59 14.04.2022
2666 Clouds 24 1010 14 10000 3.29 155 21:32 14.04.2022
2667 Clouds 20 1013 17 10000 3.11 162 19:24 14.04.2022
2668 Clouds 20 1013 17 10000 3.11 162 18:31 14.04.2022
2669 Clouds 19 1013 18 10000 2.25 168 17:44 14.04.2022
2670 Clouds 18 1013 19 10000 1.67 143 16:49 14.04.2022
2671 Clear 16 1013 21 10000 1.61 158 15:48 14.04.2022
2672 Clear 15 1012 19 10000 1.2 169 13:52 14.04.2022
2673 Clear 16 1013 18 10000 1.47 154 13:19 14.04.2022
2674 Clear 16 1013 18 10000 1.47 154 12:32 14.04.2022
2675 Clear 16 1012 17 10000 1.63 154 11:36 14.04.2022
2676 Clear 17 1013 16 10000 1.28 157 10:57 14.04.2022
2677 Clear 17 1012 15 10000 1.73 150 10:29 14.04.2022
2678 Clear 18 1013 14 10000 1.11 138 09:28 14.04.2022
2679 Clear 18 1013 14 10000 0.73 125 07:54 14.04.2022
2680 Clear 19 1013 12 10000 1.43 98 05:35 14.04.2022
2681 Clear 22 1014 9 10000 2.62 153 00:22 14.04.2022
2682 Clear 22 1015 9 10000 2.23 152 22:37 13.04.2022
2683 Clear 21 1016 10 10000 1.23 134 21:42 13.04.2022
2684 Clear 20 1017 11 10000 0.94 110 20:39 13.04.2022
2685 Clear 18 1018 12 10000 0.74 100 19:48 13.04.2022
2686 Clear 17 1019 14 10000 0.74 102 18:37 13.04.2022
2687 Clear 15 1019 15 10000 0.88 139 17:25 13.04.2022
2688 Clear 15 1019 15 10000 0.88 139 16:53 13.04.2022
2689 Clear 13 1019 17 10000 0.28 60 15:47 13.04.2022
2690 Clear 12 1018 18 10000 0.8 1 15:27 13.04.2022
2691 Clear 12 1018 18 10000 0.8 1 14:40 13.04.2022
2692 Clear 12 1017 19 10000 0.52 130 13:38 13.04.2022
2693 Clear 12 1016 19 10000 0.6 143 12:52 13.04.2022
2694 Clear 13 1015 18 10000 0.42 136 11:47 13.04.2022
2695 Clear 14 1015 17 10000 0.3 78 10:31 13.04.2022
2696 Clear 15 1014 16 10000 0.66 129 08:45 13.04.2022
2697 Clear 15 1014 15 10000 0.98 164 08:23 13.04.2022
2698 Clear 16 1013 14 10000 1.26 158 06:49 13.04.2022
2699 Clear 17 1012 13 10000 2.25 153 06:24 13.04.2022
2700 Clear 19 1012 10 10000 1.63 127 02:24 13.04.2022
2701 Clear 19 1013 10 10000 1.33 106 00:20 13.04.2022
2702 Clear 18 1014 10 10000 1.25 88 22:36 12.04.2022
2703 Clear 17 1014 11 10000 1.34 53 21:56 12.04.2022
2704 Clear 16 1015 13 10000 1.95 31 20:48 12.04.2022
2705 Clear 16 1016 14 10000 2.58 26 20:22 12.04.2022
2706 Clear 16 1016 16 10000 2.42 30 19:40 12.04.2022
2707 Clear 15 1016 17 10000 3.36 42 19:18 12.04.2022
2708 Clouds 14 1016 19 10000 3.65 45 17:39 12.04.2022
2709 Clouds 13 1015 19 10000 2.68 53 16:48 12.04.2022
2710 Clouds 12 1014 20 10000 1.88 53 15:38 12.04.2022
2711 Clouds 11 1013 21 10000 2.16 46 15:20 12.04.2022
2712 Clouds 12 1012 21 10000 2.18 47 13:53 12.04.2022
2713 Clouds 13 1011 22 10000 1.78 63 13:27 12.04.2022
2714 Clouds 13 1010 23 10000 1.96 77 12:26 12.04.2022
2715 Clouds 13 1010 23 10000 1.96 77 11:39 12.04.2022
2716 Clouds 14 1007 24 10000 2.7 40 09:59 12.04.2022
2717 Clear 15 1005 27 10000 4.64 40 08:53 12.04.2022
2718 Clear 19 999 30 10000 2.1 182 07:21 12.04.2022
2719 Clear 20 997 27 10000 4.97 193 05:42 12.04.2022
2720 Clear 27 993 15 10000 9.22 205 02:53 12.04.2022
2721 Clouds 30 995 17 10000 6.28 188 23:25 11.04.2022
2722 Clouds 30 995 17 10000 6.28 188 22:44 11.04.2022
2723 Clouds 27 998 17 10000 5.13 184 21:35 11.04.2022
2724 Clouds 25 1000 17 10000 5.24 176 20:49 11.04.2022
2725 Clouds 24 1001 16 10000 4.4 165 20:28 11.04.2022
2726 Clouds 23 1002 15 10000 5.07 164 19:29 11.04.2022
2727 Clouds 23 1002 15 10000 5.07 164 18:59 11.04.2022
2728 Clouds 23 1002 15 10000 5.07 164 18:33 11.04.2022
2729 Clouds 22 1002 15 10000 4.7 165 17:43 11.04.2022
2730 Clouds 20 1003 17 10000 3.86 158 16:38 11.04.2022
2731 Clouds 18 1003 18 10000 3.31 167 15:24 11.04.2022
2732 Clouds 19 1003 17 10000 2.69 163 13:44 11.04.2022
2733 Clouds 19 1003 17 10000 2.43 161 12:43 11.04.2022
2734 Clouds 19 1003 17 10000 2.2 163 12:22 11.04.2022
2735 Clouds 20 1004 16 10000 2.16 162 10:56 11.04.2022
2736 Clouds 20 1004 15 10000 1.29 172 09:58 11.04.2022
2737 Clouds 21 1004 14 10000 0.11 98 08:23 11.04.2022
2738 Clouds 23 1004 12 10000 1.01 276 05:26 11.04.2022
2739 Clouds 26 1006 9 10000 0.89 100 00:49 11.04.2022
2740 Clouds 25 1008 8 10000 2.21 24 22:33 10.04.2022
2741 Clouds 24 1010 9 10000 3.14 16 21:54 10.04.2022
2742 Clouds 23 1011 9 10000 3.93 13 21:26 10.04.2022
2743 Clouds 22 1012 10 10000 4.48 15 20:21 10.04.2022
2744 Clouds 22 1012 10 10000 4.02 17 19:37 10.04.2022
2745 Clouds 21 1012 10 10000 4.89 12 18:50 10.04.2022
2746 Clouds 21 1012 10 10000 4.89 12 18:30 10.04.2022
2747 Clouds 21 1012 10 10000 5.14 9 17:49 10.04.2022
2748 Clouds 20 1012 11 10000 4.01 3 16:59 10.04.2022
2749 Clouds 18 1011 14 10000 2.93 7 15:41 10.04.2022
2750 Clouds 18 1011 15 10000 2.76 13 14:49 10.04.2022
2751 Clouds 19 1011 15 10000 2.59 19 13:45 10.04.2022
2752 Clouds 20 1010 15 10000 2.93 14 12:33 10.04.2022
2753 Clouds 20 1009 16 10000 3.53 15 11:44 10.04.2022
2754 Clouds 22 1009 18 10000 3.89 16 11:20 10.04.2022
2755 Clouds 22 1009 18 10000 3.89 16 10:38 10.04.2022
2756 Clouds 23 1008 18 10000 4.01 21 09:46 10.04.2022
2757 Clouds 24 1006 17 10000 4.06 24 08:40 10.04.2022
2758 Clear 26 1005 14 10000 3.66 27 08:18 10.04.2022
2759 Clear 28 1003 11 10000 3.84 16 06:59 10.04.2022
2760 Clear 31 1000 9 10000 2.45 204 04:36 10.04.2022
2761 Clouds 35 1000 7 10000 1.51 58 02:19 10.04.2022
2762 Clouds 36 1001 8 10000 0.72 65 23:54 09.04.2022
2763 Clouds 36 1001 8 10000 0.72 65 23:54 09.04.2022
2764 Clouds 35 1002 8 10000 0.68 89 22:56 09.04.2022
2765 Clouds 35 1002 8 10000 0.68 89 22:38 09.04.2022
2766 Clear 33 1005 10 10000 0.95 158 21:28 09.04.2022
2767 Clear 33 1005 10 10000 0.95 158 20:31 09.04.2022
2768 Clouds 33 1005 11 10000 2.3 170 19:57 09.04.2022
2769 Clouds 33 1005 11 10000 2.3 170 19:39 09.04.2022
2770 Clouds 30 1006 13 10000 1.56 181 18:24 09.04.2022
2771 Clouds 30 1006 13 10000 1.56 181 17:50 09.04.2022
2772 Clouds 29 1007 14 10000 1.09 209 16:59 09.04.2022
2773 Clouds 29 1007 14 10000 1.09 209 16:40 09.04.2022
2774 Clouds 25 1006 16 10000 1 206 15:51 09.04.2022
2775 Clouds 25 1006 16 10000 1.15 204 15:26 09.04.2022
2776 Clouds 26 1006 15 10000 0.99 200 14:26 09.04.2022
2777 Clouds 26 1006 15 10000 1.15 191 13:34 09.04.2022
2778 Clouds 26 1007 14 10000 0.92 217 12:57 09.04.2022
2779 Clouds 27 1007 13 10000 1.16 199 11:51 09.04.2022
2780 Clouds 28 1007 12 10000 1.89 190 10:53 09.04.2022
2781 Clouds 29 1008 10 10000 2.26 182 10:19 09.04.2022
2782 Clouds 29 1008 9 10000 2.17 172 09:24 09.04.2022
2783 Clouds 29 1008 9 10000 2.17 172 08:35 09.04.2022
2784 Clear 32 1010 7 10000 3.25 167 05:21 09.04.2022
2785 Clear 36 1011 6 10000 2.5 153 00:35 09.04.2022
2786 Clear 35 1014 6 10000 1.4 137 23:24 08.04.2022
2787 Clear 34 1015 7 10000 0.98 122 21:54 08.04.2022
2788 Clouds 33 1016 7 10000 0.83 97 20:45 08.04.2022
2789 Clouds 33 1017 7 10000 0.72 78 19:57 08.04.2022
2790 Clouds 31 1017 7 10000 0.69 63 18:59 08.04.2022
2791 Clouds 30 1017 8 10000 0.74 67 18:25 08.04.2022
2792 Clouds 30 1017 8 10000 0.74 67 17:38 08.04.2022
2793 Clouds 29 1018 9 10000 0.63 46 17:19 08.04.2022
2794 Clouds 29 1018 9 10000 0.63 46 16:35 08.04.2022
2795 Clouds 24 1017 11 10000 0.71 41 15:39 08.04.2022
2796 Clouds 23 1017 12 10000 0.59 51 14:52 08.04.2022
2797 Clear 24 1017 11 10000 0.62 39 14:21 08.04.2022
2798 Clear 24 1017 11 10000 0.62 39 13:41 08.04.2022
2799 Clear 24 1017 11 10000 0.63 73 13:22 08.04.2022
2800 Clear 24 1017 11 10000 0.47 68 11:51 08.04.2022
2801 Clear 25 1018 10 10000 0.74 36 10:31 08.04.2022
2802 Clear 26 1018 9 10000 0.82 360 09:25 08.04.2022
2803 Clear 26 1018 9 10000 0.82 360 08:30 08.04.2022
2804 Clear 27 1019 10 10000 1.06 3 06:47 08.04.2022
2805 Clear 29 1019 9 10000 1.25 24 04:34 08.04.2022
2806 Clear 34 1018 6 10000 2.73 360 00:42 08.04.2022
2807 Clear 33 1019 6 10000 2.73 3 00:18 08.04.2022
2808 Clear 32 1021 6 10000 2.83 7 22:58 07.04.2022
2809 Clear 32 1021 6 10000 2.83 7 22:37 07.04.2022
2810 Clear 32 1022 7 10000 3.09 9 22:19 07.04.2022
2811 Clear 32 1022 7 10000 3.09 9 21:49 07.04.2022
2812 Clear 30 1023 7 10000 3.22 11 20:58 07.04.2022
2813 Clear 30 1023 7 10000 3.22 11 20:30 07.04.2022
2814 Clear 27 1024 9 10000 2.3 23 18:29 07.04.2022
2815 Clear 25 1024 10 10000 1.66 17 17:25 07.04.2022
2816 Clear 25 1024 10 10000 1.66 17 16:44 07.04.2022
2817 Clear 22 1024 12 10000 1.54 13 16:20 07.04.2022
2818 Clear 21 1023 12 10000 1.51 10 14:42 07.04.2022
2819 Clear 22 1022 11 10000 1.46 10 13:42 07.04.2022
2820 Clear 22 1022 11 10000 1.36 19 12:41 07.04.2022
2821 Clear 23 1022 11 10000 1.37 25 11:30 07.04.2022
2822 Clear 24 1022 10 10000 1.44 16 09:37 07.04.2022
2823 Clear 24 1022 10 10000 1.44 16 09:37 07.04.2022
2824 Clear 24 1022 10 10000 1.44 15 08:38 07.04.2022
2825 Clear 25 1021 10 10000 1.56 30 06:42 07.04.2022
2826 Clear 31 1018 7 10000 3.19 16 02:51 07.04.2022
2827 Clear 32 1018 7 10000 4.04 5 02:20 07.04.2022
2828 Clear 31 1019 8 10000 3.1 355 00:26 07.04.2022
2829 Clear 30 1020 9 10000 3.05 4 22:49 06.04.2022
2830 Clear 29 1021 10 10000 3.5 13 22:27 06.04.2022
2831 Clear 29 1021 10 10000 3.5 13 21:44 06.04.2022
2832 Clear 28 1021 10 10000 3.9 17 20:36 06.04.2022
2833 Clear 27 1022 11 10000 4.11 19 19:53 06.04.2022
2834 Clear 26 1021 12 10000 3.87 18 18:51 06.04.2022
2835 Clear 25 1021 13 10000 3.94 11 18:25 06.04.2022
2836 Clear 25 1021 13 10000 3.94 11 17:35 06.04.2022
2837 Clear 24 1020 15 10000 3.57 1 16:38 06.04.2022
2838 Clear 22 1019 18 10000 2.97 353 15:48 06.04.2022
2839 Clear 21 1018 19 10000 3.07 355 15:21 06.04.2022
2840 Clear 23 1017 17 10000 3.08 355 13:24 06.04.2022
2841 Clear 24 1016 16 10000 3.21 355 12:27 06.04.2022
2842 Clear 24 1016 15 10000 3.19 358 10:48 06.04.2022
2843 Clear 25 1015 15 10000 3.03 5 10:29 06.04.2022
2844 Clear 25 1015 15 10000 3.03 5 09:40 06.04.2022
2845 Clear 26 1014 15 10000 2.91 14 08:34 06.04.2022
2846 Clear 27 1013 15 10000 2.73 24 07:53 06.04.2022
2847 Clear 30 1010 17 10000 2.45 36 04:30 06.04.2022
2848 Clouds 33 1009 16 10000 0.9 70 23:54 05.04.2022
2849 Clear 33 1010 17 10000 0.89 65 23:21 05.04.2022
2850 Clear 31 1011 20 10000 0.68 61 21:23 05.04.2022
2851 Clouds 29 1011 21 10000 0.58 75 20:26 05.04.2022
2852 Clouds 29 1011 21 10000 0.58 75 19:52 05.04.2022
2853 Clouds 27 1011 23 10000 1.36 170 18:18 05.04.2022
2854 Clouds 26 1011 24 10000 1.66 182 16:55 05.04.2022
2855 Clouds 26 1011 24 10000 1.66 182 16:35 05.04.2022
2856 Clouds 23 1011 29 10000 0.75 181 15:43 05.04.2022
2857 Clouds 23 1011 29 10000 0.75 181 15:43 05.04.2022
2858 Clouds 22 1010 29 10000 0.85 170 15:24 05.04.2022
2859 Clear 23 1009 27 10000 1.36 177 13:38 05.04.2022
2860 Clear 24 1009 22 10000 1.45 154 11:51 05.04.2022
2861 Clear 24 1009 22 10000 1.45 154 11:51 05.04.2022
2862 Clear 24 1009 22 10000 1.45 154 11:33 05.04.2022
2863 Clear 25 1009 21 10000 1.94 165 10:57 05.04.2022
2864 Clear 27 1009 17 10000 1.63 189 09:29 05.04.2022
2865 Clear 28 1009 15 10000 1.93 195 07:32 05.04.2022
2866 Clear 33 1007 16 10000 1.43 158 02:43 05.04.2022
2867 Clouds 31 1009 17 10000 1.36 127 23:22 04.04.2022
2868 Clouds 31 1009 17 10000 1.36 127 22:32 04.04.2022
2869 Clouds 30 1009 19 10000 1.25 128 21:43 04.04.2022
2870 Clouds 30 1010 21 10000 1 131 21:18 04.04.2022
2871 Clouds 30 1010 21 10000 1 131 20:46 04.04.2022
2872 Clouds 27 1010 26 10000 1.37 167 19:27 04.04.2022
2873 Clouds 27 1010 26 10000 1.37 167 18:39 04.04.2022
2874 Clear 25 1009 29 10000 0.78 192 17:19 04.04.2022
2875 Clear 21 1008 35 10000 0.51 157 16:28 04.04.2022
2876 Clear 21 1008 35 10000 0.51 157 15:33 04.04.2022
2877 Clear 21 1008 36 10000 0.51 168 14:46 04.04.2022
2878 Clear 21 1007 35 10000 0.72 189 13:59 04.04.2022
2879 Clear 22 1007 33 10000 0.81 217 12:58 04.04.2022
2880 Clear 23 1007 29 10000 1.19 227 11:29 04.04.2022
2881 Clear 24 1007 27 10000 1.18 228 09:53 04.04.2022
2882 Clouds 25 1007 24 10000 0.64 202 05:34 04.04.2022
2883 Clouds 28 1006 17 10000 1.29 98 02:59 04.04.2022
2884 Clouds 29 1009 15 10000 3.78 359 23:19 03.04.2022
2885 Clouds 29 1009 14 10000 3.39 7 22:18 03.04.2022
2886 Clouds 29 1009 14 10000 3.39 7 21:31 03.04.2022
2887 Clouds 29 1010 14 10000 3.87 12 20:32 03.04.2022
2888 Clouds 26 1011 27 10000 1.23 14 18:47 03.04.2022
2889 Clouds 25 1010 31 10000 0.68 9 17:56 03.04.2022
2890 Clouds 25 1010 31 10000 0.68 9 17:36 03.04.2022
2891 Clouds 25 1010 33 10000 0.6 348 16:50 03.04.2022
2892 Clouds 23 1010 38 10000 1.24 339 15:57 03.04.2022
2893 Clouds 23 1009 37 10000 0.79 39 14:27 03.04.2022
2894 Clouds 23 1008 37 10000 1.03 37 13:34 03.04.2022
2895 Clouds 25 1008 34 10000 1.47 150 11:51 03.04.2022
2896 Clouds 26 1008 31 10000 1.94 175 09:59 03.04.2022
2897 Clouds 27 1008 29 10000 2.32 178 09:19 03.04.2022
2898 Clouds 27 1009 24 10000 1.95 164 06:41 03.04.2022
2899 Clouds 30 1008 19 10000 1.45 137 03:37 03.04.2022
2900 Clouds 32 1008 15 10000 3.23 156 00:29 03.04.2022
2901 Clouds 32 1009 15 10000 3.73 157 22:52 02.04.2022
2902 Clouds 31 1010 16 10000 3.48 161 21:57 02.04.2022
2903 Clouds 30 1011 17 10000 2.53 161 21:28 02.04.2022
2904 Clouds 30 1011 17 10000 2.53 161 20:41 02.04.2022
2905 Clear 28 1012 19 10000 2.14 159 18:57 02.04.2022
2906 Clear 27 1011 21 10000 2 178 18:20 02.04.2022
2907 Clear 27 1011 21 10000 2 178 18:20 02.04.2022
2908 Clear 27 1011 21 10000 2 178 17:46 02.04.2022
2909 Clear 22 1011 27 10000 1.8 152 15:59 02.04.2022
2910 Clear 22 1010 27 10000 1.59 161 15:21 02.04.2022
2911 Clear 22 1010 27 10000 1.59 161 14:43 02.04.2022
2912 Clear 23 1010 26 10000 1.7 173 13:34 02.04.2022
2913 Clear 24 1010 24 10000 1.98 179 12:37 02.04.2022
2914 Clear 24 1010 20 10000 1.87 172 10:56 02.04.2022
2915 Clear 25 1010 19 10000 1.36 184 08:44 02.04.2022
2916 Clear 25 1010 18 10000 0.69 186 06:49 02.04.2022
2917 Clear 28 1008 16 10000 0.58 189 03:39 02.04.2022
2918 Clear 30 1009 12 10000 0.72 45 23:55 01.04.2022
2919 Clear 29 1010 12 10000 1.4 23 23:18 01.04.2022
2920 Clear 29 1010 13 10000 2.16 13 21:33 01.04.2022
2921 Clear 28 1011 13 10000 2.82 9 20:51 01.04.2022
2922 Clouds 27 1012 14 10000 3.42 6 19:57 01.04.2022
2923 Clouds 27 1012 14 10000 3.42 6 19:31 01.04.2022
2924 Clouds 26 1012 14 10000 3.8 8 18:45 01.04.2022
2925 Clouds 24 1011 16 10000 3.52 7 17:46 01.04.2022
2926 Clouds 23 1011 19 10000 2.5 3 16:52 01.04.2022
2927 Clouds 20 1010 24 10000 2.31 351 15:39 01.04.2022
2928 Clouds 21 1009 26 10000 2.44 349 14:21 01.04.2022
2929 Clouds 21 1009 27 10000 2.07 353 13:34 01.04.2022
2930 Clouds 21 1008 28 10000 2.03 359 12:32 01.04.2022
2931 Clouds 21 1008 28 10000 2.03 359 12:32 01.04.2022
2932 Clouds 22 1008 29 10000 1.79 9 11:40 01.04.2022
2933 Clouds 23 1007 32 10000 1.49 0 10:19 01.04.2022
2934 Clouds 23 1006 32 10000 1.03 17 08:58 01.04.2022
2935 Clouds 25 1006 28 10000 1.62 171 06:54 01.04.2022
2936 Clouds 25 1005 26 10000 0.92 171 04:51 01.04.2022
2937 Clouds 25 1005 26 10000 0.92 171 04:31 01.04.2022
2938 Clouds 28 1004 21 10000 0.98 125 01:57 01.04.2022
2939 Clouds 28 1005 21 10000 1.14 111 23:58 31.03.2022
2940 Clouds 27 1007 25 10000 0.87 88 21:53 31.03.2022
2941 Clouds 27 1007 25 10000 0.87 88 21:32 31.03.2022
2942 Clouds 25 1008 32 10000 0.96 94 20:29 31.03.2022
2943 Clouds 25 1008 32 10000 0.96 94 19:50 31.03.2022
2944 Clouds 24 1009 34 10000 0.8 115 18:46 31.03.2022
2945 Clouds 23 1009 37 10000 1.3 171 17:50 31.03.2022
2946 Clouds 21 1009 38 10000 1.27 190 16:38 31.03.2022
2947 Clouds 20 1008 41 10000 0.78 154 15:46 31.03.2022
2948 Clouds 20 1007 39 10000 0.81 120 15:20 31.03.2022
2949 Clouds 20 1007 39 10000 0.81 120 14:37 31.03.2022
2950 Clouds 20 1007 36 10000 1.2 166 12:30 31.03.2022
2951 Clouds 21 1007 32 10000 0.77 162 11:26 31.03.2022
2952 Clouds 22 1007 30 10000 0.58 141 09:47 31.03.2022
2953 Clouds 23 1007 26 10000 1.02 173 08:23 31.03.2022
2954 Clouds 25 1007 23 10000 2.32 164 05:42 31.03.2022
2955 Clouds 29 1008 15 10000 1.68 150 00:46 31.03.2022
2956 Clouds 28 1010 16 10000 1.26 139 23:23 30.03.2022
2957 Clear 28 1011 18 10000 1.37 128 21:41 30.03.2022
2958 Clear 26 1013 21 10000 0.89 127 20:55 30.03.2022
2959 Clouds 25 1014 23 10000 0.88 154 20:20 30.03.2022
2960 Clouds 25 1014 24 10000 1.19 160 19:36 30.03.2022
2961 Clouds 23 1014 29 10000 1.2 178 18:29 30.03.2022
2962 Clouds 23 1014 29 10000 1.2 178 17:48 30.03.2022
2963 Clouds 21 1014 32 10000 1.12 202 16:57 30.03.2022
2964 Clouds 21 1014 32 10000 1.12 202 16:38 30.03.2022
2965 Clouds 18 1014 38 10000 0.73 211 15:24 30.03.2022
2966 Clouds 19 1013 36 10000 0.97 238 13:44 30.03.2022
2967 Clouds 19 1013 36 10000 0.91 305 13:18 30.03.2022
2968 Clouds 20 1013 34 10000 1.63 320 11:36 30.03.2022
2969 Clouds 20 1013 33 10000 1.56 321 10:37 30.03.2022
2970 Clear 21 1013 32 10000 2.12 333 09:27 30.03.2022
2971 Clear 22 1012 32 10000 2.57 328 07:41 30.03.2022
2972 Clear 23 1011 29 10000 3.21 349 05:41 30.03.2022
2973 Clouds 24 1009 27 10000 0.78 20 04:19 30.03.2022
2974 Clear 26 1007 25 10000 1.2 31 00:42 30.03.2022
2975 Clouds 24 1008 30 10000 1.62 24 22:35 29.03.2022
2976 Clouds 23 1009 34 10000 2.19 12 21:46 29.03.2022
2977 Clouds 21 1009 38 10000 2.4 11 20:55 29.03.2022
2978 Clouds 20 1010 42 10000 1.91 4 20:24 29.03.2022
2979 Clouds 19 1010 47 10000 1.93 3 18:57 29.03.2022
2980 Clouds 19 1010 47 10000 1.93 3 18:36 29.03.2022
2981 Clouds 17 1009 53 10000 0.83 358 17:37 29.03.2022
2982 Clouds 16 1009 60 10000 0.51 236 16:58 29.03.2022
2983 Clouds 16 1009 60 10000 0.51 236 16:58 29.03.2022
2984 Clouds 14 1008 65 10000 0.72 232 15:58 29.03.2022
2985 Clouds 14 1007 67 10000 1.13 271 14:53 29.03.2022
2986 Clouds 14 1006 63 10000 0.91 169 14:24 29.03.2022
2987 Clouds 14 1005 63 10000 0.98 190 12:57 29.03.2022
2988 Clouds 15 1004 61 10000 1.42 182 11:45 29.03.2022
2989 Clouds 15 1005 59 10000 1.72 188 10:58 29.03.2022
2990 Clouds 16 1005 58 10000 1.15 152 09:50 29.03.2022
2991 Clouds 17 1004 52 10000 3.35 171 08:20 29.03.2022
2992 Clouds 18 1003 47 10000 4.38 183 05:38 29.03.2022
2993 Clouds 20 1004 46 10000 7.39 196 01:25 29.03.2022
2994 Clouds 22 1004 40 10000 6.76 208 23:25 28.03.2022
2995 Clouds 22 1004 40 10000 6.76 208 22:54 28.03.2022
2996 Clouds 22 1005 38 10000 6.58 206 22:28 28.03.2022
2997 Clouds 22 1005 36 10000 7.03 189 20:59 28.03.2022
2998 Clouds 20 1006 48 10000 5.9 197 20:31 28.03.2022
2999 Clouds 22 1006 36 10000 7.87 187 19:46 28.03.2022
3000 Clouds 21 1006 33 10000 7.62 179 19:28 28.03.2022
3001 Clouds 21 1006 33 10000 7.62 179 18:40 28.03.2022
3002 Clear 21 1005 31 10000 7.22 168 17:39 28.03.2022
3003 Clear 19 1005 32 10000 4.57 175 16:38 28.03.2022
3004 Clear 18 1005 32 10000 4.05 195 14:50 28.03.2022
3005 Clouds 19 1005 30 10000 4.18 192 14:22 28.03.2022
3006 Clouds 20 1005 25 10000 4.3 191 12:41 28.03.2022
3007 Clouds 21 1005 24 10000 4.54 185 11:38 28.03.2022
3008 Clear 22 1005 22 10000 4.12 189 09:43 28.03.2022
3009 Clear 23 1005 20 10000 4.18 190 09:20 28.03.2022
3010 Clouds 23 1005 19 10000 4.21 196 08:23 28.03.2022
3011 Clouds 23 1005 20 10000 4.21 195 07:56 28.03.2022
3012 Clouds 27 1003 14 10000 4.86 206 04:27 28.03.2022
3013 Clouds 32 1004 8 10000 6.49 195 23:43 27.03.2022
3014 Clouds 31 1005 7 10000 6.69 196 22:25 27.03.2022
3015 Clouds 31 1005 7 10000 6.69 196 22:25 27.03.2022
3016 Clouds 31 1005 7 10000 6.69 196 22:25 27.03.2022
3017 Clouds 31 1005 7 10000 6.69 196 21:42 27.03.2022
3018 Clouds 31 1006 7 10000 6.97 184 20:58 27.03.2022
3019 Clouds 30 1006 7 10000 6.01 179 19:53 27.03.2022
3020 Clouds 30 1006 7 10000 6.01 179 19:30 27.03.2022
3021 Clouds 28 1006 8 10000 4.88 182 18:29 27.03.2022
3022 Clouds 28 1006 8 10000 4.88 182 17:42 27.03.2022
3023 Clouds 25 1006 10 10000 3.95 176 17:23 27.03.2022
3024 Clouds 24 1005 11 10000 3.76 170 15:39 27.03.2022
3025 Clouds 24 1005 11 10000 3.99 175 13:57 27.03.2022
3026 Clouds 25 1005 11 10000 3.93 177 12:50 27.03.2022
3027 Clouds 26 1005 11 10000 3.78 177 11:30 27.03.2022
3028 Clouds 27 1005 11 10000 3.71 177 09:32 27.03.2022
3029 Clouds 29 1006 12 10000 2.88 184 06:44 27.03.2022
3030 Clouds 35 1004 7 10000 5.27 200 01:55 27.03.2022
3031 Clouds 36 1005 7 10000 5.36 195 00:25 27.03.2022
3032 Clouds 36 1006 7 10000 5.75 185 22:45 26.03.2022
3033 Clouds 36 1007 7 10000 5.98 178 21:50 26.03.2022
3034 Clouds 35 1008 8 10000 5.38 169 21:26 26.03.2022
3035 Clouds 34 1009 9 10000 4.53 167 19:31 26.03.2022
3036 Clouds 31 1010 12 10000 3.21 174 18:24 26.03.2022
3037 Clouds 31 1010 12 10000 3.21 174 17:33 26.03.2022
3038 Clouds 30 1010 13 10000 2.52 177 16:30 26.03.2022
3039 Clouds 28 1010 15 10000 1.6 167 15:35 26.03.2022
3040 Clouds 26 1010 16 10000 2.16 174 13:55 26.03.2022
3041 Clouds 27 1010 16 10000 2.05 173 13:19 26.03.2022
3042 Clouds 28 1010 16 10000 2.15 176 11:42 26.03.2022
3043 Clouds 28 1010 16 10000 2.37 178 10:32 26.03.2022
3044 Clouds 29 1010 16 10000 2.43 175 08:44 26.03.2022
3045 Clouds 30 1011 18 10000 2.72 179 06:37 26.03.2022
3046 Clouds 31 1011 17 10000 2.91 185 05:29 26.03.2022
3047 Clouds 35 1010 12 10000 4.63 178 00:41 26.03.2022
3048 Clouds 35 1012 13 10000 3.36 167 21:56 25.03.2022
3049 Clouds 34 1013 14 10000 2.66 165 20:47 25.03.2022
3050 Clouds 33 1014 14 10000 1.9 162 20:24 25.03.2022
3051 Clear 32 1015 15 10000 1.35 159 18:59 25.03.2022
3052 Clear 30 1015 15 10000 1.16 157 17:53 25.03.2022
3053 Clear 29 1015 16 10000 1.16 164 17:27 25.03.2022
3054 Clouds 27 1015 18 10000 1.02 158 16:21 25.03.2022
3055 Clear 23 1015 22 10000 0.97 153 14:54 25.03.2022
3056 Clear 24 1014 21 10000 0.56 141 13:28 25.03.2022
3057 Clear 26 1014 19 10000 0.9 167 10:49 25.03.2022
3058 Clear 27 1014 18 10000 1.22 168 09:28 25.03.2022
3059 Clear 27 1014 18 10000 1.22 168 08:36 25.03.2022
3060 Clear 27 1014 17 10000 1.44 174 07:32 25.03.2022
3061 Clear 28 1014 17 10000 1.36 165 06:29 25.03.2022
3062 Clear 33 1012 13 10000 1.8 152 01:57 25.03.2022
3063 Clear 32 1014 12 10000 0.93 143 22:56 24.03.2022
3064 Clear 32 1015 12 10000 0.69 116 21:56 24.03.2022
3065 Clear 31 1016 13 10000 0.56 90 20:45 24.03.2022
3066 Clear 30 1017 13 10000 0.38 73 19:49 24.03.2022
3067 Clear 30 1017 13 10000 0.38 73 19:49 24.03.2022
3068 Clouds 28 1018 14 10000 0.33 110 18:22 24.03.2022
3069 Clouds 28 1018 14 10000 0.33 110 17:32 24.03.2022
3070 Clouds 24 1018 20 10000 0.18 37 15:56 24.03.2022
3071 Clouds 21 1017 25 10000 0.16 75 14:51 24.03.2022
3072 Clouds 21 1017 25 10000 0.38 146 14:21 24.03.2022
3073 Clear 21 1017 26 10000 0.24 22 13:26 24.03.2022
3074 Clear 22 1017 26 10000 0.13 139 12:23 24.03.2022
3075 Clear 22 1017 25 10000 0.33 165 10:32 24.03.2022
3076 Clear 23 1017 24 10000 0.97 166 09:23 24.03.2022
3077 Clear 24 1017 23 10000 1.16 165 07:42 24.03.2022
3078 Clear 25 1018 22 10000 1.92 176 04:43 24.03.2022
3079 Clear 29 1017 18 10000 1.33 141 23:38 23.03.2022
3080 Clear 29 1019 20 10000 1.23 123 22:18 23.03.2022
3081 Clear 28 1021 21 10000 1.21 126 21:20 23.03.2022
3082 Clear 27 1022 22 10000 1.23 127 19:50 23.03.2022
3083 Clear 27 1022 22 10000 1.41 150 19:25 23.03.2022
3084 Clear 26 1022 24 10000 1.29 148 17:47 23.03.2022
3085 Clear 24 1022 26 10000 1.38 131 16:55 23.03.2022
3086 Clear 20 1022 36 10000 0.98 56 15:21 23.03.2022
3087 Clear 20 1022 36 10000 0.98 56 14:42 23.03.2022
3088 Clear 21 1021 35 10000 1.13 31 13:30 23.03.2022
3089 Clear 22 1021 31 10000 2.11 13 10:37 23.03.2022
3090 Clear 24 1020 26 10000 2.09 5 08:21 23.03.2022
3091 Clear 25 1019 25 10000 1.58 28 05:50 23.03.2022
3092 Clear 30 1017 18 10000 3.43 338 01:59 23.03.2022
3093 Clouds 30 1017 18 10000 4.04 347 00:25 23.03.2022
3094 Clouds 30 1017 18 10000 4.04 347 00:25 23.03.2022
3095 Clouds 29 1019 20 10000 4.07 353 21:36 22.03.2022
3096 Clouds 28 1020 22 10000 4.19 348 20:57 22.03.2022
3097 Clouds 26 1021 24 10000 4.39 355 20:18 22.03.2022
3098 Clear 25 1022 25 10000 4.17 10 19:26 22.03.2022
3099 Clear 25 1022 25 10000 4.17 10 18:46 22.03.2022
3100 Clear 24 1022 27 10000 3.97 18 17:43 22.03.2022
3101 Clear 23 1021 29 10000 2.98 15 16:39 22.03.2022
3102 Clear 21 1021 32 10000 2.11 8 15:41 22.03.2022
3103 Clear 19 1021 36 10000 2.11 3 15:19 22.03.2022
3104 Clear 19 1021 36 10000 2.11 3 14:42 22.03.2022
3105 Clear 19 1020 35 10000 2.06 1 13:42 22.03.2022
3106 Clear 20 1019 33 10000 2.21 5 12:18 22.03.2022
3107 Clear 20 1019 31 10000 2.42 7 11:20 22.03.2022
3108 Clear 21 1018 28 10000 2.4 2 09:28 22.03.2022
3109 Clear 22 1018 26 10000 2.42 1 07:30 22.03.2022
3110 Clouds 24 1016 21 10000 3.66 340 03:58 22.03.2022
3111 Clouds 27 1015 15 10000 4.96 356 01:27 22.03.2022
3112 Clouds 27 1016 14 10000 4.73 350 22:57 21.03.2022
3113 Clouds 25 1017 15 10000 4.31 345 21:37 21.03.2022
3114 Clouds 24 1018 16 10000 4.26 354 20:44 21.03.2022
3115 Clouds 23 1019 16 10000 4.67 0 20:23 21.03.2022
3116 Clouds 23 1019 16 10000 4.67 0 19:47 21.03.2022
3117 Clouds 22 1019 16 10000 5.37 1 18:59 21.03.2022
3118 Clouds 21 1020 17 10000 4.92 2 17:36 21.03.2022
3119 Clouds 19 1020 18 10000 3.97 5 16:59 21.03.2022
3120 Clouds 19 1020 18 10000 3.97 5 16:33 21.03.2022
3121 Clouds 17 1020 20 10000 2.64 4 15:44 21.03.2022
3122 Clouds 15 1020 22 10000 2.4 359 14:45 21.03.2022
3123 Clouds 16 1018 20 10000 2.66 357 13:20 21.03.2022
3124 Clouds 17 1017 18 10000 2.81 357 11:59 21.03.2022
3125 Clouds 17 1017 18 10000 2.81 357 11:34 21.03.2022
3126 Clouds 17 1017 17 10000 3.19 353 09:53 21.03.2022
3127 Clouds 19 1016 15 10000 3.69 353 07:53 21.03.2022
3128 Clouds 19 1016 14 10000 4.26 351 06:30 21.03.2022
3129 Clouds 23 1013 9 10000 9.16 357 02:24 21.03.2022
3130 Clear 24 1012 8 10000 11.45 352 23:26 20.03.2022
3131 Clear 24 1012 8 10000 11.45 352 22:36 20.03.2022
3132 Clear 24 1012 8 10000 10.49 350 21:44 20.03.2022
3133 Clear 23 1012 10 10000 9 350 20:59 20.03.2022
3134 Clear 23 1012 10 10000 9 350 20:39 20.03.2022
3135 Clear 22 1012 14 10000 9.6 349 19:56 20.03.2022
3136 Clear 21 1013 20 10000 9.3 348 19:25 20.03.2022
3137 Clear 20 1012 25 10000 7.87 348 17:50 20.03.2022
3138 Clear 19 1011 32 10000 5.46 349 17:28 20.03.2022
3139 Clear 19 1011 32 10000 5.46 349 16:46 20.03.2022
3140 Clear 15 1010 59 10000 1.73 323 14:54 20.03.2022
3141 Clear 15 1009 59 10000 1.17 306 13:46 20.03.2022
3142 Clouds 17 1008 56 10000 1.24 262 12:21 20.03.2022
3143 Clouds 16 1008 58 10000 2.25 249 10:39 20.03.2022
3144 Clouds 17 1007 50 10000 0.97 203 08:37 20.03.2022
3145 Clear 18 1005 48 10000 3.99 207 06:55 20.03.2022
3146 Clouds 21 1003 35 10000 7.46 188 03:59 20.03.2022
3147 Clouds 27 1003 18 10000 11.02 209 00:59 20.03.2022
3148 Clouds 27 1003 18 10000 11.02 209 00:36 20.03.2022
3149 Clouds 27 1005 13 10000 8.43 196 22:56 19.03.2022
3150 Clouds 27 1009 14 10000 6.83 195 21:27 19.03.2022
3151 Clouds 26 1010 16 10000 7.47 187 20:28 19.03.2022
3152 Clouds 25 1010 15 10000 7.24 177 18:44 19.03.2022
3153 Clouds 25 1011 14 10000 6.27 175 18:23 19.03.2022
3154 Clouds 25 1011 14 10000 6.27 175 17:35 19.03.2022
3155 Clouds 22 1012 16 10000 3.6 174 15:43 19.03.2022
3156 Clouds 21 1012 16 10000 3 173 14:30 19.03.2022
3157 Clouds 21 1012 17 10000 2.76 172 12:58 19.03.2022
3158 Clouds 21 1012 17 10000 2.76 172 12:38 19.03.2022
3159 Clouds 21 1012 17 10000 2.64 170 11:51 19.03.2022
3160 Clouds 22 1013 16 10000 2.49 170 10:44 19.03.2022
3161 Clouds 23 1015 13 10000 2.2 164 06:29 19.03.2022
3162 Clouds 24 1015 12 10000 0.84 150 03:21 19.03.2022
3163 Clear 27 1014 9 10000 1.19 145 01:41 19.03.2022
3164 Clear 27 1014 10 10000 0.76 129 23:36 18.03.2022
3165 Clear 27 1016 10 10000 0.65 57 22:26 18.03.2022
3166 Clear 26 1017 10 10000 1.14 23 21:19 18.03.2022
3167 Clear 25 1018 11 10000 1.7 13 19:51 18.03.2022
3168 Clear 24 1018 12 10000 2.3 10 19:21 18.03.2022
3169 Clear 23 1019 13 10000 2.32 5 17:43 18.03.2022
3170 Clear 22 1018 14 10000 1.48 4 16:47 18.03.2022
3171 Clear 16 1017 20 10000 1.22 343 14:51 18.03.2022
3172 Clear 17 1016 20 10000 1.11 342 14:21 18.03.2022
3173 Clear 17 1016 18 10000 0.97 351 12:26 18.03.2022
3174 Clear 18 1016 18 10000 1.05 350 10:52 18.03.2022
3175 Clear 19 1016 17 10000 0.88 345 09:29 18.03.2022
3176 Clear 19 1016 17 10000 0.88 345 08:30 18.03.2022
3177 Clouds 19 1016 16 10000 0.89 9 06:34 18.03.2022
3178 Clouds 22 1016 15 10000 0.49 62 02:51 18.03.2022
3179 Clouds 25 1015 11 10000 1.12 142 00:22 18.03.2022
3180 Clouds 25 1016 12 10000 0.76 115 23:24 17.03.2022
3181 Clouds 24 1017 13 10000 0.64 78 22:24 17.03.2022
3182 Clouds 24 1017 13 10000 0.64 78 21:48 17.03.2022
3183 Clouds 24 1018 14 10000 1.12 42 21:21 17.03.2022
3184 Clouds 24 1018 14 10000 1.12 42 20:44 17.03.2022
3185 Clouds 23 1020 16 10000 1.47 47 19:48 17.03.2022
3186 Clouds 22 1020 17 10000 2.02 33 18:59 17.03.2022
3187 Clouds 22 1020 18 10000 1.83 31 18:39 17.03.2022
3188 Clear 20 1020 21 10000 2.29 11 16:58 17.03.2022
3189 Clear 18 1020 23 10000 1.77 6 15:44 17.03.2022
3190 Clear 16 1020 26 10000 1.83 359 15:25 17.03.2022
3191 Clear 17 1019 25 10000 1.74 9 14:29 17.03.2022
3192 Clear 17 1018 25 10000 1.59 5 12:54 17.03.2022
3193 Clear 18 1018 23 10000 1.73 4 12:25 17.03.2022
3194 Clear 19 1018 22 10000 2.4 352 11:29 17.03.2022
3195 Clear 19 1018 22 10000 2.4 352 10:30 17.03.2022
3196 Clear 20 1019 20 10000 2.55 353 08:37 17.03.2022
3197 Clear 21 1018 18 10000 2.71 352 07:34 17.03.2022
3198 Clear 22 1017 17 10000 2.96 348 05:47 17.03.2022
3199 Clear 22 1017 17 10000 2.96 348 05:47 17.03.2022
3200 Clear 26 1013 13 10000 8.94 360 01:30 17.03.2022
3201 Clear 27 1012 13 10000 5.82 350 23:56 16.03.2022
3202 Clear 27 1013 16 10000 5.43 345 22:50 16.03.2022
3203 Clear 27 1013 16 10000 5.43 345 22:32 16.03.2022
3204 Clear 27 1013 17 10000 5.21 348 21:42 16.03.2022
3205 Clear 26 1015 22 10000 5.19 355 19:47 16.03.2022
3206 Clear 25 1015 26 10000 5.14 355 19:21 16.03.2022
3207 Clear 25 1015 24 10000 5.26 354 18:38 16.03.2022
3208 Clear 24 1015 28 10000 5.11 357 17:43 16.03.2022
3209 Clear 23 1015 34 10000 3.61 354 17:20 16.03.2022
3210 Clear 21 1015 41 10000 2.15 341 15:55 16.03.2022
3211 Clear 20 1014 42 10000 2.21 338 14:27 16.03.2022
3212 Clear 20 1014 42 10000 2.21 338 13:31 16.03.2022
3213 Clouds 20 1013 38 10000 2.16 337 11:57 16.03.2022
3214 Clouds 21 1013 35 10000 2.14 327 11:21 16.03.2022
3215 Clouds 22 1014 32 10000 2.59 341 10:23 16.03.2022
3216 Clouds 22 1014 28 10000 2.34 340 08:53 16.03.2022
3217 Clouds 24 1014 19 10000 2.87 344 06:27 16.03.2022
3218 Clouds 27 1013 15 10000 1.91 357 01:56 16.03.2022
3219 Clouds 28 1015 14 10000 0.81 76 22:41 15.03.2022
3220 Clouds 27 1016 15 10000 0.55 120 22:18 15.03.2022
3221 Clouds 27 1017 15 10000 1.03 156 20:33 15.03.2022
3222 Clouds 25 1019 17 10000 1.09 154 18:58 15.03.2022
3223 Clouds 23 1019 19 10000 1.16 163 17:24 15.03.2022
3224 Clouds 23 1019 19 10000 1.16 163 16:32 15.03.2022
3225 Clouds 18 1019 27 10000 0.62 163 15:21 15.03.2022
3226 Clouds 18 1019 27 10000 0.62 163 14:45 15.03.2022
3227 Clouds 18 1019 27 10000 0.55 98 13:46 15.03.2022
3228 Clouds 19 1019 25 10000 0.89 130 12:29 15.03.2022
3229 Clouds 19 1019 25 10000 0.89 130 11:31 15.03.2022
3230 Clear 20 1020 24 10000 1.29 149 09:46 15.03.2022
3231 Clear 20 1020 23 10000 1.17 160 08:42 15.03.2022
3232 Clear 21 1020 23 10000 0.89 159 07:52 15.03.2022
3233 Clear 21 1020 23 10000 0.89 159 07:34 15.03.2022
3234 Clear 22 1020 23 10000 0.63 213 04:20 15.03.2022
3235 Clear 26 1020 17 10000 0.61 121 23:57 14.03.2022
3236 Clear 26 1020 17 10000 0.73 88 23:24 14.03.2022
3237 Clear 26 1020 17 10000 0.73 88 22:30 14.03.2022
3238 Clear 25 1021 18 10000 0.86 67 21:35 14.03.2022
3239 Clear 24 1022 19 10000 1.07 43 20:54 14.03.2022
3240 Clear 23 1023 21 10000 1.31 40 20:20 14.03.2022
3241 Clouds 23 1023 22 10000 1.63 37 18:55 14.03.2022
3242 Clouds 22 1023 23 10000 2.26 30 17:55 14.03.2022
3243 Clouds 20 1023 24 10000 1.52 16 17:24 14.03.2022
3244 Clouds 19 1023 27 10000 1.33 4 16:18 14.03.2022
3245 Clouds 17 1022 29 10000 1.42 353 14:41 14.03.2022
3246 Clouds 17 1020 28 10000 2.08 356 12:51 14.03.2022
3247 Clouds 18 1020 25 10000 1.6 2 10:54 14.03.2022
3248 Clouds 19 1020 23 10000 1.64 9 09:55 14.03.2022
3249 Clear 19 1019 21 10000 1.77 17 09:22 14.03.2022
3250 Clear 19 1019 21 10000 1.77 17 08:56 14.03.2022
3251 Clear 20 1018 18 10000 2.29 18 07:43 14.03.2022
3252 Clouds 21 1016 18 10000 1.41 6 05:46 14.03.2022
3253 Clouds 25 1012 13 10000 0.27 310 01:58 14.03.2022
3254 Clouds 25 1012 13 10000 0.82 26 01:29 14.03.2022
3255 Clouds 26 1011 13 10000 1.09 89 22:52 13.03.2022
3256 Clouds 25 1012 14 10000 1.07 134 21:31 13.03.2022
3257 Clouds 24 1013 15 10000 1.23 146 20:56 13.03.2022
3258 Clouds 24 1013 15 10000 1.23 146 20:37 13.03.2022
3259 Clouds 23 1014 16 10000 1.2 130 20:19 13.03.2022
3260 Clouds 23 1014 16 10000 1.2 130 19:39 13.03.2022
3261 Clouds 22 1014 17 10000 1.23 166 19:18 13.03.2022
3262 Clouds 22 1014 17 10000 1.23 166 18:38 13.03.2022
3263 Clouds 21 1014 16 10000 1.02 181 17:47 13.03.2022
3264 Clouds 20 1015 17 10000 0.33 248 17:21 13.03.2022
3265 Clouds 20 1015 17 10000 0.33 248 16:33 13.03.2022
3266 Clouds 18 1014 19 10000 0.4 182 15:49 13.03.2022
3267 Clouds 16 1013 20 10000 0.57 143 14:58 13.03.2022
3268 Clouds 17 1013 19 10000 0.87 161 13:49 13.03.2022
3269 Clouds 17 1013 18 10000 0.61 154 12:57 13.03.2022
3270 Clouds 17 1014 16 10000 0.49 158 12:19 13.03.2022
3271 Clouds 17 1014 16 10000 0.49 158 11:36 13.03.2022
3272 Clear 18 1014 16 10000 1.38 152 10:48 13.03.2022
3273 Clear 18 1014 16 10000 1.38 152 10:48 13.03.2022
3274 Clear 18 1014 15 10000 1.39 160 10:24 13.03.2022
3275 Clear 18 1014 15 10000 1.39 160 09:41 13.03.2022
3276 Clear 18 1014 15 10000 1.39 160 09:41 13.03.2022
3277 Clear 19 1015 15 10000 1.3 143 08:47 13.03.2022
3278 Clear 19 1016 14 10000 0.97 147 07:47 13.03.2022
3279 Clear 20 1016 13 10000 1.93 164 05:42 13.03.2022
3280 Clear 22 1017 12 10000 1.57 138 02:50 13.03.2022
3281 Clear 25 1017 9 10000 1.85 153 00:20 13.03.2022
3282 Clear 24 1018 9 10000 1.35 151 22:37 12.03.2022
3283 Clear 23 1022 9 10000 0.76 120 20:54 12.03.2022
3284 Clear 22 1023 9 10000 0.43 96 19:56 12.03.2022
3285 Clear 22 1023 9 10000 0.43 96 19:38 12.03.2022
3286 Clear 20 1025 10 10000 0.4 82 18:27 12.03.2022
3287 Clear 20 1025 10 10000 0.4 82 17:34 12.03.2022
3288 Clear 15 1025 14 10000 0.22 68 16:24 12.03.2022
3289 Clear 13 1024 15 10000 0.28 331 15:24 12.03.2022
3290 Clear 13 1024 15 10000 0.28 331 15:24 12.03.2022
3291 Clear 13 1024 15 10000 0.28 331 14:51 12.03.2022
3292 Clear 13 1024 15 10000 0.47 354 13:47 12.03.2022
3293 Clear 14 1025 15 10000 0.1 165 12:18 12.03.2022
3294 Clear 14 1025 15 10000 0.1 165 11:45 12.03.2022
3295 Clear 14 1025 15 10000 0.21 4 10:58 12.03.2022
3296 Clear 15 1026 14 10000 0.36 39 09:46 12.03.2022
3297 Clear 15 1026 14 10000 0.41 56 09:20 12.03.2022
3298 Clear 16 1026 13 10000 0.61 172 07:29 12.03.2022
3299 Clear 17 1026 13 10000 0.74 333 03:54 12.03.2022
3300 Clear 21 1025 8 10000 1.5 15 23:56 11.03.2022
3301 Clear 21 1025 8 10000 1.5 15 23:56 11.03.2022
3302 Clear 20 1025 9 10000 1.88 10 23:19 11.03.2022
3303 Clear 20 1025 9 10000 1.88 10 23:19 11.03.2022
3304 Clear 20 1026 9 10000 2.4 8 21:43 11.03.2022
3305 Clear 19 1028 9 10000 2.77 9 20:57 11.03.2022
3306 Clear 19 1028 9 10000 2.77 9 20:35 11.03.2022
3307 Clear 18 1029 10 10000 2.89 6 19:52 11.03.2022
3308 Clear 16 1029 12 10000 2.98 7 19:22 11.03.2022
3309 Clear 15 1029 13 10000 2.83 6 17:34 11.03.2022
3310 Clear 14 1029 14 10000 2.46 8 16:38 11.03.2022
3311 Clear 12 1029 17 10000 2.1 359 15:57 11.03.2022
3312 Clear 11 1027 18 10000 2.4 1 14:21 11.03.2022
3313 Clear 11 1026 17 10000 2.44 356 12:52 11.03.2022
3314 Clear 11 1026 17 10000 2.37 1 12:21 11.03.2022
3315 Clear 11 1026 17 10000 2.37 1 11:55 11.03.2022
3316 Clear 12 1026 16 10000 2.48 2 10:18 11.03.2022
3317 Clear 12 1025 16 10000 2.36 355 08:57 11.03.2022
3318 Clear 12 1025 16 10000 2.7 352 08:24 11.03.2022
3319 Clear 12 1025 16 10000 2.7 352 07:45 11.03.2022
3320 Clear 14 1023 16 10000 4.13 350 05:49 11.03.2022
3321 Clear 15 1021 13 10000 6.54 343 03:49 11.03.2022
3322 Clear 18 1017 11 10000 10.44 349 23:46 10.03.2022
3323 Clear 18 1018 11 10000 10.69 351 22:31 10.03.2022
3324 Clear 17 1018 12 10000 10.78 355 21:47 10.03.2022
3325 Clear 17 1019 12 10000 10.92 356 21:19 10.03.2022
3326 Clear 16 1019 14 10000 11.27 0 19:45 10.03.2022
3327 Clouds 16 1018 16 10000 10.53 0 18:55 10.03.2022
3328 Clouds 15 1017 20 10000 9.83 358 17:36 10.03.2022
3329 Clouds 14 1015 39 10000 6.42 346 15:55 10.03.2022
3330 Clouds 14 1013 48 10000 6 6 15:20 10.03.2022
3331 Clouds 16 1009 44 10000 4.14 19 13:24 10.03.2022
3332 Clouds 16 1008 43 10000 3.53 22 11:58 10.03.2022
3333 Clouds 16 1007 40 10000 3.12 26 10:54 10.03.2022
3334 Clouds 18 1007 30 10000 1.65 18 09:22 10.03.2022
3335 Clouds 18 1007 26 10000 1.74 13 07:41 10.03.2022
3336 Clear 18 1006 23 10000 0.74 338 04:44 10.03.2022
3337 Clear 22 1006 18 10000 0.55 85 01:49 10.03.2022
3338 Clear 23 1008 16 10000 1.06 117 23:28 09.03.2022
3339 Clear 23 1009 15 10000 1.04 131 21:51 09.03.2022
3340 Clear 23 1009 15 10000 1.04 131 21:32 09.03.2022
3341 Clear 21 1012 16 10000 0.93 131 19:50 09.03.2022
3342 Clear 20 1013 18 10000 0.86 128 18:34 09.03.2022
3343 Clear 19 1013 19 10000 0.48 170 17:27 09.03.2022
3344 Clear 15 1013 19 10000 0.48 170 16:31 09.03.2022
3345 Clear 13 1013 26 10000 1.03 195 15:28 09.03.2022
3346 Clear 14 1013 25 10000 0.9 187 13:54 09.03.2022
3347 Clear 14 1013 25 10000 0.79 184 12:47 09.03.2022
3348 Clear 14 1013 24 10000 0.75 183 11:54 09.03.2022
3349 Clear 14 1013 24 10000 0.75 183 11:35 09.03.2022
3350 Clear 15 1014 24 10000 0.8 185 10:34 09.03.2022
3351 Clear 16 1014 23 10000 0.68 169 08:57 09.03.2022
3352 Clear 16 1015 22 10000 0.42 142 07:54 09.03.2022
3353 Clear 21 1015 18 10000 2.13 168 02:59 09.03.2022
3354 Clear 20 1015 15 10000 0.84 130 00:46 09.03.2022
3355 Clear 20 1017 16 10000 0.75 80 22:48 08.03.2022
3356 Clear 20 1018 16 10000 0.57 102 22:27 08.03.2022
3357 Clear 19 1020 17 10000 0.38 82 21:23 08.03.2022
3358 Clear 19 1020 17 10000 0.38 82 20:44 08.03.2022
3359 Clear 18 1021 18 10000 0.49 41 19:42 08.03.2022
3360 Clear 18 1021 18 10000 0.49 41 19:42 08.03.2022
3361 Clear 17 1022 19 10000 1.74 17 18:44 08.03.2022
3362 Clear 17 1022 20 10000 1.28 24 18:44 08.03.2022
3363 Clear 19 1023 20 10000 1.94 17 17:37 08.03.2022
3364 Clear 14 1023 25 10000 1.56 3 16:26 08.03.2022
3365 Clear 14 1023 27 10000 1.84 7 14:19 08.03.2022
3366 Clear 14 1023 26 10000 1.79 3 12:43 08.03.2022
3367 Clear 14 1024 25 10000 1.66 7 11:45 08.03.2022
3368 Clear 12 1024 24 10000 1.52 12 10:50 08.03.2022
3369 Clear 13 1024 24 10000 1.43 12 09:57 08.03.2022
3370 Clear 14 1024 23 10000 1.73 350 07:33 08.03.2022
3371 Clear 15 1024 21 10000 1.97 2 05:43 08.03.2022
3372 Clear 19 1022 12 10000 8.32 0 23:52 07.03.2022
3373 Clear 18 1024 13 10000 8.42 356 21:59 07.03.2022
3374 Clear 18 1024 13 10000 8.42 356 21:32 07.03.2022
3375 Clear 18 1025 15 10000 8.64 355 20:49 07.03.2022
3376 Clear 17 1026 18 10000 8.7 354 20:20 07.03.2022
3377 Clear 18 1026 18 10000 8.7 354 19:33 07.03.2022
3378 Clear 16 1027 23 10000 7.49 355 18:44 07.03.2022
3379 Clear 15 1027 25 10000 6.57 355 17:52 07.03.2022
3380 Clear 13 1027 26 10000 4.61 353 16:56 07.03.2022
3381 Clear 10 1026 30 10000 2.77 351 15:59 07.03.2022
3382 Clear 11 1025 33 10000 2.82 354 13:52 07.03.2022
3383 Clear 11 1025 33 10000 2.82 354 13:52 07.03.2022
3384 Clear 10 1024 32 10000 3.03 357 12:28 07.03.2022
3385 Clear 10 1024 31 10000 2.64 360 10:39 07.03.2022
3386 Clear 11 1023 29 10000 2.16 14 09:24 07.03.2022
3387 Clear 15 1020 27 10000 1.09 19 04:51 07.03.2022
3388 Clear 18 1018 23 10000 1.07 55 00:23 07.03.2022
3389 Clear 18 1018 23 10000 1.07 55 23:35 06.03.2022
3390 Clear 18 1018 23 10000 1.07 55 23:35 06.03.2022
3391 Clear 18 1019 24 10000 1.27 54 22:57 06.03.2022
3392 Clear 18 1019 25 10000 1.07 56 22:19 06.03.2022
3393 Clear 17 1020 27 10000 0.91 56 20:50 06.03.2022
3394 Clear 16 1021 30 10000 0.69 62 20:23 06.03.2022
3395 Clear 15 1021 32 10000 0.43 71 19:23 06.03.2022
3396 Clear 14 1021 35 10000 0.27 151 18:25 06.03.2022
3397 Clear 14 1021 37 10000 0.81 168 17:21 06.03.2022
3398 Clear 11 1021 37 10000 0.81 168 16:43 06.03.2022
3399 Clear 10 1020 42 10000 1.06 179 16:18 06.03.2022
3400 Clear 10 1019 46 10000 1.21 179 14:57 06.03.2022
3401 Clear 9 1019 46 10000 1.21 179 14:33 06.03.2022
3402 Clear 9 1019 47 10000 0.74 190 13:36 06.03.2022
3403 Clouds 9 1017 43 10000 0.88 195 12:35 06.03.2022
3404 Clouds 9 1016 44 10000 0.81 198 11:21 06.03.2022
3405 Clouds 10 1016 43 10000 0.47 34 10:28 06.03.2022
3406 Clouds 10 1015 40 10000 0.8 333 08:40 06.03.2022
3407 Clouds 10 1015 38 10000 1.85 341 08:20 06.03.2022
3408 Clouds 11 1013 28 10000 0.87 1 06:22 06.03.2022
3409 Clouds 18 1009 23 10000 1.15 160 00:55 06.03.2022
3410 Clouds 17 1009 22 10000 0.72 101 00:33 06.03.2022
3411 Clouds 17 1009 22 10000 0.72 101 00:33 06.03.2022
3412 Clouds 18 1010 25 10000 0.96 262 23:26 05.03.2022
3413 Clouds 15 1010 25 10000 0.96 262 22:57 05.03.2022
3414 Clouds 15 1010 23 10000 0.68 191 22:25 05.03.2022
3415 Clouds 16 1010 22 10000 1.1 118 21:24 05.03.2022
3416 Clouds 16 1011 23 10000 0.73 83 19:53 05.03.2022
3417 Clouds 16 1012 25 10000 0.15 193 18:56 05.03.2022
3418 Clouds 14 1012 32 10000 0.57 259 18:27 05.03.2022
3419 Clouds 12 1011 34 10000 1.43 305 16:52 05.03.2022
3420 Clear 11 1009 27 10000 3.84 233 15:40 05.03.2022
3421 Clear 11 1006 34 10000 7.13 199 14:52 05.03.2022
3422 Clear 11 1006 34 10000 7.13 199 14:34 05.03.2022
3423 Clear 11 1006 47 10000 8.22 198 13:34 05.03.2022
3424 Clear 14 1005 64 10000 5.66 194 11:49 05.03.2022
3425 Clear 14 1006 64 10000 4.83 196 11:20 05.03.2022
3426 Clear 14 1007 62 10000 4.41 189 10:20 05.03.2022
3427 Clear 14 1007 60 10000 3.91 183 09:28 05.03.2022
3428 Clear 14 1007 56 10000 4.11 181 07:58 05.03.2022
3429 Clouds 14 1007 51 10000 4.26 173 05:43 05.03.2022
3430 Clouds 16 1006 44 10000 4.56 170 04:33 05.03.2022
3431 Clouds 20 1005 31 10000 4.5 169 23:39 04.03.2022
3432 Clouds 23 1005 33 10000 3.71 173 22:44 04.03.2022
3433 Clouds 21 1006 34 10000 3.54 164 22:23 04.03.2022
3434 Clouds 23 1007 36 10000 3.36 163 21:24 04.03.2022
3435 Clouds 20 1007 37 10000 2.85 163 20:28 04.03.2022
3436 Clouds 22 1007 37 10000 2.85 163 19:36 04.03.2022
3437 Clouds 20 1007 38 10000 2.86 162 18:47 04.03.2022
3438 Clouds 19 1007 47 10000 4.08 162 18:22 04.03.2022
3439 Clouds 17 1007 51 10000 3.8 167 17:28 04.03.2022
3440 Clouds 13 1007 57 10000 2.98 173 15:31 04.03.2022
3441 Clouds 14 1006 60 10000 3.01 174 14:40 04.03.2022
3442 Clouds 15 1005 44 10000 3.63 184 13:27 04.03.2022
3443 Clouds 16 1004 38 10000 3.64 184 11:57 04.03.2022
3444 Clouds 18 1004 35 10000 3.79 186 10:58 04.03.2022
3445 Clouds 18 1005 30 10000 3.93 188 10:21 04.03.2022
3446 Clouds 19 1005 19 10000 4.43 197 09:27 04.03.2022
3447 Clouds 19 1005 17 10000 2.87 185 07:47 04.03.2022
3448 Clouds 20 1005 16 10000 3.41 210 05:44 04.03.2022
3449 Clouds 29 1005 8 10000 4.69 195 00:43 04.03.2022
3450 Clouds 29 1006 9 10000 5.71 181 23:28 03.03.2022
3451 Clouds 28 1007 8 10000 5.22 171 21:58 03.03.2022
3452 Clouds 29 1007 8 10000 5.22 171 21:35 03.03.2022
3453 Clouds 28 1008 9 10000 4.12 171 20:32 03.03.2022
3454 Clouds 28 1010 10 10000 2.46 175 19:22 03.03.2022
3455 Clouds 26 1010 9 10000 2.18 180 18:25 03.03.2022
3456 Clouds 25 1010 9 10000 2.18 180 17:31 03.03.2022
3457 Clouds 24 1011 11 10000 1.87 165 16:38 03.03.2022
3458 Clouds 21 1010 12 10000 1.81 158 15:44 03.03.2022
3459 Clouds 20 1010 13 10000 1.68 157 14:44 03.03.2022
3460 Clouds 20 1010 12 10000 1.39 163 14:25 03.03.2022
3461 Clouds 21 1010 12 10000 1.28 154 12:33 03.03.2022
3462 Clouds 22 1011 11 10000 1.08 177 11:23 03.03.2022
3463 Clouds 22 1011 11 10000 1.08 177 10:38 03.03.2022
3464 Clouds 23 1012 10 10000 1.37 161 08:42 03.03.2022
3465 Clouds 24 1013 10 10000 1.66 162 06:57 03.03.2022
3466 Clouds 24 1013 10 10000 1.44 162 05:37 03.03.2022
3467 Clouds 30 1013 7 10000 1.95 159 00:30 03.03.2022
3468 Clouds 30 1014 7 10000 1.58 155 23:18 02.03.2022
3469 Clouds 30 1014 7 10000 1.58 155 22:42 02.03.2022
3470 Clouds 29 1016 8 10000 0.67 127 21:22 02.03.2022
3471 Clouds 29 1016 8 10000 0.67 127 20:30 02.03.2022
3472 Clouds 28 1017 8 10000 0.39 98 19:43 02.03.2022
3473 Clouds 27 1018 9 10000 0.33 58 19:24 02.03.2022
3474 Clouds 27 1018 9 10000 0.33 58 18:39 02.03.2022
3475 Clouds 28 1018 10 10000 0.38 126 17:45 02.03.2022
3476 Clouds 23 1018 13 10000 0.2 170 16:54 02.03.2022
3477 Clouds 19 1017 15 10000 0.11 353 16:25 02.03.2022
3478 Clouds 15 1017 16 10000 0.22 63 14:39 02.03.2022
3479 Clouds 19 1017 15 10000 0.39 117 13:23 02.03.2022
3480 Clouds 19 1017 15 10000 0.39 117 12:40 02.03.2022
3481 Clouds 20 1017 15 10000 1.08 145 11:38 02.03.2022
3482 Clouds 20 1017 14 10000 1.01 162 11:18 02.03.2022
3483 Clouds 21 1018 14 10000 0.79 171 09:40 02.03.2022
3484 Clouds 21 1018 14 10000 0.76 155 08:51 02.03.2022
3485 Clear 22 1018 13 10000 0.93 186 07:25 02.03.2022
3486 Clear 22 1018 14 10000 0.58 170 05:44 02.03.2022
3487 Clear 29 1016 9 10000 0.34 103 00:57 02.03.2022
3488 Clear 29 1016 9 10000 0.57 77 23:46 01.03.2022
3489 Clear 29 1017 9 10000 0.95 35 22:45 01.03.2022
3490 Clear 29 1018 9 10000 1.2 24 21:56 01.03.2022
3491 Clear 28 1019 10 10000 1.69 14 21:21 01.03.2022
3492 Clear 27 1020 10 10000 2.15 9 20:24 01.03.2022
3493 Clear 26 1021 11 10000 2.81 5 19:23 01.03.2022
3494 Clear 26 1021 11 10000 2.71 4 18:37 01.03.2022
3495 Clear 25 1021 12 10000 2.79 3 18:18 01.03.2022
3496 Clear 24 1021 14 10000 1.79 358 16:54 01.03.2022
3497 Clear 23 1021 14 10000 1.79 358 16:30 01.03.2022
3498 Clear 20 1021 18 10000 2.13 346 15:32 01.03.2022
3499 Clear 19 1020 20 10000 2.55 346 14:34 01.03.2022
3500 Clear 19 1020 20 10000 2.48 343 13:45 01.03.2022
3501 Clear 19 1020 18 10000 2.34 343 13:22 01.03.2022
3502 Clear 16 1020 18 10000 2.3 346 12:27 01.03.2022
3503 Clear 21 1020 18 10000 2.14 344 10:33 01.03.2022
3504 Clear 19 1020 16 10000 2.07 347 08:41 01.03.2022
3505 Clear 20 1020 15 10000 2.05 346 07:44 01.03.2022
3506 Clear 20 1021 14 10000 2.43 341 05:49 01.03.2022
3507 Clear 26 1019 11 10000 3.67 355 01:48 01.03.2022
3508 Clear 27 1020 9 10000 3.94 359 00:25 01.03.2022
3509 Clear 27 1020 10 10000 3.98 5 23:29 28.02.2022
3510 Clear 26 1021 10 10000 4.7 8 21:59 28.02.2022
3511 Clear 26 1023 11 10000 5.2 4 21:25 28.02.2022
3512 Clear 24 1024 12 10000 5.65 4 19:55 28.02.2022
3513 Clear 24 1024 12 10000 5.65 4 19:33 28.02.2022
3514 Clear 23 1024 13 10000 4.94 2 18:40 28.02.2022
3515 Clear 23 1025 15 10000 4.55 1 17:30 28.02.2022
3516 Clear 20 1025 16 10000 2.8 0 16:33 28.02.2022
3517 Clear 17 1024 18 10000 2.7 352 15:23 28.02.2022
3518 Clear 16 1024 18 10000 2.7 352 14:31 28.02.2022
3519 Clear 18 1024 17 10000 3.03 352 13:47 28.02.2022
3520 Clouds 19 1024 17 10000 2.61 349 12:47 28.02.2022
3521 Clouds 17 1024 16 10000 2.78 347 11:57 28.02.2022
3522 Clouds 17 1025 15 10000 3.1 349 10:49 28.02.2022
3523 Clouds 19 1025 15 10000 2.66 345 10:21 28.02.2022
3524 Clouds 19 1025 15 10000 2.66 345 09:33 28.02.2022
3525 Clouds 19 1025 14 10000 2.61 347 08:32 28.02.2022
3526 Clouds 19 1025 13 10000 2.39 349 07:35 28.02.2022
3527 Clouds 20 1025 12 10000 2.12 341 05:21 28.02.2022
3528 Clouds 20 1026 12 10000 1.94 352 04:27 28.02.2022
3529 Clouds 21 1025 9 10000 2.56 12 23:44 27.02.2022
3530 Clouds 21 1026 9 10000 2.75 2 22:35 27.02.2022
3531 Clouds 20 1026 9 10000 2.44 8 21:52 27.02.2022
3532 Clouds 20 1027 10 10000 2.58 3 21:27 27.02.2022
3533 Clouds 20 1027 10 10000 2.58 3 20:37 27.02.2022
3534 Clouds 18 1028 11 10000 2.26 9 19:58 27.02.2022
3535 Clouds 18 1029 12 10000 2.36 355 19:27 27.02.2022
3536 Clouds 18 1029 12 10000 2.36 355 18:48 27.02.2022
3537 Clouds 17 1029 13 10000 2.44 21 17:57 27.02.2022
3538 Clouds 15 1030 14 10000 1.61 348 17:20 27.02.2022
3539 Clouds 14 1029 17 10000 1.59 4 16:22 27.02.2022
3540 Clouds 11 1028 18 10000 1.41 17 13:49 27.02.2022
3541 Clouds 9 1028 18 10000 0.97 338 12:35 27.02.2022
3542 Clouds 12 1028 18 10000 0.61 30 11:28 27.02.2022
3543 Clouds 12 1028 17 10000 1.1 54 10:24 27.02.2022
3544 Clouds 12 1028 17 10000 1.1 54 09:51 27.02.2022
3545 Clouds 13 1028 17 10000 0.52 4 09:21 27.02.2022
3546 Clouds 13 1028 17 10000 0.52 4 08:38 27.02.2022
3547 Clouds 12 1028 17 10000 0.6 326 05:41 27.02.2022
3548 Clouds 18 1027 16 10000 0.92 354 02:57 27.02.2022
3549 Clear 18 1026 11 10000 1.82 10 23:36 26.02.2022
3550 Clear 18 1026 12 10000 2.75 19 22:34 26.02.2022
3551 Clear 16 1029 15 10000 3.61 10 21:26 26.02.2022
3552 Clear 16 1029 15 10000 3.61 10 20:37 26.02.2022
3553 Clear 15 1030 17 10000 3.65 11 19:54 26.02.2022
3554 Clear 15 1030 17 10000 3.65 11 19:33 26.02.2022
3555 Clear 16 1030 18 10000 3.8 13 18:31 26.02.2022
3556 Clear 15 1030 20 10000 3.33 7 17:34 26.02.2022
3557 Clear 10 1030 22 10000 3.11 4 16:38 26.02.2022
3558 Clear 8 1030 25 10000 2.32 358 15:37 26.02.2022
3559 Clear 9 1029 25 10000 2.27 359 15:18 26.02.2022
3560 Clear 11 1029 25 10000 2.27 359 14:41 26.02.2022
3561 Clear 11 1028 24 10000 2.47 3 13:51 26.02.2022
3562 Clear 11 1027 22 10000 2.6 360 12:53 26.02.2022
3563 Clear 11 1027 22 10000 2.79 354 11:52 26.02.2022
3564 Clear 11 1026 22 10000 2.63 353 11:25 26.02.2022
3565 Clear 11 1026 21 10000 2.69 352 09:44 26.02.2022
3566 Clear 13 1025 19 10000 2.43 346 08:28 26.02.2022
3567 Clear 13 1025 19 10000 2.29 351 06:31 26.02.2022
3568 Clear 17 1022 16 10000 2.62 2 23:53 25.02.2022
3569 Clear 17 1022 16 10000 2.94 6 22:43 25.02.2022
3570 Clear 16 1022 17 10000 3.18 8 21:33 25.02.2022
3571 Clear 16 1024 18 10000 3.24 8 20:56 25.02.2022
3572 Clear 15 1025 19 10000 3.39 7 20:27 25.02.2022
3573 Clouds 14 1025 19 10000 2.65 8 17:57 25.02.2022
3574 Clouds 10 1025 19 10000 1.74 7 16:59 25.02.2022
3575 Clouds 9 1025 21 10000 1.6 355 16:19 25.02.2022
3576 Clouds 8 1024 20 10000 1.76 354 15:24 25.02.2022
3577 Clouds 8 1024 20 10000 1.76 354 15:24 25.02.2022
3578 Clouds 9 1024 20 10000 1.76 354 14:56 25.02.2022
3579 Clouds 9 1024 20 10000 1.76 354 14:37 25.02.2022
3580 Clouds 9 1024 20 10000 1.88 350 13:30 25.02.2022
3581 Clouds 9 1023 21 10000 1.99 346 12:33 25.02.2022
3582 Clouds 9 1024 21 10000 1.85 1 11:22 25.02.2022
3583 Clear 9 1024 22 10000 1.32 354 10:24 25.02.2022
3584 Clear 9 1024 22 10000 1.32 354 09:52 25.02.2022
3585 Clear 9 1023 22 10000 0.86 6 08:44 25.02.2022
3586 Clear 10 1023 21 10000 0.89 356 07:36 25.02.2022
3587 Clear 11 1023 20 10000 0.76 41 05:45 25.02.2022
3588 Clear 11 1022 16 10000 0.21 47 02:58 25.02.2022
3589 Clear 13 1023 14 10000 1.17 131 22:56 24.02.2022
3590 Clear 13 1023 15 10000 1.35 143 21:54 24.02.2022
3591 Clear 13 1023 15 10000 1.35 143 21:31 24.02.2022
3592 Clear 12 1025 16 10000 1.01 143 20:57 24.02.2022
3593 Clear 11 1026 18 10000 0.67 115 19:38 24.02.2022
3594 Clear 11 1026 21 10000 0.48 80 18:38 24.02.2022
3595 Clear 10 1026 23 10000 0.92 23 18:18 24.02.2022
3596 Clear 9 1026 23 10000 0.92 23 17:33 24.02.2022
3597 Clear 6 1027 26 10000 0.58 33 16:45 24.02.2022
3598 Clear 5 1026 31 10000 0.37 59 16:21 24.02.2022
3599 Clear 4 1025 33 10000 0.78 357 14:53 24.02.2022
3600 Clear 4 1025 32 10000 1.6 350 14:26 24.02.2022
3601 Clear 3 1025 32 10000 1.6 350 13:39 24.02.2022
3602 Clear 3 1025 32 10000 1.6 350 13:39 24.02.2022
3603 Clear 3 1025 31 10000 2.02 350 12:49 24.02.2022
3604 Clear 7 1024 30 10000 2.48 342 10:40 24.02.2022
3605 Clouds 4 1023 29 10000 3.52 343 08:59 24.02.2022
3606 Clouds 4 1023 29 10000 3.52 343 08:40 24.02.2022
3607 Clouds 6 1022 30 10000 3.91 318 05:52 24.02.2022
3608 Clouds 10 1015 20 10000 6.52 338 01:56 24.02.2022
3609 Clouds 12 1013 19 10000 3.08 319 22:56 23.02.2022
3610 Clouds 12 1013 22 10000 3.48 327 21:43 23.02.2022
3611 Clouds 12 1014 29 10000 2.86 334 20:31 23.02.2022
3612 Clouds 11 1014 37 10000 2.41 341 19:47 23.02.2022
3613 Clouds 9 1014 48 10000 2.56 348 18:32 23.02.2022
3614 Clouds 9 1014 48 10000 2.56 348 18:32 23.02.2022
3615 Clouds 9 1014 48 10000 2.56 348 18:32 23.02.2022
3616 Clouds 6 1014 59 10000 1.28 336 17:44 23.02.2022
3617 Clouds 5 1011 73 10000 1.44 211 15:19 23.02.2022
3618 Clouds 6 1011 80 10000 1.24 252 12:50 23.02.2022
3619 Clouds 5 1010 85 9772 1.54 261 12:24 23.02.2022
3620 Clouds 5 1010 85 9772 1.54 261 12:24 23.02.2022
3621 Clouds 6 1010 83 10000 1.07 253 10:44 23.02.2022
3622 Clouds 7 1010 81 8389 3.28 346 09:00 23.02.2022
3623 Clouds 7 1009 72 10000 4.51 352 08:23 23.02.2022
3624 Clouds 8 1008 61 10000 4.24 351 07:18 23.02.2022
3625 Clouds 14 1003 27 10000 8.79 219 01:21 23.02.2022
3626 Clouds 16 1003 28 10000 8.39 216 23:39 22.02.2022
3627 Clouds 16 1003 26 10000 5.54 205 22:51 22.02.2022
3628 Clouds 18 1004 29 10000 3.43 199 21:56 22.02.2022
3629 Clouds 18 1004 29 10000 3.43 199 21:37 22.02.2022
3630 Clouds 18 1006 32 10000 2.94 204 21:18 22.02.2022
3631 Clouds 18 1006 32 10000 2.94 204 20:31 22.02.2022
3632 Clouds 14 1007 36 10000 1.8 216 19:51 22.02.2022
3633 Clouds 14 1007 36 10000 1.8 216 19:31 22.02.2022
3634 Clear 13 1009 45 10000 2.49 180 18:27 22.02.2022
3635 Clear 13 1009 49 10000 2.33 180 17:26 22.02.2022
3636 Clear 9 1009 49 10000 2.33 180 16:42 22.02.2022
3637 Clear 6 1009 55 10000 1.7 181 15:59 22.02.2022
3638 Clear 7 1008 55 10000 1.92 183 14:52 22.02.2022
3639 Clear 7 1008 50 10000 1.91 193 12:52 22.02.2022
3640 Clear 9 1008 38 10000 0.27 298 10:54 22.02.2022
3641 Clear 10 1008 34 10000 0.41 290 08:56 22.02.2022
3642 Clear 11 1006 28 10000 0.68 242 07:28 22.02.2022
3643 Clear 11 1006 28 10000 0.68 242 06:53 22.02.2022
3644 Clear 19 1001 17 10000 3.37 167 02:48 22.02.2022
3645 Clear 23 1000 16 10000 0.41 126 23:18 21.02.2022
3646 Clear 24 1001 18 10000 0.87 137 21:56 21.02.2022
3647 Clear 23 1002 21 10000 0.78 164 20:38 21.02.2022
3648 Clouds 22 1003 29 10000 2.71 211 18:47 21.02.2022
3649 Clouds 19 1002 33 10000 3.49 210 18:18 21.02.2022
3650 Clouds 16 1002 42 10000 3.48 203 15:36 21.02.2022
3651 Clouds 16 1002 36 10000 3.06 209 14:22 21.02.2022
3652 Clouds 17 1002 36 10000 3.06 209 13:30 21.02.2022
3653 Clouds 18 1002 32 10000 3.33 198 12:41 21.02.2022
3654 Clouds 18 1003 31 10000 3.24 198 12:20 21.02.2022
3655 Clouds 19 1004 30 10000 3.29 202 10:26 21.02.2022
3656 Clouds 19 1005 23 10000 1.72 194 05:40 21.02.2022
3657 Clouds 23 1006 14 10000 2.18 180 00:35 21.02.2022
3658 Clouds 25 1008 14 10000 2.29 163 22:32 20.02.2022
3659 Clouds 24 1009 15 10000 2.06 164 21:43 20.02.2022
3660 Clouds 24 1011 15 10000 1.89 166 21:21 20.02.2022
3661 Clouds 26 1011 15 10000 1.89 166 20:43 20.02.2022
3662 Clear 23 1012 16 10000 1.65 170 19:48 20.02.2022
3663 Clear 22 1013 17 10000 1.29 163 18:55 20.02.2022
3664 Clear 24 1013 17 10000 1.07 159 18:34 20.02.2022
3665 Clear 23 1013 18 10000 0.48 182 17:55 20.02.2022
3666 Clear 16 1013 26 10000 0.64 160 16:18 20.02.2022
3667 Clear 15 1013 27 10000 0.51 164 14:55 20.02.2022
3668 Clear 15 1013 26 10000 0.66 167 13:58 20.02.2022
3669 Clouds 16 1013 26 10000 0.58 171 12:42 20.02.2022
3670 Clouds 16 1013 26 10000 0.82 181 11:30 20.02.2022
3671 Clouds 17 1015 26 10000 0.21 186 10:21 20.02.2022
3672 Clouds 17 1015 26 10000 0.15 236 09:24 20.02.2022
3673 Clear 19 1016 25 10000 0.32 162 06:28 20.02.2022
3674 Clear 24 1016 16 10000 0.36 98 00:32 20.02.2022
3675 Clear 24 1016 16 10000 0.62 71 23:32 19.02.2022
3676 Clear 24 1018 17 10000 0.97 31 22:24 19.02.2022
3677 Clear 24 1018 17 10000 0.97 31 21:45 19.02.2022
3678 Clear 22 1021 19 10000 2.08 15 20:26 19.02.2022
3679 Clear 22 1021 19 10000 2.08 15 19:34 19.02.2022
3680 Clear 22 1021 20 10000 2.41 8 18:39 19.02.2022
3681 Clear 22 1022 21 10000 2.33 4 17:54 19.02.2022
3682 Clear 15 1022 24 10000 1.8 356 16:47 19.02.2022
3683 Clear 13 1021 28 10000 1.89 349 15:58 19.02.2022
3684 Clear 14 1021 29 10000 1.74 351 14:53 19.02.2022
3685 Clear 16 1021 28 10000 1.72 347 13:55 19.02.2022
3686 Clear 18 1021 27 10000 1.83 345 11:42 19.02.2022
3687 Clear 18 1022 27 10000 1.82 346 10:48 19.02.2022
3688 Clear 19 1022 24 10000 1.98 343 08:56 19.02.2022
3689 Clear 19 1023 23 10000 2.1 346 06:45 19.02.2022
3690 Clear 23 1021 17 10000 3.19 358 00:23 19.02.2022
3691 Clear 22 1023 17 10000 3.9 5 22:24 18.02.2022
3692 Clear 21 1025 18 10000 3.94 4 21:21 18.02.2022
3693 Clear 20 1026 19 10000 3.89 5 19:57 18.02.2022
3694 Clear 19 1026 21 10000 3.75 2 18:51 18.02.2022
3695 Clear 18 1026 23 10000 3.46 4 18:28 18.02.2022
3696 Clear 18 1026 23 10000 3.46 4 17:56 18.02.2022
3697 Clear 13 1026 31 10000 1.88 350 16:19 18.02.2022
3698 Clear 14 1025 30 10000 1.9 357 13:56 18.02.2022
3699 Clear 14 1025 30 10000 1.9 357 13:32 18.02.2022
3700 Clouds 15 1025 29 10000 1.73 349 12:48 18.02.2022
3701 Clouds 14 1024 29 10000 1.04 337 11:56 18.02.2022
3702 Clouds 14 1025 28 10000 1.28 346 10:42 18.02.2022
3703 Clear 15 1025 26 10000 0.08 236 07:20 18.02.2022
3704 Clear 15 1025 25 10000 0.31 262 05:52 18.02.2022
3705 Clear 15 1025 25 10000 0.31 262 05:34 18.02.2022
3706 Clear 18 1025 22 10000 2.49 359 21:59 17.02.2022
3707 Clear 18 1025 22 10000 2.49 359 21:33 17.02.2022
3708 Clear 18 1027 24 10000 2.95 11 20:42 17.02.2022
3709 Clear 17 1028 25 10000 3.38 14 19:55 17.02.2022
3710 Clear 16 1028 27 10000 3.78 13 19:22 17.02.2022
3711 Clear 15 1028 29 10000 3.54 9 18:29 17.02.2022
3712 Clear 15 1028 29 10000 3.54 9 17:30 17.02.2022
3713 Clear 11 1028 37 10000 2.39 6 15:51 17.02.2022
3714 Clear 13 1026 37 10000 2.64 0 14:29 17.02.2022
3715 Clear 13 1026 37 10000 2.64 0 13:31 17.02.2022
3716 Clear 13 1024 36 10000 3.11 354 11:48 17.02.2022
3717 Clear 13 1023 34 10000 4.39 350 09:58 17.02.2022
3718 Clear 14 1022 31 10000 3.56 352 07:45 17.02.2022
3719 Clear 20 1010 17 10000 1.61 15 23:23 16.02.2022
3720 Clear 19 1011 18 10000 1.9 7 22:28 16.02.2022
3721 Clear 17 1013 21 10000 2.57 6 20:22 16.02.2022
3722 Clear 18 1013 25 10000 2.83 2 18:56 16.02.2022
3723 Clear 16 1013 29 10000 2.63 2 18:27 16.02.2022
3724 Clear 13 1013 35 10000 2.32 1 17:22 16.02.2022
3725 Clear 10 1012 43 10000 3.4 351 15:22 16.02.2022
3726 Clear 10 1011 43 10000 3.51 349 13:40 16.02.2022
3727 Clear 10 1010 44 10000 3.8 346 12:24 16.02.2022
3728 Clear 10 1010 44 10000 3.8 346 11:46 16.02.2022
3729 Clouds 11 1010 48 10000 4.1 344 10:34 16.02.2022
3730 Clouds 10 1009 52 10000 4.39 342 09:38 16.02.2022
3731 Clouds 12 1009 57 10000 3.98 328 06:43 16.02.2022
3732 Clouds 15 1005 57 10000 5.9 350 00:37 16.02.2022
3733 Clouds 16 1003 41 10000 8.52 329 22:34 15.02.2022
3734 Clear 17 1001 26 10000 2.32 244 21:50 15.02.2022
3735 Clear 18 1002 28 10000 3.23 201 21:29 15.02.2022
3736 Clear 20 1002 28 10000 3.23 201 20:58 15.02.2022
3737 Clear 20 1002 31 10000 4.59 193 20:22 15.02.2022
3738 Clear 20 1002 31 10000 4.59 193 19:45 15.02.2022
3739 Clear 18 1001 35 10000 5.43 192 18:26 15.02.2022
3740 Clear 18 1001 35 10000 5.43 192 17:53 15.02.2022
3741 Clear 17 1001 35 10000 5.43 192 17:32 15.02.2022
3742 Clear 16 1002 46 10000 3.11 205 15:43 15.02.2022
3743 Clouds 18 1001 38 10000 3.74 208 13:57 15.02.2022
3744 Clouds 18 1001 35 10000 4.3 206 13:25 15.02.2022
3745 Clouds 18 1002 35 10000 4 206 11:41 15.02.2022
3746 Clouds 19 1003 27 10000 3.56 197 10:27 15.02.2022
3747 Clouds 19 1004 25 10000 2.89 188 08:42 15.02.2022
3748 Clouds 20 1006 24 10000 2.04 179 06:46 15.02.2022
3749 Clouds 28 1011 13 10000 2.03 152 23:35 14.02.2022
3750 Clouds 25 1014 14 10000 1.11 159 21:57 14.02.2022
3751 Clouds 25 1015 14 10000 1.09 158 20:53 14.02.2022
3752 Clouds 24 1017 14 10000 1.24 159 19:49 14.02.2022
3753 Clouds 23 1018 14 10000 1.03 159 19:29 14.02.2022
3754 Clouds 23 1018 14 10000 0.69 176 18:24 14.02.2022
3755 Clouds 20 1018 14 10000 0.69 176 17:30 14.02.2022
3756 Clouds 20 1018 18 10000 0.98 173 16:37 14.02.2022
3757 Clouds 17 1018 21 10000 0.45 142 15:22 14.02.2022
3758 Clouds 17 1019 20 10000 0.53 171 13:35 14.02.2022
3759 Clear 17 1019 19 10000 0.51 186 12:59 14.02.2022
3760 Clear 17 1019 19 10000 0.51 186 12:32 14.02.2022
3761 Clear 18 1019 19 10000 0.65 166 11:39 14.02.2022
3762 Clear 19 1021 19 10000 0.7 193 10:21 14.02.2022
3763 Clear 20 1021 18 10000 0.15 255 08:26 14.02.2022
3764 Clear 20 1021 18 10000 0.14 253 07:26 14.02.2022
3765 Clear 27 1022 12 10000 0.5 97 23:19 13.02.2022
3766 Clear 27 1022 12 10000 0.5 97 22:41 13.02.2022
3767 Clear 26 1023 12 10000 0.43 83 22:22 13.02.2022
3768 Clear 26 1024 13 10000 0.52 44 21:24 13.02.2022
3769 Clear 26 1024 13 10000 0.52 44 20:30 13.02.2022
3770 Clear 24 1025 15 10000 1.09 14 19:23 13.02.2022
3771 Clear 24 1025 14 10000 1.02 14 18:41 13.02.2022
3772 Clear 24 1025 15 10000 0.59 13 17:41 13.02.2022
3773 Clear 17 1025 23 10000 0.85 333 15:53 13.02.2022
3774 Clear 16 1024 23 10000 1.05 349 14:52 13.02.2022
3775 Clear 17 1024 23 10000 0.82 355 13:42 13.02.2022
3776 Clouds 18 1023 23 10000 0.63 347 12:49 13.02.2022
3777 Clouds 19 1024 22 10000 0.93 356 11:24 13.02.2022
3778 Clouds 19 1024 22 10000 0.87 4 10:28 13.02.2022
3779 Clouds 19 1024 22 10000 0.87 4 09:36 13.02.2022
3780 Clear 20 1024 21 10000 0.16 42 06:22 13.02.2022
3781 Clear 26 1022 12 10000 0.52 93 00:35 13.02.2022
3782 Clear 27 1022 12 10000 0.67 70 23:39 12.02.2022
3783 Clear 27 1022 12 10000 0.94 40 22:33 12.02.2022
3784 Clear 25 1024 14 10000 1.4 33 21:19 12.02.2022
3785 Clear 25 1024 14 10000 1.4 33 20:32 12.02.2022
3786 Clear 24 1025 15 10000 1.8 31 19:21 12.02.2022
3787 Clear 24 1025 15 10000 1.8 31 18:52 12.02.2022
3788 Clear 24 1025 15 10000 1.65 32 18:34 12.02.2022
3789 Clear 21 1024 20 10000 1.36 19 16:56 12.02.2022
3790 Clear 15 1023 23 10000 1.37 2 16:25 12.02.2022
3791 Clear 16 1023 23 10000 1.37 2 15:50 12.02.2022
3792 Clear 20 1022 23 10000 1.76 2 14:31 12.02.2022
3793 Clear 21 1022 22 10000 2.18 349 12:58 12.02.2022
3794 Clear 21 1021 20 10000 2.89 356 10:41 12.02.2022
3795 Clear 22 1021 19 10000 2.93 356 09:39 12.02.2022
3796 Clear 23 1020 20 10000 2.99 353 09:20 12.02.2022
3797 Clear 24 1020 20 10000 2.92 356 08:18 12.02.2022
3798 Clear 24 1020 20 10000 2.92 356 08:18 12.02.2022
3799 Clear 24 1020 20 10000 2.92 356 08:18 12.02.2022
3800 Clear 25 1020 19 10000 2.87 357 05:33 12.02.2022
3801 Clear 25 1019 17 10000 2.99 352 04:27 12.02.2022
3802 Clear 29 1017 16 10000 3.41 340 02:18 12.02.2022
3803 Clear 28 1017 16 10000 4.31 359 22:34 11.02.2022
3804 Clear 28 1018 17 10000 4.11 2 21:55 11.02.2022
3805 Clear 27 1019 18 10000 4.07 6 20:41 11.02.2022
3806 Clear 26 1019 20 10000 4.2 358 19:47 11.02.2022
3807 Clear 25 1019 22 10000 4.13 3 19:27 11.02.2022
3808 Clear 23 1019 25 10000 3.38 5 17:59 11.02.2022
3809 Clear 21 1019 29 10000 2.48 4 17:26 11.02.2022
3810 Clear 20 1019 33 10000 2.41 351 16:23 11.02.2022
3811 Clear 20 1019 33 10000 2.31 356 14:44 11.02.2022
3812 Clear 20 1019 32 10000 2.62 0 14:23 11.02.2022
3813 Clear 21 1019 32 10000 2.62 0 13:59 11.02.2022
3814 Clear 21 1019 32 10000 2.62 0 13:39 11.02.2022
3815 Clear 20 1019 31 10000 2.43 354 11:47 11.02.2022
3816 Clear 21 1019 28 10000 2.74 351 10:24 11.02.2022
3817 Clear 21 1020 27 10000 2.16 350 08:49 11.02.2022
3818 Clear 22 1020 26 10000 2.22 350 08:27 11.02.2022
3819 Clear 22 1020 27 10000 2.12 346 07:22 11.02.2022
3820 Clear 23 1020 23 10000 2.72 335 02:40 11.02.2022
3821 Clear 28 1019 21 10000 2.73 341 02:19 11.02.2022
3822 Clear 26 1021 19 10000 5.51 356 23:20 10.02.2022
3823 Clear 25 1022 21 10000 5.26 359 21:53 10.02.2022
3824 Clear 24 1023 23 10000 5.29 0 21:21 10.02.2022
3825 Clear 24 1023 23 10000 5.29 0 20:48 10.02.2022
3826 Clear 22 1025 27 10000 4.57 10 19:26 10.02.2022
3827 Clear 22 1025 26 10000 4.49 10 18:47 10.02.2022
3828 Clear 19 1025 33 10000 3.01 8 17:27 10.02.2022
3829 Clear 21 1025 33 10000 3.01 8 16:57 10.02.2022
3830 Clear 18 1024 36 10000 3.11 1 15:59 10.02.2022
3831 Clear 18 1024 36 10000 3.11 1 15:33 10.02.2022
3832 Clear 20 1024 35 10000 3.37 3 14:49 10.02.2022
3833 Clear 19 1023 34 10000 3.79 358 14:29 10.02.2022
3834 Clear 18 1023 34 10000 3.79 358 13:33 10.02.2022
3835 Clear 20 1023 33 10000 4.04 358 12:51 10.02.2022
3836 Clear 20 1023 32 10000 4.22 357 11:38 10.02.2022
3837 Clear 20 1023 32 10000 4.03 358 11:20 10.02.2022
3838 Clear 21 1023 30 10000 3.91 359 10:19 10.02.2022
3839 Clear 21 1023 28 10000 4.36 357 09:25 10.02.2022
3840 Clear 22 1023 26 10000 4.58 358 07:40 10.02.2022
3841 Clouds 23 1021 22 10000 3.2 359 05:52 10.02.2022
3842 Clouds 25 1020 16 10000 5.19 343 01:58 10.02.2022
3843 Clear 27 1019 13 10000 6.11 343 00:51 10.02.2022
3844 Clear 27 1020 13 10000 6.46 346 00:29 10.02.2022
3845 Clear 27 1020 13 10000 6.24 354 23:28 09.02.2022
3846 Clear 27 1020 13 10000 6.24 354 22:38 09.02.2022
3847 Clear 29 1021 13 10000 6.37 0 21:56 09.02.2022
3848 Clear 28 1021 13 10000 6.37 0 21:38 09.02.2022
3849 Clear 25 1022 14 10000 6.35 358 21:18 09.02.2022
3850 Clear 25 1022 14 10000 6.35 358 20:41 09.02.2022
3851 Clear 24 1023 16 10000 6.34 2 20:20 09.02.2022
3852 Clear 24 1023 16 10000 6.34 2 19:38 09.02.2022
3853 Clouds 21 1024 21 10000 4.49 1 17:43 09.02.2022
3854 Clouds 18 1024 24 10000 3.87 1 16:53 09.02.2022
3855 Clear 16 1023 26 10000 3.06 352 15:54 09.02.2022
3856 Clear 18 1023 26 10000 3.29 357 14:43 09.02.2022
3857 Clear 18 1023 24 10000 3.02 358 12:42 09.02.2022
3858 Clear 18 1023 24 10000 3.02 358 12:41 09.02.2022
3859 Clear 20 1023 22 10000 3.53 353 11:20 09.02.2022
3860 Clear 19 1023 22 10000 3.53 353 10:32 09.02.2022
3861 Clear 20 1024 22 10000 3.23 358 09:42 09.02.2022
3862 Clear 21 1024 21 10000 3.01 354 09:19 09.02.2022
3863 Clear 21 1024 20 10000 3.37 354 08:26 09.02.2022
3864 Clear 21 1024 19 10000 3.44 351 05:30 09.02.2022
3865 Clear 21 1024 19 10000 3.44 351 05:30 09.02.2022
3866 Clear 24 1023 18 10000 3.54 353 03:51 09.02.2022
3867 Clear 26 1022 14 10000 5.12 338 01:28 09.02.2022
3868 Clear 26 1022 14 10000 5.25 353 23:39 08.02.2022
3869 Clear 26 1023 14 10000 5.75 359 22:51 08.02.2022
3870 Clear 25 1023 15 10000 5.74 360 22:22 08.02.2022
3871 Clear 25 1023 15 10000 5.74 360 21:52 08.02.2022
3872 Clear 24 1025 16 10000 5.45 3 21:21 08.02.2022
3873 Clear 24 1025 16 10000 5.45 3 20:55 08.02.2022
3874 Clear 23 1026 17 10000 5.23 2 20:23 08.02.2022
3875 Clear 22 1026 18 10000 5 2 18:53 08.02.2022
3876 Clear 21 1026 20 10000 3.64 3 17:50 08.02.2022
3877 Clear 18 1025 23 10000 2.3 357 16:35 08.02.2022
3878 Clear 18 1025 25 10000 2.27 350 15:39 08.02.2022
3879 Clear 18 1025 24 10000 2.22 347 14:56 08.02.2022
3880 Clear 16 1025 23 10000 1.96 345 13:29 08.02.2022
3881 Clear 18 1025 24 10000 1.69 343 12:18 08.02.2022
3882 Clear 16 1025 24 10000 1.3 355 10:45 08.02.2022
3883 Clear 16 1025 24 10000 0.98 343 09:46 08.02.2022
3884 Clear 17 1026 23 10000 0.97 340 08:25 08.02.2022
3885 Clear 17 1026 23 10000 0.49 3 05:45 08.02.2022
3886 Clear 18 1026 23 10000 0.2 260 04:39 08.02.2022
3887 Clear 18 1026 23 10000 0.49 260 04:21 08.02.2022
3888 Clear 20 1026 23 10000 0.49 260 03:36 08.02.2022
3889 Clear 20 1026 22 10000 0.45 269 03:18 08.02.2022
3890 Clear 21 1026 22 10000 0.45 269 02:59 08.02.2022
3891 Clear 23 1026 22 10000 0.45 269 02:36 08.02.2022
3892 Clear 24 1025 19 10000 0.06 37 02:18 08.02.2022
3893 Clear 21 1025 19 10000 0.06 37 01:44 08.02.2022
3894 Clear 22 1025 16 10000 0.55 26 01:24 08.02.2022
3895 Clear 22 1025 16 10000 0.55 26 00:55 08.02.2022
3896 Clear 22 1025 16 10000 0.71 40 23:58 07.02.2022
3897 Clear 22 1025 16 10000 0.71 40 23:40 07.02.2022
3898 Clear 22 1026 16 10000 0.89 36 23:18 07.02.2022
3899 Clear 22 1026 16 10000 0.89 36 22:56 07.02.2022
3900 Clear 22 1027 16 10000 1.22 23 22:18 07.02.2022
3901 Clear 22 1027 16 10000 1.22 23 21:47 07.02.2022
3902 Clear 21 1028 17 10000 1.52 27 21:26 07.02.2022
3903 Clear 21 1028 17 10000 1.52 27 20:41 07.02.2022
3904 Clear 20 1029 18 10000 1.71 23 20:18 07.02.2022
3905 Clear 20 1029 18 10000 1.71 23 19:45 07.02.2022
3906 Clear 19 1029 20 10000 1.62 16 18:22 07.02.2022
3907 Clear 19 1029 24 10000 1.42 8 16:53 07.02.2022
3908 Clear 17 1029 27 10000 1.66 355 16:21 07.02.2022
3909 Clear 15 1029 27 10000 1.66 355 15:48 07.02.2022
3910 Clear 13 1028 27 10000 1.9 2 13:39 07.02.2022
3911 Clear 13 1028 26 10000 2 0 13:21 07.02.2022
3912 Clear 15 1028 25 10000 1.94 358 11:58 07.02.2022
3913 Clear 15 1028 25 10000 1.94 358 11:38 07.02.2022
3914 Clear 17 1028 24 10000 2.08 358 10:53 07.02.2022
3915 Clear 18 1028 24 10000 2.08 358 10:33 07.02.2022
3916 Clear 18 1028 23 10000 2.24 359 09:53 07.02.2022
3917 Clear 19 1028 22 10000 2.38 358 09:18 07.02.2022
3918 Clear 19 1028 22 10000 2.38 358 08:44 07.02.2022
3919 Clear 19 1028 21 10000 2.25 350 07:30 07.02.2022
3920 Clear 17 1028 21 10000 2.23 353 06:34 07.02.2022
3921 Clear 21 1027 19 10000 2.04 6 04:18 07.02.2022
3922 Clear 22 1024 13 10000 2.92 4 00:54 07.02.2022
3923 Clear 22 1024 13 10000 2.88 7 23:50 06.02.2022
3924 Clear 22 1024 13 10000 2.88 7 23:50 06.02.2022
3925 Clear 22 1025 14 10000 3.12 6 23:19 06.02.2022
3926 Clear 22 1025 14 10000 3.12 6 22:37 06.02.2022
3927 Clear 22 1026 14 10000 3.84 7 21:37 06.02.2022
3928 Clear 21 1026 15 10000 4.27 11 20:58 06.02.2022
3929 Clear 21 1026 15 10000 4.27 11 20:36 06.02.2022
3930 Clear 20 1027 16 10000 4.37 9 19:50 06.02.2022
3931 Clear 23 1027 17 10000 4.41 7 18:52 06.02.2022
3932 Clear 20 1026 18 10000 4.32 4 18:26 06.02.2022
3933 Clear 18 1026 22 10000 3.59 359 17:29 06.02.2022
3934 Clear 15 1026 22 10000 3.59 359 16:50 06.02.2022
3935 Clear 13 1026 23 10000 3.52 355 15:51 06.02.2022
3936 Clear 13 1025 22 10000 3.28 357 15:28 06.02.2022
3937 Clear 14 1025 22 10000 3.28 357 14:59 06.02.2022
3938 Clear 14 1024 22 10000 3.19 358 13:57 06.02.2022
3939 Clear 15 1024 22 10000 3.18 358 13:20 06.02.2022
3940 Clear 15 1024 22 10000 3.08 355 11:45 06.02.2022
3941 Clear 15 1024 22 10000 2.99 356 10:33 06.02.2022
3942 Clear 16 1024 22 10000 3.11 353 09:36 06.02.2022
3943 Clear 18 1024 21 10000 2.98 1 08:41 06.02.2022
3944 Clouds 19 1024 18 10000 3.15 360 06:31 06.02.2022
3945 Clouds 19 1024 17 10000 3.11 353 05:28 06.02.2022
3946 Clouds 21 1022 15 10000 3.59 348 02:25 06.02.2022
3947 Clouds 20 1022 14 10000 3.52 354 00:32 06.02.2022
3948 Clouds 21 1023 14 10000 4.14 358 23:38 05.02.2022
3949 Clouds 20 1024 14 10000 4.37 358 21:46 05.02.2022
3950 Clouds 19 1025 15 10000 3.91 2 20:41 05.02.2022
3951 Clouds 18 1026 17 10000 3.81 4 20:20 05.02.2022
3952 Clouds 18 1026 17 10000 3.81 4 19:42 05.02.2022
3953 Clear 17 1027 18 10000 3.27 7 18:30 05.02.2022
3954 Clear 16 1027 20 10000 2.63 10 17:35 05.02.2022
3955 Clear 14 1028 27 10000 2.47 350 16:20 05.02.2022
3956 Clear 14 1028 27 10000 2.47 350 15:31 05.02.2022
3957 Clear 11 1027 28 10000 1.76 348 13:38 05.02.2022
3958 Clear 11 1027 27 10000 1.62 347 12:46 05.02.2022
3959 Clear 15 1028 26 10000 1.97 344 11:47 05.02.2022
3960 Clear 11 1028 25 10000 1.99 349 10:44 05.02.2022
3961 Clear 13 1029 25 10000 1.73 349 09:51 05.02.2022
3962 Clear 14 1029 25 10000 1.57 345 08:47 05.02.2022
3963 Clear 15 1031 25 10000 1.49 352 06:59 05.02.2022
3964 Clear 15 1031 25 10000 1.49 352 06:35 05.02.2022
3965 Clear 16 1030 24 10000 2.3 352 02:43 05.02.2022
3966 Clear 17 1030 19 10000 2.54 357 01:18 05.02.2022
3967 Clear 17 1029 18 10000 2.49 359 00:36 05.02.2022
3968 Clear 17 1029 18 10000 2.96 2 23:33 04.02.2022
3969 Clear 17 1030 19 10000 3.72 3 22:45 04.02.2022
3970 Clear 17 1031 20 10000 4.23 7 21:36 04.02.2022
3971 Clear 16 1032 22 10000 4.05 9 21:18 04.02.2022
3972 Clear 16 1032 22 10000 4.05 9 20:37 04.02.2022
3973 Clear 14 1034 26 10000 3.6 16 19:19 04.02.2022
3974 Clear 12 1034 33 10000 2.45 5 16:44 04.02.2022
3975 Clear 12 1034 36 10000 2.6 357 15:33 04.02.2022
3976 Clear 12 1033 36 10000 2.65 359 14:47 04.02.2022
3977 Clear 12 1032 35 10000 2.05 359 12:43 04.02.2022
3978 Clear 13 1031 35 10000 2.45 356 11:45 04.02.2022
3979 Clear 13 1031 34 10000 2.37 356 10:56 04.02.2022
3980 Clear 13 1030 33 10000 2.02 1 10:22 04.02.2022
3981 Clear 13 1029 32 10000 1.99 6 08:31 04.02.2022
3982 Clear 14 1027 28 10000 1.54 13 04:45 04.02.2022
3983 Clear 16 1026 27 10000 1.63 9 02:38 04.02.2022
3984 Clear 16 1024 20 10000 2.22 357 23:56 03.02.2022
3985 Clear 16 1024 20 10000 2.44 2 22:52 03.02.2022
3986 Clear 15 1025 21 10000 2.47 11 21:58 03.02.2022
3987 Clear 15 1025 21 10000 2.47 11 21:37 03.02.2022
3988 Clear 14 1027 22 10000 2.78 4 20:22 03.02.2022
3989 Clear 14 1027 22 10000 2.78 4 19:49 03.02.2022
3990 Clear 12 1027 23 10000 2.16 17 19:20 03.02.2022
3991 Clear 12 1026 23 10000 1.51 14 17:59 03.02.2022
3992 Clear 13 1025 26 10000 1.17 5 17:19 03.02.2022
3993 Clear 7 1025 29 10000 1.09 9 15:38 03.02.2022
3994 Clear 9 1024 28 10000 1.45 349 14:18 03.02.2022
3995 Clear 11 1024 29 10000 1.67 351 12:32 03.02.2022
3996 Clear 9 1024 27 10000 1.7 9 08:56 03.02.2022
3997 Clear 10 1024 27 10000 1.63 9 08:18 03.02.2022
3998 Clear 14 1019 17 10000 8.47 357 00:59 03.02.2022
3999 Clear 14 1019 17 10000 9.27 358 00:22 03.02.2022
4000 Clear 14 1019 17 10000 9.77 358 22:40 02.02.2022
4001 Clear 16 1020 17 10000 9.93 359 21:51 02.02.2022
4002 Clear 13 1021 18 10000 10.29 1 21:29 02.02.2022
4003 Clear 15 1022 19 10000 10.25 4 20:27 02.02.2022
4004 Clear 15 1022 19 10000 10.25 4 19:48 02.02.2022
4005 Clear 13 1022 21 10000 8.36 10 19:00 02.02.2022
4006 Clear 13 1022 23 10000 6.37 10 18:25 02.02.2022
4007 Clear 10 1021 27 10000 3.65 4 17:22 02.02.2022
4008 Clear 8 1021 27 10000 3.65 4 16:58 02.02.2022
4009 Clear 6 1021 30 10000 3.17 357 15:49 02.02.2022
4010 Clear 9 1018 29 10000 3.79 353 12:47 02.02.2022
4011 Clear 8 1018 29 10000 3.44 355 11:51 02.02.2022
4012 Clear 6 1018 29 10000 3.44 355 11:30 02.02.2022
4013 Clear 8 1017 28 10000 3.47 357 09:18 02.02.2022
4014 Clear 11 1015 24 10000 4.34 354 04:57 02.02.2022
4015 Clouds 18 1011 21 10000 7.92 354 22:34 01.02.2022
4016 Clouds 19 1013 21 10000 7.47 358 20:58 01.02.2022
4017 Clouds 17 1013 21 10000 7.25 2 19:39 01.02.2022
4018 Clouds 15 1012 22 10000 4.9 360 17:37 01.02.2022
4019 Clouds 15 1012 22 10000 3.41 353 16:31 01.02.2022
4020 Clouds 15 1010 17 10000 1.72 357 13:27 01.02.2022
4021 Clouds 14 1010 16 10000 0.57 337 12:28 01.02.2022
4022 Clouds 14 1010 16 10000 0.26 172 10:42 01.02.2022
4023 Clouds 19 1014 15 10000 1.43 173 02:24 01.02.2022
4024 Clouds 23 1014 11 10000 0.86 164 23:39 31.01.2022
4025 Clouds 23 1015 10 10000 0.5 134 22:43 31.01.2022
4026 Clouds 24 1015 10 10000 0.68 71 21:38 31.01.2022
4027 Clouds 20 1017 10 10000 0.56 151 20:44 31.01.2022
4028 Clouds 19 1019 10 10000 0.28 217 20:24 31.01.2022
4029 Clouds 19 1019 10 10000 0.28 18 18:54 31.01.2022
4030 Clouds 18 1019 12 10000 1.14 353 18:20 31.01.2022
4031 Clouds 18 1019 17 10000 0.97 346 17:25 31.01.2022
4032 Clouds 16 1018 18 10000 0.55 26 16:25 31.01.2022
4033 Clouds 15 1018 18 10000 0.81 163 14:54 31.01.2022
4034 Clouds 13 1018 18 10000 0.82 162 13:43 31.01.2022
4035 Clouds 11 1018 18 10000 0.14 338 12:38 31.01.2022
4036 Clouds 11 1019 17 10000 0.6 16 11:34 31.01.2022
4037 Clouds 13 1019 17 10000 0.25 185 10:49 31.01.2022
4038 Clouds 13 1019 17 10000 0.63 152 09:39 31.01.2022
4039 Clouds 14 1019 17 10000 0.5 189 08:57 31.01.2022
4040 Clouds 14 1019 17 10000 0.5 189 08:38 31.01.2022
4041 Clouds 14 1020 17 10000 0.48 162 08:19 31.01.2022
4042 Clear 16 1020 16 10000 0.96 180 06:18 31.01.2022
4043 Clear 21 1019 11 10000 0.42 128 00:44 31.01.2022
4044 Clear 21 1019 10 10000 0.23 90 22:38 30.01.2022
4045 Clear 21 1019 11 10000 0.61 11 22:20 30.01.2022
4046 Clear 21 1019 11 10000 0.61 11 21:38 30.01.2022
4047 Clear 20 1020 11 10000 1.2 1 21:18 30.01.2022
4048 Clear 20 1020 11 10000 1.2 1 20:45 30.01.2022
4049 Clear 19 1021 12 10000 1.89 4 20:26 30.01.2022
4050 Clear 18 1021 12 10000 2.11 4 19:24 30.01.2022
4051 Clear 18 1021 12 10000 2.11 4 18:35 30.01.2022
4052 Clear 18 1021 13 10000 1.72 356 17:54 30.01.2022
4053 Clear 15 1021 18 10000 1.24 342 17:21 30.01.2022
4054 Clear 14 1021 18 10000 1.24 342 16:39 30.01.2022
4055 Clear 10 1020 18 10000 1.63 346 16:21 30.01.2022
4056 Clear 13 1020 18 10000 1.63 346 15:49 30.01.2022
4057 Clear 12 1020 18 10000 1.63 346 15:31 30.01.2022
4058 Clear 13 1020 18 10000 1.61 347 14:46 30.01.2022
4059 Clouds 14 1019 17 10000 1.54 0 12:47 30.01.2022
4060 Clouds 14 1019 16 10000 1.72 340 11:57 30.01.2022
4061 Clouds 14 1019 15 10000 1.8 343 10:32 30.01.2022
4062 Clouds 13 1019 16 10000 1.25 342 09:50 30.01.2022
4063 Clouds 15 1019 16 10000 0.69 349 08:54 30.01.2022
4064 Clouds 14 1020 16 10000 0.69 309 07:28 30.01.2022
4065 Clouds 20 1020 17 10000 0.29 354 01:56 30.01.2022
4066 Clouds 20 1020 17 10000 0.29 354 01:56 30.01.2022
4067 Clouds 21 1019 11 10000 2.16 3 00:23 30.01.2022
4068 Clouds 19 1020 12 10000 2.44 2 23:18 29.01.2022
4069 Clouds 19 1021 12 10000 2.29 6 21:49 29.01.2022
4070 Clouds 18 1022 12 10000 2.23 2 21:24 29.01.2022
4071 Clouds 18 1022 12 10000 2.23 2 20:32 29.01.2022
4072 Clouds 18 1024 13 10000 2.35 3 19:34 29.01.2022
4073 Clouds 19 1024 13 10000 1.96 7 18:52 29.01.2022
4074 Clouds 16 1024 14 10000 1.54 358 18:24 29.01.2022
4075 Clouds 16 1024 14 10000 1.54 358 17:31 29.01.2022
4076 Clouds 12 1024 18 10000 1.77 345 16:25 29.01.2022
4077 Clouds 12 1024 20 10000 1.6 346 14:23 29.01.2022
4078 Clouds 12 1024 20 10000 1.6 346 13:44 29.01.2022
4079 Clouds 12 1024 19 10000 1.81 352 13:24 29.01.2022
4080 Clouds 12 1025 20 10000 1.55 340 11:50 29.01.2022
4081 Clouds 13 1025 19 10000 1.64 336 11:24 29.01.2022
4082 Clouds 13 1025 19 10000 1.41 348 08:57 29.01.2022
4083 Clouds 14 1027 18 10000 1.18 355 06:55 29.01.2022
4084 Clouds 18 1027 14 10000 2.62 343 00:36 29.01.2022
4085 Clouds 18 1028 14 10000 2.64 356 23:59 28.01.2022
4086 Clouds 18 1028 14 10000 2.52 7 22:51 28.01.2022
4087 Clouds 18 1029 15 10000 2.7 11 22:22 28.01.2022
4088 Clouds 18 1029 15 10000 2.7 11 21:50 28.01.2022
4089 Clouds 17 1031 17 10000 2.3 11 20:30 28.01.2022
4090 Clouds 16 1032 19 10000 2.55 18 19:42 28.01.2022
4091 Clouds 15 1033 20 10000 2.55 17 18:47 28.01.2022
4092 Clouds 18 1033 22 10000 2.18 13 17:42 28.01.2022
4093 Clear 11 1032 26 10000 2.32 7 15:28 28.01.2022
4094 Clear 10 1032 25 10000 2.23 4 13:59 28.01.2022
4095 Clear 13 1031 23 10000 2.26 360 12:32 28.01.2022
4096 Clear 15 1031 22 10000 2.25 14 11:38 28.01.2022
4097 Clear 14 1031 22 10000 2.24 16 10:21 28.01.2022
4098 Clear 14 1031 22 10000 2.24 16 09:44 28.01.2022
4099 Clear 15 1030 23 10000 3.34 5 07:39 28.01.2022
4100 Clear 18 1028 20 10000 2.96 1 05:23 28.01.2022
4101 Clear 19 1027 19 10000 2.67 3 03:47 28.01.2022
4102 Clear 20 1025 16 10000 3.18 11 02:23 28.01.2022
4103 Clear 19 1025 16 10000 3.18 11 01:34 28.01.2022
4104 Clear 21 1023 13 10000 4.26 1 23:33 27.01.2022
4105 Clear 21 1024 14 10000 4.26 3 21:50 27.01.2022
4106 Clear 21 1024 14 10000 4.26 3 21:30 27.01.2022
4107 Clear 21 1024 14 10000 4.26 3 21:30 27.01.2022
4108 Clear 20 1025 15 10000 4.31 4 20:53 27.01.2022
4109 Clear 18 1026 16 10000 4.16 4 19:30 27.01.2022
4110 Clear 18 1026 19 10000 2.7 11 17:56 27.01.2022
4111 Clear 13 1025 25 10000 2.49 350 15:31 27.01.2022
4112 Clear 14 1024 22 10000 2.41 355 13:39 27.01.2022
4113 Clear 15 1024 22 10000 2.25 351 12:46 27.01.2022
4114 Clear 15 1024 22 10000 2.25 351 12:46 27.01.2022
4115 Clear 15 1024 21 10000 2.12 347 10:57 27.01.2022
4116 Clear 15 1024 17 10000 2.29 343 09:20 27.01.2022
4117 Clear 14 1024 17 10000 2.29 343 08:37 27.01.2022
4118 Clear 13 1024 18 10000 1.88 343 07:22 27.01.2022
4119 Clear 15 1022 21 10000 1.62 330 02:57 27.01.2022
4120 Clear 17 1021 17 10000 1.17 25 23:45 26.01.2022
4121 Clear 16 1022 18 10000 1.72 21 22:26 26.01.2022
4122 Clear 16 1022 18 10000 1.72 21 21:37 26.01.2022
4123 Clear 16 1024 19 10000 1.67 16 20:41 26.01.2022
4124 Clear 15 1025 21 10000 1.9 17 20:23 26.01.2022
4125 Clear 14 1025 22 10000 2.05 21 19:27 26.01.2022
4126 Clear 17 1025 24 10000 1.98 21 18:46 26.01.2022
4127 Clear 15 1025 26 10000 1.78 16 17:51 26.01.2022
4128 Clear 11 1025 30 10000 1.68 4 17:24 26.01.2022
4129 Clear 12 1025 30 10000 1.68 4 16:35 26.01.2022
4130 Clear 10 1025 33 10000 1.86 357 15:50 26.01.2022
4131 Clear 9 1024 32 10000 2.05 354 14:23 26.01.2022
4132 Clear 11 1024 31 10000 2.29 352 11:56 26.01.2022
4133 Clear 13 1024 30 10000 2.54 353 10:45 26.01.2022
4134 Clear 14 1023 30 10000 2.79 353 09:49 26.01.2022
4135 Clear 14 1023 29 10000 2.9 353 08:32 26.01.2022
4136 Clear 15 1022 26 10000 3.09 2 05:42 26.01.2022
4137 Clear 20 1017 14 10000 8.43 7 00:18 26.01.2022
4138 Clear 20 1017 15 10000 8.85 8 23:28 25.01.2022
4139 Clear 20 1017 15 10000 8.85 8 22:48 25.01.2022
4140 Clear 20 1017 15 10000 8.38 0 22:18 25.01.2022
4141 Clear 22 1018 15 10000 7.94 1 21:22 25.01.2022
4142 Clear 22 1018 15 10000 7.94 1 20:44 25.01.2022
4143 Clear 21 1019 18 10000 7.06 4 19:53 25.01.2022
4144 Clear 20 1018 19 10000 6.51 7 18:46 25.01.2022
4145 Clear 19 1017 21 10000 4.93 1 17:45 25.01.2022
4146 Clear 16 1016 26 10000 3.54 354 17:18 25.01.2022
4147 Clear 16 1016 26 10000 3.54 354 16:34 25.01.2022
4148 Clear 16 1015 30 10000 1.98 340 15:39 25.01.2022
4149 Clear 17 1014 29 10000 1.85 2 14:58 25.01.2022
4150 Clear 18 1014 29 10000 1.85 2 14:38 25.01.2022
4151 Clear 18 1012 28 10000 1.49 344 11:30 25.01.2022
4152 Clear 15 1013 27 10000 1.14 199 09:21 25.01.2022
4153 Clear 16 1014 28 10000 0.51 278 07:31 25.01.2022
4154 Clear 17 1014 28 10000 1.1 344 06:54 25.01.2022
4155 Clear 17 1014 28 10000 0.14 180 05:23 25.01.2022
4156 Clear 17 1014 28 10000 0.14 180 05:23 25.01.2022
4157 Clear 22 1014 21 10000 0.43 116 00:28 25.01.2022
4158 Clear 22 1014 21 10000 0.43 116 23:36 24.01.2022
4159 Clear 22 1014 21 10000 0.5 110 23:18 24.01.2022
4160 Clear 22 1014 21 10000 0.5 110 23:18 24.01.2022
4161 Clear 22 1014 21 10000 0.5 110 22:42 24.01.2022
4162 Clear 21 1015 22 10000 0.33 88 21:57 24.01.2022
4163 Clear 21 1015 22 10000 0.33 88 21:32 24.01.2022
4164 Clear 21 1017 23 10000 0.56 9 20:38 24.01.2022
4165 Clear 20 1018 24 10000 1.31 4 20:20 24.01.2022
4166 Clear 20 1018 24 10000 1.31 4 19:38 24.01.2022
4167 Clear 19 1019 26 10000 1.59 9 18:47 24.01.2022
4168 Clear 19 1019 34 10000 1.47 360 17:24 24.01.2022
4169 Clear 17 1019 34 10000 1.47 360 16:58 24.01.2022
4170 Clear 17 1019 34 10000 1.47 360 16:58 24.01.2022
4171 Clear 17 1019 34 10000 1.47 360 16:58 24.01.2022
4172 Clear 16 1019 34 10000 1.47 360 16:30 24.01.2022
4173 Clear 15 1019 36 10000 1.41 3 14:56 24.01.2022
4174 Clear 14 1019 35 10000 1.59 358 13:39 24.01.2022
4175 Clear 14 1019 34 10000 1.74 357 12:33 24.01.2022
4176 Clear 13 1020 32 10000 1.81 358 11:21 24.01.2022
4177 Clear 14 1020 31 10000 1.72 353 10:18 24.01.2022
4178 Clear 17 1020 31 10000 1.72 353 09:44 24.01.2022
4179 Clear 16 1021 28 10000 1.66 353 07:40 24.01.2022
4180 Clear 18 1021 24 10000 1.73 351 01:38 24.01.2022
4181 Clear 20 1021 18 10000 2.63 352 00:50 24.01.2022
4182 Clear 20 1021 17 10000 3.1 355 00:29 24.01.2022
4183 Clear 20 1022 17 10000 3.79 1 22:58 23.01.2022
4184 Clear 20 1023 18 10000 4.25 2 21:53 23.01.2022
4185 Clear 19 1024 19 10000 4.26 1 21:27 23.01.2022
4186 Clear 19 1024 19 10000 4.26 1 20:57 23.01.2022
4187 Clear 18 1025 21 10000 4.14 7 20:21 23.01.2022
4188 Clear 20 1026 23 10000 4.19 4 18:53 23.01.2022
4189 Clear 18 1026 26 10000 3.36 5 18:22 23.01.2022
4190 Clear 12 1026 30 10000 2.73 358 16:56 23.01.2022
4191 Clear 13 1026 32 10000 3.06 355 15:56 23.01.2022
4192 Clear 13 1026 32 10000 3.15 355 14:50 23.01.2022
4193 Clear 13 1025 32 10000 3.4 353 14:18 23.01.2022
4194 Clear 13 1024 32 10000 3.48 357 12:45 23.01.2022
4195 Clear 14 1024 31 10000 3.68 357 12:19 23.01.2022
4196 Clear 14 1024 31 10000 3.58 358 11:26 23.01.2022
4197 Clear 14 1024 31 10000 3.58 358 10:57 23.01.2022
4198 Clear 16 1024 30 10000 3.38 358 10:25 23.01.2022
4199 Clear 15 1024 30 10000 3.38 358 09:31 23.01.2022
4200 Clear 15 1024 30 10000 3.38 358 09:31 23.01.2022
4201 Clear 15 1024 30 10000 3.3 356 08:49 23.01.2022
4202 Clear 16 1022 26 10000 4.62 351 03:49 23.01.2022
4203 Clear 17 1021 24 10000 5.21 338 01:38 23.01.2022
4204 Clear 19 1021 21 10000 7.11 346 00:47 23.01.2022
4205 Clear 19 1021 20 10000 8.06 343 23:59 22.01.2022
4206 Clear 19 1021 21 10000 8.55 342 22:53 22.01.2022
4207 Clear 19 1021 21 10000 8.55 342 22:33 22.01.2022
4208 Clear 18 1023 22 10000 7.9 355 20:46 22.01.2022
4209 Clear 19 1024 24 10000 8.12 358 19:46 22.01.2022
4210 Clear 16 1024 26 10000 7.49 1 18:41 22.01.2022
4211 Clear 14 1024 32 10000 6.52 0 17:49 22.01.2022
4212 Clear 13 1024 32 10000 6.52 0 17:31 22.01.2022
4213 Clear 12 1024 42 10000 5 357 16:54 22.01.2022
4214 Clear 11 1024 45 10000 4.83 357 15:45 22.01.2022
4215 Clear 11 1023 44 10000 4.79 356 14:56 22.01.2022
4216 Clear 11 1023 45 10000 4.79 354 13:36 22.01.2022
4217 Clear 11 1023 45 10000 4.91 355 12:40 22.01.2022
4218 Clear 12 1022 44 10000 5.05 353 12:22 22.01.2022
4219 Clear 11 1023 43 10000 4.81 354 10:55 22.01.2022
4220 Clear 12 1022 43 10000 4.98 353 10:27 22.01.2022
4221 Clear 13 1022 43 10000 4.98 353 09:46 22.01.2022
4222 Clear 13 1023 41 10000 6.04 351 08:51 22.01.2022
4223 Clouds 13 1022 38 10000 5.85 356 07:28 22.01.2022
4224 Clouds 14 1021 35 10000 5.96 351 04:50 22.01.2022
4225 Clouds 20 1017 24 10000 9.96 9 00:57 22.01.2022
4226 Clouds 21 1017 22 10000 9.76 3 23:30 21.01.2022
4227 Clouds 20 1018 26 10000 10.54 346 22:19 21.01.2022
4228 Clouds 20 1018 26 10000 10.54 346 22:19 21.01.2022
4229 Clear 20 1020 23 10000 9.83 349 19:56 21.01.2022
4230 Clear 19 1019 33 10000 3.77 353 18:23 21.01.2022
4231 Clear 18 1018 36 10000 2.62 2 17:18 21.01.2022
4232 Clear 15 1017 38 10000 1.94 9 15:27 21.01.2022
4233 Clouds 14 1017 39 10000 1.05 338 13:18 21.01.2022
4234 Clouds 14 1019 38 10000 1.62 349 12:28 21.01.2022
4235 Clouds 14 1019 39 10000 0.34 26 11:27 21.01.2022
4236 Clouds 14 1019 39 10000 0.05 211 09:46 21.01.2022
4237 Clouds 16 1021 37 10000 0.85 180 08:23 21.01.2022
4238 Clouds 17 1023 37 10000 1.37 182 04:49 21.01.2022
4239 Clouds 20 1024 27 10000 2.53 10 23:27 20.01.2022
4240 Clouds 20 1025 28 10000 2.84 3 22:21 20.01.2022
4241 Clouds 20 1025 28 10000 2.84 3 21:42 20.01.2022
4242 Clouds 19 1026 30 10000 3.07 5 20:40 20.01.2022
4243 Clear 18 1028 34 10000 2.83 9 19:19 20.01.2022
4244 Clear 18 1028 34 10000 2.83 9 19:19 20.01.2022
4245 Clear 17 1028 36 10000 2.87 5 18:23 20.01.2022
4246 Clear 13 1027 41 10000 2.52 354 16:58 20.01.2022
4247 Clear 13 1027 44 10000 2.6 355 15:41 20.01.2022
4248 Clear 14 1027 44 10000 2.88 354 14:41 20.01.2022
4249 Clear 13 1026 44 10000 2.81 352 13:41 20.01.2022
4250 Clear 13 1026 43 10000 3.13 356 12:34 20.01.2022
4251 Clear 14 1025 41 10000 3.11 357 11:50 20.01.2022
4252 Clear 15 1025 40 10000 2.6 356 10:39 20.01.2022
4253 Clear 17 1025 39 10000 2.72 352 09:37 20.01.2022
4254 Clear 18 1024 36 10000 2.5 359 07:51 20.01.2022
4255 Clear 22 1020 24 10000 3.07 353 00:46 20.01.2022
4256 Clear 22 1019 24 10000 3.62 357 23:28 19.01.2022
4257 Clear 22 1020 25 10000 3.62 359 22:24 19.01.2022
4258 Clear 21 1021 26 10000 3.24 1 21:23 19.01.2022
4259 Clear 21 1021 26 10000 3.24 1 20:49 19.01.2022
4260 Clear 23 1021 28 10000 2.73 0 19:54 19.01.2022
4261 Clear 21 1021 30 10000 2.42 6 18:40 19.01.2022
4262 Clear 19 1020 32 10000 1.59 7 17:45 19.01.2022
4263 Clear 14 1020 37 10000 1.86 351 16:48 19.01.2022
4264 Clear 12 1018 39 10000 1.48 347 14:42 19.01.2022
4265 Clear 14 1018 41 10000 1.56 352 12:43 19.01.2022
4266 Clear 15 1017 43 10000 0.82 351 11:42 19.01.2022
4267 Clear 15 1017 43 10000 0.12 324 10:35 19.01.2022
4268 Clouds 14 1017 43 10000 0.45 326 09:34 19.01.2022
4269 Clouds 17 1017 44 10000 0.42 334 07:18 19.01.2022
4270 Clouds 17 1016 51 10000 0.01 57 05:18 19.01.2022
4271 Clouds 20 1014 52 10000 0.68 42 23:20 18.01.2022
4272 Clouds 20 1014 52 10000 0.68 42 22:44 18.01.2022
4273 Clouds 19 1016 58 10000 0.4 72 21:20 18.01.2022
4274 Clouds 19 1016 62 10000 0.91 150 19:55 18.01.2022
4275 Clouds 19 1016 62 10000 0.47 131 19:55 18.01.2022
4276 Clouds 22 1016 62 10000 0.91 150 19:37 18.01.2022
4277 Clouds 18 1017 65 10000 1.26 162 18:54 18.01.2022
4278 Clouds 18 1016 68 10000 1.42 170 17:58 18.01.2022
4279 Clouds 15 1016 72 10000 1.36 185 16:59 18.01.2022
4280 Clouds 15 1016 72 10000 1.52 171 15:48 18.01.2022
4281 Clouds 15 1016 72 10000 1.52 171 15:48 18.01.2022
4282 Clouds 15 1016 72 10000 1.52 171 15:48 18.01.2022
4283 Clouds 15 1015 66 10000 1.65 162 15:22 18.01.2022
4284 Clouds 16 1015 55 10000 1.36 182 12:49 18.01.2022
4285 Clouds 17 1015 44 10000 1.16 190 10:47 18.01.2022
4286 Clouds 16 1015 37 10000 0.71 195 09:28 18.01.2022
4287 Clouds 16 1016 35 10000 0.4 210 07:56 18.01.2022
4288 Clouds 17 1016 32 10000 0.12 261 05:31 18.01.2022
4289 Clouds 20 1015 20 10000 0.31 114 23:55 17.01.2022
4290 Clouds 20 1015 19 10000 0.51 117 22:29 17.01.2022
4291 Clouds 20 1015 19 10000 0.51 117 21:35 17.01.2022
4292 Clouds 19 1017 20 10000 0.99 160 20:27 17.01.2022
4293 Clouds 18 1018 22 10000 1.03 167 18:31 17.01.2022
4294 Clouds 17 1017 25 10000 0.9 186 17:51 17.01.2022
4295 Clouds 15 1017 28 10000 0.05 157 16:45 17.01.2022
4296 Clouds 16 1017 29 10000 0.13 111 15:23 17.01.2022
4297 Clouds 16 1017 29 10000 0.13 111 14:57 17.01.2022
4298 Clouds 16 1016 29 10000 0.24 250 13:30 17.01.2022
4299 Clouds 16 1016 29 10000 0.1 9 12:57 17.01.2022
4300 Clouds 16 1016 29 10000 0.45 16 11:50 17.01.2022
4301 Clouds 15 1017 29 10000 0.23 318 10:38 17.01.2022
4302 Clouds 15 1017 29 10000 0.46 3 09:35 17.01.2022
4303 Clouds 16 1018 29 10000 0.33 246 07:47 17.01.2022
4304 Clouds 16 1018 28 10000 1.08 357 07:19 17.01.2022
4305 Clouds 23 1018 21 10000 0.54 173 00:57 17.01.2022
4306 Clouds 20 1018 20 10000 0.45 33 22:31 16.01.2022
4307 Clouds 19 1020 21 10000 0.71 23 20:40 16.01.2022
4308 Clouds 21 1021 23 10000 0.47 18 18:53 16.01.2022
4309 Clouds 20 1021 24 10000 0.58 12 18:18 16.01.2022
4310 Clouds 14 1021 30 10000 0.8 348 17:25 16.01.2022
4311 Clouds 14 1021 30 10000 0.8 348 16:48 16.01.2022
4312 Clouds 12 1021 33 10000 0.82 358 15:19 16.01.2022
4313 Clouds 13 1021 32 10000 0.8 349 14:28 16.01.2022
4314 Clouds 13 1021 32 10000 0.87 337 12:51 16.01.2022
4315 Clouds 13 1021 31 10000 0.99 354 11:48 16.01.2022
4316 Clouds 13 1022 30 10000 1.14 349 10:58 16.01.2022
4317 Clouds 14 1022 30 10000 0.61 351 10:26 16.01.2022
4318 Clouds 14 1022 30 10000 0.61 351 09:54 16.01.2022
4319 Clouds 14 1023 29 10000 0.86 345 09:22 16.01.2022
4320 Clouds 14 1023 29 10000 0.86 345 08:47 16.01.2022
4321 Clouds 15 1024 28 10000 1.36 347 03:58 16.01.2022
4322 Clouds 18 1024 25 10000 1.82 3 23:50 15.01.2022
4323 Clouds 18 1024 26 10000 1.63 358 22:35 15.01.2022
4324 Clouds 18 1025 26 10000 2.53 8 21:20 15.01.2022
4325 Clouds 18 1025 26 10000 2.53 8 20:40 15.01.2022
4326 Clouds 21 1027 27 10000 2.78 11 19:30 15.01.2022
4327 Clouds 20 1027 29 10000 2.8 9 18:47 15.01.2022
4328 Clouds 19 1027 32 10000 2.39 5 17:30 15.01.2022
4329 Clouds 18 1027 35 10000 2.53 3 16:37 15.01.2022
4330 Clouds 18 1026 36 10000 2.7 2 13:57 15.01.2022
4331 Clouds 18 1026 36 10000 2.86 353 12:20 15.01.2022
4332 Clouds 18 1026 34 10000 3.23 357 10:43 15.01.2022
4333 Clouds 18 1026 34 10000 3.47 0 08:32 15.01.2022
4334 Clouds 21 1023 25 10000 5.67 340 00:35 15.01.2022
4335 Clouds 22 1023 24 10000 6.55 3 21:56 14.01.2022
4336 Clouds 23 1024 24 10000 6.71 2 20:41 14.01.2022
4337 Clouds 22 1025 24 10000 6.12 1 20:21 14.01.2022
4338 Clouds 21 1025 25 10000 6.04 5 18:49 14.01.2022
4339 Clouds 20 1024 26 10000 3.84 5 18:27 14.01.2022
4340 Clouds 16 1023 28 10000 3.74 357 16:50 14.01.2022
4341 Clouds 16 1022 29 10000 3.21 347 15:48 14.01.2022
4342 Clouds 18 1021 29 10000 2.87 345 14:46 14.01.2022
4343 Clouds 15 1020 28 10000 2.58 353 13:37 14.01.2022
4344 Clouds 17 1019 28 10000 2.04 350 12:29 14.01.2022
4345 Clouds 15 1018 29 10000 1.45 3 10:57 14.01.2022
4346 Clouds 16 1019 30 10000 0.5 165 09:44 14.01.2022
4347 Clouds 17 1019 30 10000 0.31 128 08:44 14.01.2022
4348 Clouds 18 1020 30 10000 1.13 333 06:57 14.01.2022
4349 Clouds 22 1020 28 10000 1.27 346 01:33 14.01.2022
4350 Clouds 25 1020 22 10000 1.23 181 23:19 13.01.2022
4351 Clouds 21 1021 21 10000 0.25 330 21:38 13.01.2022
4352 Clouds 21 1022 21 10000 0.57 294 21:19 13.01.2022
4353 Clouds 23 1023 22 10000 0.38 116 19:40 13.01.2022
4354 Clouds 23 1023 22 10000 0.37 339 19:22 13.01.2022
4355 Clouds 20 1024 26 10000 0.35 198 17:52 13.01.2022
4356 Clouds 16 1023 28 10000 0.24 215 16:21 13.01.2022
4357 Clouds 15 1023 28 10000 0.24 215 15:37 13.01.2022
4358 Clouds 15 1023 28 10000 0.23 66 14:46 13.01.2022
4359 Clouds 17 1022 26 10000 0.28 235 12:44 13.01.2022
4360 Clouds 17 1024 25 10000 0.57 329 10:25 13.01.2022
4361 Clouds 18 1024 25 10000 1.01 2 09:20 13.01.2022
4362 Clouds 18 1024 25 10000 1.01 2 09:20 13.01.2022
4363 Clouds 18 1025 24 10000 0.94 349 08:27 13.01.2022
4364 Clouds 18 1025 25 10000 0.74 29 07:24 13.01.2022
4365 Clouds 18 1025 24 10000 0.79 217 05:59 13.01.2022
4366 Clouds 18 1025 24 10000 0.79 217 05:59 13.01.2022
4367 Clouds 19 1025 24 10000 0.13 164 05:19 13.01.2022
4368 Clouds 19 1025 24 10000 1.05 336 01:58 13.01.2022
4369 Clouds 22 1024 21 10000 0.48 356 00:55 13.01.2022
4370 Clouds 22 1024 17 10000 1.34 17 23:49 12.01.2022
4371 Clouds 22 1024 17 10000 1.34 17 23:49 12.01.2022
4372 Clear 22 1025 17 10000 0.73 22 23:20 12.01.2022
4373 Clear 22 1026 18 10000 0.46 30 21:57 12.01.2022
4374 Clear 21 1027 19 10000 0.72 23 21:22 12.01.2022
4375 Clear 21 1027 19 10000 0.72 23 20:56 12.01.2022
4376 Clear 21 1028 19 10000 0.93 11 19:45 12.01.2022
4377 Clear 20 1028 20 10000 1.73 359 18:42 12.01.2022
4378 Clear 21 1028 23 10000 2.21 356 17:38 12.01.2022
4379 Clear 16 1028 26 10000 2.78 353 16:33 12.01.2022
4380 Clear 15 1028 31 10000 1.17 357 14:48 12.01.2022
4381 Clouds 15 1027 29 10000 2.44 353 13:24 12.01.2022
4382 Clear 15 1028 29 10000 2.2 343 11:59 12.01.2022
4383 Clear 15 1028 29 10000 1.43 357 08:43 12.01.2022
4384 Clouds 16 1028 29 10000 1.13 349 07:50 12.01.2022
4385 Clouds 17 1028 29 10000 1.13 349 07:31 12.01.2022
4386 Clouds 20 1026 18 10000 1.25 359 23:53 11.01.2022
4387 Clouds 20 1026 18 10000 2.95 0 22:57 11.01.2022
4388 Clouds 20 1027 18 10000 3.11 6 22:23 11.01.2022
4389 Clouds 19 1028 18 10000 2.38 358 21:25 11.01.2022
4390 Clear 18 1030 19 10000 3.22 360 20:21 11.01.2022
4391 Clear 17 1031 21 10000 3.98 1 18:43 11.01.2022
4392 Clear 16 1030 23 10000 2.31 352 17:42 11.01.2022
4393 Clear 11 1030 27 10000 2.67 354 16:38 11.01.2022
4394 Clear 13 1030 30 10000 2.07 346 15:59 11.01.2022
4395 Clear 10 1029 31 10000 1.78 351 14:43 11.01.2022
4396 Clear 13 1029 30 10000 2.5 356 13:58 11.01.2022
4397 Clear 13 1029 30 10000 2.5 356 13:39 11.01.2022
4398 Clouds 13 1029 31 10000 2.04 340 13:21 11.01.2022
4399 Clouds 13 1029 32 10000 1.68 355 12:22 11.01.2022
4400 Clouds 14 1031 31 10000 2.31 349 10:24 11.01.2022
4401 Clouds 14 1030 32 10000 0.73 348 07:35 11.01.2022
4402 Clouds 15 1029 29 10000 2.24 338 01:47 11.01.2022
4403 Clouds 19 1029 23 10000 3.07 1 00:22 11.01.2022
4404 Clouds 20 1029 23 10000 3.07 1 23:37 10.01.2022
4405 Clouds 19 1029 24 10000 3.04 1 22:19 10.01.2022
4406 Clouds 19 1029 24 10000 3.04 1 21:55 10.01.2022
4407 Clouds 19 1029 24 10000 3.04 1 21:32 10.01.2022
4408 Clouds 18 1031 25 10000 3.12 4 20:58 10.01.2022
4409 Clouds 18 1032 27 10000 3.09 355 20:29 10.01.2022
4410 Clouds 19 1032 27 10000 3.09 355 19:47 10.01.2022
4411 Clouds 16 1033 28 10000 2.73 2 19:23 10.01.2022
4412 Clouds 16 1033 28 10000 2.73 2 18:54 10.01.2022
4413 Clouds 18 1033 28 10000 2.73 2 18:34 10.01.2022
4414 Clouds 14 1033 35 10000 2.13 349 16:43 10.01.2022
4415 Clouds 9 1032 37 10000 2.11 342 16:18 10.01.2022
4416 Clouds 12 1032 37 10000 2.04 347 14:41 10.01.2022
4417 Clouds 13 1031 36 10000 1.92 345 12:43 10.01.2022
4418 Clouds 12 1031 36 10000 1.76 343 11:40 10.01.2022
4419 Clouds 10 1031 36 10000 1.69 352 10:46 10.01.2022
4420 Clouds 14 1031 35 10000 1.9 341 08:59 10.01.2022
4421 Clear 15 1032 32 10000 1.9 345 05:51 10.01.2022
4422 Clear 16 1030 31 10000 1.98 325 01:35 10.01.2022
4423 Clear 17 1029 27 10000 2.37 335 00:44 10.01.2022
4424 Clear 18 1029 26 10000 2.58 347 00:19 10.01.2022
4425 Clear 18 1029 26 10000 2.77 3 22:43 09.01.2022
4426 Clear 18 1029 27 10000 2.9 5 21:57 09.01.2022
4427 Clear 18 1029 27 10000 2.9 5 21:37 09.01.2022
4428 Clear 17 1030 28 10000 2.93 6 21:18 09.01.2022
4429 Clear 17 1030 28 10000 2.93 6 20:45 09.01.2022
4430 Clear 17 1031 30 10000 3.04 10 20:26 09.01.2022
4431 Clear 17 1031 30 10000 3.04 10 19:38 09.01.2022
4432 Clear 16 1031 33 10000 3 10 19:20 09.01.2022
4433 Clear 16 1030 32 10000 2.99 9 18:37 09.01.2022
4434 Clear 16 1030 35 10000 2.51 4 17:48 09.01.2022
4435 Clear 11 1029 40 10000 2.36 357 17:29 09.01.2022
4436 Clear 13 1029 40 10000 2.36 357 16:49 09.01.2022
4437 Clear 12 1029 41 10000 2.3 354 15:46 09.01.2022
4438 Clear 13 1028 40 10000 2.47 355 15:25 09.01.2022
4439 Clear 13 1028 40 10000 2.47 355 14:39 09.01.2022
4440 Clear 11 1027 40 10000 2.45 352 13:48 09.01.2022
4441 Clear 13 1026 35 10000 2.65 356 11:58 09.01.2022
4442 Clear 14 1026 35 10000 2.65 356 11:38 09.01.2022
4443 Clear 10 1025 34 10000 2.66 354 09:55 09.01.2022
4444 Clear 12 1024 34 10000 2.84 354 09:24 09.01.2022
4445 Clear 15 1024 34 10000 2.71 354 07:54 09.01.2022
4446 Clear 17 1019 30 10000 2.58 336 01:30 09.01.2022
4447 Clear 19 1018 28 10000 2.41 343 00:53 09.01.2022
4448 Clear 20 1017 27 10000 2.79 355 23:37 08.01.2022
4449 Clear 20 1017 28 10000 3.01 0 22:58 08.01.2022
4450 Clear 20 1017 30 10000 3.01 1 21:32 08.01.2022
4451 Clear 19 1017 32 10000 2.79 352 20:44 08.01.2022
4452 Clear 18 1018 35 10000 2.81 2 20:23 08.01.2022
4453 Clear 18 1018 35 10000 2.81 2 19:46 08.01.2022
4454 Clear 18 1016 39 10000 1.1 10 17:49 08.01.2022
4455 Clear 15 1015 48 10000 1.02 340 16:57 08.01.2022
4456 Clear 12 1014 52 10000 1.38 357 15:37 08.01.2022
4457 Clear 13 1013 53 10000 0.66 343 14:38 08.01.2022
4458 Clouds 15 1011 52 10000 1.1 336 12:36 08.01.2022
4459 Clouds 16 1010 52 10000 1.39 338 10:49 08.01.2022
4460 Clouds 16 1009 50 10000 1.99 337 10:24 08.01.2022
4461 Clouds 15 1009 50 10000 1.99 337 09:34 08.01.2022
4462 Clouds 14 1007 51 10000 0.82 204 07:18 08.01.2022
4463 Clouds 19 1007 44 10000 1.79 348 01:52 08.01.2022
4464 Clouds 19 1006 38 10000 1.02 353 00:40 08.01.2022
4465 Clouds 23 1007 36 10000 0.88 164 22:40 07.01.2022
4466 Clouds 23 1009 38 10000 0.75 178 20:56 07.01.2022
4467 Clouds 21 1010 40 10000 0.94 184 19:56 07.01.2022
4468 Clouds 21 1010 40 10000 0.94 184 19:56 07.01.2022
4469 Clouds 20 1011 42 10000 1.09 122 18:54 07.01.2022
4470 Clouds 20 1011 42 10000 1.09 122 18:34 07.01.2022
4471 Clear 15 1010 51 10000 0.6 186 17:25 07.01.2022
4472 Clear 11 1010 56 10000 0.96 163 16:23 07.01.2022
4473 Clear 15 1010 53 10000 0.89 160 13:53 07.01.2022
4474 Clear 15 1010 52 10000 1.12 156 13:19 07.01.2022
4475 Clear 15 1010 52 10000 1.12 156 12:48 07.01.2022
4476 Clear 16 1012 52 10000 0.99 168 09:21 07.01.2022
4477 Clear 19 1013 47 10000 1.41 163 02:54 07.01.2022
4478 Clear 22 1013 46 10000 1.22 180 01:53 07.01.2022
4479 Clear 21 1013 39 10000 0.95 186 01:27 07.01.2022
4480 Clear 21 1013 39 10000 0.95 186 00:57 07.01.2022
4481 Clear 22 1013 34 10000 0.83 155 22:46 06.01.2022
4482 Clear 21 1016 36 10000 0.34 107 21:23 06.01.2022
4483 Clear 20 1017 37 10000 0.33 13 20:21 06.01.2022
4484 Clear 20 1017 37 10000 0.33 13 19:44 06.01.2022
4485 Clouds 22 1018 38 10000 0.54 343 17:54 06.01.2022
4486 Clouds 21 1018 38 10000 0.54 343 17:34 06.01.2022
4487 Clouds 14 1017 47 10000 0.91 327 16:42 06.01.2022
4488 Clouds 16 1017 54 10000 1.16 358 15:46 06.01.2022
4489 Clouds 18 1017 51 10000 1.22 345 15:25 06.01.2022
4490 Clouds 18 1017 51 10000 1.22 345 14:43 06.01.2022
4491 Clouds 18 1017 46 10000 1.17 343 14:18 06.01.2022
4492 Clouds 16 1017 45 10000 1.32 347 12:50 06.01.2022
4493 Clouds 14 1018 42 10000 1.7 345 11:43 06.01.2022
4494 Clouds 13 1018 41 10000 1.44 354 11:22 06.01.2022
4495 Clouds 15 1018 39 10000 1.07 328 08:52 06.01.2022
4496 Clear 18 1019 31 10000 0.38 233 01:24 06.01.2022
4497 Clear 19 1019 27 10000 0.33 18 23:38 05.01.2022
4498 Clear 19 1019 26 10000 0.68 12 22:57 05.01.2022
4499 Clear 19 1019 26 10000 0.68 12 22:33 05.01.2022
4500 Clear 19 1019 25 10000 0.71 27 21:49 05.01.2022
4501 Clear 18 1021 25 10000 0.54 356 21:20 05.01.2022
4502 Clear 17 1022 26 10000 0.16 32 20:19 05.01.2022
4503 Clear 16 1023 26 10000 0.5 12 18:50 05.01.2022
4504 Clear 18 1023 27 10000 0.54 331 17:44 05.01.2022
4505 Clear 14 1022 34 10000 1.12 11 16:51 05.01.2022
4506 Clear 12 1021 35 10000 0.16 340 15:26 05.01.2022
4507 Clear 15 1021 36 10000 0.37 283 14:24 05.01.2022
4508 Clear 15 1022 36 10000 0.36 37 13:25 05.01.2022
4509 Clouds 12 1022 38 10000 0.58 352 11:36 05.01.2022
4510 Clear 12 1023 40 10000 0.32 332 08:20 05.01.2022
4511 Clouds 12 1023 40 10000 0.51 342 06:25 05.01.2022
4512 Clouds 15 1022 31 10000 0.19 116 00:59 05.01.2022
4513 Clouds 15 1022 28 10000 0.32 57 23:29 04.01.2022
4514 Clouds 15 1022 28 10000 0.32 57 22:58 04.01.2022
4515 Clouds 15 1023 28 10000 0.47 77 21:31 04.01.2022
4516 Clouds 18 1026 28 10000 0.38 131 19:22 04.01.2022
4517 Clouds 14 1025 28 10000 0.14 73 17:54 04.01.2022
4518 Clouds 10 1025 36 10000 1.33 342 16:53 04.01.2022
4519 Clouds 10 1025 36 10000 1.33 342 16:30 04.01.2022
4520 Clouds 9 1023 39 10000 0.94 338 14:54 04.01.2022
4521 Clouds 9 1023 39 10000 0.94 338 14:36 04.01.2022
4522 Clouds 9 1022 39 10000 1.15 355 13:48 04.01.2022
4523 Clouds 10 1022 38 10000 0.2 47 10:59 04.01.2022
4524 Clouds 10 1022 38 10000 0.21 215 09:58 04.01.2022
4525 Clouds 10 1022 38 10000 0.19 289 08:35 04.01.2022
4526 Clouds 11 1022 36 10000 0.29 24 04:24 04.01.2022
4527 Clouds 14 1021 30 10000 0.43 340 00:42 04.01.2022
4528 Clouds 14 1021 25 10000 0.07 78 23:44 03.01.2022
4529 Clouds 13 1022 24 10000 0.46 161 22:21 03.01.2022
4530 Clouds 13 1022 24 10000 0.46 161 21:38 03.01.2022
4531 Clouds 13 1023 24 10000 1.24 163 20:34 03.01.2022
4532 Clouds 13 1025 23 10000 0.45 161 18:54 03.01.2022
4533 Clouds 13 1025 23 10000 0.67 162 18:29 03.01.2022
4534 Clouds 9 1024 30 10000 0.62 163 17:20 03.01.2022
4535 Clouds 8 1024 32 10000 0.13 151 16:28 03.01.2022
4536 Clouds 8 1024 32 10000 0.21 3 14:31 03.01.2022
4537 Clear 8 1024 30 10000 0.28 121 12:51 03.01.2022
4538 Clear 8 1025 30 10000 0.43 154 11:50 03.01.2022
4539 Clear 8 1025 30 10000 0.42 25 10:37 03.01.2022
4540 Clear 9 1025 30 10000 0.96 350 09:27 03.01.2022
4541 Clear 9 1026 30 10000 0.82 7 07:52 03.01.2022
4542 Clear 10 1026 30 10000 0.42 294 02:28 03.01.2022
4543 Clear 13 1026 22 10000 0.44 109 23:23 02.01.2022
4544 Clear 13 1026 22 10000 0.44 109 22:56 02.01.2022
4545 Clear 12 1027 22 10000 0.72 118 21:52 02.01.2022
4546 Clear 12 1028 22 10000 0.59 141 20:50 02.01.2022
4547 Clear 11 1029 23 10000 0.4 120 20:29 02.01.2022
4548 Clear 11 1029 23 10000 0.4 120 19:31 02.01.2022
4549 Clear 13 1030 23 10000 0.43 82 18:56 02.01.2022
4550 Clear 11 1030 25 10000 0.81 31 17:57 02.01.2022
4551 Clear 9 1030 25 10000 0.81 31 17:39 02.01.2022
4552 Clear 6 1030 29 10000 0.91 10 17:20 02.01.2022
4553 Clear 7 1030 32 10000 1.09 23 16:28 02.01.2022
4554 Clear 7 1029 32 10000 0.92 17 14:44 02.01.2022
4555 Clear 7 1029 32 10000 0.76 35 13:37 02.01.2022
4556 Clouds 4 1029 33 10000 0.69 35 12:32 02.01.2022
4557 Clouds 4 1029 33 10000 0.59 36 11:49 02.01.2022
4558 Clouds 4 1029 33 10000 0.55 48 10:54 02.01.2022
4559 Clouds 4 1029 33 10000 0.51 80 09:57 02.01.2022
4560 Clouds 5 1029 32 10000 0.49 27 07:34 02.01.2022
4561 Clouds 9 1026 31 10000 1.71 340 02:56 02.01.2022
4562 Clear 13 1023 23 10000 1.95 351 23:42 01.01.2022
4563 Clear 13 1023 23 10000 1.71 7 23:24 01.01.2022
4564 Clear 12 1023 23 10000 1.8 6 22:25 01.01.2022
4565 Clear 12 1023 23 10000 1.8 6 21:46 01.01.2022
4566 Clear 12 1023 24 10000 2.58 359 21:28 01.01.2022
4567 Clear 11 1024 26 10000 3.25 9 20:25 01.01.2022
4568 Clear 11 1024 26 10000 3.25 9 19:36 01.01.2022
4569 Clear 12 1024 29 10000 3.42 12 18:51 01.01.2022
4570 Clear 10 1023 32 10000 3.02 4 17:38 01.01.2022
4571 Clear 7 1022 40 10000 2.24 351 16:35 01.01.2022
4572 Clear 5 1021 42 10000 2.57 357 15:42 01.01.2022
4573 Clear 5 1020 42 10000 2.4 359 14:39 01.01.2022
4574 Clear 5 1018 42 10000 2.73 0 13:42 01.01.2022
4575 Clear 5 1016 43 10000 2.53 357 12:25 01.01.2022
4576 Clear 6 1015 43 10000 2.75 352 11:26 01.01.2022
4577 Clear 6 1015 43 10000 2.75 352 10:58 01.01.2022
4578 Clear 6 1014 43 10000 3.38 349 09:48 01.01.2022
4579 Clear 8 1013 44 10000 3.77 346 08:45 01.01.2022
4580 Clear 8 1012 46 10000 4.31 347 08:18 01.01.2022
4581 Clear 9 1012 46 10000 4.31 347 07:39 01.01.2022
4582 Clouds 9 1011 48 10000 4.53 346 06:44 01.01.2022
4583 Clouds 11 1007 60 10000 5.86 353 05:24 01.01.2022
4584 Clouds 11 1007 60 10000 5.86 353 04:35 01.01.2022
4585 Clouds 15 1001 65 10000 1.61 167 00:23 01.01.2022
4586 Clouds 14 1002 68 10000 0.78 124 22:34 31.12.2021
4587 Clouds 16 1002 69 10000 0.79 75 21:47 31.12.2021
4588 Clouds 14 1005 74 10000 0.42 126 19:56 31.12.2021
4589 Clouds 14 1006 78 10000 0.36 94 19:28 31.12.2021
4590 Clouds 12 1006 81 10000 0.24 121 18:24 31.12.2021
4591 Clouds 10 1006 81 10000 0.24 121 17:37 31.12.2021
4592 Clouds 10 1006 84 10000 0.65 336 16:56 31.12.2021
4593 Clouds 9 1006 85 10000 1.03 347 16:19 31.12.2021
4594 Clouds 9 1006 85 10000 1.03 347 15:51 31.12.2021
4595 Clouds 9 1006 84 10000 0.21 232 15:28 31.12.2021
4596 Clouds 9 1006 84 10000 0.21 232 14:41 31.12.2021
4597 Clouds 10 1006 85 10000 0.23 213 13:58 31.12.2021
4598 Clouds 9 1006 87 10000 0.46 221 13:23 31.12.2021
4599 Clouds 10 1007 87 10000 0.38 307 12:44 31.12.2021
4600 Clouds 10 1007 88 10000 0.88 197 11:43 31.12.2021
4601 Clouds 10 1008 89 10000 0.63 209 11:19 31.12.2021
4602 Clouds 10 1008 89 10000 0.63 209 10:30 31.12.2021
4603 Clouds 10 1008 89 10000 0.26 265 09:35 31.12.2021
4604 Clouds 11 1009 88 10000 1.43 328 08:56 31.12.2021
4605 Clouds 10 1010 86 10000 1.33 318 08:25 31.12.2021
4606 Clouds 10 1010 86 10000 1.33 318 07:30 31.12.2021
4607 Clouds 11 1012 91 10000 2.66 179 23:23 30.12.2021
4608 Clouds 13 1012 91 10000 2.66 179 22:33 30.12.2021
4609 Clouds 14 1012 93 10000 1.87 179 21:51 30.12.2021
4610 Clouds 11 1012 93 10000 1.87 179 21:33 30.12.2021
4611 Clouds 13 1014 94 10000 1.54 180 20:44 30.12.2021
4612 Clouds 13 1015 95 10000 0.61 187 20:24 30.12.2021
4613 Clouds 12 1015 95 10000 0.61 187 19:43 30.12.2021
4614 Clouds 11 1015 94 10000 0.65 319 18:29 30.12.2021
4615 Rain 10 1015 94 10000 0.65 319 17:45 30.12.2021
4616 Clouds 9 1014 95 5464 0.78 333 16:19 30.12.2021
4617 Clouds 9 1014 95 5464 0.78 333 15:42 30.12.2021
4618 Clouds 8 1014 94 9544 0.91 358 14:38 30.12.2021
4619 Clouds 8 1014 95 8879 1.6 1 13:33 30.12.2021
4620 Clouds 9 1014 95 5378 2.19 344 12:40 30.12.2021
4621 Clouds 9 1014 94 5913 1.66 3 10:58 30.12.2021
4622 Clouds 9 1013 93 8210 1.62 357 09:58 30.12.2021
4623 Rain 9 1013 93 3804 1.98 348 08:56 30.12.2021
4624 Rain 10 1012 89 7890 1.15 138 06:52 30.12.2021
4625 Clouds 11 1011 76 10000 2.43 143 03:42 30.12.2021
4626 Clouds 11 1011 78 10000 3.38 153 02:47 30.12.2021
4627 Clouds 11 1010 77 10000 4.93 175 23:43 29.12.2021
4628 Clouds 11 1009 72 10000 4.91 173 23:23 29.12.2021
4629 Clouds 10 1009 68 10000 4.79 172 22:21 29.12.2021
4630 Clouds 10 1009 68 10000 4.79 172 21:43 29.12.2021
4631 Clouds 13 1010 63 10000 4.09 168 20:39 29.12.2021
4632 Clouds 9 1011 56 10000 3.99 165 19:50 29.12.2021
4633 Clear 10 1012 56 10000 3.4 156 18:54 29.12.2021
4634 Clear 9 1011 61 10000 2.87 155 17:57 29.12.2021
4635 Clear 7 1011 68 10000 2.03 158 17:28 29.12.2021
4636 Clear 8 1011 68 10000 2.03 158 16:44 29.12.2021
4637 Clear 7 1011 75 10000 1.97 162 16:19 29.12.2021
4638 Clear 7 1010 75 10000 1.58 129 14:24 29.12.2021
4639 Clouds 5 1010 74 10000 1.14 133 12:48 29.12.2021
4640 Clouds 6 1009 70 10000 1.92 144 12:20 29.12.2021
4641 Clouds 5 1009 69 10000 1.85 147 10:31 29.12.2021
4642 Clouds 6 1009 69 10000 1.3 160 08:24 29.12.2021
4643 Clouds 10 1008 66 10000 1.72 173 06:45 29.12.2021
4644 Clouds 10 1008 67 10000 1.14 170 06:24 29.12.2021
4645 Clouds 10 1008 67 10000 1.14 170 05:42 29.12.2021
4646 Clouds 9 1007 66 10000 0.65 163 03:20 29.12.2021
4647 Clouds 9 1007 66 10000 0.65 163 03:20 29.12.2021
4648 Clouds 11 1006 64 10000 0.39 185 00:24 29.12.2021
4649 Clouds 12 1006 64 10000 0.39 185 23:49 28.12.2021
4650 Clouds 13 1006 62 10000 0.42 159 22:50 28.12.2021
4651 Clouds 11 1006 62 10000 0.93 173 22:24 28.12.2021
4652 Clouds 12 1006 62 10000 0.93 173 21:53 28.12.2021
4653 Clouds 11 1007 65 10000 1.44 171 20:49 28.12.2021
4654 Clouds 12 1008 66 10000 1.29 164 19:50 28.12.2021
4655 Clouds 11 1009 69 10000 0.51 186 18:50 28.12.2021
4656 Clouds 10 1008 72 10000 0.68 217 18:23 28.12.2021
4657 Clouds 9 1008 74 10000 0.88 202 16:35 28.12.2021
4658 Clouds 9 1007 74 10000 0.74 196 15:52 28.12.2021
4659 Clouds 5 1007 74 10000 0.71 201 15:27 28.12.2021
4660 Clouds 5 1007 74 10000 0.71 201 14:53 28.12.2021
4661 Clouds 9 1007 74 10000 0.8 219 14:21 28.12.2021
4662 Clouds 9 1007 74 10000 0.8 219 13:54 28.12.2021
4663 Clouds 9 1007 74 10000 0.8 219 13:33 28.12.2021
4664 Clouds 9 1007 76 10000 0.7 256 12:55 28.12.2021
4665 Clouds 10 1006 73 10000 0.48 290 12:18 28.12.2021
4666 Clouds 8 1006 70 10000 0.89 198 09:32 28.12.2021
4667 Clouds 8 1006 69 10000 1.57 146 07:33 28.12.2021
4668 Clouds 9 1005 81 10000 4.41 176 03:31 28.12.2021
4669 Clouds 13 1004 53 10000 6.58 193 23:37 27.12.2021
4670 Clouds 13 1006 46 10000 5.29 192 22:20 27.12.2021
4671 Clouds 14 1006 46 10000 5.29 192 21:30 27.12.2021
4672 Clouds 13 1008 43 10000 4.56 186 20:32 27.12.2021
4673 Clouds 15 1010 40 10000 3.99 175 19:47 27.12.2021
4674 Clear 11 1011 40 10000 3.52 174 18:57 27.12.2021
4675 Clear 10 1012 43 10000 2.46 174 17:51 27.12.2021
4676 Clear 9 1012 48 10000 1.22 179 17:28 27.12.2021
4677 Clear 8 1012 50 10000 1.15 185 15:56 27.12.2021
4678 Clear 6 1012 50 10000 1.49 180 15:19 27.12.2021
4679 Clear 8 1012 49 10000 1.79 178 14:22 27.12.2021
4680 Clear 9 1011 52 10000 1.6 178 12:52 27.12.2021
4681 Clear 5 1012 51 10000 1.54 184 10:40 27.12.2021
4682 Clear 6 1012 51 10000 1.68 195 10:22 27.12.2021
4683 Clear 10 1013 52 10000 1.71 198 08:43 27.12.2021
4684 Clear 6 1014 51 10000 2.11 193 07:34 27.12.2021
4685 Clear 8 1013 46 10000 1.74 195 06:29 27.12.2021
4686 Clear 13 1012 38 10000 0.79 134 01:52 27.12.2021
4687 Clear 14 1012 32 10000 1.52 166 23:49 26.12.2021
4688 Clear 14 1012 33 10000 1.71 162 23:19 26.12.2021
4689 Clear 14 1012 35 10000 2.27 162 21:37 26.12.2021
4690 Clear 13 1013 40 10000 3.12 168 19:57 26.12.2021
4691 Clear 12 1013 43 10000 2.8 153 18:46 26.12.2021
4692 Clear 12 1012 46 10000 2.19 163 18:22 26.12.2021
4693 Clear 10 1010 56 10000 3.35 207 15:54 26.12.2021
4694 Clear 9 1008 56 10000 6.3 206 13:51 26.12.2021
4695 Clear 10 1008 56 10000 6.3 206 13:32 26.12.2021
4696 Clouds 9 1007 63 10000 6.9 199 12:37 26.12.2021
4697 Clouds 9 1007 64 10000 6.86 199 12:37 26.12.2021
4698 Clouds 10 1007 74 10000 7.23 195 11:56 26.12.2021
4699 Clouds 10 1007 82 10000 8.13 190 09:42 26.12.2021
4700 Clouds 10 1007 72 10000 7.13 194 08:59 26.12.2021
4701 Clouds 9 1007 72 10000 7.13 194 08:38 26.12.2021
4702 Clear 10 1008 62 10000 7.21 190 06:47 26.12.2021
4703 Clear 17 1006 44 10000 7.73 189 00:45 26.12.2021
4704 Clear 18 1006 38 10000 7.71 186 23:49 25.12.2021
4705 Clear 18 1007 38 10000 6.67 187 23:26 25.12.2021
4706 Clear 19 1008 41 10000 6.18 182 22:22 25.12.2021
4707 Clear 18 1010 46 10000 6.52 180 20:48 25.12.2021
4708 Clear 15 1012 59 10000 5.42 167 19:21 25.12.2021
4709 Clear 14 1012 59 10000 5.42 167 18:54 25.12.2021
4710 Clear 8 1013 76 10000 1.6 151 16:58 25.12.2021
4711 Clear 8 1013 81 10000 1.4 151 16:18 25.12.2021
4712 Clear 11 1012 80 10000 1.41 143 14:38 25.12.2021
4713 Clear 12 1012 77 10000 1.15 139 12:43 25.12.2021
4714 Clear 9 1012 75 10000 1.21 147 11:37 25.12.2021
4715 Clear 13 1011 73 10000 1.86 158 09:49 25.12.2021
4716 Clear 14 1011 69 10000 1.94 176 07:54 25.12.2021
4717 Clear 16 1005 53 10000 2.2 172 02:22 25.12.2021
4718 Clear 20 1005 47 10000 0.55 207 00:33 25.12.2021
4719 Clear 21 1004 44 10000 1 216 23:38 24.12.2021
4720 Clear 18 1004 55 10000 3.28 195 19:39 24.12.2021
4721 Clouds 18 1005 60 10000 3.45 201 19:21 24.12.2021
4722 Clouds 14 1005 76 10000 3.5 196 16:50 24.12.2021
4723 Rain 13 1004 78 10000 3.83 192 16:21 24.12.2021
4724 Clouds 13 1004 78 10000 3.83 192 15:46 24.12.2021
4725 Clouds 13 1004 77 10000 3.64 193 14:46 24.12.2021
4726 Clear 14 1003 76 10000 4.68 189 14:23 24.12.2021
4727 Clear 13 1003 76 10000 4.68 189 13:37 24.12.2021
4728 Clouds 13 1003 76 10000 5.96 189 12:48 24.12.2021
4729 Clouds 14 1004 76 10000 5.22 190 11:52 24.12.2021
4730 Clouds 15 1004 76 10000 6.23 183 11:26 24.12.2021
4731 Clouds 15 1004 76 10000 6.23 183 10:53 24.12.2021
4732 Clouds 15 1003 75 10000 7.39 185 10:22 24.12.2021
4733 Clouds 15 1005 79 10000 7.75 182 08:25 24.12.2021
4734 Clouds 15 1005 79 10000 7.75 182 07:50 24.12.2021
4735 Clouds 16 1006 85 10000 7.66 171 02:52 24.12.2021
4736 Rain 16 1008 77 10000 7.64 175 00:19 24.12.2021
4737 Clouds 17 1008 81 10000 7.52 173 23:23 23.12.2021
4738 Rain 17 1008 81 10000 7.52 173 22:39 23.12.2021
4739 Clouds 17 1009 79 10000 7.07 179 22:20 23.12.2021
4740 Rain 18 1009 79 10000 7.07 179 21:33 23.12.2021
4741 Rain 18 1011 72 10000 5.02 168 20:20 23.12.2021
4742 Clouds 16 1014 91 10000 2.24 164 18:37 23.12.2021
4743 Clouds 17 1013 81 8726 1.26 215 17:57 23.12.2021
4744 Clouds 16 1013 77 10000 1.64 157 16:57 23.12.2021
4745 Clouds 17 1013 71 10000 0.54 244 16:25 23.12.2021
4746 Clouds 17 1013 71 10000 0.54 244 15:32 23.12.2021
4747 Clouds 16 1013 66 10000 0.67 167 14:54 23.12.2021
4748 Clouds 16 1013 66 10000 0.67 167 14:36 23.12.2021
4749 Clouds 16 1012 52 10000 0.82 173 13:22 23.12.2021
4750 Clouds 16 1013 43 10000 1.58 186 10:54 23.12.2021
4751 Clouds 14 1014 37 10000 3.11 165 09:49 23.12.2021
4752 Clouds 14 1015 37 10000 1.19 171 09:26 23.12.2021
4753 Rain 14 1016 37 10000 1.01 180 08:25 23.12.2021
4754 Clouds 15 1016 35 10000 1.09 146 04:36 23.12.2021
4755 Clouds 20 1015 26 10000 0.08 131 23:33 22.12.2021
4756 Clouds 19 1015 25 10000 0.89 161 22:49 22.12.2021
4757 Clouds 17 1016 25 10000 0.68 154 21:57 22.12.2021
4758 Clouds 17 1017 25 10000 0.76 121 21:29 22.12.2021
4759 Clouds 17 1017 25 10000 0.76 121 20:52 22.12.2021
4760 Clouds 15 1017 25 10000 0.76 121 20:33 22.12.2021
4761 Clouds 15 1019 25 10000 0.05 74 19:37 22.12.2021
4762 Clouds 14 1019 27 10000 0.78 165 18:18 22.12.2021
4763 Clouds 15 1019 27 10000 0.78 165 17:35 22.12.2021
4764 Clouds 11 1019 36 10000 0.53 183 15:49 22.12.2021
4765 Clouds 11 1019 36 10000 0.58 175 13:46 22.12.2021
4766 Clouds 11 1019 32 10000 0.28 264 12:44 22.12.2021
4767 Clouds 11 1019 32 10000 0.38 335 11:37 22.12.2021
4768 Clouds 12 1020 32 10000 0.43 167 09:43 22.12.2021
4769 Clouds 12 1021 32 10000 0.63 183 07:55 22.12.2021
4770 Clouds 13 1021 32 10000 0.01 16 05:51 22.12.2021
4771 Clouds 13 1021 32 10000 0.01 16 05:31 22.12.2021
4772 Clouds 13 1021 31 10000 0.22 107 04:55 22.12.2021
4773 Clouds 13 1021 31 10000 0.22 107 04:31 22.12.2021
4774 Clouds 13 1021 31 10000 0.5 162 03:34 22.12.2021
4775 Clouds 14 1020 30 10000 0.61 214 02:25 22.12.2021
4776 Clouds 21 1019 22 10000 0.5 151 23:47 21.12.2021
4777 Clouds 23 1020 21 10000 0.34 112 22:29 21.12.2021
4778 Clouds 23 1020 21 10000 0.34 112 21:53 21.12.2021
4779 Clouds 22 1021 22 10000 0.46 57 21:26 21.12.2021
4780 Clouds 16 1023 23 10000 1.2 4 20:24 21.12.2021
4781 Clouds 16 1023 23 10000 1.2 4 19:52 21.12.2021
4782 Clouds 16 1023 23 10000 1.2 4 19:31 21.12.2021
4783 Clouds 15 1023 24 10000 0.19 17 18:23 21.12.2021
4784 Clouds 15 1023 24 10000 0.19 17 17:52 21.12.2021
4785 Clouds 12 1023 29 10000 0.48 14 16:47 21.12.2021
4786 Clouds 11 1023 33 10000 0.56 357 15:34 21.12.2021
4787 Clouds 11 1023 31 10000 1.33 356 13:55 21.12.2021
4788 Clouds 11 1023 31 10000 1.33 356 13:36 21.12.2021
4789 Clouds 11 1023 33 10000 1.56 348 12:25 21.12.2021
4790 Clouds 11 1023 33 10000 1.59 351 10:38 21.12.2021
4791 Clouds 11 1023 34 10000 1.66 342 09:42 21.12.2021
4792 Clouds 11 1023 34 10000 1.78 1 08:55 21.12.2021
4793 Clouds 12 1024 35 10000 1.29 347 07:42 21.12.2021
4794 Clouds 12 1024 36 10000 1.24 343 07:19 21.12.2021
4795 Clouds 14 1023 37 10000 0.63 314 03:24 21.12.2021
4796 Clouds 14 1022 33 10000 0.5 323 01:19 21.12.2021
4797 Clouds 18 1021 25 10000 0.08 136 23:54 20.12.2021
4798 Clouds 19 1021 24 10000 0.05 209 22:35 20.12.2021
4799 Clouds 20 1021 24 10000 0.28 31 21:51 20.12.2021
4800 Clouds 20 1022 24 10000 0.39 18 21:24 20.12.2021
4801 Clouds 19 1022 24 10000 0.39 18 20:51 20.12.2021
4802 Clear 19 1024 24 10000 0.56 358 20:19 20.12.2021
4803 Clear 18 1024 24 10000 0.56 358 19:36 20.12.2021
4804 Clouds 18 1024 25 10000 0.44 53 19:18 20.12.2021
4805 Clouds 14 1024 24 10000 0.48 51 18:30 20.12.2021
4806 Clouds 14 1024 26 10000 0.54 347 17:49 20.12.2021
4807 Clouds 12 1024 32 10000 0.67 356 16:46 20.12.2021
4808 Clear 10 1023 34 10000 0.76 348 15:57 20.12.2021
4809 Clear 10 1023 34 10000 0.76 348 15:31 20.12.2021
4810 Clear 10 1022 34 10000 0.69 358 13:31 20.12.2021
4811 Clear 11 1022 34 10000 0.82 353 11:48 20.12.2021
4812 Clear 11 1022 34 10000 0.58 14 10:36 20.12.2021
4813 Clear 11 1021 34 10000 0.46 323 09:39 20.12.2021
4814 Clear 12 1021 35 10000 0.25 32 08:49 20.12.2021
4815 Clear 12 1021 35 10000 0.25 32 08:31 20.12.2021
4816 Clear 12 1022 35 10000 0.23 133 07:32 20.12.2021
4817 Clouds 12 1022 36 10000 0.04 308 06:39 20.12.2021
4818 Clear 19 1019 27 10000 0.76 155 00:20 20.12.2021
4819 Clear 19 1019 26 10000 0.85 157 22:56 19.12.2021
4820 Clear 20 1020 26 10000 0.73 152 22:24 19.12.2021
4821 Clear 20 1020 26 10000 0.73 152 21:32 19.12.2021
4822 Clear 19 1021 26 10000 0.42 134 20:42 19.12.2021
4823 Clear 19 1022 27 10000 0.36 97 20:23 19.12.2021
4824 Clear 18 1022 27 10000 0.36 97 19:41 19.12.2021
4825 Clear 18 1023 27 10000 0.27 34 18:37 19.12.2021
4826 Clear 14 1023 29 10000 0.44 36 17:53 19.12.2021
4827 Clear 12 1022 37 10000 0.35 9 17:28 19.12.2021
4828 Clear 9 1022 39 10000 0.36 50 16:27 19.12.2021
4829 Clear 9 1022 38 10000 0.46 36 15:52 19.12.2021
4830 Clear 10 1022 38 10000 0.48 6 15:24 19.12.2021
4831 Clear 10 1022 38 10000 0.48 6 14:45 19.12.2021
4832 Clear 10 1021 38 10000 0.42 21 13:27 19.12.2021
4833 Clear 10 1021 38 10000 0.42 21 12:59 19.12.2021
4834 Clear 10 1021 38 10000 0.36 9 12:29 19.12.2021
4835 Clear 10 1021 38 10000 0.36 9 11:37 19.12.2021
4836 Clear 10 1021 37 10000 0.54 16 10:49 19.12.2021
4837 Clear 11 1021 38 10000 0.38 36 10:22 19.12.2021
4838 Clear 11 1022 38 10000 0.34 25 08:50 19.12.2021
4839 Clouds 11 1023 38 10000 0.55 2 06:45 19.12.2021
4840 Clouds 15 1023 37 10000 0.6 333 01:52 19.12.2021
4841 Clouds 15 1022 31 10000 0.52 341 00:54 19.12.2021
4842 Clouds 16 1022 27 10000 0.9 30 23:18 18.12.2021
4843 Clouds 15 1023 27 10000 1.22 23 22:24 18.12.2021
4844 Clouds 15 1023 27 10000 1.22 23 21:44 18.12.2021
4845 Clouds 15 1025 28 10000 1.61 12 21:25 18.12.2021
4846 Clouds 20 1025 28 10000 1.61 12 20:43 18.12.2021
4847 Clouds 14 1026 30 10000 1.75 10 19:38 18.12.2021
4848 Clouds 12 1027 34 10000 1.64 12 18:25 18.12.2021
4849 Clouds 15 1027 34 10000 1.64 12 17:49 18.12.2021
4850 Clouds 11 1027 39 10000 1.52 1 16:48 18.12.2021
4851 Clouds 9 1027 42 10000 1.7 353 16:20 18.12.2021
4852 Clouds 10 1027 42 10000 1.82 354 14:54 18.12.2021
4853 Clouds 10 1026 42 10000 1.94 353 13:58 18.12.2021
4854 Clear 10 1026 41 10000 1.95 356 11:57 18.12.2021
4855 Clear 10 1025 41 10000 1.95 357 09:59 18.12.2021
4856 Clear 10 1025 41 10000 1.95 357 09:32 18.12.2021
4857 Clear 11 1026 40 10000 2.31 356 08:36 18.12.2021
4858 Clear 12 1026 36 10000 2.42 352 07:24 18.12.2021
4859 Clear 14 1024 30 10000 3.24 349 01:46 18.12.2021
4860 Clear 16 1022 26 10000 3.94 1 23:51 17.12.2021
4861 Clear 16 1022 27 10000 3.91 2 22:51 17.12.2021
4862 Clear 15 1023 28 10000 4.14 4 21:49 17.12.2021
4863 Clear 15 1023 31 10000 4.21 3 20:44 17.12.2021
4864 Clear 18 1024 34 10000 4.19 4 19:58 17.12.2021
4865 Clear 14 1025 38 10000 4.22 3 18:40 17.12.2021
4866 Clear 14 1025 44 10000 3.52 4 18:18 17.12.2021
4867 Clear 10 1024 52 10000 2.6 1 16:57 17.12.2021
4868 Clear 10 1024 59 10000 2.58 357 16:28 17.12.2021
4869 Clear 10 1024 59 10000 2.58 357 15:51 17.12.2021
4870 Clear 10 1023 59 10000 2.86 357 14:43 17.12.2021
4871 Clear 10 1022 59 10000 2.8 359 13:55 17.12.2021
4872 Clear 10 1022 59 10000 2.77 357 12:37 17.12.2021
4873 Clear 10 1021 58 10000 2.74 353 10:42 17.12.2021
4874 Clear 9 1021 57 10000 2.65 353 09:47 17.12.2021
4875 Clear 11 1021 55 10000 2.81 352 08:43 17.12.2021
4876 Clear 11 1021 54 10000 2.64 353 08:18 17.12.2021
4877 Clouds 10 1021 60 10000 2.04 319 04:57 17.12.2021
4878 Clouds 11 1018 54 10000 2.94 344 00:58 17.12.2021
4879 Clouds 12 1017 51 10000 1.18 12 22:44 16.12.2021
4880 Clouds 11 1018 52 10000 0.69 15 22:22 16.12.2021
4881 Clouds 15 1018 52 10000 0.69 15 21:43 16.12.2021
4882 Clouds 14 1018 53 10000 1.29 8 20:42 16.12.2021
4883 Clouds 13 1019 54 10000 0.83 360 20:21 16.12.2021
4884 Clouds 13 1019 54 10000 0.83 360 20:21 16.12.2021
4885 Clouds 13 1019 54 10000 0.83 360 19:30 16.12.2021
4886 Clouds 11 1020 54 10000 0.65 6 18:33 16.12.2021
4887 Clouds 10 1020 57 10000 0.6 3 17:46 16.12.2021
4888 Clouds 7 1021 61 10000 0.3 230 16:24 16.12.2021
4889 Clouds 7 1021 61 10000 0.3 230 15:38 16.12.2021
4890 Clouds 7 1021 60 10000 0.31 267 13:45 16.12.2021
4891 Clouds 7 1021 53 10000 0.48 205 12:26 16.12.2021
4892 Clouds 8 1022 52 10000 0.45 222 11:19 16.12.2021
4893 Clouds 6 1022 52 10000 0.45 222 10:39 16.12.2021
4894 Clouds 7 1022 52 10000 0.69 224 09:43 16.12.2021
4895 Clear 7 1024 66 10000 0.63 234 06:23 16.12.2021
4896 Clear 8 1024 67 10000 0.69 271 04:33 16.12.2021
4897 Clouds 11 1022 59 10000 0.5 174 23:58 15.12.2021
4898 Clouds 11 1023 59 10000 0.27 207 22:50 15.12.2021
4899 Clouds 10 1023 62 10000 0.25 173 22:21 15.12.2021
4900 Clouds 10 1023 62 10000 0.25 173 21:31 15.12.2021
4901 Clouds 10 1024 66 10000 0.57 344 20:51 15.12.2021
4902 Clouds 9 1025 71 10000 0.78 298 19:53 15.12.2021
4903 Clouds 9 1025 76 10000 1.01 336 19:18 15.12.2021
4904 Clouds 8 1024 78 10000 1.17 355 18:20 15.12.2021
4905 Clouds 8 1024 78 10000 1.17 355 17:45 15.12.2021
4906 Clouds 7 1023 80 10000 1.45 2 17:21 15.12.2021
4907 Clouds 6 1022 81 10000 1.1 349 15:49 15.12.2021
4908 Clouds 5 1022 81 10000 1.1 349 15:30 15.12.2021
4909 Clouds 6 1022 79 10000 0.59 349 14:59 15.12.2021
4910 Clouds 7 1021 78 10000 0.87 271 13:45 15.12.2021
4911 Clouds 5 1019 78 10000 0.81 210 11:52 15.12.2021
4912 Clouds 8 1018 85 10000 1.73 194 10:22 15.12.2021
4913 Clouds 9 1015 88 10000 1.75 206 08:26 15.12.2021
4914 Clouds 9 1011 89 8395 2.04 221 05:53 15.12.2021
4915 Clouds 13 1001 75 10000 6.31 188 00:39 15.12.2021
4916 Clouds 12 1001 88 10000 5.67 142 23:31 14.12.2021
4917 Rain 12 1002 85 3320 6.63 170 22:44 14.12.2021
4918 Rain 15 1002 77 10000 9.12 148 21:43 14.12.2021
4919 Clouds 15 1007 83 4167 7.46 153 20:23 14.12.2021
4920 Clouds 15 1007 83 4167 7.46 153 19:37 14.12.2021
4921 Clouds 15 1007 80 9627 7.35 154 18:39 14.12.2021
4922 Clouds 15 1007 71 10000 7.03 157 17:56 14.12.2021
4923 Clouds 14 1008 75 8391 6.82 158 16:47 14.12.2021
4924 Clouds 14 1009 72 10000 6.64 159 16:29 14.12.2021
4925 Clouds 14 1009 71 10000 6.52 154 14:32 14.12.2021
4926 Clouds 14 1010 69 10000 5.32 169 13:22 14.12.2021
4927 Clouds 13 1010 67 10000 6.06 170 11:51 14.12.2021
4928 Clouds 13 1011 67 10000 6.78 173 11:22 14.12.2021
4929 Clouds 13 1011 69 10000 5.68 167 09:55 14.12.2021
4930 Clouds 13 1012 69 10000 6.32 174 09:19 14.12.2021
4931 Clouds 13 1013 69 10000 5.9 178 08:22 14.12.2021
4932 Clouds 13 1013 69 10000 5.9 178 07:42 14.12.2021
4933 Clouds 15 1012 47 10000 6.47 180 00:35 14.12.2021
4934 Clouds 16 1012 36 10000 6.7 175 22:33 13.12.2021
4935 Clouds 16 1013 31 10000 6.5 172 21:49 13.12.2021
4936 Clouds 17 1014 28 10000 5.52 167 20:58 13.12.2021
4937 Clouds 18 1014 28 10000 5.52 167 20:31 13.12.2021
4938 Clouds 18 1015 29 10000 4.76 170 19:51 13.12.2021
4939 Clouds 15 1016 28 10000 2.71 180 17:56 13.12.2021
4940 Clouds 13 1016 31 10000 2.02 181 17:23 13.12.2021
4941 Clouds 13 1015 34 10000 1.66 177 15:49 13.12.2021
4942 Clouds 11 1015 32 10000 1.76 168 15:18 13.12.2021
4943 Clouds 10 1014 31 10000 1.71 168 13:38 13.12.2021
4944 Clear 12 1014 30 10000 1.22 174 12:42 13.12.2021
4945 Clear 13 1014 28 10000 1.5 167 11:54 13.12.2021
4946 Clear 13 1014 28 10000 1.5 167 11:35 13.12.2021
4947 Clear 13 1014 28 10000 1.74 161 10:43 13.12.2021
4948 Clouds 13 1015 27 10000 1.84 163 08:52 13.12.2021
4949 Clouds 13 1015 26 10000 1.89 162 07:38 13.12.2021
4950 Clear 13 1015 26 10000 1.69 169 05:34 13.12.2021
4951 Clear 19 1014 21 10000 0.81 163 00:43 13.12.2021
4952 Clear 19 1015 19 10000 0.78 155 22:22 12.12.2021
4953 Clear 20 1015 19 10000 0.78 155 21:35 12.12.2021
4954 Clear 17 1017 20 10000 0.39 112 19:40 12.12.2021
4955 Clouds 15 1018 21 10000 0.42 33 18:35 12.12.2021
4956 Clouds 11 1018 25 10000 0.21 354 17:26 12.12.2021
4957 Clouds 8 1018 32 10000 0.47 344 16:27 12.12.2021
4958 Clouds 6 1018 32 10000 0.47 344 15:41 12.12.2021
4959 Clouds 6 1018 32 10000 0.57 345 15:22 12.12.2021
4960 Clouds 6 1018 32 10000 0.57 345 14:30 12.12.2021
4961 Clouds 6 1018 32 10000 0.57 345 14:30 12.12.2021
4962 Clouds 6 1018 30 10000 0.2 60 12:57 12.12.2021
4963 Clouds 7 1018 29 10000 0.39 120 12:27 12.12.2021
4964 Clouds 8 1018 29 10000 0.39 120 11:44 12.12.2021
4965 Clouds 8 1018 29 10000 0.39 120 11:44 12.12.2021
4966 Clouds 8 1018 29 10000 0.62 132 11:20 12.12.2021
4967 Clouds 8 1019 28 10000 0.87 149 10:22 12.12.2021
4968 Clouds 9 1019 28 10000 0.88 149 08:54 12.12.2021
4969 Clouds 10 1019 28 10000 1 142 07:32 12.12.2021
4970 Clouds 10 1020 27 10000 0.78 156 05:57 12.12.2021
4971 Clouds 11 1020 27 10000 0.74 139 04:55 12.12.2021
4972 Clouds 11 1021 25 10000 0.24 185 02:58 12.12.2021
4973 Clouds 17 1020 19 10000 0.99 152 23:39 11.12.2021
4974 Clouds 19 1022 19 10000 1.01 148 22:22 11.12.2021
4975 Clouds 19 1022 19 10000 1.01 148 21:51 11.12.2021
4976 Clouds 13 1025 21 10000 0.48 81 20:29 11.12.2021
4977 Clouds 12 1026 23 10000 0.83 41 19:23 11.12.2021
4978 Clouds 15 1026 23 10000 0.71 52 18:52 11.12.2021
4979 Clouds 12 1026 24 10000 0.73 84 18:21 11.12.2021
4980 Clouds 12 1026 27 10000 0.69 30 17:20 11.12.2021
4981 Clouds 5 1026 33 10000 0.66 35 15:53 11.12.2021
4982 Clouds 5 1026 32 10000 0.87 33 15:27 11.12.2021
4983 Clear 8 1025 31 10000 0.57 8 12:57 11.12.2021
4984 Clear 9 1024 28 10000 0.51 29 11:25 11.12.2021
4985 Clear 9 1024 27 10000 0.67 28 09:46 11.12.2021
4986 Clear 5 1024 26 10000 0.53 8 08:23 11.12.2021
4987 Clear 13 1022 23 10000 1.74 338 02:23 11.12.2021
4988 Clouds 15 1021 19 10000 1.71 350 00:36 11.12.2021
4989 Clouds 16 1020 18 10000 3.19 354 23:21 10.12.2021
4990 Clouds 15 1020 19 10000 3.34 356 21:57 10.12.2021
4991 Clouds 15 1020 19 10000 3.34 356 21:31 10.12.2021
4992 Clouds 13 1021 32 10000 2.51 18 19:22 10.12.2021
4993 Clouds 14 1020 38 10000 2.48 24 18:21 10.12.2021
4994 Clouds 9 1020 47 10000 1.69 17 16:56 10.12.2021
4995 Clouds 9 1019 56 10000 1.27 13 16:29 10.12.2021
4996 Clouds 6 1019 56 10000 1.27 13 15:41 10.12.2021
4997 Clear 8 1017 58 10000 1.38 28 15:21 10.12.2021
4998 Clear 9 1016 60 10000 1.36 25 13:52 10.12.2021
4999 Clear 9 1015 62 10000 1.32 37 13:26 10.12.2021
5000 Clear 9 1016 60 10000 1.34 35 12:45 10.12.2021
5001 Clear 10 1015 61 10000 1.28 23 11:30 10.12.2021
5002 Clear 9 1015 63 10000 1.45 23 10:38 10.12.2021
5003 Clouds 10 1014 66 10000 1.26 0 09:19 10.12.2021
5004 Clouds 11 1012 71 10000 1.33 2 06:59 10.12.2021
5005 Clouds 15 1008 64 10000 2.57 5 02:50 10.12.2021
5006 Clouds 19 1005 49 10000 1.14 310 00:55 10.12.2021
5007 Clouds 18 1004 47 10000 1.25 258 23:37 09.12.2021
5008 Clouds 21 1004 47 10000 1.48 293 22:32 09.12.2021
5009 Clouds 18 1004 47 10000 1.78 279 21:59 09.12.2021
5010 Clouds 19 1005 49 10000 2.12 254 21:20 09.12.2021
5011 Clouds 18 1006 51 10000 2.56 217 20:29 09.12.2021
5012 Clouds 18 1006 55 10000 3.03 195 19:22 09.12.2021
5013 Clouds 18 1006 59 10000 3.12 191 18:50 09.12.2021
5014 Clouds 16 1006 65 10000 2.58 191 17:57 09.12.2021
5015 Clouds 15 1006 70 10000 1.97 192 17:28 09.12.2021
5016 Clouds 15 1006 70 10000 1.97 192 16:57 09.12.2021
5017 Clouds 13 1006 77 10000 1.56 193 16:20 09.12.2021
5018 Clouds 11 1006 75 10000 1.39 180 14:52 09.12.2021
5019 Clouds 12 1006 79 10000 1.23 160 13:51 09.12.2021
5020 Clouds 14 1006 74 10000 1.46 159 12:47 09.12.2021
5021 Clouds 15 1008 62 10000 1.36 150 11:25 09.12.2021
5022 Clouds 14 1008 57 10000 1.5 139 10:20 09.12.2021
5023 Clouds 14 1010 52 10000 1.3 140 06:53 09.12.2021
5024 Clouds 14 1010 46 10000 1.03 62 03:50 09.12.2021
5025 Clouds 24 1010 35 10000 3.51 158 00:25 09.12.2021
5026 Clouds 23 1010 35 10000 3.51 158 23:36 08.12.2021
5027 Clouds 25 1011 36 10000 3.26 162 22:57 08.12.2021
5028 Clouds 24 1012 37 10000 3.64 165 21:50 08.12.2021
5029 Clouds 25 1012 37 10000 3.64 165 21:32 08.12.2021
5030 Clouds 24 1013 38 10000 3.32 166 20:31 08.12.2021
5031 Clouds 21 1015 41 10000 2.4 164 19:55 08.12.2021
5032 Clouds 23 1016 44 10000 1.79 172 18:57 08.12.2021
5033 Clouds 21 1016 49 10000 1.69 167 18:22 08.12.2021
5034 Clear 17 1016 52 10000 1.42 147 16:49 08.12.2021
5035 Clear 10 1016 65 10000 0.6 155 15:41 08.12.2021
5036 Clear 14 1016 66 10000 1.07 142 15:21 08.12.2021
5037 Clouds 14 1015 61 10000 1.43 160 13:21 08.12.2021
5038 Clouds 16 1015 57 10000 0.19 17 10:42 08.12.2021
5039 Clouds 17 1016 54 10000 0.55 172 09:32 08.12.2021
5040 Clouds 16 1016 53 10000 1.12 188 08:31 08.12.2021
5041 Clouds 16 1015 50 10000 0.46 50 05:37 08.12.2021
5042 Clouds 20 1014 41 10000 1.65 68 00:41 08.12.2021
5043 Clouds 20 1013 31 10000 2.37 59 23:22 07.12.2021
5044 Clouds 21 1012 27 10000 0.76 36 21:25 07.12.2021
5045 Clouds 21 1013 27 10000 0.85 40 20:25 07.12.2021
5046 Clouds 23 1013 34 10000 0.71 63 18:59 07.12.2021
5047 Clouds 22 1012 33 10000 0.74 70 18:23 07.12.2021
5048 Clouds 20 1012 34 10000 0.14 318 17:27 07.12.2021
5049 Clouds 19 1012 34 10000 0.14 318 16:53 07.12.2021
5050 Clouds 19 1011 36 10000 0.53 4 16:25 07.12.2021
5051 Clouds 20 1010 34 10000 0.83 357 14:38 07.12.2021
5052 Clouds 19 1010 32 10000 0.87 359 13:41 07.12.2021
5053 Clouds 18 1009 28 10000 0.51 330 12:22 07.12.2021
5054 Clouds 19 1009 27 10000 0.73 328 11:19 07.12.2021
5055 Clouds 18 1009 27 10000 0.57 343 09:36 07.12.2021
5056 Clouds 18 1010 26 10000 0.58 354 07:35 07.12.2021
5057 Clouds 18 1010 23 10000 0.5 19 05:52 07.12.2021
5058 Clouds 17 1010 23 10000 1.95 340 05:26 07.12.2021
5059 Clouds 25 1011 19 10000 1.49 167 23:36 06.12.2021
5060 Clouds 24 1012 18 10000 2.41 171 22:41 06.12.2021
5061 Clouds 27 1013 18 10000 1.16 160 21:59 06.12.2021
5062 Clouds 28 1013 18 10000 1.16 160 21:31 06.12.2021
5063 Clouds 29 1014 17 10000 0.52 164 20:32 06.12.2021
5064 Clouds 24 1017 19 10000 0.75 171 19:24 06.12.2021
5065 Clouds 26 1017 19 10000 0.75 171 18:42 06.12.2021
5066 Clouds 23 1017 19 10000 0.66 148 17:54 06.12.2021
5067 Clouds 21 1017 19 10000 0.66 148 17:33 06.12.2021
5068 Clouds 16 1017 28 10000 0.31 16 15:52 06.12.2021
5069 Clouds 20 1017 29 10000 0.74 356 14:46 06.12.2021
5070 Clouds 19 1017 25 10000 2.22 345 13:35 06.12.2021
5071 Clouds 17 1017 25 10000 1.06 22 12:38 06.12.2021
5072 Clouds 20 1017 22 10000 1.44 356 10:28 06.12.2021
5073 Clouds 21 1018 19 10000 2.04 349 07:41 06.12.2021
5074 Clear 22 1018 17 10000 1.66 344 03:52 06.12.2021
5075 Clear 28 1017 12 10000 3.59 357 22:28 05.12.2021
5076 Clear 28 1017 12 10000 3.59 357 22:28 05.12.2021
5077 Clear 27 1018 14 10000 3.29 4 21:26 05.12.2021
5078 Clear 31 1018 14 10000 3.29 4 20:58 05.12.2021
5079 Clear 26 1020 16 10000 3.49 358 20:18 05.12.2021
5080 Clear 27 1020 18 10000 3.3 359 19:26 05.12.2021
5081 Clear 25 1020 19 10000 3.07 2 18:36 05.12.2021
5082 Clear 24 1020 22 10000 2.77 4 17:53 05.12.2021
5083 Clear 23 1020 22 10000 2.77 4 17:34 05.12.2021
5084 Clear 20 1020 27 10000 1.97 357 16:38 05.12.2021
5085 Clear 19 1020 35 10000 2.25 348 16:19 05.12.2021
5086 Clear 19 1020 39 10000 2.23 346 14:48 05.12.2021
5087 Clear 19 1020 39 10000 2.23 346 14:30 05.12.2021
5088 Clear 18 1019 39 10000 2.19 345 13:37 05.12.2021
5089 Clear 19 1019 38 10000 2.16 343 12:47 05.12.2021
5090 Clear 19 1019 33 10000 1.86 351 12:29 05.12.2021
5091 Clear 20 1019 33 10000 1.86 351 11:47 05.12.2021
5092 Clear 20 1019 31 10000 1.36 342 10:51 05.12.2021
5093 Clear 19 1019 28 10000 1.86 347 09:52 05.12.2021
5094 Clear 21 1020 27 10000 1 332 07:33 05.12.2021
5095 Clear 23 1018 20 10000 1.05 318 02:25 05.12.2021
5096 Clear 26 1017 13 10000 0.5 84 23:27 04.12.2021
5097 Clear 25 1018 13 10000 0.58 39 21:53 04.12.2021
5098 Clear 25 1019 13 10000 0.71 22 20:50 04.12.2021
5099 Clear 24 1020 14 10000 0.75 16 19:54 04.12.2021
5100 Clear 24 1020 14 10000 0.75 16 19:31 04.12.2021
5101 Clear 24 1020 15 10000 1 1 17:58 04.12.2021
5102 Clear 24 1020 15 10000 1 1 17:37 04.12.2021
5103 Clear 20 1020 19 10000 1.12 352 16:48 04.12.2021
5104 Clear 20 1020 19 10000 1.12 352 16:30 04.12.2021
5105 Clear 15 1019 29 10000 0.25 339 15:18 04.12.2021
5106 Clear 16 1018 26 10000 0.67 353 11:50 04.12.2021
5107 Clear 16 1018 26 10000 0.67 353 11:32 04.12.2021
5108 Clear 16 1018 23 10000 0.67 357 10:43 04.12.2021
5109 Clear 17 1018 23 10000 0.36 353 08:46 04.12.2021
5110 Clear 18 1018 19 10000 0.26 12 06:24 04.12.2021
5111 Clear 16 1018 18 10000 0.3 155 04:41 04.12.2021
5112 Clouds 26 1015 11 10000 0.29 109 00:18 04.12.2021
5113 Clouds 26 1015 11 10000 0.4 74 23:20 03.12.2021
5114 Clouds 26 1015 11 10000 0.4 74 22:41 03.12.2021
5115 Clouds 26 1017 11 10000 0.77 25 21:25 03.12.2021
5116 Clouds 26 1017 11 10000 0.77 25 20:48 03.12.2021
5117 Clouds 25 1018 11 10000 1.23 12 19:50 03.12.2021
5118 Clouds 24 1019 13 10000 0.9 11 18:34 03.12.2021
5119 Clouds 23 1019 13 10000 0.9 360 17:59 03.12.2021
5120 Clouds 20 1018 20 10000 0.57 344 15:36 03.12.2021
5121 Clouds 21 1017 20 10000 0.47 359 12:54 03.12.2021
5122 Clouds 18 1017 19 10000 0.14 289 11:39 03.12.2021
5123 Clouds 18 1017 19 10000 0.08 268 10:55 03.12.2021
5124 Clouds 20 1018 17 10000 0.21 342 08:26 03.12.2021
5125 Clouds 20 1018 17 10000 0.21 342 07:42 03.12.2021
5126 Clouds 21 1018 18 10000 0.62 351 04:35 03.12.2021
5127 Clouds 25 1017 17 10000 0.43 187 00:48 03.12.2021
5128 Clouds 31 1017 13 10000 0.31 122 23:47 02.12.2021
5129 Clouds 27 1017 13 10000 0.6 46 22:24 02.12.2021
5130 Clouds 31 1017 13 10000 0.6 46 21:35 02.12.2021
5131 Clouds 26 1018 13 10000 0.72 21 20:40 02.12.2021
5132 Clouds 25 1020 14 10000 1.18 6 19:57 02.12.2021
5133 Clouds 25 1020 15 10000 1.49 5 18:35 02.12.2021
5134 Clouds 21 1020 19 10000 1.46 347 16:33 02.12.2021
5135 Clouds 16 1020 24 10000 1.22 347 15:30 02.12.2021
5136 Clouds 19 1019 24 10000 1.09 345 14:51 02.12.2021
5137 Clouds 18 1019 23 10000 1.5 346 12:53 02.12.2021
5138 Clouds 18 1019 22 10000 1.46 342 12:19 02.12.2021
5139 Clear 19 1019 22 10000 1.33 342 10:41 02.12.2021
5140 Clear 20 1019 21 10000 1.33 340 09:25 02.12.2021
5141 Clear 20 1019 18 10000 1.06 345 06:45 02.12.2021
5142 Clear 26 1019 14 10000 2.41 352 00:57 02.12.2021
5143 Clear 28 1019 11 10000 3.23 2 23:30 01.12.2021
5144 Clear 28 1020 11 10000 3.91 6 22:25 01.12.2021
5145 Clear 28 1020 11 10000 3.91 6 21:42 01.12.2021
5146 Clear 27 1022 13 10000 4.19 5 20:18 01.12.2021
5147 Clear 31 1022 13 10000 4.19 5 19:37 01.12.2021
5148 Clear 27 1022 16 10000 3.33 6 17:51 01.12.2021
5149 Clear 23 1022 19 10000 2.79 360 16:59 01.12.2021
5150 Clear 20 1022 22 10000 2.71 355 15:47 01.12.2021
5151 Clear 20 1022 22 10000 2.7 352 14:30 01.12.2021
5152 Clear 21 1021 22 10000 3.05 353 13:36 01.12.2021
5153 Clear 22 1021 21 10000 3.31 351 10:44 01.12.2021
5154 Clear 22 1020 22 10000 2.58 357 10:20 01.12.2021
5155 Clear 23 1020 21 10000 3.05 355 08:51 01.12.2021
5156 Clear 23 1020 21 10000 3.16 346 07:56 01.12.2021
5157 Clear 23 1020 21 10000 2.58 354 07:27 01.12.2021
5158 Clear 24 1019 19 10000 2.63 349 03:53 01.12.2021
5159 Clear 25 1019 19 10000 3.23 348 03:20 01.12.2021
5160 Clear 30 1017 13 10000 3.74 349 00:20 01.12.2021
5161 Clear 30 1017 13 10000 3.74 349 00:20 01.12.2021
5162 Clear 30 1017 13 10000 4.32 358 23:29 30.11.2021
5163 Clear 30 1017 13 10000 4.32 358 22:31 30.11.2021
5164 Clear 29 1019 15 10000 4.32 5 20:47 30.11.2021
5165 Clear 28 1020 17 10000 4.33 4 20:25 30.11.2021
5166 Clear 28 1020 17 10000 4.33 4 19:39 30.11.2021
5167 Clear 30 1020 17 10000 4.37 4 18:53 30.11.2021
5168 Clear 28 1020 19 10000 3.7 1 17:46 30.11.2021
5169 Clear 23 1019 26 10000 2.29 351 16:19 30.11.2021
5170 Clear 21 1019 26 10000 2.59 349 14:34 30.11.2021
5171 Clear 21 1018 26 10000 2.62 353 13:41 30.11.2021
5172 Clear 23 1018 25 10000 2.34 350 12:54 30.11.2021
5173 Clear 23 1017 26 10000 2.02 349 12:21 30.11.2021
5174 Clear 23 1018 24 10000 2.42 348 11:26 30.11.2021
5175 Clear 24 1018 24 10000 2.42 348 10:36 30.11.2021
5176 Clear 25 1018 24 10000 1.91 348 08:58 30.11.2021
5177 Clear 25 1018 24 10000 1.91 348 08:32 30.11.2021
5178 Clear 22 1018 23 10000 2.18 345 07:59 30.11.2021
5179 Clear 22 1018 23 10000 1.56 339 06:38 30.11.2021
5180 Clear 22 1017 24 10000 0.6 300 01:50 30.11.2021
5181 Clear 25 1017 20 10000 0.27 324 01:28 30.11.2021
5182 Clear 28 1017 16 10000 0.3 26 23:50 29.11.2021
5183 Clear 29 1017 15 10000 0.49 36 23:19 29.11.2021
5184 Clear 29 1017 15 10000 0.49 36 22:42 29.11.2021
5185 Clear 29 1018 15 10000 0.88 13 22:23 29.11.2021
5186 Clear 28 1019 16 10000 0.91 12 21:21 29.11.2021
5187 Clear 28 1019 16 10000 0.91 12 20:54 29.11.2021
5188 Clear 27 1020 17 10000 1.28 8 20:21 29.11.2021
5189 Clear 27 1020 17 10000 1.28 8 19:42 29.11.2021
5190 Clear 26 1021 17 10000 1.55 8 19:21 29.11.2021
5191 Clear 26 1020 17 10000 1.51 7 18:42 29.11.2021
5192 Clear 23 1021 21 10000 0.77 347 17:22 29.11.2021
5193 Clear 23 1021 21 10000 0.77 347 16:50 29.11.2021
5194 Clear 18 1020 30 10000 0.92 339 16:24 29.11.2021
5195 Clear 18 1020 37 10000 1.02 340 14:47 29.11.2021
5196 Clear 18 1020 31 10000 1.13 345 14:23 29.11.2021
5197 Clear 19 1020 31 10000 1.2 344 13:23 29.11.2021
5198 Clear 19 1020 30 10000 0.78 342 12:20 29.11.2021
5199 Clear 19 1020 30 10000 0.78 342 11:30 29.11.2021
5200 Clear 19 1021 27 10000 0.85 340 10:27 29.11.2021
5201 Clear 20 1021 25 10000 0.68 342 07:48 29.11.2021
5202 Clear 20 1022 23 10000 0.69 345 05:52 29.11.2021
5203 Clear 22 1021 21 10000 0.62 319 01:30 29.11.2021
5204 Clear 25 1021 17 10000 0.3 334 00:35 29.11.2021
5205 Clear 28 1020 14 10000 0.37 39 23:41 28.11.2021
5206 Clear 28 1021 14 10000 1 23 22:29 28.11.2021
5207 Clear 28 1021 14 10000 1 23 21:41 28.11.2021
5208 Clear 27 1022 14 10000 1.39 13 20:44 28.11.2021
5209 Clear 26 1023 15 10000 1.72 10 19:53 28.11.2021
5210 Clear 25 1024 16 10000 1.89 7 18:42 28.11.2021
5211 Clear 24 1024 16 10000 1.5 6 18:23 28.11.2021
5212 Clear 24 1024 16 10000 1.5 6 17:46 28.11.2021
5213 Clear 22 1023 19 10000 1.24 350 17:18 28.11.2021
5214 Clear 18 1023 24 10000 1.26 345 16:28 28.11.2021
5215 Clear 18 1023 24 10000 1.26 345 15:52 28.11.2021
5216 Clear 17 1023 27 10000 1.18 346 14:56 28.11.2021
5217 Clear 17 1022 25 10000 1.16 350 14:29 28.11.2021
5218 Clear 18 1022 24 10000 1.14 348 12:55 28.11.2021
5219 Clear 18 1022 22 10000 1.44 344 11:56 28.11.2021
5220 Clear 18 1022 21 10000 1.41 346 10:37 28.11.2021
5221 Clear 19 1022 19 10000 1.52 341 10:18 28.11.2021
5222 Clear 19 1022 19 10000 1.52 341 09:36 28.11.2021
5223 Clear 19 1022 19 10000 1.52 341 09:36 28.11.2021
5224 Clear 19 1021 13 10000 0.8 351 05:50 28.11.2021
5225 Clear 26 1017 7 10000 1.12 16 23:23 27.11.2021
5226 Clouds 26 1019 7 10000 1.99 10 20:33 27.11.2021
5227 Clouds 23 1021 7 10000 1.66 9 18:47 27.11.2021
5228 Clouds 20 1020 7 10000 1.23 359 16:31 27.11.2021
5229 Clouds 15 1019 9 10000 1.3 346 15:32 27.11.2021
5230 Clouds 15 1019 8 10000 1.14 354 13:46 27.11.2021
5231 Clouds 15 1018 8 10000 0.96 338 12:29 27.11.2021
5232 Clear 15 1018 8 10000 0.07 40 10:31 27.11.2021
5233 Clear 15 1018 7 10000 0.39 358 09:43 27.11.2021
5234 Clear 16 1019 7 10000 0.4 11 07:44 27.11.2021
5235 Clouds 16 1019 8 10000 0.8 5 04:57 27.11.2021
5236 Clouds 20 1019 8 10000 0.33 204 00:55 27.11.2021
5237 Clouds 23 1019 6 10000 1.27 3 23:35 26.11.2021
5238 Clouds 23 1020 6 10000 0.43 54 22:25 26.11.2021
5239 Clouds 23 1020 6 10000 0.43 54 21:35 26.11.2021
5240 Clouds 23 1021 6 10000 0.53 59 20:46 26.11.2021
5241 Clouds 22 1023 7 10000 0.83 20 20:18 26.11.2021
5242 Clouds 22 1023 7 10000 0.83 20 19:47 26.11.2021
5243 Clouds 21 1024 8 10000 0.77 17 18:33 26.11.2021
5244 Clouds 18 1025 10 10000 0.95 356 17:23 26.11.2021
5245 Clouds 13 1025 13 10000 1.38 339 15:57 26.11.2021
5246 Clear 12 1024 13 10000 0.98 2 13:36 26.11.2021
5247 Clouds 12 1025 13 10000 1.01 351 12:34 26.11.2021
5248 Clouds 14 1025 13 10000 0.54 3 10:38 26.11.2021
5249 Clear 14 1026 12 10000 0.61 8 08:59 26.11.2021
5250 Clear 16 1027 11 10000 0.96 352 08:21 26.11.2021
5251 Clear 17 1027 10 10000 1.63 348 07:29 26.11.2021
5252 Clear 15 1027 11 10000 1.34 357 06:27 26.11.2021
5253 Clear 18 1027 10 10000 1.32 0 04:51 26.11.2021
5254 Clear 15 1028 9 10000 1.93 352 03:25 26.11.2021
5255 Clear 21 1028 7 10000 3.24 9 23:27 25.11.2021
5256 Clear 21 1029 8 10000 3.71 11 21:50 25.11.2021
5257 Clear 20 1030 9 10000 4.51 8 20:37 25.11.2021
5258 Clear 22 1032 12 10000 4.3 8 18:48 25.11.2021
5259 Clear 16 1032 14 10000 3.63 10 17:48 25.11.2021
5260 Clear 14 1033 17 10000 2.74 10 17:26 25.11.2021
5261 Clear 14 1033 17 10000 2.74 10 16:34 25.11.2021
5262 Clear 12 1033 20 10000 3.01 6 15:49 25.11.2021
5263 Clear 12 1031 20 10000 3.84 356 14:19 25.11.2021
5264 Clear 13 1031 20 10000 3.79 358 12:47 25.11.2021
5265 Clear 13 1031 21 10000 3.77 358 11:52 25.11.2021
5266 Clear 14 1030 19 10000 4.06 357 09:56 25.11.2021
5267 Clear 16 1028 19 10000 3.38 3 06:22 25.11.2021
5268 Clear 17 1026 18 10000 3.61 348 02:53 25.11.2021
5269 Clear 20 1022 16 10000 8.56 350 23:39 24.11.2021
5270 Clear 20 1022 19 10000 8.14 352 22:28 24.11.2021
5271 Clear 20 1022 19 10000 8.14 352 21:44 24.11.2021
5272 Clear 21 1023 20 10000 7.68 357 20:58 24.11.2021
5273 Clear 21 1024 23 10000 7.45 0 20:26 24.11.2021
5274 Clear 20 1024 24 10000 6.82 0 18:37 24.11.2021
5275 Clear 19 1023 22 10000 5.98 354 18:18 24.11.2021
5276 Clear 15 1021 30 10000 3.49 354 16:19 24.11.2021
5277 Clear 15 1020 30 10000 3.34 357 14:56 24.11.2021
5278 Clouds 14 1018 28 10000 3.41 356 14:21 24.11.2021
5279 Clouds 13 1017 25 10000 3.17 355 12:51 24.11.2021
5280 Clouds 15 1015 20 10000 2.75 356 11:22 24.11.2021
5281 Clouds 15 1015 20 10000 2.75 356 10:50 24.11.2021
5282 Clouds 16 1015 18 10000 2.47 5 10:27 24.11.2021
5283 Clouds 18 1014 15 10000 1.8 353 07:59 24.11.2021
5284 Clouds 18 1014 15 10000 1.8 353 07:31 24.11.2021
5285 Clear 17 1012 15 10000 1.82 340 03:59 24.11.2021
5286 Clear 19 1011 15 10000 2.52 340 01:36 24.11.2021
5287 Clouds 24 1009 11 10000 1.83 17 23:30 23.11.2021
5288 Clouds 24 1009 11 10000 0.65 55 22:37 23.11.2021
5289 Clouds 24 1010 11 10000 0.32 108 21:45 23.11.2021
5290 Clear 22 1013 12 10000 0.42 131 20:22 23.11.2021
5291 Clouds 22 1013 12 10000 0.37 126 19:29 23.11.2021
5292 Clouds 24 1013 12 10000 0.46 161 18:33 23.11.2021
5293 Clouds 20 1013 13 10000 0.64 172 17:30 23.11.2021
5294 Clouds 13 1014 15 10000 0.79 180 16:35 23.11.2021
5295 Clouds 11 1014 20 10000 0.34 232 15:26 23.11.2021
5296 Clouds 13 1014 19 10000 0.83 177 14:44 23.11.2021
5297 Clouds 14 1014 18 10000 0.08 135 13:19 23.11.2021
5298 Clouds 16 1016 18 10000 0.48 186 10:28 23.11.2021
5299 Clouds 16 1016 18 10000 0.48 186 09:46 23.11.2021
5300 Clouds 18 1016 17 10000 0.41 336 07:56 23.11.2021
5301 Clouds 16 1018 15 10000 0.41 235 04:53 23.11.2021
5302 Clouds 18 1018 16 10000 0.18 95 03:32 23.11.2021
5303 Clear 24 1019 10 10000 0.48 64 23:38 22.11.2021
5304 Clear 24 1019 10 10000 0.84 44 22:58 22.11.2021
5305 Clear 24 1019 10 10000 0.84 44 22:30 22.11.2021
5306 Clear 24 1019 10 10000 0.84 44 22:30 22.11.2021
5307 Clear 24 1020 11 10000 1.06 31 21:44 22.11.2021
5308 Clear 23 1022 11 10000 1.46 19 21:19 22.11.2021
5309 Clear 22 1023 12 10000 1.97 16 20:26 22.11.2021
5310 Clear 21 1024 13 10000 2.18 12 19:20 22.11.2021
5311 Clear 21 1024 13 10000 2.11 12 18:40 22.11.2021
5312 Clear 20 1024 15 10000 2.13 10 17:46 22.11.2021
5313 Clear 19 1025 17 10000 1.57 358 16:30 22.11.2021
5314 Clear 15 1024 24 10000 2.3 350 14:41 22.11.2021
5315 Clear 15 1024 22 10000 1.98 348 12:48 22.11.2021
5316 Clear 16 1025 20 10000 2.14 352 11:28 22.11.2021
5317 Clear 16 1025 19 10000 1.96 349 10:19 22.11.2021
5318 Clear 17 1025 19 10000 2.18 352 08:43 22.11.2021
5319 Clear 17 1026 19 10000 2.08 349 07:33 22.11.2021
5320 Clear 23 1024 13 10000 3.44 343 00:50 22.11.2021
5321 Clear 24 1024 12 10000 4.7 358 23:20 21.11.2021
5322 Clear 24 1024 12 10000 4.7 358 22:42 21.11.2021
5323 Clear 26 1025 14 10000 4.91 13 20:44 21.11.2021
5324 Clear 23 1027 16 10000 5.59 11 20:26 21.11.2021
5325 Clear 23 1027 19 10000 5.87 6 18:53 21.11.2021
5326 Clear 21 1027 23 10000 5.28 5 17:52 21.11.2021
5327 Clear 20 1028 30 10000 4.22 4 17:29 21.11.2021
5328 Clear 18 1026 33 10000 3.77 356 14:50 21.11.2021
5329 Clear 18 1026 33 10000 3.77 356 14:31 21.11.2021
5330 Clear 18 1025 32 10000 3.79 357 12:58 21.11.2021
5331 Clear 18 1024 30 10000 3.84 356 12:20 21.11.2021
5332 Clear 19 1024 30 10000 3.84 356 11:37 21.11.2021
5333 Clear 19 1024 28 10000 3.96 354 10:19 21.11.2021
5334 Clear 19 1024 28 10000 3.96 354 09:45 21.11.2021
5335 Clear 19 1023 30 10000 3.73 359 08:32 21.11.2021
5336 Clear 19 1022 30 10000 3.79 355 07:52 21.11.2021
5337 Clouds 20 1021 30 10000 3.26 351 06:28 21.11.2021
5338 Clouds 21 1021 30 10000 3.26 351 05:41 21.11.2021
5339 Clouds 21 1019 29 10000 3.09 346 03:22 21.11.2021
5340 Clouds 22 1019 29 10000 3.09 346 02:55 21.11.2021
5341 Clouds 22 1018 28 10000 3.12 330 02:18 21.11.2021
5342 Clouds 24 1017 24 10000 2.98 334 00:50 21.11.2021
5343 Clouds 26 1017 22 10000 4.06 356 22:35 20.11.2021
5344 Clouds 26 1017 21 10000 4.71 4 21:33 20.11.2021
5345 Clouds 25 1018 20 10000 4.79 3 20:32 20.11.2021
5346 Clouds 25 1019 20 10000 3.57 360 18:45 20.11.2021
5347 Clouds 24 1019 21 10000 2.72 2 18:24 20.11.2021
5348 Clouds 22 1018 24 10000 1.76 348 17:22 20.11.2021
5349 Clouds 18 1018 30 10000 1.73 338 15:40 20.11.2021
5350 Clouds 18 1017 31 10000 1.7 335 14:39 20.11.2021
5351 Clouds 18 1016 32 10000 1.69 344 14:20 20.11.2021
5352 Clouds 19 1015 29 10000 1.23 338 11:56 20.11.2021
5353 Clouds 18 1015 29 10000 1.48 348 10:28 20.11.2021
5354 Clouds 18 1015 30 10000 0.71 348 08:55 20.11.2021
5355 Clouds 15 1016 29 10000 0.39 322 07:19 20.11.2021
5356 Clouds 15 1016 28 10000 0.16 329 05:24 20.11.2021
5357 Clouds 16 1016 28 10000 0.16 329 04:50 20.11.2021
5358 Clouds 23 1015 24 10000 0.58 266 01:34 20.11.2021
5359 Clouds 26 1014 21 10000 0.08 259 00:37 20.11.2021
5360 Clouds 29 1015 18 10000 0.42 105 22:55 19.11.2021
5361 Clouds 25 1015 18 10000 0.58 127 21:57 19.11.2021
5362 Clouds 28 1016 19 10000 0.5 140 20:54 19.11.2021
5363 Clouds 28 1016 19 10000 0.5 140 20:36 19.11.2021
5364 Clouds 27 1018 19 10000 0.46 120 19:49 19.11.2021
5365 Clouds 25 1018 20 10000 0.33 104 18:51 19.11.2021
5366 Clouds 23 1019 21 10000 0.12 57 18:19 19.11.2021
5367 Clouds 21 1018 24 10000 0.2 198 16:47 19.11.2021
5368 Clouds 14 1018 29 10000 0.22 155 15:31 19.11.2021
5369 Clouds 15 1017 30 10000 0.1 164 13:24 19.11.2021
5370 Clouds 18 1017 26 10000 0.64 166 10:27 19.11.2021
5371 Clouds 18 1017 26 10000 0.64 166 09:33 19.11.2021
5372 Clouds 21 1017 24 10000 0.73 158 07:34 19.11.2021
5373 Clouds 23 1018 24 10000 0.75 169 04:28 19.11.2021
5374 Clouds 24 1017 24 10000 0.28 153 02:26 19.11.2021
5375 Clouds 28 1016 18 10000 1.31 165 23:51 18.11.2021
5376 Clouds 25 1017 18 10000 1.62 162 21:50 18.11.2021
5377 Clouds 29 1018 19 10000 1.38 159 20:48 18.11.2021
5378 Clouds 27 1018 19 10000 1.38 159 20:30 18.11.2021
5379 Clouds 26 1019 19 10000 1.48 161 19:49 18.11.2021
5380 Clouds 25 1020 20 10000 1.35 152 19:29 18.11.2021
5381 Clouds 25 1020 21 10000 0.99 131 18:28 18.11.2021
5382 Clouds 24 1020 21 10000 0.99 131 17:51 18.11.2021
5383 Clouds 21 1021 23 10000 0.18 155 16:44 18.11.2021
5384 Clouds 16 1020 29 10000 0.77 99 15:32 18.11.2021
5385 Clouds 18 1019 30 10000 0.5 116 13:31 18.11.2021
5386 Clouds 15 1018 29 10000 0.52 90 12:33 18.11.2021
5387 Clouds 18 1018 28 10000 0.76 83 11:42 18.11.2021
5388 Clouds 18 1019 28 10000 0.92 56 11:24 18.11.2021
5389 Clouds 18 1019 27 10000 0.41 26 09:37 18.11.2021
5390 Clouds 19 1019 27 10000 0.2 90 07:35 18.11.2021
5391 Clouds 20 1019 25 10000 0.83 356 05:55 18.11.2021
5392 Clouds 20 1019 25 10000 0.83 356 05:36 18.11.2021
5393 Clear 25 1016 19 10000 1.29 6 01:24 18.11.2021
5394 Clear 26 1016 18 10000 2.26 22 23:18 17.11.2021
5395 Clear 26 1017 18 10000 2.8 18 22:21 17.11.2021
5396 Clear 26 1017 18 10000 2.8 18 21:53 17.11.2021
5397 Clear 26 1017 18 10000 2.8 18 21:34 17.11.2021
5398 Clouds 26 1018 22 10000 4.6 3 18:47 17.11.2021
5399 Clouds 22 1017 25 10000 2.99 0 17:28 17.11.2021
5400 Clouds 19 1016 26 10000 2.48 357 14:52 17.11.2021
5401 Clouds 19 1014 23 10000 2.28 352 12:42 17.11.2021
5402 Clouds 19 1014 22 10000 2.25 354 11:49 17.11.2021
5403 Clouds 20 1014 23 10000 1.44 344 10:49 17.11.2021
5404 Clouds 17 1013 23 10000 0.97 340 09:26 17.11.2021
5405 Clouds 21 1013 23 10000 0.96 352 07:45 17.11.2021
5406 Clouds 22 1012 22 10000 0.66 132 06:20 17.11.2021
5407 Clear 24 1012 20 10000 1.07 175 02:42 17.11.2021
5408 Clear 29 1010 14 10000 0.51 82 23:27 16.11.2021
5409 Clear 28 1011 14 10000 0.57 108 21:51 16.11.2021
5410 Clear 27 1013 15 10000 0.8 42 20:19 16.11.2021
5411 Clouds 26 1014 16 10000 0.96 16 19:23 16.11.2021
5412 Clouds 26 1014 16 10000 0.96 16 18:38 16.11.2021
5413 Clouds 23 1014 17 10000 0.93 316 17:44 16.11.2021
5414 Clouds 24 1014 19 10000 0.52 38 16:59 16.11.2021
5415 Clouds 21 1014 22 10000 0.71 166 16:19 16.11.2021
5416 Clouds 23 1014 22 10000 0.71 166 15:41 16.11.2021
5417 Clouds 22 1013 22 10000 0.64 340 12:43 16.11.2021
5418 Clouds 19 1013 21 10000 1.54 162 10:22 16.11.2021
5419 Clouds 20 1013 21 10000 1.54 162 09:39 16.11.2021
5420 Clouds 21 1014 20 10000 1.43 167 07:41 16.11.2021
5421 Clouds 20 1014 18 10000 0.3 190 06:43 16.11.2021
5422 Clouds 31 1015 12 10000 0.98 139 23:26 15.11.2021
5423 Clouds 34 1015 12 10000 0.98 139 22:41 15.11.2021
5424 Clouds 33 1015 12 10000 1.12 154 21:57 15.11.2021
5425 Clouds 34 1015 12 10000 1.12 154 21:31 15.11.2021
5426 Clouds 33 1017 12 10000 0.8 139 20:35 15.11.2021
5427 Clouds 32 1019 13 10000 0.66 139 19:25 15.11.2021
5428 Clouds 26 1019 14 10000 0.82 175 17:33 15.11.2021
5429 Clouds 22 1019 20 10000 1.18 172 15:52 15.11.2021
5430 Clouds 22 1019 20 10000 1.18 172 15:33 15.11.2021
5431 Clouds 21 1018 22 10000 0.27 167 14:27 15.11.2021
5432 Clouds 21 1018 22 10000 0.89 173 12:37 15.11.2021
5433 Clouds 22 1018 21 10000 0.75 168 10:33 15.11.2021
5434 Clear 23 1019 21 10000 0.77 178 09:22 15.11.2021
5435 Clear 23 1019 20 10000 0.2 181 07:23 15.11.2021
5436 Clouds 25 1019 19 10000 0.81 194 02:34 15.11.2021
5437 Clear 31 1018 13 10000 0.5 129 22:45 14.11.2021
5438 Clear 31 1019 14 10000 0.44 72 22:19 14.11.2021
5439 Clear 29 1021 16 10000 1.07 14 19:24 14.11.2021
5440 Clear 31 1021 16 10000 1.07 14 18:55 14.11.2021
5441 Clear 31 1021 16 10000 1.07 14 18:37 14.11.2021
5442 Clear 30 1022 17 10000 1.38 5 18:18 14.11.2021
5443 Clear 29 1022 17 10000 1.38 5 17:58 14.11.2021
5444 Clear 29 1022 17 10000 1.38 5 17:40 14.11.2021
5445 Clear 29 1022 20 10000 1.35 345 17:22 14.11.2021
5446 Clear 24 1022 20 10000 1.35 345 16:59 14.11.2021
5447 Clear 26 1022 20 10000 1.35 345 16:40 14.11.2021
5448 Clear 23 1021 27 10000 1.17 344 16:19 14.11.2021
5449 Clear 24 1021 33 10000 0.88 345 15:21 14.11.2021
5450 Clear 24 1021 33 10000 0.88 345 14:45 14.11.2021
5451 Clear 24 1020 31 10000 1.57 349 14:22 14.11.2021
5452 Clear 23 1020 31 10000 1.57 349 13:52 14.11.2021
5453 Clear 21 1020 30 10000 1.42 350 13:28 14.11.2021
5454 Clear 22 1020 28 10000 1.94 344 12:23 14.11.2021
5455 Clear 22 1020 29 10000 1.6 351 11:28 14.11.2021
5456 Clear 22 1020 29 10000 1.6 351 10:39 14.11.2021
5457 Clear 22 1020 28 10000 0.18 281 09:42 14.11.2021
5458 Clear 23 1020 26 10000 1.16 349 08:52 14.11.2021
5459 Clear 23 1020 25 10000 0.55 206 06:51 14.11.2021
5460 Clouds 32 1018 16 10000 0.68 43 23:27 13.11.2021
5461 Clouds 31 1018 17 10000 0.79 23 22:21 13.11.2021
5462 Clouds 31 1018 17 10000 0.79 23 21:49 13.11.2021
5463 Clouds 31 1020 18 10000 1.52 13 20:59 13.11.2021
5464 Clouds 33 1021 19 10000 2.35 2 19:33 13.11.2021
5465 Clear 31 1021 21 10000 2.37 5 18:33 13.11.2021
5466 Clear 29 1021 23 10000 1.6 6 17:46 13.11.2021
5467 Clear 25 1021 26 10000 1.25 351 16:30 13.11.2021
5468 Clear 24 1020 39 10000 1.06 341 14:55 13.11.2021
5469 Clear 23 1020 38 10000 1.02 342 14:19 13.11.2021
5470 Clear 23 1020 36 10000 0.82 340 12:52 13.11.2021
5471 Clear 22 1020 34 10000 1.21 338 11:58 13.11.2021
5472 Clear 22 1020 34 10000 0.8 344 11:28 13.11.2021
5473 Clear 22 1020 34 10000 0.8 344 10:44 13.11.2021
5474 Clear 22 1020 33 10000 0.8 347 09:53 13.11.2021
5475 Clear 22 1020 33 10000 0.8 347 09:33 13.11.2021
5476 Clear 23 1020 32 10000 0.84 354 08:56 13.11.2021
5477 Clear 23 1020 31 10000 0.86 344 08:20 13.11.2021
5478 Clear 23 1020 29 10000 0.85 336 04:43 13.11.2021
5479 Clear 24 1020 28 10000 1.14 339 04:25 13.11.2021
5480 Clear 29 1019 22 10000 2.24 351 00:38 13.11.2021
5481 Clear 31 1020 20 10000 3.03 10 22:44 12.11.2021
5482 Clear 30 1020 21 10000 3.41 7 21:32 12.11.2021
5483 Clear 29 1023 23 10000 3.58 9 19:46 12.11.2021
5484 Clear 28 1023 25 10000 3.58 7 19:27 12.11.2021
5485 Clear 27 1023 26 10000 3.43 4 18:28 12.11.2021
5486 Clear 23 1023 35 10000 2.51 350 16:23 12.11.2021
5487 Clear 23 1023 34 10000 2.58 349 15:32 12.11.2021
5488 Clear 23 1022 34 10000 2.28 350 11:33 12.11.2021
5489 Clear 20 1022 34 10000 2.1 351 10:51 12.11.2021
5490 Clear 21 1022 33 10000 2.1 352 09:37 12.11.2021
5491 Clear 24 1022 32 10000 2.11 352 08:38 12.11.2021
5492 Clear 28 1020 31 10000 2.04 333 02:28 12.11.2021
5493 Clear 29 1019 25 10000 3.14 349 23:41 11.11.2021
5494 Clear 29 1019 25 10000 3.42 357 22:31 11.11.2021
5495 Clear 28 1021 28 10000 4.18 4 21:27 11.11.2021
5496 Clear 28 1021 28 10000 4.18 4 20:40 11.11.2021
5497 Clear 27 1023 30 10000 4.03 3 19:20 11.11.2021
5498 Clear 28 1023 33 10000 3.84 5 17:43 11.11.2021
5499 Clear 25 1023 37 10000 2.62 1 16:54 11.11.2021
5500 Clear 21 1023 45 10000 2.17 356 14:58 11.11.2021
5501 Clear 22 1023 44 10000 2.2 356 14:29 11.11.2021
5502 Clear 21 1023 44 10000 2.2 356 13:40 11.11.2021
5503 Clouds 20 1022 41 10000 2.53 352 12:50 11.11.2021
5504 Clouds 23 1021 38 10000 2.54 354 10:44 11.11.2021
5505 Clear 22 1021 36 10000 2.36 351 09:39 11.11.2021
5506 Clear 21 1021 33 10000 2.03 346 07:59 11.11.2021
5507 Clear 23 1020 36 10000 1.52 3 05:55 11.11.2021
5508 Clear 28 1018 26 10000 0.72 19 23:45 10.11.2021
5509 Clear 31 1018 27 10000 0.82 37 22:32 10.11.2021
5510 Clear 27 1019 27 10000 1.02 31 21:31 10.11.2021
5511 Clear 27 1020 29 10000 0.86 37 20:47 10.11.2021
5512 Clear 27 1020 29 10000 0.86 37 20:47 10.11.2021
5513 Clear 26 1021 32 10000 0.87 29 19:47 10.11.2021
5514 Clouds 24 1021 35 10000 0.78 29 19:28 10.11.2021
5515 Clear 22 1022 42 10000 0.02 110 16:38 10.11.2021
5516 Clear 19 1021 51 10000 0.33 245 15:44 10.11.2021
5517 Clear 19 1020 55 10000 0.46 197 13:52 10.11.2021
5518 Clear 20 1020 54 10000 0.24 324 13:26 10.11.2021
5519 Clear 18 1019 52 10000 0.77 339 11:38 10.11.2021
5520 Clouds 18 1019 48 10000 0.35 229 08:59 10.11.2021
5521 Clouds 18 1019 48 10000 0.35 229 08:39 10.11.2021
5522 Clouds 20 1019 44 10000 0.43 254 06:41 10.11.2021
5523 Clouds 20 1019 42 10000 0.42 267 05:52 10.11.2021
5524 Clouds 28 1015 30 10000 1.24 356 01:24 10.11.2021
5525 Clouds 26 1015 30 10000 0.38 183 21:58 09.11.2021
5526 Clouds 25 1016 29 10000 0.75 184 20:32 09.11.2021
5527 Clouds 24 1018 28 10000 1.05 208 19:26 09.11.2021
5528 Clouds 24 1018 28 10000 1.05 208 18:44 09.11.2021
5529 Clouds 21 1018 30 10000 2.36 232 16:27 09.11.2021
5530 Clouds 21 1016 28 10000 3.21 221 14:58 09.11.2021
5531 Clouds 22 1015 25 10000 4.22 203 13:25 09.11.2021
5532 Clouds 23 1014 23 10000 4.3 185 12:22 09.11.2021
5533 Clouds 22 1014 24 10000 3.87 180 10:46 09.11.2021
5534 Clouds 22 1014 24 10000 3.41 178 09:43 09.11.2021
5535 Clouds 21 1015 25 10000 2.83 179 08:42 09.11.2021
5536 Clouds 22 1015 23 10000 2.32 176 06:51 09.11.2021
5537 Clouds 23 1014 20 10000 0.76 224 02:30 09.11.2021
5538 Clouds 23 1014 20 10000 0.2 265 01:50 09.11.2021
5539 Clouds 29 1013 14 10000 1.89 153 00:22 09.11.2021
5540 Clouds 29 1013 15 10000 2.09 155 23:28 08.11.2021
5541 Clouds 27 1013 15 10000 2.09 155 22:35 08.11.2021
5542 Clear 29 1014 19 10000 1.4 162 21:22 08.11.2021
5543 Clear 27 1014 19 10000 1.4 162 20:31 08.11.2021
5544 Clouds 24 1015 26 10000 1.35 159 19:18 08.11.2021
5545 Clouds 23 1015 29 10000 1.08 175 17:35 08.11.2021
5546 Clouds 19 1014 38 10000 0.61 178 15:38 08.11.2021
5547 Clouds 13 1014 41 10000 0.37 201 14:55 08.11.2021
5548 Clear 13 1013 39 10000 0.25 220 14:24 08.11.2021
5549 Clouds 14 1013 38 10000 0.54 233 12:48 08.11.2021
5550 Clouds 14 1012 35 10000 0.07 73 11:37 08.11.2021
5551 Clouds 21 1012 32 10000 0.67 143 10:35 08.11.2021
5552 Clouds 16 1012 30 10000 1.39 173 08:56 08.11.2021
5553 Clouds 18 1012 30 10000 1.18 187 07:56 08.11.2021
5554 Clouds 20 1012 33 10000 1.75 178 06:54 08.11.2021
5555 Clouds 24 1011 31 10000 2.01 189 03:35 08.11.2021
5556 Clear 29 1009 20 10000 4.29 179 00:18 08.11.2021
5557 Clear 31 1009 19 10000 4.59 172 22:48 07.11.2021
5558 Clear 30 1011 20 10000 4.21 164 21:24 07.11.2021
5559 Clear 29 1012 21 10000 3.5 167 19:56 07.11.2021
5560 Clear 25 1013 22 10000 3.3 172 18:28 07.11.2021
5561 Clear 28 1013 22 10000 3.3 172 17:40 07.11.2021
5562 Clear 22 1013 27 10000 1.78 186 16:21 07.11.2021
5563 Clear 19 1012 28 10000 1.81 192 14:47 07.11.2021
5564 Clear 20 1012 26 10000 2.24 198 14:27 07.11.2021
5565 Clear 21 1011 25 10000 2.58 184 12:48 07.11.2021
5566 Clear 22 1011 23 10000 2.68 189 11:31 07.11.2021
5567 Clear 23 1011 18 10000 3.57 196 08:59 07.11.2021
5568 Clouds 27 1010 13 10000 3.22 184 02:53 07.11.2021
5569 Clouds 27 1009 13 10000 3.51 193 02:18 07.11.2021
5570 Clear 31 1009 10 10000 6.43 183 22:55 06.11.2021
5571 Clear 32 1010 11 10000 5.68 173 21:53 06.11.2021
5572 Clear 30 1011 14 10000 4.39 167 20:56 06.11.2021
5573 Clear 29 1013 17 10000 3.39 171 20:18 06.11.2021
5574 Clear 26 1014 24 10000 2.38 191 17:31 06.11.2021
5575 Clear 25 1014 28 10000 1.98 196 16:32 06.11.2021
5576 Clear 20 1013 35 10000 1.28 181 13:39 06.11.2021
5577 Clear 22 1013 34 10000 1.29 179 12:56 06.11.2021
5578 Clear 24 1012 31 10000 2.08 170 11:18 06.11.2021
5579 Clear 19 1013 29 10000 1.22 174 08:48 06.11.2021
5580 Clear 24 1013 27 10000 2.22 174 04:50 06.11.2021
5581 Clear 30 1011 20 10000 4.57 160 00:36 06.11.2021
5582 Clear 34 1012 20 10000 2.83 159 23:29 05.11.2021
5583 Clear 34 1012 20 10000 2.83 159 22:33 05.11.2021
5584 Clear 30 1014 23 10000 1.87 159 20:41 05.11.2021
5585 Clear 29 1015 25 10000 1.58 152 19:51 05.11.2021
5586 Clear 28 1016 27 10000 1.32 151 18:51 05.11.2021
5587 Clear 27 1016 29 10000 1.33 155 18:29 05.11.2021
5588 Clear 23 1016 30 10000 1.31 163 16:49 05.11.2021
5589 Clear 21 1015 41 10000 0.45 170 14:33 05.11.2021
5590 Clouds 22 1014 38 10000 0.48 187 12:27 05.11.2021
5591 Clouds 23 1014 36 10000 0.3 169 09:51 05.11.2021
5592 Clouds 24 1014 35 10000 0.21 181 08:38 05.11.2021
5593 Clouds 20 1014 33 10000 0.75 325 06:40 05.11.2021
5594 Clouds 21 1013 30 10000 0.85 2 03:38 05.11.2021
5595 Clouds 26 1012 28 10000 0.84 343 02:21 05.11.2021
5596 Clear 34 1011 22 10000 0.97 103 23:58 04.11.2021
5597 Clear 34 1011 22 10000 1.26 146 22:37 04.11.2021
5598 Clear 34 1012 22 10000 1.6 158 22:18 04.11.2021
5599 Clear 34 1012 22 10000 1.6 158 22:18 04.11.2021
5600 Clear 33 1013 23 10000 1.52 152 21:29 04.11.2021
5601 Clear 32 1015 24 10000 1.23 149 20:29 04.11.2021
5602 Clear 31 1015 24 10000 1.23 149 19:50 04.11.2021
5603 Clear 31 1015 26 10000 0.99 155 19:28 04.11.2021
5604 Clear 29 1015 26 10000 0.99 155 18:30 04.11.2021
5605 Clear 26 1016 30 10000 0.73 162 17:28 04.11.2021
5606 Clear 23 1016 37 10000 0.74 158 16:23 04.11.2021
5607 Clear 23 1016 37 10000 0.74 158 16:23 04.11.2021
5608 Clear 19 1015 38 10000 0.28 117 14:19 04.11.2021
5609 Clear 21 1015 35 10000 1.02 167 10:52 04.11.2021
5610 Clear 20 1015 34 10000 1.03 178 08:58 04.11.2021
5611 Clear 20 1015 34 10000 0.91 174 08:28 04.11.2021
5612 Clear 20 1015 34 10000 0.91 174 07:33 04.11.2021
5613 Clouds 30 1015 22 10000 0.71 80 23:43 03.11.2021
5614 Clouds 30 1015 22 10000 0.98 44 22:49 03.11.2021
5615 Clouds 30 1016 22 10000 1.1 41 21:45 03.11.2021
5616 Clouds 30 1017 23 10000 0.8 35 20:45 03.11.2021
5617 Clouds 29 1018 24 10000 0.92 34 20:27 03.11.2021
5618 Clouds 29 1018 24 10000 0.92 34 19:40 03.11.2021
5619 Clouds 28 1019 26 10000 1.19 22 18:47 03.11.2021
5620 Clouds 30 1020 27 10000 1.05 17 17:58 03.11.2021
5621 Clouds 26 1020 28 10000 0.72 1 16:53 03.11.2021
5622 Clear 23 1019 35 10000 0.61 356 15:52 03.11.2021
5623 Clear 23 1019 35 10000 0.61 356 15:31 03.11.2021
5624 Clear 18 1019 38 10000 0.95 345 13:46 03.11.2021
5625 Clear 21 1018 37 10000 1.1 350 11:39 03.11.2021
5626 Clouds 21 1018 37 10000 0.81 359 10:52 03.11.2021
5627 Clouds 22 1019 37 10000 0.48 350 10:18 03.11.2021
5628 Clouds 22 1019 37 10000 0.47 346 09:28 03.11.2021
5629 Clouds 22 1019 37 10000 0.42 341 08:21 03.11.2021
5630 Clouds 22 1019 37 10000 0.42 341 07:38 03.11.2021
5631 Clouds 21 1018 33 10000 0.32 169 04:24 03.11.2021
5632 Clouds 25 1017 32 10000 0.16 226 01:42 03.11.2021
5633 Clouds 28 1017 24 10000 0.6 62 23:33 02.11.2021
5634 Clouds 27 1017 26 10000 0.75 70 22:21 02.11.2021
5635 Clouds 27 1018 27 10000 0.52 74 20:54 02.11.2021
5636 Clear 26 1019 28 10000 0.79 93 20:23 02.11.2021
5637 Clear 26 1019 28 10000 0.79 93 19:46 02.11.2021
5638 Clouds 25 1019 30 10000 0.75 121 18:43 02.11.2021
5639 Clouds 24 1020 32 10000 0.84 145 17:57 02.11.2021
5640 Clouds 24 1020 32 10000 0.84 145 17:31 02.11.2021
5641 Clouds 21 1019 38 10000 0.29 276 16:29 02.11.2021
5642 Clouds 19 1018 42 10000 0.45 294 14:59 02.11.2021
5643 Clouds 20 1018 41 10000 0.62 185 13:50 02.11.2021
5644 Clouds 20 1017 42 10000 0.61 212 13:26 02.11.2021
5645 Clouds 20 1017 42 10000 0.61 212 12:33 02.11.2021
5646 Clouds 21 1017 40 10000 0.72 205 11:31 02.11.2021
5647 Clouds 22 1017 37 10000 0.68 185 10:51 02.11.2021
5648 Clouds 21 1017 37 10000 0.94 194 10:23 02.11.2021
5649 Clouds 22 1017 36 10000 0.89 140 08:42 02.11.2021
5650 Clouds 22 1016 32 10000 1.07 145 06:42 02.11.2021
5651 Clouds 25 1015 27 10000 0.74 208 03:33 02.11.2021
5652 Clouds 27 1013 23 10000 2.5 172 00:59 02.11.2021
5653 Clouds 28 1013 21 10000 3.36 149 22:39 01.11.2021
5654 Clouds 27 1014 21 10000 2.94 160 20:52 01.11.2021
5655 Clouds 27 1014 21 10000 2.94 160 20:32 01.11.2021
5656 Clouds 27 1015 24 10000 2.33 154 19:44 01.11.2021
5657 Clouds 25 1016 30 10000 1.51 159 18:57 01.11.2021
5658 Clouds 24 1016 36 10000 1.45 173 18:19 01.11.2021
5659 Clouds 23 1016 40 10000 1.15 175 17:18 01.11.2021
5660 Clouds 23 1016 40 10000 1.15 175 16:37 01.11.2021
5661 Clouds 21 1015 46 10000 1.22 180 15:45 01.11.2021
5662 Clouds 20 1014 49 10000 1.09 161 15:19 01.11.2021
5663 Clouds 20 1014 49 10000 1.09 161 14:41 01.11.2021
5664 Clouds 20 1014 48 10000 1.13 151 14:19 01.11.2021
5665 Clouds 21 1013 49 10000 1.6 148 12:59 01.11.2021
5666 Clouds 22 1013 47 10000 1.9 158 11:56 01.11.2021
5667 Clouds 23 1012 44 10000 1.83 158 10:23 01.11.2021
5668 Clouds 24 1012 41 10000 1.78 160 08:43 01.11.2021
5669 Clouds 24 1012 41 10000 1.74 160 07:47 01.11.2021
5670 Clouds 26 1010 32 10000 1.36 168 03:58 01.11.2021
5671 Clouds 26 1010 32 10000 1.36 168 03:39 01.11.2021
5672 Clouds 29 1009 25 10000 3.15 157 23:59 31.10.2021
5673 Clear 29 1009 26 10000 3.46 155 21:31 31.10.2021
5674 Clear 28 1011 30 10000 3.07 157 20:24 31.10.2021
5675 Clouds 27 1011 32 10000 3.01 163 18:46 31.10.2021
5676 Clouds 26 1012 34 10000 2.72 164 18:23 31.10.2021
5677 Clouds 25 1011 36 10000 2.13 164 16:48 31.10.2021
5678 Clear 21 1010 43 10000 1.65 162 15:18 31.10.2021
5679 Clouds 22 1010 39 10000 1.44 177 13:27 31.10.2021
5680 Clouds 23 1009 36 10000 1.71 185 12:25 31.10.2021
5681 Clouds 24 1009 34 10000 1.78 191 10:51 31.10.2021
5682 Clouds 24 1009 32 10000 2.08 185 09:43 31.10.2021
5683 Clouds 25 1009 29 10000 1.99 178 08:47 31.10.2021
5684 Clouds 27 1008 25 10000 2.42 173 04:54 31.10.2021
5685 Clouds 32 1008 18 10000 2.59 162 00:47 31.10.2021
5686 Clouds 31 1010 21 10000 2 158 22:28 30.10.2021
5687 Clouds 31 1010 21 10000 2 158 21:30 30.10.2021
5688 Clear 29 1011 23 10000 1.29 153 19:57 30.10.2021
5689 Clear 27 1011 27 10000 1.18 166 17:51 30.10.2021
5690 Clear 22 1010 36 10000 0.79 155 15:58 30.10.2021
5691 Clear 23 1010 34 10000 0.83 156 14:23 30.10.2021
5692 Clear 23 1010 34 10000 0.74 152 13:38 30.10.2021
5693 Clear 24 1010 33 10000 0.99 155 13:20 30.10.2021
5694 Clear 24 1010 32 10000 1.22 160 11:50 30.10.2021
5695 Clear 24 1011 31 10000 1.09 151 11:26 30.10.2021
5696 Clear 25 1011 30 10000 0.96 168 09:53 30.10.2021
5697 Clear 25 1011 30 10000 0.9 156 08:31 30.10.2021
5698 Clear 27 1011 27 10000 1.09 177 05:49 30.10.2021
5699 Clear 27 1011 26 10000 1.54 182 04:54 30.10.2021
5700 Clear 32 1011 20 10000 1.13 141 23:47 29.10.2021
5701 Clear 32 1011 20 10000 0.92 128 22:35 29.10.2021
5702 Clear 30 1014 23 10000 0.64 67 21:20 29.10.2021
5703 Clear 30 1014 23 10000 0.64 67 20:34 29.10.2021
5704 Clear 29 1015 24 10000 0.8 41 19:38 29.10.2021
5705 Clear 27 1015 28 10000 0.88 21 18:23 29.10.2021
5706 Clear 24 1015 34 10000 0.73 359 16:34 29.10.2021
5707 Clear 23 1015 37 10000 0.96 352 13:34 29.10.2021
5708 Clear 24 1016 34 10000 1.01 346 10:52 29.10.2021
5709 Clear 24 1016 34 10000 1.01 346 10:33 29.10.2021
5710 Clear 25 1017 33 10000 1.31 345 07:23 29.10.2021
5711 Clear 31 1017 21 10000 2.88 358 00:35 29.10.2021
5712 Clear 31 1018 22 10000 3.69 6 22:51 28.10.2021
5713 Clear 30 1019 23 10000 3.9 6 21:32 28.10.2021
5714 Clear 29 1021 26 10000 4.52 5 20:20 28.10.2021
5715 Clear 27 1022 30 10000 4.4 5 19:23 28.10.2021
5716 Clear 26 1022 34 10000 3.68 2 17:59 28.10.2021
5717 Clear 23 1022 40 10000 2.96 354 16:57 28.10.2021
5718 Clear 22 1021 43 10000 2.76 353 15:20 28.10.2021
5719 Clear 23 1020 39 10000 2.3 351 13:43 28.10.2021
5720 Clear 23 1020 38 10000 2.45 350 13:20 28.10.2021
5721 Clear 23 1020 38 10000 2.45 350 12:39 28.10.2021
5722 Clear 24 1021 36 10000 2.36 348 10:51 28.10.2021
5723 Clear 24 1020 35 10000 2.38 348 09:38 28.10.2021
5724 Clear 24 1020 34 10000 2.22 353 08:55 28.10.2021
5725 Clear 24 1020 34 10000 1.68 342 08:28 28.10.2021
5726 Clear 24 1020 30 10000 0.83 328 04:42 28.10.2021
5727 Clear 28 1019 22 10000 1.62 11 23:38 27.10.2021
5728 Clear 28 1020 22 10000 1.61 14 22:30 27.10.2021
5729 Clear 27 1021 22 10000 1.21 15 21:33 27.10.2021
5730 Clear 26 1022 22 10000 0.98 16 20:50 27.10.2021
5731 Clear 25 1023 23 10000 1.27 7 19:57 27.10.2021
5732 Clear 25 1023 23 10000 1.27 7 19:38 27.10.2021
5733 Clear 23 1024 24 10000 1.25 9 18:39 27.10.2021
5734 Clear 17 1022 38 10000 0.38 349 16:27 27.10.2021
5735 Clear 17 1022 38 10000 0.38 349 15:30 27.10.2021
5736 Clear 17 1022 38 10000 0.62 347 14:40 27.10.2021
5737 Clear 18 1020 34 10000 0.69 345 11:28 27.10.2021
5738 Clear 18 1020 34 10000 0.69 345 10:58 27.10.2021
5739 Clear 18 1020 34 10000 0.32 281 09:51 27.10.2021
5740 Clear 19 1020 35 10000 0.18 346 08:22 27.10.2021
5741 Clear 19 1020 35 10000 0.26 194 07:22 27.10.2021
5742 Clear 22 1017 29 10000 0.22 41 02:24 27.10.2021
5743 Clear 23 1017 31 10000 1.01 36 00:56 27.10.2021
5744 Clear 22 1017 32 10000 0.95 45 00:26 27.10.2021
5745 Clear 22 1017 32 10000 0.95 45 23:41 26.10.2021
5746 Clear 22 1017 34 10000 0.99 56 22:37 26.10.2021
5747 Clear 21 1018 37 10000 0.86 70 21:59 26.10.2021
5748 Clear 20 1018 41 10000 0.63 82 20:36 26.10.2021
5749 Clear 18 1018 52 10000 0.52 42 19:26 26.10.2021
5750 Clear 18 1018 52 10000 0.52 42 18:41 26.10.2021
5751 Clear 13 1016 71 10000 0.17 203 16:28 26.10.2021
5752 Clear 13 1015 72 10000 0.14 214 14:30 26.10.2021
5753 Clear 14 1014 74 10000 0.16 317 11:34 26.10.2021
5754 Clouds 14 1013 71 10000 0.99 328 10:20 26.10.2021
5755 Rain 15 1011 72 10000 2.66 28 07:25 26.10.2021
5756 Rain 15 1011 72 10000 2.66 28 06:40 26.10.2021
5757 Rain 20 1004 70 10000 6.55 189 23:50 25.10.2021
5758 Clouds 20 1003 71 10000 7.48 192 22:53 25.10.2021
5759 Clouds 23 1003 57 10000 8.79 196 22:19 25.10.2021
5760 Clouds 23 1003 57 10000 8.79 196 21:39 25.10.2021
5761 Clouds 24 1004 55 10000 9.97 186 19:53 25.10.2021
5762 Clouds 23 1004 56 10000 9.68 183 19:25 25.10.2021
5763 Clouds 23 1004 56 10000 9.68 183 18:54 25.10.2021
5764 Clouds 22 1005 60 10000 9.3 181 18:19 25.10.2021
5765 Clouds 21 1005 66 10000 7.7 181 16:18 25.10.2021
5766 Clouds 21 1004 62 10000 8.03 179 14:28 25.10.2021
5767 Clouds 22 1005 57 10000 7.81 180 12:29 25.10.2021
5768 Clouds 23 1005 53 10000 8.1 181 10:20 25.10.2021
5769 Clouds 24 1005 52 10000 8.08 179 08:34 25.10.2021
5770 Clouds 24 1005 45 10000 6.26 180 06:24 25.10.2021
5771 Clouds 29 1004 31 10000 4.19 175 00:58 25.10.2021
5772 Clouds 29 1004 31 10000 4.19 175 00:37 25.10.2021
5773 Clouds 27 1005 31 10000 3.98 165 23:47 24.10.2021
5774 Clouds 27 1005 31 10000 3.98 165 23:47 24.10.2021
5775 Clouds 26 1006 31 10000 4.18 157 22:56 24.10.2021
5776 Clouds 26 1006 31 10000 4.18 157 22:31 24.10.2021
5777 Clouds 26 1007 31 10000 3.62 147 21:57 24.10.2021
5778 Clouds 25 1008 32 10000 3.68 150 20:45 24.10.2021
5779 Clouds 23 1008 35 10000 4.18 155 20:26 24.10.2021
5780 Clouds 22 1009 38 10000 3.48 157 18:52 24.10.2021
5781 Clouds 21 1009 42 10000 3.03 159 17:57 24.10.2021
5782 Clouds 20 1008 47 10000 1.91 161 17:18 24.10.2021
5783 Clouds 19 1008 53 10000 1.88 152 15:37 24.10.2021
5784 Clouds 20 1007 49 10000 2.02 140 13:52 24.10.2021
5785 Clouds 21 1006 48 10000 2.77 159 12:41 24.10.2021
5786 Clouds 21 1006 47 10000 3.1 163 11:41 24.10.2021
5787 Clouds 22 1006 46 10000 2.61 160 10:45 24.10.2021
5788 Clouds 23 1006 44 10000 2.55 157 09:38 24.10.2021
5789 Clouds 24 1006 42 10000 0.45 211 05:35 24.10.2021
5790 Clouds 27 1004 34 10000 2.28 153 00:44 24.10.2021
5791 Clouds 27 1004 35 10000 2.72 167 23:32 23.10.2021
5792 Clouds 26 1005 40 10000 2.57 158 21:50 23.10.2021
5793 Clouds 24 1007 49 10000 1.71 152 19:52 23.10.2021
5794 Clouds 23 1007 53 10000 2.11 169 18:59 23.10.2021
5795 Clouds 22 1008 55 10000 1.73 159 18:21 23.10.2021
5796 Clouds 22 1008 55 10000 1.73 159 17:42 23.10.2021
5797 Clouds 20 1006 64 10000 0.96 147 16:20 23.10.2021
5798 Clouds 21 1005 60 10000 1.38 175 13:57 23.10.2021
5799 Clouds 27 1005 25 10000 4.91 195 03:33 23.10.2021
5800 Clouds 32 1006 11 10000 6.17 193 23:45 22.10.2021
5801 Clouds 32 1006 9 10000 7.15 189 22:44 22.10.2021
5802 Clouds 30 1010 11 10000 6.21 166 19:51 22.10.2021
5803 Clouds 28 1012 14 10000 4.71 170 18:40 22.10.2021
5804 Clouds 26 1012 17 10000 2.38 176 17:36 22.10.2021
5805 Clouds 22 1013 24 10000 1.8 162 14:58 22.10.2021
5806 Clouds 22 1013 24 10000 1.71 162 13:35 22.10.2021
5807 Clouds 22 1014 23 10000 1.38 164 11:18 22.10.2021
5808 Clouds 22 1014 23 10000 1.38 164 10:38 22.10.2021
5809 Clouds 23 1014 22 10000 1.62 164 09:41 22.10.2021
5810 Clouds 23 1015 21 10000 1.42 167 08:30 22.10.2021
5811 Clouds 24 1016 19 10000 0.7 163 07:21 22.10.2021
5812 Clouds 27 1016 18 10000 0.16 123 02:56 22.10.2021
5813 Clouds 33 1017 14 10000 1.4 148 23:54 21.10.2021
5814 Clouds 33 1018 14 10000 0.92 148 23:21 21.10.2021
5815 Clouds 28 1019 14 10000 0.66 134 21:39 21.10.2021
5816 Clouds 26 1020 16 10000 0.47 33 20:27 21.10.2021
5817 Clouds 30 1020 16 10000 0.47 33 19:57 21.10.2021
5818 Clouds 25 1020 17 10000 0.65 18 19:28 21.10.2021
5819 Clouds 26 1020 17 10000 0.65 18 18:43 21.10.2021
5820 Clouds 23 1020 18 10000 0.89 26 17:54 21.10.2021
5821 Clouds 24 1020 18 10000 0.89 26 17:32 21.10.2021
5822 Clouds 18 1019 25 10000 0.56 5 15:34 21.10.2021
5823 Clouds 18 1019 24 10000 0.56 358 14:57 21.10.2021
5824 Clouds 18 1019 24 10000 0.56 358 14:37 21.10.2021
5825 Clouds 20 1018 23 10000 0.58 346 12:44 21.10.2021
5826 Clouds 19 1018 21 10000 0.4 312 09:58 21.10.2021
5827 Clouds 21 1018 20 10000 0.05 315 08:21 21.10.2021
5828 Clouds 21 1018 20 10000 0.22 209 07:23 21.10.2021
5829 Clouds 24 1016 18 10000 0.75 1 03:24 21.10.2021
5830 Clouds 29 1016 16 10000 1.47 155 23:25 20.10.2021
5831 Clouds 26 1017 17 10000 1.05 151 21:51 20.10.2021
5832 Clouds 25 1018 18 10000 0.74 151 21:28 20.10.2021
5833 Clouds 25 1018 18 10000 0.74 151 20:46 20.10.2021
5834 Clouds 24 1019 20 10000 0.47 118 20:26 20.10.2021
5835 Clouds 24 1019 19 10000 0.68 137 19:32 20.10.2021
5836 Clouds 24 1019 20 10000 0.19 102 18:53 20.10.2021
5837 Clouds 19 1019 22 10000 0.53 125 17:41 20.10.2021
5838 Clouds 18 1017 30 10000 0.01 349 15:26 20.10.2021
5839 Clear 16 1016 26 10000 0.78 144 10:25 20.10.2021
5840 Clear 17 1016 25 10000 1.01 167 08:36 20.10.2021
5841 Clouds 25 1013 21 10000 1.82 155 02:58 20.10.2021
5842 Clouds 25 1013 18 10000 1.74 149 00:43 20.10.2021
5843 Clear 29 1013 18 10000 1.55 149 23:45 19.10.2021
5844 Clear 23 1015 20 10000 1.17 137 21:41 19.10.2021
5845 Clear 22 1016 22 10000 0.91 121 20:48 19.10.2021
5846 Clear 21 1017 24 10000 0.56 73 20:22 19.10.2021
5847 Clear 25 1017 22 10000 0.56 74 19:40 19.10.2021
5848 Clear 22 1017 24 10000 0.82 35 18:52 19.10.2021
5849 Clear 19 1017 27 10000 0.69 8 17:58 19.10.2021
5850 Clear 13 1016 38 10000 0.91 346 15:38 19.10.2021
5851 Clear 13 1015 37 10000 0.96 353 15:19 19.10.2021
5852 Clear 15 1015 37 10000 0.74 341 14:23 19.10.2021
5853 Clear 15 1014 32 10000 0.6 346 12:38 19.10.2021
5854 Clear 14 1014 31 10000 0.46 334 11:32 19.10.2021
5855 Clear 14 1014 31 10000 0.46 334 11:32 19.10.2021
5856 Clear 16 1013 28 10000 0.58 111 10:19 19.10.2021
5857 Clear 16 1013 28 10000 0.15 96 08:58 19.10.2021
5858 Clear 16 1012 38 10000 1.29 192 06:50 19.10.2021
5859 Clouds 22 1008 31 10000 1.16 360 00:24 19.10.2021
5860 Clouds 22 1008 31 10000 1.16 360 23:50 18.10.2021
5861 Clouds 22 1007 32 10000 0.86 19 23:19 18.10.2021
5862 Clouds 22 1007 32 10000 0.86 19 22:53 18.10.2021
5863 Clouds 21 1008 33 10000 0.92 30 21:44 18.10.2021
5864 Clouds 21 1008 34 10000 1.05 35 20:42 18.10.2021
5865 Clear 21 1008 37 10000 0.41 186 20:18 18.10.2021
5866 Clear 21 1008 37 10000 0.41 186 19:30 18.10.2021
5867 Clear 20 1008 42 10000 1.52 209 18:57 18.10.2021
5868 Clear 16 1005 51 10000 6.7 194 15:45 18.10.2021
5869 Clouds 18 1005 41 10000 6.24 183 14:26 18.10.2021
5870 Clouds 18 1005 29 10000 6.33 191 10:43 18.10.2021
5871 Clouds 19 1005 26 10000 6.63 190 09:31 18.10.2021
5872 Clear 23 1006 22 10000 6.64 188 05:32 18.10.2021
5873 Clouds 31 1007 8 10000 6.61 196 23:37 17.10.2021
5874 Clouds 30 1009 9 10000 4.73 174 21:58 17.10.2021
5875 Clouds 29 1009 9 10000 4.73 174 21:40 17.10.2021
5876 Clouds 30 1011 10 10000 3.39 175 20:40 17.10.2021
5877 Clouds 29 1012 11 10000 2.56 172 19:43 17.10.2021
5878 Clouds 29 1013 11 10000 1.94 168 19:24 17.10.2021
5879 Clouds 25 1013 12 10000 1.49 176 17:47 17.10.2021
5880 Clouds 18 1013 18 10000 1.25 162 15:56 17.10.2021
5881 Clouds 19 1013 16 10000 1.31 169 14:35 17.10.2021
5882 Clouds 17 1013 16 10000 1.21 160 13:56 17.10.2021
5883 Clouds 20 1013 15 10000 1.12 163 12:38 17.10.2021
5884 Clouds 18 1014 14 10000 1.05 148 10:59 17.10.2021
5885 Clear 22 1014 14 10000 0.91 146 09:56 17.10.2021
5886 Clear 23 1015 13 10000 0.99 175 07:42 17.10.2021
5887 Clear 30 1015 9 10000 1.32 167 01:44 17.10.2021
5888 Clear 30 1015 9 10000 0.53 85 00:27 17.10.2021
5889 Clear 30 1016 9 10000 0.71 58 22:40 16.10.2021
5890 Clear 28 1018 10 10000 1.53 23 20:36 16.10.2021
5891 Clear 27 1019 11 10000 1.77 23 19:58 16.10.2021
5892 Clear 27 1019 11 10000 1.77 23 19:39 16.10.2021
5893 Clear 26 1020 11 10000 1.84 22 19:18 16.10.2021
5894 Clear 29 1020 11 10000 1.84 22 18:43 16.10.2021
5895 Clear 28 1020 12 10000 1.48 17 18:22 16.10.2021
5896 Clear 25 1020 12 10000 1.48 17 17:30 16.10.2021
5897 Clear 16 1020 18 10000 1.29 355 16:18 16.10.2021
5898 Clear 18 1020 17 10000 1.63 351 12:50 16.10.2021
5899 Clear 21 1021 16 10000 1.74 354 11:24 16.10.2021
5900 Clear 21 1021 15 10000 1.63 353 08:58 16.10.2021
5901 Clear 24 1021 11 10000 1.7 349 04:26 16.10.2021
5902 Clear 27 1020 9 10000 2.01 348 00:51 16.10.2021
5903 Clear 27 1021 10 10000 2.56 6 23:26 15.10.2021
5904 Clear 26 1022 11 10000 3.06 9 22:21 15.10.2021
5905 Clear 26 1022 11 10000 3.06 9 21:40 15.10.2021
5906 Clear 25 1023 12 10000 3.43 12 20:54 15.10.2021
5907 Clear 24 1024 14 10000 3.59 11 20:25 15.10.2021
5908 Clear 23 1024 16 10000 3.73 8 19:20 15.10.2021
5909 Clear 22 1024 17 10000 3.36 6 18:22 15.10.2021
5910 Clear 22 1024 17 10000 3.36 6 18:22 15.10.2021
5911 Clear 17 1023 24 10000 2.22 2 15:49 15.10.2021
5912 Clear 18 1022 23 10000 2.22 1 14:22 15.10.2021
5913 Clear 20 1021 22 10000 2.01 3 12:26 15.10.2021
5914 Clear 21 1020 22 10000 2.12 358 11:19 15.10.2021
5915 Clear 21 1020 22 10000 2.12 358 10:31 15.10.2021
5916 Clear 20 1019 24 10000 1.86 351 08:21 15.10.2021
5917 Clear 22 1018 23 10000 1.54 350 05:30 15.10.2021
5918 Clear 27 1016 17 10000 1.3 5 00:25 15.10.2021
5919 Clear 26 1016 17 10000 1.56 2 23:26 14.10.2021
5920 Clear 26 1016 17 10000 1.56 2 22:39 14.10.2021
5921 Clear 25 1017 18 10000 1.9 6 21:40 14.10.2021
5922 Clear 24 1018 14 10000 3.27 5 20:22 14.10.2021
5923 Clear 26 1018 14 10000 3.27 5 19:50 14.10.2021
5924 Clear 24 1017 12 10000 3.06 2 18:45 14.10.2021
5925 Clear 19 1016 14 10000 1.26 335 17:24 14.10.2021
5926 Clear 18 1016 14 10000 1.26 335 16:46 14.10.2021
5927 Clear 11 1015 17 10000 1.43 350 15:22 14.10.2021
5928 Clear 12 1015 17 10000 1.52 348 14:40 14.10.2021
5929 Clear 16 1015 17 10000 1.2 353 13:35 14.10.2021
5930 Clear 12 1014 17 10000 0.73 353 11:40 14.10.2021
5931 Clear 17 1013 16 10000 0.17 273 09:50 14.10.2021
5932 Clear 14 1013 14 10000 0.21 47 06:46 14.10.2021
5933 Clear 23 1010 10 10000 1.59 144 00:52 14.10.2021
5934 Clear 22 1012 10 10000 0.82 132 22:51 13.10.2021
5935 Clear 22 1013 11 10000 0.5 87 21:41 13.10.2021
5936 Clear 21 1014 12 10000 0.68 29 20:46 13.10.2021
5937 Clouds 20 1015 14 10000 1.28 21 19:48 13.10.2021
5938 Clouds 20 1015 16 10000 1.86 9 18:49 13.10.2021
5939 Clouds 15 1015 18 10000 2.21 4 17:36 13.10.2021
5940 Clouds 11 1015 25 10000 1.64 354 15:23 13.10.2021
5941 Clouds 13 1015 25 10000 1.64 354 14:44 13.10.2021
5942 Clouds 14 1014 23 10000 1.48 2 12:55 13.10.2021
5943 Clear 14 1014 23 10000 1.98 351 11:55 13.10.2021
5944 Clear 15 1014 23 10000 1.78 1 10:39 13.10.2021
5945 Clear 16 1013 20 10000 1.75 7 07:58 13.10.2021
5946 Clear 16 1013 20 10000 1.16 14 06:33 13.10.2021
5947 Clear 22 1010 14 10000 1 71 02:24 13.10.2021
5948 Clear 22 1009 15 10000 0.78 30 23:55 12.10.2021
5949 Clear 21 1009 15 10000 1.65 2 23:29 12.10.2021
5950 Clear 25 1009 15 10000 1.65 2 22:43 12.10.2021
5951 Clear 21 1010 16 10000 2.84 357 21:30 12.10.2021
5952 Clear 21 1010 18 10000 3.91 356 20:34 12.10.2021
5953 Clear 19 1011 19 10000 4.3 351 19:52 12.10.2021
5954 Clear 15 1010 24 10000 2.91 353 18:27 12.10.2021
5955 Clear 13 1010 24 10000 2.91 353 17:38 12.10.2021
5956 Clear 11 1010 28 10000 1.67 333 16:38 12.10.2021
5957 Clear 11 1010 28 10000 1.67 333 16:38 12.10.2021
5958 Clear 10 1009 32 10000 2.06 329 15:44 12.10.2021
5959 Clear 11 1009 31 10000 2.57 323 14:38 12.10.2021
5960 Clouds 11 1008 30 10000 3.16 319 13:42 12.10.2021
5961 Clouds 11 1006 29 10000 3.96 315 11:37 12.10.2021
5962 Clear 13 1005 29 10000 4.43 315 09:41 12.10.2021
5963 Clear 13 1005 28 10000 4.97 324 08:42 12.10.2021
5964 Clear 13 1005 28 10000 4.97 324 08:42 12.10.2021
5965 Clouds 13 1003 26 10000 6.81 323 06:56 12.10.2021
5966 Clouds 14 1001 19 10000 9.16 333 05:29 12.10.2021
5967 Clouds 15 1001 19 10000 9.16 333 04:31 12.10.2021
5968 Clouds 20 998 37 10000 11.85 332 00:28 12.10.2021
5969 Clouds 20 998 37 10000 11.85 332 23:40 11.10.2021
5970 Clouds 26 995 15 10000 4.77 9 22:57 11.10.2021
5971 Clouds 28 996 16 10000 1.14 73 21:46 11.10.2021
5972 Clear 27 997 18 10000 0.92 142 20:39 11.10.2021
5973 Clouds 25 999 22 10000 3.32 179 19:44 11.10.2021
5974 Clouds 26 999 23 10000 5.18 168 18:37 11.10.2021
5975 Clouds 23 1001 25 10000 4.7 167 17:46 11.10.2021
5976 Clouds 21 1002 28 10000 3.09 161 16:31 11.10.2021
5977 Clear 19 1002 30 10000 2.77 165 15:50 11.10.2021
5978 Clear 20 1003 27 10000 2.6 161 14:55 11.10.2021
5979 Clear 15 1003 27 10000 2.6 161 14:30 11.10.2021
5980 Clear 16 1004 25 10000 1.86 156 13:36 11.10.2021
5981 Clear 21 1005 21 10000 1.54 146 11:38 11.10.2021
5982 Clear 22 1007 20 10000 1.04 151 10:31 11.10.2021
5983 Clear 22 1007 20 10000 1.04 151 10:31 11.10.2021
5984 Clear 23 1008 18 10000 1.41 154 09:19 11.10.2021
5985 Clear 21 1010 17 10000 1.65 175 06:30 11.10.2021
5986 Clear 29 1011 12 10000 1.18 153 01:38 11.10.2021
5987 Clear 29 1011 12 10000 1.1 138 00:46 11.10.2021
5988 Clear 29 1012 13 10000 0.98 138 23:57 10.10.2021
5989 Clear 27 1015 14 10000 0.83 34 21:52 10.10.2021
5990 Clear 27 1015 14 10000 0.83 34 21:31 10.10.2021
5991 Clear 26 1016 16 10000 1.58 15 20:43 10.10.2021
5992 Clear 26 1017 16 10000 2.46 13 20:21 10.10.2021
5993 Clear 26 1017 16 10000 2.46 13 19:58 10.10.2021
5994 Clear 29 1017 16 10000 2.46 13 19:35 10.10.2021
5995 Clear 26 1018 17 10000 3.13 8 18:35 10.10.2021
5996 Clear 19 1018 21 10000 2.33 1 16:46 10.10.2021
5997 Clear 17 1018 24 10000 2.34 359 15:44 10.10.2021
5998 Clear 18 1017 22 10000 1.64 356 13:53 10.10.2021
5999 Clear 19 1017 22 10000 1.64 356 13:32 10.10.2021
6000 Clear 19 1017 21 10000 1.98 9 12:33 10.10.2021
6001 Clear 20 1017 19 10000 2.02 345 10:43 10.10.2021
6002 Clear 21 1017 18 10000 2.4 349 09:30 10.10.2021
6003 Clear 22 1017 17 10000 3.34 355 08:53 10.10.2021
6004 Clear 22 1016 13 10000 2.52 341 07:28 10.10.2021
6005 Clear 27 1014 10 10000 4.71 339 02:42 10.10.2021
6006 Clear 28 1013 11 10000 4.86 337 00:57 10.10.2021
6007 Clear 28 1014 14 10000 4.36 344 00:23 10.10.2021
6008 Clear 28 1014 17 10000 3.43 349 22:52 09.10.2021
6009 Clouds 27 1015 20 10000 2.91 357 21:45 09.10.2021
6010 Clouds 26 1016 24 10000 3.27 3 21:26 09.10.2021
6011 Clear 27 1016 31 10000 3.54 6 19:44 09.10.2021
6012 Clear 23 1017 39 10000 2.09 10 19:19 09.10.2021
6013 Clear 24 1017 39 10000 2.09 10 18:33 09.10.2021
6014 Clear 19 1016 49 10000 0.41 191 16:43 09.10.2021
6015 Clear 18 1015 57 10000 0.73 210 15:33 09.10.2021
6016 Clear 19 1015 53 10000 0.64 216 13:45 09.10.2021
6017 Clear 19 1014 51 10000 1.31 213 12:40 09.10.2021
6018 Clear 19 1014 50 10000 1.01 211 11:48 09.10.2021
6019 Clear 19 1013 48 10000 0.25 113 10:42 09.10.2021
6020 Clear 20 1013 46 10000 0.46 193 09:52 09.10.2021
6021 Clear 20 1013 45 10000 0.29 250 08:30 09.10.2021
6022 Clear 20 1013 43 10000 0.41 200 08:30 09.10.2021
6023 Clouds 20 1012 42 10000 0.42 311 07:48 09.10.2021
6024 Clouds 23 1010 39 10000 3.05 190 05:29 09.10.2021
6025 Clouds 27 1008 30 10000 3.73 185 02:59 09.10.2021
6026 Clouds 26 1008 30 10000 3.73 185 02:40 09.10.2021
6027 Clear 30 1008 23 10000 6.11 191 23:51 08.10.2021
6028 Clear 28 1009 24 10000 6.82 196 22:55 08.10.2021
6029 Clear 28 1010 26 10000 7.2 197 22:24 08.10.2021
6030 Clear 28 1010 30 10000 7.32 187 21:18 08.10.2021
6031 Clouds 22 1012 44 10000 7.76 178 18:59 08.10.2021
6032 Clouds 21 1012 52 10000 7.29 172 17:36 08.10.2021
6033 Clouds 19 1012 55 10000 7.44 172 16:51 08.10.2021
6034 Clouds 19 1011 51 10000 6.37 176 16:23 08.10.2021
6035 Clouds 19 1011 42 10000 6.29 179 13:57 08.10.2021
6036 Clouds 19 1011 42 10000 6.29 179 13:35 08.10.2021
6037 Clouds 21 1010 42 10000 5.22 178 11:33 08.10.2021
6038 Clouds 21 1010 42 10000 4.39 177 10:41 08.10.2021
6039 Clouds 23 1011 44 10000 4 183 09:25 08.10.2021
6040 Clouds 33 1009 19 10000 5.78 179 00:34 08.10.2021
6041 Clouds 33 1010 22 10000 5.91 181 23:21 07.10.2021
6042 Clouds 31 1011 24 10000 5.62 174 21:46 07.10.2021
6043 Clouds 31 1012 22 10000 4.6 166 21:26 07.10.2021
6044 Clouds 30 1013 26 10000 3.54 166 20:22 07.10.2021
6045 Clouds 30 1013 30 10000 2.71 183 19:29 07.10.2021
6046 Clouds 28 1013 31 10000 1.43 179 18:24 07.10.2021
6047 Clouds 24 1012 33 10000 1.19 190 17:26 07.10.2021
6048 Clouds 22 1012 35 10000 1.75 178 15:53 07.10.2021
6049 Clouds 23 1011 35 10000 1.09 158 14:21 07.10.2021
6050 Clouds 24 1011 35 10000 1.09 158 13:38 07.10.2021
6051 Clouds 24 1011 35 10000 0.94 158 12:45 07.10.2021
6052 Clouds 23 1011 33 10000 1.79 160 10:56 07.10.2021
6053 Clouds 23 1010 33 10000 2.01 160 10:19 07.10.2021
6054 Clouds 23 1010 33 10000 2.01 160 09:34 07.10.2021
6055 Clouds 24 1011 32 10000 2.15 169 08:51 07.10.2021
6056 Clouds 26 1010 29 10000 2.69 175 07:44 07.10.2021
6057 Clouds 26 1010 28 10000 2.57 177 07:20 07.10.2021
6058 Clouds 29 1010 23 10000 3.73 188 03:54 07.10.2021
6059 Clouds 33 1009 19 10000 4.97 164 00:29 07.10.2021
6060 Clouds 34 1010 20 10000 4.92 163 22:51 06.10.2021
6061 Clouds 34 1012 22 10000 3.43 163 22:21 06.10.2021
6062 Clouds 31 1013 25 10000 2.32 163 20:40 06.10.2021
6063 Clouds 29 1013 28 10000 2.17 158 19:55 06.10.2021
6064 Clouds 29 1014 32 10000 1.84 161 18:42 06.10.2021
6065 Clouds 25 1014 40 10000 1.32 166 16:58 06.10.2021
6066 Clouds 19 1013 48 10000 1.25 146 15:31 06.10.2021
6067 Clouds 21 1012 41 10000 1.44 148 14:28 06.10.2021
6068 Clouds 23 1012 40 10000 1.31 135 13:20 06.10.2021
6069 Clouds 23 1012 40 10000 1.31 135 12:43 06.10.2021
6070 Clouds 22 1012 38 10000 1.27 147 12:21 06.10.2021
6071 Clear 25 1012 35 10000 1.39 148 10:23 06.10.2021
6072 Clear 24 1012 35 10000 1.39 148 09:39 06.10.2021
6073 Clear 23 1012 34 10000 1.56 159 08:51 06.10.2021
6074 Clouds 25 1011 32 10000 1.96 162 07:50 06.10.2021
6075 Clouds 25 1010 26 10000 3.02 164 05:27 06.10.2021
6076 Clouds 36 1009 16 10000 4.15 165 01:23 06.10.2021
6077 Clouds 34 1009 16 10000 4.59 166 00:18 06.10.2021
6078 Clouds 36 1009 16 10000 4.59 166 23:45 05.10.2021
6079 Clouds 35 1010 16 10000 3.77 163 23:27 05.10.2021
6080 Clouds 32 1011 17 10000 3.02 162 22:28 05.10.2021
6081 Clouds 34 1011 17 10000 3.02 162 21:50 05.10.2021
6082 Clouds 33 1012 18 10000 2.57 159 20:49 05.10.2021
6083 Clouds 32 1012 21 10000 4.18 159 20:25 05.10.2021
6084 Clouds 31 1012 21 10000 4.18 159 19:50 05.10.2021
6085 Clouds 29 1013 20 10000 3.71 164 19:18 05.10.2021
6086 Clouds 29 1012 21 10000 1.88 142 16:58 05.10.2021
6087 Clouds 22 1011 25 10000 1.42 157 15:22 05.10.2021
6088 Clouds 26 1011 24 10000 0.48 138 13:43 05.10.2021
6089 Clouds 26 1010 23 10000 0.16 118 12:55 05.10.2021
6090 Clouds 26 1010 23 10000 0.16 118 12:32 05.10.2021
6091 Clouds 21 1011 22 10000 0.78 169 11:22 05.10.2021
6092 Clouds 23 1011 21 10000 1.17 175 09:50 05.10.2021
6093 Clouds 26 1011 22 10000 0.43 220 05:36 05.10.2021
6094 Clouds 35 1011 16 10000 3.13 172 00:37 05.10.2021
6095 Clouds 36 1012 13 10000 2.36 162 22:49 04.10.2021
6096 Clouds 36 1013 13 10000 0.89 141 20:45 04.10.2021
6097 Clouds 33 1014 14 10000 0.77 46 18:47 04.10.2021
6098 Clouds 30 1014 17 10000 0.76 9 16:44 04.10.2021
6099 Clouds 26 1014 21 10000 0.51 348 15:32 04.10.2021
6100 Clouds 26 1013 21 10000 0.18 143 14:43 04.10.2021
6101 Clouds 27 1013 20 10000 0.72 152 13:58 04.10.2021
6102 Clouds 27 1013 20 10000 0.72 152 13:30 04.10.2021
6103 Clouds 27 1012 20 10000 0.5 144 12:31 04.10.2021
6104 Clouds 28 1012 20 10000 0.47 172 11:32 04.10.2021
6105 Clear 28 1012 20 10000 0.59 182 10:41 04.10.2021
6106 Clear 30 1012 18 10000 1.46 184 09:26 04.10.2021
6107 Clear 24 1012 17 10000 1.22 188 07:52 04.10.2021
6108 Clear 32 1011 15 10000 2.54 187 03:44 04.10.2021
6109 Clear 36 1012 10 10000 0.79 132 22:48 03.10.2021
6110 Clear 35 1014 10 10000 0.48 106 21:52 03.10.2021
6111 Clear 35 1014 10 10000 0.48 106 21:52 03.10.2021
6112 Clear 35 1015 9 10000 0.67 33 21:29 03.10.2021
6113 Clear 35 1015 9 10000 0.67 33 20:43 03.10.2021
6114 Clear 35 1016 9 10000 1.11 16 19:33 03.10.2021
6115 Clear 33 1016 10 10000 1.54 0 18:29 03.10.2021
6116 Clear 33 1016 10 10000 1.54 0 18:29 03.10.2021
6117 Clear 30 1016 10 10000 1.54 0 17:36 03.10.2021
6118 Clear 25 1015 15 10000 1.17 350 14:50 03.10.2021
6119 Clear 20 1015 15 10000 1.11 350 14:29 03.10.2021
6120 Clear 25 1015 15 10000 1.18 348 13:35 03.10.2021
6121 Clear 26 1014 15 10000 1.21 349 12:44 03.10.2021
6122 Clear 26 1015 14 10000 0.81 332 11:19 03.10.2021
6123 Clear 27 1015 14 10000 0.72 331 09:57 03.10.2021
6124 Clear 25 1014 12 10000 1.12 223 05:25 03.10.2021
6125 Clear 34 1015 7 10000 0.65 49 22:52 02.10.2021
6126 Clear 34 1016 7 10000 0.65 50 21:50 02.10.2021
6127 Clear 33 1017 8 10000 0.84 34 20:30 02.10.2021
6128 Clear 33 1017 8 10000 1.17 21 18:56 02.10.2021
6129 Clear 33 1017 8 10000 1.17 21 18:56 02.10.2021
6130 Clear 31 1018 8 10000 1.06 12 18:20 02.10.2021
6131 Clear 28 1018 8 10000 1.06 12 17:37 02.10.2021
6132 Clear 25 1017 10 10000 0.76 355 16:39 02.10.2021
6133 Clear 22 1016 11 10000 0.98 178 07:30 02.10.2021
6134 Clear 22 1018 11 10000 3.39 355 15:37 30.09.2021
6135 Clear 23 1016 10 10000 3.5 355 13:57 30.09.2021
6136 Clear 25 1015 9 10000 2.97 357 11:54 30.09.2021
6137 Clear 25 1015 8 10000 3.04 352 10:53 30.09.2021
6138 Clear 25 1015 8 10000 3.29 352 10:25 30.09.2021
6139 Clear 26 1015 8 10000 2.97 353 08:31 30.09.2021
6140 Clear 26 1015 7 10000 3 351 07:35 30.09.2021
6141 Clear 26 1013 6 10000 2.73 332 05:25 30.09.2021
6142 Clouds 31 1011 5 10000 4.35 331 02:19 30.09.2021
6143 Clouds 31 1011 5 10000 4.73 339 00:30 30.09.2021
6144 Clouds 30 1012 6 10000 5.09 348 22:41 29.09.2021
6145 Clouds 29 1014 8 10000 5.61 4 21:28 29.09.2021
6146 Clouds 28 1014 8 10000 5.65 6 20:30 29.09.2021
6147 Clouds 27 1015 10 10000 5.79 3 19:56 29.09.2021
6148 Clouds 28 1015 11 10000 5.95 2 19:18 29.09.2021
6149 Clouds 25 1014 11 10000 5.7 359 17:58 29.09.2021
6150 Clouds 20 1014 12 10000 4.32 353 16:55 29.09.2021
6151 Clouds 19 1013 12 10000 3.72 352 16:22 29.09.2021
6152 Clouds 19 1012 11 10000 4.11 355 14:42 29.09.2021
6153 Clouds 19 1012 12 10000 3.25 356 14:20 29.09.2021
6154 Clouds 20 1012 12 10000 3.25 356 13:32 29.09.2021
6155 Clouds 20 1011 11 10000 3.24 358 12:38 29.09.2021
6156 Clear 21 1010 11 10000 3.17 354 10:57 29.09.2021
6157 Clear 21 1010 12 10000 3.75 351 10:25 29.09.2021
6158 Clear 22 1010 12 10000 3.75 351 09:39 29.09.2021
6159 Clouds 24 1008 12 10000 2.59 359 07:48 29.09.2021
6160 Clouds 28 1007 15 10000 3.29 358 05:52 29.09.2021
6161 Clouds 32 1004 20 10000 0.85 140 23:47 28.09.2021
6162 Clouds 34 1006 21 10000 1.39 162 22:25 28.09.2021
6163 Clouds 32 1006 21 10000 1.39 162 21:45 28.09.2021
6164 Clouds 32 1006 22 10000 1.63 155 20:48 28.09.2021
6165 Clear 32 1008 25 10000 1.16 146 19:48 28.09.2021
6166 Clear 31 1008 28 10000 0.94 169 19:25 28.09.2021
6167 Clear 31 1008 28 10000 0.94 169 18:40 28.09.2021
6168 Clear 26 1008 34 10000 0.76 128 16:43 28.09.2021
6169 Clear 21 1006 39 10000 1.43 145 14:53 28.09.2021
6170 Clouds 26 1006 37 10000 2.22 147 13:25 28.09.2021
6171 Clouds 23 1006 35 10000 2.77 144 12:24 28.09.2021
6172 Clouds 24 1006 35 10000 2.77 144 11:47 28.09.2021
6173 Clear 24 1006 32 10000 2.68 156 11:25 28.09.2021
6174 Clear 29 1005 28 10000 3.26 147 10:27 28.09.2021
6175 Clear 30 1006 26 10000 3.03 157 09:29 28.09.2021
6176 Clear 25 1006 26 10000 3.03 157 08:43 28.09.2021
6177 Clear 31 1006 25 10000 2.73 159 08:18 28.09.2021
6178 Clear 32 1005 24 10000 2.05 156 06:46 28.09.2021
6179 Clear 35 1005 16 10000 5.16 156 01:35 28.09.2021
6180 Clear 36 1006 17 10000 5.84 157 00:30 28.09.2021
6181 Clear 36 1007 18 10000 6 157 23:49 27.09.2021
6182 Clear 37 1008 19 10000 4.89 158 23:24 27.09.2021
6183 Clear 36 1009 22 10000 3.84 159 22:21 27.09.2021
6184 Clear 36 1009 22 10000 3.84 159 21:38 27.09.2021
6185 Clear 35 1011 27 10000 2.9 166 20:27 27.09.2021
6186 Clear 34 1011 27 10000 2.69 162 19:37 27.09.2021
6187 Clear 33 1012 29 10000 2.51 168 18:53 27.09.2021
6188 Clear 31 1012 31 10000 2.55 170 17:41 27.09.2021
6189 Clear 31 1012 31 10000 2.55 170 17:41 27.09.2021
6190 Clear 29 1011 34 10000 2.26 166 16:59 27.09.2021
6191 Clear 29 1011 34 10000 2.26 166 16:35 27.09.2021
6192 Clear 23 1011 38 10000 1.91 170 15:39 27.09.2021
6193 Clouds 23 1010 35 10000 1.65 147 13:50 27.09.2021
6194 Clear 24 1010 32 10000 1.04 156 12:26 27.09.2021
6195 Clear 26 1010 30 10000 1.48 165 10:51 27.09.2021
6196 Clear 26 1010 28 10000 1.93 176 09:42 27.09.2021
6197 Clear 30 1010 26 10000 2.1 179 07:57 27.09.2021
6198 Clear 35 1008 21 10000 3.3 185 03:40 27.09.2021
6199 Clear 38 1009 20 10000 2.76 156 00:21 27.09.2021
6200 Clear 37 1011 22 10000 2.14 151 22:18 26.09.2021
6201 Clear 37 1011 22 10000 2.14 151 21:30 26.09.2021
6202 Clear 39 1011 24 10000 1.79 150 20:38 26.09.2021
6203 Clear 38 1012 26 10000 1.36 154 19:59 26.09.2021
6204 Clear 33 1013 29 10000 1.28 157 19:26 26.09.2021
6205 Clear 33 1013 29 10000 1.28 157 19:26 26.09.2021
6206 Clear 34 1013 29 10000 1.28 157 18:45 26.09.2021
6207 Clear 31 1013 32 10000 1.24 172 17:49 26.09.2021
6208 Clear 28 1012 34 10000 1.16 158 17:20 26.09.2021
6209 Clear 24 1012 40 10000 0.53 163 16:28 26.09.2021
6210 Clear 23 1012 40 10000 0.53 163 15:56 26.09.2021
6211 Clear 24 1011 40 10000 0.17 80 14:26 26.09.2021
6212 Clear 24 1011 40 10000 0.17 80 13:44 26.09.2021
6213 Clear 25 1011 38 10000 0.14 262 12:31 26.09.2021
6214 Clear 26 1011 37 10000 1.07 173 11:58 26.09.2021
6215 Clear 26 1011 37 10000 1.07 173 11:36 26.09.2021
6216 Clear 29 1011 34 10000 1.87 166 09:52 26.09.2021
6217 Clear 30 1011 32 10000 2.52 175 08:54 26.09.2021
6218 Clear 36 1008 17 10000 4.8 162 03:24 26.09.2021
6219 Clear 39 1010 14 10000 3.91 159 00:20 26.09.2021
6220 Clear 39 1011 15 10000 3 156 23:22 25.09.2021
6221 Clear 39 1011 15 10000 3 156 22:36 25.09.2021
6222 Clear 38 1012 16 10000 2.19 151 21:49 25.09.2021
6223 Clear 37 1013 18 10000 1.58 147 21:19 25.09.2021
6224 Clear 37 1013 18 10000 1.58 147 20:37 25.09.2021
6225 Clear 38 1014 22 10000 1.35 144 18:40 25.09.2021
6226 Clear 33 1014 22 10000 1.18 157 17:47 25.09.2021
6227 Clear 29 1013 23 10000 1.15 163 15:35 25.09.2021
6228 Clear 29 1012 21 10000 0.79 135 13:56 25.09.2021
6229 Clear 29 1011 20 10000 0.59 172 12:48 25.09.2021
6230 Clear 25 1011 19 10000 0.61 226 11:40 25.09.2021
6231 Clear 26 1012 18 10000 0.84 239 10:33 25.09.2021
6232 Clear 28 1012 15 10000 1.35 213 09:26 25.09.2021
6233 Clear 29 1012 20 10000 1.94 186 07:52 25.09.2021
6234 Clear 33 1011 15 10000 1.48 208 05:19 25.09.2021
6235 Clear 38 1011 11 10000 0.52 24 23:45 24.09.2021
6236 Clear 37 1013 13 10000 2.02 11 21:41 24.09.2021
6237 Clear 36 1013 14 10000 2.82 7 20:33 24.09.2021
6238 Clear 35 1014 14 10000 3.23 20 19:47 24.09.2021
6239 Clear 35 1014 14 10000 3.5 11 18:32 24.09.2021
6240 Clear 32 1014 15 10000 3.57 12 17:54 24.09.2021
6241 Clear 30 1014 15 10000 3.57 12 17:35 24.09.2021
6242 Clear 29 1014 15 10000 2.84 4 16:55 24.09.2021
6243 Clear 28 1012 15 10000 2.9 357 13:57 24.09.2021
6244 Clear 29 1012 14 10000 2.57 353 12:45 24.09.2021
6245 Clear 29 1011 14 10000 2.41 358 12:27 24.09.2021
6246 Clear 29 1011 14 10000 2.41 358 11:59 24.09.2021
6247 Clouds 30 1011 15 10000 2.76 344 10:25 24.09.2021
6248 Clouds 29 1010 18 10000 0.43 332 08:29 24.09.2021
6249 Clouds 28 1010 15 10000 0.77 343 07:33 24.09.2021
6250 Clouds 28 1009 15 10000 0.33 145 06:44 24.09.2021
6251 Clouds 32 1008 13 10000 1.28 198 04:54 24.09.2021
6252 Clouds 39 1008 9 10000 1 24 23:57 23.09.2021
6253 Clouds 38 1010 9 10000 1.82 6 22:20 23.09.2021
6254 Clouds 38 1010 9 10000 1.82 6 21:47 23.09.2021
6255 Clear 40 1011 9 10000 2.38 7 20:33 23.09.2021
6256 Clear 34 1012 12 10000 1.85 11 19:28 23.09.2021
6257 Clear 31 1012 14 10000 1.37 359 17:46 23.09.2021
6258 Clear 28 1011 22 10000 0.25 287 15:28 23.09.2021
6259 Clear 29 1011 22 10000 0.25 287 14:59 23.09.2021
6260 Clouds 29 1011 23 10000 0.29 268 13:45 23.09.2021
6261 Clouds 29 1011 23 10000 0.29 268 13:45 23.09.2021
6262 Clouds 29 1010 23 10000 0.12 47 13:19 23.09.2021
6263 Clouds 30 1010 23 10000 0.12 47 12:48 23.09.2021
6264 Clouds 29 1011 21 10000 0.18 176 12:22 23.09.2021
6265 Clouds 27 1011 21 10000 0.18 176 11:32 23.09.2021
6266 Clouds 28 1011 19 10000 0.64 155 10:20 23.09.2021
6267 Clouds 30 1011 19 10000 0.64 155 09:51 23.09.2021
6268 Clouds 28 1011 18 10000 1.42 166 07:44 23.09.2021
6269 Clear 35 1011 13 10000 0.32 155 03:31 23.09.2021
6270 Clear 42 1014 9 10000 1.24 130 22:58 22.09.2021
6271 Clear 38 1016 9 10000 0.91 124 22:28 22.09.2021
6272 Clear 38 1016 9 10000 0.91 124 21:53 22.09.2021
6273 Clear 41 1016 9 10000 0.91 124 21:33 22.09.2021
6274 Clear 39 1017 9 10000 0.71 123 20:39 22.09.2021
6275 Clear 37 1018 10 10000 0.34 119 19:29 22.09.2021
6276 Clear 35 1018 10 10000 0.34 119 18:39 22.09.2021
6277 Clear 34 1018 10 10000 0.24 140 17:43 22.09.2021
6278 Clear 32 1019 11 10000 0.37 208 16:37 22.09.2021
6279 Clear 23 1018 15 10000 0.34 186 15:18 22.09.2021
6280 Clear 27 1018 14 10000 0.35 176 13:48 22.09.2021
6281 Clear 28 1019 13 10000 0.29 196 11:57 22.09.2021
6282 Clear 29 1019 12 10000 0.28 216 10:45 22.09.2021
6283 Clear 29 1019 11 10000 0.21 194 09:24 22.09.2021
6284 Clear 30 1019 11 10000 0.1 222 08:28 22.09.2021
6285 Clear 27 1019 11 10000 0.31 160 06:59 22.09.2021
6286 Clear 28 1019 11 10000 0.59 185 05:53 22.09.2021
6287 Clear 29 1019 11 10000 0.59 185 05:34 22.09.2021
6288 Clear 35 1018 10 10000 0.94 229 03:48 22.09.2021
6289 Clear 37 1018 7 10000 0.84 65 00:22 22.09.2021
6290 Clear 36 1019 7 10000 1.08 44 22:54 21.09.2021
6291 Clear 35 1021 8 10000 1.47 31 21:36 21.09.2021
6292 Clear 33 1022 10 10000 2.36 32 20:26 21.09.2021
6293 Clear 32 1021 11 10000 2.48 28 19:22 21.09.2021
6294 Clear 30 1021 12 10000 2.41 24 17:36 21.09.2021
6295 Clear 29 1021 13 10000 1.79 17 16:35 21.09.2021
6296 Clear 26 1021 15 10000 1.74 13 15:39 21.09.2021
6297 Clear 28 1020 15 10000 1.73 11 14:58 21.09.2021
6298 Clear 28 1019 14 10000 1.85 10 13:56 21.09.2021
6299 Clear 27 1019 14 10000 1.85 10 13:36 21.09.2021
6300 Clear 29 1018 14 10000 1.8 6 12:35 21.09.2021
6301 Clear 29 1018 13 10000 2.22 4 10:32 21.09.2021
6302 Clear 30 1017 13 10000 2.15 350 08:29 21.09.2021
6303 Clear 30 1017 12 10000 1.8 359 06:53 21.09.2021
6304 Clouds 35 1013 10 10000 3.07 346 00:30 21.09.2021
6305 Clouds 33 1016 13 10000 4.99 352 22:27 20.09.2021
6306 Clouds 33 1016 13 10000 4.99 352 21:40 20.09.2021
6307 Clouds 32 1017 15 10000 5.65 360 20:34 20.09.2021
6308 Clear 32 1016 16 10000 5.68 4 19:33 20.09.2021
6309 Clear 28 1016 19 10000 5.44 5 17:52 20.09.2021
6310 Clear 25 1015 21 10000 3.97 3 16:49 20.09.2021
6311 Clear 24 1015 24 10000 3.43 355 15:56 20.09.2021
6312 Clear 24 1015 24 10000 3.43 355 15:32 20.09.2021
6313 Clear 24 1013 22 10000 3.59 355 14:25 20.09.2021
6314 Clear 25 1013 21 10000 3.9 356 12:39 20.09.2021
6315 Clear 25 1012 20 10000 3.28 356 12:20 20.09.2021
6316 Clear 27 1011 21 10000 2.72 359 10:32 20.09.2021
6317 Clear 27 1011 21 10000 2.42 3 09:43 20.09.2021
6318 Clear 28 1010 20 10000 2.13 352 09:20 20.09.2021
6319 Clear 25 1010 20 10000 1.94 346 08:31 20.09.2021
6320 Clear 36 1006 15 10000 0.61 101 02:27 20.09.2021
6321 Clear 38 1007 16 10000 2 143 22:46 19.09.2021
6322 Clear 36 1008 17 10000 2.33 148 21:47 19.09.2021
6323 Clear 35 1009 19 10000 2.22 154 20:58 19.09.2021
6324 Clear 32 1010 20 10000 2.93 164 19:41 19.09.2021
6325 Clear 30 1011 22 10000 2.41 167 18:42 19.09.2021
6326 Clear 25 1011 25 10000 2.04 161 17:23 19.09.2021
6327 Clear 27 1011 25 10000 2.04 161 16:32 19.09.2021
6328 Clear 20 1010 28 10000 1.94 158 15:31 19.09.2021
6329 Clear 20 1010 28 10000 2.43 157 14:48 19.09.2021
6330 Clear 25 1010 26 10000 1.6 158 13:46 19.09.2021
6331 Clear 26 1010 24 10000 1.59 157 12:52 19.09.2021
6332 Clear 23 1010 23 10000 1.18 159 11:42 19.09.2021
6333 Clear 24 1010 21 10000 1.12 176 11:21 19.09.2021
6334 Clear 23 1010 19 10000 1.61 173 09:50 19.09.2021
6335 Clear 23 1010 19 10000 1.61 173 09:50 19.09.2021
6336 Clear 24 1010 17 10000 1.99 166 08:49 19.09.2021
6337 Clear 30 1009 14 10000 3.38 177 06:43 19.09.2021
6338 Clear 38 1009 6 10000 6.45 201 00:20 19.09.2021
6339 Clear 37 1010 5 10000 6.73 198 22:54 18.09.2021
6340 Clear 36 1011 6 10000 6.78 196 21:40 18.09.2021
6341 Clear 36 1012 8 10000 6.55 191 20:46 18.09.2021
6342 Clear 36 1013 9 10000 5.34 175 19:42 18.09.2021
6343 Clear 36 1013 10 10000 5.54 168 19:21 18.09.2021
6344 Clear 35 1013 10 10000 5.54 168 18:52 18.09.2021
6345 Clear 35 1013 12 10000 3.17 173 18:29 18.09.2021
6346 Clear 32 1013 14 10000 2.31 185 16:34 18.09.2021
6347 Clear 26 1012 20 10000 2.36 184 13:51 18.09.2021
6348 Clouds 26 1012 21 10000 2 188 13:31 18.09.2021
6349 Clouds 29 1012 21 10000 2.15 186 12:51 18.09.2021
6350 Clouds 28 1012 22 10000 2.68 184 11:59 18.09.2021
6351 Clouds 26 1012 23 10000 2.61 182 11:29 18.09.2021
6352 Clear 29 1012 26 10000 3.07 183 10:22 18.09.2021
6353 Clear 30 1013 27 10000 3.35 176 09:23 18.09.2021
6354 Clouds 30 1012 26 10000 2.82 173 08:24 18.09.2021
6355 Clouds 39 1010 16 10000 5.62 152 00:42 18.09.2021
6356 Clouds 40 1010 16 10000 5.74 154 23:53 17.09.2021
6357 Clouds 38 1011 16 10000 4.74 164 22:43 17.09.2021
6358 Clouds 38 1012 15 10000 5.17 163 22:21 17.09.2021
6359 Clouds 40 1012 15 10000 5.17 163 21:31 17.09.2021
6360 Clear 36 1012 15 10000 3.14 164 19:30 17.09.2021
6361 Clear 31 1012 16 10000 1.46 158 17:57 17.09.2021
6362 Clear 31 1011 17 10000 0.66 170 16:34 17.09.2021
6363 Clear 27 1010 22 10000 1.1 158 14:34 17.09.2021
6364 Clear 29 1008 16 10000 1.74 163 11:43 17.09.2021
6365 Clear 25 1007 14 10000 1.83 178 09:40 17.09.2021
6366 Clear 26 1006 15 10000 2.54 178 07:42 17.09.2021
6367 Clear 31 1005 11 10000 3.76 186 05:27 17.09.2021
6368 Clear 39 1004 8 10000 3.09 166 00:29 17.09.2021
6369 Clear 39 1005 9 10000 3.4 164 22:41 16.09.2021
6370 Clear 39 1006 10 10000 3.47 161 22:23 16.09.2021
6371 Clear 39 1006 10 10000 3.47 161 21:31 16.09.2021
6372 Clear 38 1007 13 10000 2.38 163 20:29 16.09.2021
6373 Clear 33 1008 14 10000 2.29 165 18:38 16.09.2021
6374 Clear 32 1007 15 10000 2.29 166 18:18 16.09.2021
6375 Clear 28 1007 18 10000 1.58 164 15:33 16.09.2021
6376 Clear 28 1006 18 10000 1.84 171 14:43 16.09.2021
6377 Clear 24 1006 17 10000 1.82 175 13:33 16.09.2021
6378 Clear 24 1006 16 10000 1.78 183 12:42 16.09.2021
6379 Clear 25 1005 15 10000 1.87 189 11:46 16.09.2021
6380 Clear 27 1005 14 10000 2.18 186 10:54 16.09.2021
6381 Clear 26 1005 13 10000 2.55 183 10:21 16.09.2021
6382 Clear 27 1005 13 10000 2.56 178 09:18 16.09.2021
6383 Clear 31 1005 13 10000 2.48 179 07:47 16.09.2021
6384 Clear 32 1006 13 10000 2.64 182 06:56 16.09.2021
6385 Clear 32 1006 13 10000 2.64 182 06:37 16.09.2021
6386 Clear 38 1004 7 10000 4.23 201 03:22 16.09.2021
6387 Clear 41 1005 7 10000 5.07 184 00:46 16.09.2021
6388 Clear 41 1007 9 10000 4.56 166 23:24 15.09.2021
6389 Clear 40 1008 9 10000 3.12 159 22:26 15.09.2021
6390 Clear 40 1008 9 10000 3.12 159 21:30 15.09.2021
6391 Clear 37 1010 11 10000 1.87 157 20:26 15.09.2021
6392 Clear 37 1010 11 10000 1.87 157 19:31 15.09.2021
6393 Clear 36 1010 11 10000 1.6 160 18:37 15.09.2021
6394 Clear 35 1010 10 10000 1.08 159 17:33 15.09.2021
6395 Clear 29 1010 12 10000 0.72 189 16:29 15.09.2021
6396 Clear 29 1009 11 10000 0.64 196 14:59 15.09.2021
6397 Clear 29 1009 11 10000 0.64 196 14:40 15.09.2021
6398 Clear 29 1009 11 10000 0.6 174 13:45 15.09.2021
6399 Clear 30 1009 10 10000 0.88 183 13:26 15.09.2021
6400 Clear 31 1009 8 10000 1.17 189 12:29 15.09.2021
6401 Clear 31 1009 8 10000 1.17 189 11:50 15.09.2021
6402 Clear 32 1009 7 10000 1.35 191 10:57 15.09.2021
6403 Clear 33 1009 6 10000 1.68 194 09:59 15.09.2021
6404 Clear 33 1009 6 10000 1.86 194 08:46 15.09.2021
6405 Clear 35 1009 7 10000 1.73 199 07:25 15.09.2021
6406 Clear 41 1007 7 10000 2.39 154 00:41 15.09.2021
6407 Clear 39 1010 9 10000 1.04 136 22:22 14.09.2021
6408 Clear 38 1011 10 10000 0.84 122 21:21 14.09.2021
6409 Clear 38 1011 10 10000 0.84 122 21:21 14.09.2021
6410 Clear 37 1011 12 10000 0.73 116 20:18 14.09.2021
6411 Clear 35 1011 12 10000 0.56 105 18:44 14.09.2021
6412 Clear 32 1011 13 10000 0.37 118 17:32 14.09.2021
6413 Clear 25 1010 17 10000 0.3 182 15:59 14.09.2021
6414 Clear 29 1010 17 10000 0.69 157 14:32 14.09.2021
6415 Clear 29 1009 15 10000 0.9 152 13:53 14.09.2021
6416 Clear 31 1008 13 10000 0.43 151 11:41 14.09.2021
6417 Clear 33 1008 12 10000 1.58 184 10:20 14.09.2021
6418 Clear 28 1008 12 10000 1.58 184 09:45 14.09.2021
6419 Clear 31 1007 11 10000 2.97 179 07:28 14.09.2021
6420 Clear 42 1005 7 10000 2.73 176 01:28 14.09.2021
6421 Clear 44 1007 10 10000 2.48 162 23:27 13.09.2021
6422 Clear 43 1008 12 10000 2.43 156 22:27 13.09.2021
6423 Clear 43 1008 12 10000 2.43 156 21:55 13.09.2021
6424 Clear 38 1009 15 10000 1.91 154 21:23 13.09.2021
6425 Clear 39 1010 15 10000 1.31 154 19:34 13.09.2021
6426 Clear 37 1010 16 10000 1.14 160 18:44 13.09.2021
6427 Clear 31 1010 18 10000 1.2 174 17:21 13.09.2021
6428 Clear 30 1010 22 10000 1.52 168 16:23 13.09.2021
6429 Clear 30 1009 21 10000 1.41 174 14:30 13.09.2021
6430 Clear 28 1009 18 10000 1.98 194 11:43 13.09.2021
6431 Clear 29 1009 14 10000 2.4 188 10:26 13.09.2021
6432 Clear 33 1008 11 10000 3.09 184 07:57 13.09.2021
6433 Clear 42 1008 7 10000 5.94 182 00:18 13.09.2021
6434 Clear 42 1009 9 10000 5.28 175 22:42 12.09.2021
6435 Clear 41 1010 11 10000 5.21 167 22:21 12.09.2021
6436 Clear 41 1011 14 10000 4.41 164 20:47 12.09.2021
6437 Clear 40 1012 16 10000 3.26 166 19:56 12.09.2021
6438 Clear 37 1012 17 10000 2.33 168 19:29 12.09.2021
6439 Clear 38 1012 17 10000 2.33 168 18:53 12.09.2021
6440 Clear 34 1012 21 10000 1.42 170 16:58 12.09.2021
6441 Clear 31 1012 25 10000 1.1 152 15:41 12.09.2021
6442 Clear 25 1011 25 10000 1.31 156 14:37 12.09.2021
6443 Clear 33 1011 21 10000 2.06 182 12:28 12.09.2021
6444 Clear 34 1011 20 10000 2.54 183 10:19 12.09.2021
6445 Clear 29 1011 19 10000 2.66 181 08:38 12.09.2021
6446 Clear 36 1009 14 10000 3.7 194 04:59 12.09.2021
6447 Clear 42 1008 10 10000 5.68 203 00:46 12.09.2021
6448 Clear 41 1011 12 10000 5.81 197 22:29 11.09.2021
6449 Clear 41 1011 12 10000 5.81 197 21:38 11.09.2021
6450 Clear 38 1012 17 10000 4.11 182 19:35 11.09.2021
6451 Clear 35 1013 23 10000 3.61 181 17:56 11.09.2021
6452 Clear 35 1013 25 10000 2.99 184 16:41 11.09.2021
6453 Clear 28 1011 29 10000 2.96 186 15:24 11.09.2021
6454 Clear 29 1011 30 10000 3.24 187 13:22 11.09.2021
6455 Clear 34 1011 29 10000 3.2 191 11:40 11.09.2021
6456 Clear 30 1011 27 10000 2.88 184 09:42 11.09.2021
6457 Clear 31 1010 27 10000 3.27 181 08:31 11.09.2021
6458 Clear 32 1010 26 10000 3.62 180 07:34 11.09.2021
6459 Clouds 40 1007 16 10000 6.24 216 02:29 11.09.2021
6460 Clear 38 1010 15 10000 6.63 206 22:27 10.09.2021
6461 Clear 38 1010 15 10000 6.63 206 21:56 10.09.2021
6462 Clear 39 1010 15 10000 6.63 206 21:35 10.09.2021
6463 Clouds 39 1011 22 10000 3.4 170 18:47 10.09.2021
6464 Clouds 35 1011 24 10000 2.1 170 17:42 10.09.2021
6465 Clouds 34 1011 30 10000 1.68 181 15:38 10.09.2021
6466 Clouds 33 1010 31 10000 0.49 215 13:18 10.09.2021
6467 Clouds 34 1010 28 10000 0.85 171 10:32 10.09.2021
6468 Clouds 34 1010 28 10000 0.85 171 10:32 10.09.2021
6469 Clouds 31 1010 26 10000 0.76 220 07:51 10.09.2021
6470 Clouds 32 1010 29 10000 3.53 181 05:23 10.09.2021
6471 Clouds 44 1007 12 10000 5.95 166 23:52 09.09.2021
6472 Clouds 43 1010 14 10000 5.25 170 21:47 09.09.2021
6473 Clouds 43 1010 16 10000 4.89 168 20:47 09.09.2021
6474 Clouds 42 1011 18 10000 4.47 167 20:23 09.09.2021
6475 Clouds 42 1011 18 10000 4.47 167 20:23 09.09.2021
6476 Clouds 42 1012 23 10000 2.9 163 18:39 09.09.2021
6477 Clouds 38 1012 28 10000 2.37 155 17:41 09.09.2021
6478 Clouds 35 1011 35 10000 1.69 149 16:27 09.09.2021
6479 Clear 30 1011 35 10000 1.71 136 13:38 09.09.2021
6480 Clear 31 1010 30 10000 2.44 165 11:57 09.09.2021
6481 Clear 33 1010 28 10000 3.11 176 10:54 09.09.2021
6482 Clear 36 1010 25 10000 3.73 175 09:34 09.09.2021
6483 Clear 36 1010 25 10000 3.73 175 09:34 09.09.2021
6484 Clear 34 1010 23 10000 4.47 176 07:34 09.09.2021
6485 Clear 38 1008 14 10000 4.4 167 05:40 09.09.2021
6486 Clear 46 1007 8 10000 1.39 148 23:54 08.09.2021
6487 Clear 45 1008 9 10000 0.73 124 21:48 08.09.2021
6488 Clear 44 1009 10 10000 0.67 101 20:48 08.09.2021
6489 Clear 45 1010 10 10000 0.61 91 19:46 08.09.2021
6490 Clear 43 1010 11 10000 0.56 121 18:47 08.09.2021
6491 Clear 42 1010 12 10000 0.33 126 18:25 08.09.2021
6492 Clear 39 1010 12 10000 0.33 126 17:39 08.09.2021
6493 Clear 34 1009 16 10000 0.12 139 15:35 08.09.2021
6494 Clear 35 1009 16 10000 0.53 203 13:33 08.09.2021
6495 Clear 35 1008 15 10000 0.67 218 12:41 08.09.2021
6496 Clear 36 1008 15 10000 0.76 212 12:23 08.09.2021
6497 Clear 37 1008 14 10000 0.83 205 11:26 08.09.2021
6498 Clear 37 1008 14 10000 0.83 205 10:31 08.09.2021
6499 Clear 38 1008 13 10000 0.95 218 09:55 08.09.2021
6500 Clear 34 1008 13 10000 0.86 243 07:45 08.09.2021
6501 Clear 34 1008 13 10000 0.86 243 07:45 08.09.2021
6502 Clear 39 1008 12 10000 1.06 230 07:19 08.09.2021
6503 Clear 45 1009 9 10000 0.76 101 23:28 07.09.2021
6504 Clear 44 1010 10 10000 0.71 93 22:19 07.09.2021
6505 Clear 45 1011 10 10000 0.58 58 20:42 07.09.2021
6506 Clear 42 1012 13 10000 0.56 47 18:53 07.09.2021
6507 Clear 41 1012 14 10000 0.39 43 18:28 07.09.2021
6508 Clear 38 1012 15 10000 0.27 359 17:25 07.09.2021
6509 Clear 34 1012 20 10000 0.43 313 15:57 07.09.2021
6510 Clear 33 1011 21 10000 0.31 263 14:53 07.09.2021
6511 Clear 34 1011 20 10000 0.5 194 13:52 07.09.2021
6512 Clear 34 1011 20 10000 0.5 194 13:52 07.09.2021
6513 Clear 35 1010 18 10000 0.67 176 11:58 07.09.2021
6514 Clear 36 1010 17 10000 0.78 195 10:50 07.09.2021
6515 Clear 37 1010 15 10000 0.88 211 10:18 07.09.2021
6516 Clear 33 1010 14 10000 1.54 176 07:47 07.09.2021
6517 Clear 36 1010 14 10000 1.4 165 06:20 07.09.2021
6518 Clear 45 1008 9 10000 1.59 152 02:39 07.09.2021
6519 Clear 46 1008 9 10000 1.57 140 01:57 07.09.2021
6520 Clear 45 1009 9 10000 1.77 143 23:52 06.09.2021
6521 Clear 45 1009 9 10000 1.77 143 23:31 06.09.2021
6522 Clear 44 1010 8 10000 1.78 148 22:51 06.09.2021
6523 Clear 43 1011 8 10000 1.44 149 22:21 06.09.2021
6524 Clear 42 1012 8 10000 0.96 143 20:35 06.09.2021
6525 Clouds 41 1013 8 10000 0.66 139 19:19 06.09.2021
6526 Clouds 41 1013 8 10000 0.66 139 18:36 06.09.2021
6527 Clouds 40 1013 9 10000 0.29 85 17:52 06.09.2021
6528 Clouds 33 1013 13 10000 0.11 228 16:23 06.09.2021
6529 Clouds 32 1012 13 10000 0.18 229 15:25 06.09.2021
6530 Clouds 33 1011 13 10000 0.62 302 13:44 06.09.2021
6531 Clouds 33 1011 12 10000 1.02 282 12:41 06.09.2021
6532 Clouds 34 1011 10 10000 1.05 255 10:36 06.09.2021
6533 Clear 35 1010 9 10000 0.53 224 07:39 06.09.2021
6534 Clear 39 1009 9 10000 0.45 255 04:36 06.09.2021
6535 Clear 42 1010 5 10000 1.13 130 23:23 05.09.2021
6536 Clear 42 1010 5 10000 1.13 130 22:33 05.09.2021
6537 Clear 42 1011 5 10000 0.85 121 21:56 05.09.2021
6538 Clear 41 1012 6 10000 0.6 108 21:21 05.09.2021
6539 Clear 40 1012 6 10000 0.51 47 19:45 05.09.2021
6540 Clear 36 1013 7 10000 0.48 29 17:53 05.09.2021
6541 Clear 36 1013 7 10000 0.33 350 16:33 05.09.2021
6542 Clear 29 1012 11 10000 0.54 338 15:21 05.09.2021
6543 Clear 30 1011 10 10000 0.8 342 12:45 05.09.2021
6544 Clear 31 1011 10 10000 0.63 330 11:44 05.09.2021
6545 Clear 31 1011 10 10000 0.46 282 10:42 05.09.2021
6546 Clear 32 1011 10 10000 0.49 247 09:42 05.09.2021
6547 Clear 33 1011 9 10000 0.59 229 08:35 05.09.2021
6548 Clear 30 1010 8 10000 0.93 216 06:33 05.09.2021
6549 Clear 41 1009 5 10000 0.83 112 00:41 05.09.2021
6550 Clear 40 1009 5 10000 0.87 122 23:59 04.09.2021
6551 Clear 40 1010 5 10000 0.91 124 23:26 04.09.2021
6552 Clear 40 1010 5 10000 0.91 124 22:35 04.09.2021
6553 Clear 38 1012 6 10000 0.75 118 21:20 04.09.2021
6554 Clear 37 1013 6 10000 0.71 121 19:40 04.09.2021
6555 Clear 30 1013 7 10000 0.53 171 17:25 04.09.2021
6556 Clear 29 1012 10 10000 0.37 171 15:52 04.09.2021
6557 Clear 29 1010 9 10000 0.15 325 11:54 04.09.2021
6558 Clear 30 1010 9 10000 0.2 261 10:55 04.09.2021
6559 Clear 31 1010 8 10000 0.3 207 08:39 04.09.2021
6560 Clear 38 1008 5 10000 1.05 113 01:59 04.09.2021
6561 Clear 38 1009 6 10000 1.14 105 00:23 04.09.2021
6562 Clear 38 1010 7 10000 1.08 109 23:23 03.09.2021
6563 Clear 37 1011 8 10000 0.92 113 21:43 03.09.2021
6564 Clear 36 1011 8 10000 0.7 119 21:24 03.09.2021
6565 Clear 36 1011 8 10000 0.7 119 20:34 03.09.2021
6566 Clear 35 1012 9 10000 0.68 135 19:45 03.09.2021
6567 Clear 35 1012 10 10000 0.63 134 18:37 03.09.2021
6568 Clear 32 1012 11 10000 0.94 165 17:32 03.09.2021
6569 Clear 25 1011 14 10000 1.21 166 16:22 03.09.2021
6570 Clear 27 1010 14 10000 1.18 172 14:47 03.09.2021
6571 Clear 29 1009 13 10000 0.82 192 11:47 03.09.2021
6572 Clear 26 1008 11 10000 2.05 177 10:21 03.09.2021
6573 Clear 26 1008 11 10000 2.56 177 08:38 03.09.2021
6574 Clear 30 1008 11 10000 2.87 181 07:34 03.09.2021
6575 Clear 39 1007 7 10000 3.42 164 00:24 03.09.2021
6576 Clear 39 1007 7 10000 3.42 164 00:24 03.09.2021
6577 Clear 38 1008 8 10000 3.5 159 22:43 02.09.2021
6578 Clear 35 1010 13 10000 2.94 161 21:18 02.09.2021
6579 Clear 32 1010 17 10000 2.04 160 19:24 02.09.2021
6580 Clear 28 1010 26 10000 1.74 164 17:22 02.09.2021
6581 Clear 27 1009 30 10000 1.25 148 15:48 02.09.2021
6582 Clear 27 1008 30 10000 1.57 148 13:51 02.09.2021
6583 Clear 29 1006 27 10000 1.89 151 12:21 02.09.2021
6584 Clear 29 1006 27 10000 1.89 151 11:33 02.09.2021
6585 Clear 28 1005 18 10000 2.77 155 09:30 02.09.2021
6586 Clear 29 1004 12 10000 3.04 165 07:45 02.09.2021
6587 Clear 31 1004 13 10000 3.09 162 06:57 02.09.2021
6588 Clear 41 1002 14 10000 4.5 151 02:44 02.09.2021
6589 Clear 41 1001 13 10000 4.37 159 01:53 02.09.2021
6590 Clear 42 1002 14 10000 4.14 156 01:19 02.09.2021
6591 Clear 40 1003 15 10000 3.82 152 23:35 01.09.2021
6592 Clear 43 1004 16 10000 3.73 153 22:34 01.09.2021
6593 Clear 41 1005 17 10000 4.07 155 21:34 01.09.2021
6594 Clouds 39 1006 20 10000 4.92 160 19:59 01.09.2021
6595 Clouds 33 1007 30 10000 4.44 166 17:58 01.09.2021
6596 Clouds 31 1007 30 10000 4.44 166 17:35 01.09.2021
6597 Clouds 31 1006 36 10000 3.75 171 16:46 01.09.2021
6598 Clouds 29 1004 42 10000 2.74 166 15:24 01.09.2021
6599 Clouds 28 1004 41 10000 2.63 126 11:49 01.09.2021
6600 Clouds 29 1003 34 10000 2.43 127 10:55 01.09.2021
6601 Clouds 30 1001 22 10000 4.61 155 08:46 01.09.2021
6602 Clouds 31 1002 23 10000 2.5 151 07:50 01.09.2021
6603 Clouds 41 1001 20 10000 9.2 152 23:43 31.08.2021
6604 Clouds 42 1002 18 10000 9.07 160 22:30 31.08.2021
6605 Clouds 42 1003 19 10000 7.09 164 20:57 31.08.2021
6606 Clouds 41 1005 17 10000 6.01 162 19:44 31.08.2021
6607 Clouds 39 1004 18 10000 4.49 152 18:23 31.08.2021
6608 Clouds 34 1004 18 10000 4.49 152 17:34 31.08.2021
6609 Clouds 36 1004 20 10000 3.3 153 16:52 31.08.2021
6610 Clouds 35 1003 22 10000 2.32 155 16:23 31.08.2021
6611 Clouds 35 1002 20 10000 2.25 139 12:56 31.08.2021
6612 Clear 37 1001 16 10000 2.96 169 11:26 31.08.2021
6613 Clear 31 1001 16 10000 2.96 169 10:49 31.08.2021
6614 Clear 33 1001 15 10000 2.89 173 09:43 31.08.2021
6615 Clear 33 1002 15 10000 2.64 172 08:37 31.08.2021
6616 Clear 38 1001 13 10000 3.52 163 05:58 31.08.2021
6617 Clouds 46 1001 9 10000 4.66 164 00:23 31.08.2021
6618 Clouds 45 1002 9 10000 3.2 160 23:29 30.08.2021
6619 Clear 44 1003 10 10000 2.05 158 21:43 30.08.2021
6620 Clear 43 1004 10 10000 1.46 152 20:42 30.08.2021
6621 Clear 42 1005 12 10000 1.1 150 20:18 30.08.2021
6622 Clear 40 1006 13 10000 0.68 140 19:29 30.08.2021
6623 Clear 41 1006 14 10000 0.29 138 18:29 30.08.2021
6624 Clear 39 1006 14 10000 0.29 138 17:44 30.08.2021
6625 Clear 34 1005 18 10000 0.74 144 16:19 30.08.2021
6626 Clear 34 1005 19 10000 1.19 153 14:51 30.08.2021
6627 Clear 31 1005 16 10000 1.47 166 13:28 30.08.2021
6628 Clear 37 1004 15 10000 1.45 173 12:24 30.08.2021
6629 Clear 34 1004 12 10000 2.21 184 08:27 30.08.2021
6630 Clear 45 1005 11 10000 2.45 162 22:26 29.08.2021
6631 Clear 45 1005 11 10000 2.45 162 21:32 29.08.2021
6632 Clear 45 1007 11 10000 1.98 162 19:33 29.08.2021
6633 Clear 41 1007 12 10000 1.73 164 18:48 29.08.2021
6634 Clear 38 1007 13 10000 1.27 159 17:42 29.08.2021
6635 Clear 35 1007 17 10000 1.17 183 15:47 29.08.2021
6636 Clear 35 1006 17 10000 1.36 179 14:18 29.08.2021
6637 Clear 36 1006 16 10000 1.24 186 13:28 29.08.2021
6638 Clear 36 1006 16 10000 1.24 186 12:31 29.08.2021
6639 Clear 37 1006 16 10000 1.3 193 11:45 29.08.2021
6640